<?xml version="1.0" encoding="UTF-8" standalone="no" ?>
<gpx xmlns="http://www.topografix.com/GPX/1/1" xmlns:xsi="http://www.w3.org/2001/XMLSchema-instance" xsi:schemaLocation="http://www.topografix.com/GPX/1/1 http://www.topografix.com/GPX/1/1/gpx.xsd" version="1.1" creator="VisuGPX - https://www.visugpx.com">
  <metadata>
    <name>83-M-Les Arcs : les Porres / le Pommier  </name>
    <desc><![CDATA[les Arcs sur Argens-
les Porres / le Pommier]]></desc>
  </metadata>
  <trk>
    <name><![CDATA[2011-09-07-01]]></name>
    <trkseg>
      <trkpt lat="43.42994" lon="6.51168">
        <ele>76.825256</ele>
        <time>2011-09-07T11:56:20Z</time>
      </trkpt>
      <trkpt lat="43.42996" lon="6.51168">
        <ele>70</ele>
        <time>2011-09-07T11:56:25Z</time>
      </trkpt>
      <trkpt lat="43.42995" lon="6.51167">
        <ele>70.599998</ele>
        <time>2011-09-07T11:56:28Z</time>
      </trkpt>
      <trkpt lat="43.42998" lon="6.51167">
        <ele>71.300003</ele>
        <time>2011-09-07T11:56:31Z</time>
      </trkpt>
      <trkpt lat="43.42994" lon="6.51166">
        <ele>70.800003</ele>
        <time>2011-09-07T11:56:34Z</time>
      </trkpt>
      <trkpt lat="43.42994" lon="6.51167">
        <ele>70.5</ele>
        <time>2011-09-07T11:56:37Z</time>
      </trkpt>
      <trkpt lat="43.42989" lon="6.51166">
        <ele>70.199997</ele>
        <time>2011-09-07T11:56:40Z</time>
      </trkpt>
      <trkpt lat="43.42988" lon="6.51166">
        <ele>70.099998</ele>
        <time>2011-09-07T11:56:44Z</time>
      </trkpt>
      <trkpt lat="43.42988" lon="6.51165">
        <ele>69.900002</ele>
        <time>2011-09-07T11:56:47Z</time>
      </trkpt>
      <trkpt lat="43.4299" lon="6.51165">
        <ele>69.199997</ele>
        <time>2011-09-07T11:56:50Z</time>
      </trkpt>
      <trkpt lat="43.42989" lon="6.51166">
        <ele>68.599998</ele>
        <time>2011-09-07T11:56:53Z</time>
      </trkpt>
      <trkpt lat="43.42988" lon="6.51168">
        <ele>69.599998</ele>
        <time>2011-09-07T11:56:57Z</time>
      </trkpt>
      <trkpt lat="43.42987" lon="6.51168">
        <ele>71.900002</ele>
        <time>2011-09-07T11:57:02Z</time>
      </trkpt>
      <trkpt lat="43.42989" lon="6.51168">
        <ele>72.300003</ele>
        <time>2011-09-07T11:57:04Z</time>
      </trkpt>
      <trkpt lat="43.42989" lon="6.51167">
        <ele>72</ele>
        <time>2011-09-07T11:57:08Z</time>
      </trkpt>
      <trkpt lat="43.42989" lon="6.51168">
        <ele>71.5</ele>
        <time>2011-09-07T11:57:10Z</time>
      </trkpt>
      <trkpt lat="43.42988" lon="6.5117">
        <ele>70.599998</ele>
        <time>2011-09-07T11:57:14Z</time>
      </trkpt>
      <trkpt lat="43.4299" lon="6.5117">
        <ele>71.099998</ele>
        <time>2011-09-07T11:57:16Z</time>
      </trkpt>
      <trkpt lat="43.42991" lon="6.51171">
        <ele>70.699997</ele>
        <time>2011-09-07T11:57:20Z</time>
      </trkpt>
      <trkpt lat="43.42994" lon="6.51172">
        <ele>70.800003</ele>
        <time>2011-09-07T11:57:28Z</time>
      </trkpt>
      <trkpt lat="43.42995" lon="6.51172">
        <ele>70.900002</ele>
        <time>2011-09-07T11:57:30Z</time>
      </trkpt>
      <trkpt lat="43.42994" lon="6.51172">
        <ele>71.300003</ele>
        <time>2011-09-07T11:57:35Z</time>
      </trkpt>
      <trkpt lat="43.42999" lon="6.51172">
        <ele>71.099998</ele>
        <time>2011-09-07T11:57:43Z</time>
      </trkpt>
      <trkpt lat="43.42998" lon="6.51171">
        <ele>70.800003</ele>
        <time>2011-09-07T11:57:46Z</time>
      </trkpt>
      <trkpt lat="43.42999" lon="6.51171">
        <ele>71.099998</ele>
        <time>2011-09-07T11:57:51Z</time>
      </trkpt>
      <trkpt lat="43.42996" lon="6.5117">
        <ele>71.699997</ele>
        <time>2011-09-07T11:57:57Z</time>
      </trkpt>
      <trkpt lat="43.42994" lon="6.5117">
        <ele>71.900002</ele>
        <time>2011-09-07T11:58:00Z</time>
      </trkpt>
      <trkpt lat="43.42995" lon="6.51172">
        <ele>71.800003</ele>
        <time>2011-09-07T11:58:06Z</time>
      </trkpt>
      <trkpt lat="43.42992" lon="6.51171">
        <ele>71.400002</ele>
        <time>2011-09-07T11:58:12Z</time>
      </trkpt>
      <trkpt lat="43.42989" lon="6.51171">
        <ele>71.400002</ele>
        <time>2011-09-07T11:58:14Z</time>
      </trkpt>
      <trkpt lat="43.42987" lon="6.5117">
        <ele>71.900002</ele>
        <time>2011-09-07T11:58:17Z</time>
      </trkpt>
      <trkpt lat="43.42984" lon="6.5117">
        <ele>72.699997</ele>
        <time>2011-09-07T11:58:22Z</time>
      </trkpt>
      <trkpt lat="43.42981" lon="6.51169">
        <ele>72.900002</ele>
        <time>2011-09-07T11:58:24Z</time>
      </trkpt>
      <trkpt lat="43.4298" lon="6.51169">
        <ele>72.800003</ele>
        <time>2011-09-07T11:58:28Z</time>
      </trkpt>
      <trkpt lat="43.42983" lon="6.51171">
        <ele>72.900002</ele>
        <time>2011-09-07T11:58:32Z</time>
      </trkpt>
      <trkpt lat="43.42985" lon="6.51173">
        <ele>73.300003</ele>
        <time>2011-09-07T11:58:35Z</time>
      </trkpt>
      <trkpt lat="43.42986" lon="6.51175">
        <ele>72.599998</ele>
        <time>2011-09-07T11:58:40Z</time>
      </trkpt>
      <trkpt lat="43.42989" lon="6.51177">
        <ele>72.400002</ele>
        <time>2011-09-07T11:58:44Z</time>
      </trkpt>
      <trkpt lat="43.42991" lon="6.51178">
        <ele>72.199997</ele>
        <time>2011-09-07T11:58:48Z</time>
      </trkpt>
      <trkpt lat="43.42993" lon="6.51178">
        <ele>71.699997</ele>
        <time>2011-09-07T11:58:50Z</time>
      </trkpt>
      <trkpt lat="43.42994" lon="6.51177">
        <ele>72</ele>
        <time>2011-09-07T11:58:55Z</time>
      </trkpt>
      <trkpt lat="43.42995" lon="6.51177">
        <ele>72.300003</ele>
        <time>2011-09-07T11:58:57Z</time>
      </trkpt>
      <trkpt lat="43.42997" lon="6.51176">
        <ele>72.599998</ele>
        <time>2011-09-07T11:59:01Z</time>
      </trkpt>
      <trkpt lat="43.42999" lon="6.51176">
        <ele>72.800003</ele>
        <time>2011-09-07T11:59:06Z</time>
      </trkpt>
      <trkpt lat="43.42999" lon="6.51175">
        <ele>72.400002</ele>
        <time>2011-09-07T11:59:10Z</time>
      </trkpt>
      <trkpt lat="43.42999" lon="6.51174">
        <ele>72.199997</ele>
        <time>2011-09-07T11:59:13Z</time>
      </trkpt>
      <trkpt lat="43.42998" lon="6.51173">
        <ele>72.300003</ele>
        <time>2011-09-07T11:59:20Z</time>
      </trkpt>
      <trkpt lat="43.42995" lon="6.51173">
        <ele>72.5</ele>
        <time>2011-09-07T11:59:23Z</time>
      </trkpt>
      <trkpt lat="43.42994" lon="6.51172">
        <ele>72.199997</ele>
        <time>2011-09-07T11:59:27Z</time>
      </trkpt>
      <trkpt lat="43.42982" lon="6.51171">
        <ele>72.5</ele>
        <time>2011-09-07T11:59:52Z</time>
      </trkpt>
      <trkpt lat="43.42983" lon="6.51172">
        <ele>72</ele>
        <time>2011-09-07T11:59:55Z</time>
      </trkpt>
      <trkpt lat="43.42984" lon="6.51174">
        <ele>71.900002</ele>
        <time>2011-09-07T11:59:59Z</time>
      </trkpt>
      <trkpt lat="43.42985" lon="6.51173">
        <ele>72.199997</ele>
        <time>2011-09-07T12:00:03Z</time>
      </trkpt>
      <trkpt lat="43.42987" lon="6.51173">
        <ele>72.599998</ele>
        <time>2011-09-07T12:00:14Z</time>
      </trkpt>
      <trkpt lat="43.42989" lon="6.51173">
        <ele>72.599998</ele>
        <time>2011-09-07T12:00:16Z</time>
      </trkpt>
      <trkpt lat="43.42992" lon="6.51173">
        <ele>72.599998</ele>
        <time>2011-09-07T12:00:19Z</time>
      </trkpt>
      <trkpt lat="43.42994" lon="6.51173">
        <ele>72.300003</ele>
        <time>2011-09-07T12:00:24Z</time>
      </trkpt>
      <trkpt lat="43.42992" lon="6.51172">
        <ele>71.599998</ele>
        <time>2011-09-07T12:00:33Z</time>
      </trkpt>
      <trkpt lat="43.42992" lon="6.51172">
        <ele>71.300003</ele>
        <time>2011-09-07T12:00:37Z</time>
      </trkpt>
      <trkpt lat="43.42994" lon="6.51172">
        <ele>70.900002</ele>
        <time>2011-09-07T12:00:40Z</time>
      </trkpt>
      <trkpt lat="43.42994" lon="6.51173">
        <ele>71.099998</ele>
        <time>2011-09-07T12:00:45Z</time>
      </trkpt>
      <trkpt lat="43.42995" lon="6.51174">
        <ele>71.300003</ele>
        <time>2011-09-07T12:00:50Z</time>
      </trkpt>
      <trkpt lat="43.42996" lon="6.51174">
        <ele>71.699997</ele>
        <time>2011-09-07T12:00:54Z</time>
      </trkpt>
      <trkpt lat="43.42995" lon="6.51174">
        <ele>72.599998</ele>
        <time>2011-09-07T12:00:59Z</time>
      </trkpt>
      <trkpt lat="43.42994" lon="6.51174">
        <ele>72.400002</ele>
        <time>2011-09-07T12:01:02Z</time>
      </trkpt>
      <trkpt lat="43.42991" lon="6.51173">
        <ele>71.599998</ele>
        <time>2011-09-07T12:01:09Z</time>
      </trkpt>
      <trkpt lat="43.42988" lon="6.51173">
        <ele>71.599998</ele>
        <time>2011-09-07T12:01:15Z</time>
      </trkpt>
      <trkpt lat="43.42988" lon="6.51173">
        <ele>72.5</ele>
        <time>2011-09-07T12:01:23Z</time>
      </trkpt>
      <trkpt lat="43.42989" lon="6.51174">
        <ele>73</ele>
        <time>2011-09-07T12:01:25Z</time>
      </trkpt>
      <trkpt lat="43.42993" lon="6.51175">
        <ele>72.300003</ele>
        <time>2011-09-07T12:01:31Z</time>
      </trkpt>
      <trkpt lat="43.42998" lon="6.51175">
        <ele>71.900002</ele>
        <time>2011-09-07T12:01:35Z</time>
      </trkpt>
      <trkpt lat="43.43001" lon="6.51174">
        <ele>71.800003</ele>
        <time>2011-09-07T12:01:38Z</time>
      </trkpt>
      <trkpt lat="43.43003" lon="6.51175">
        <ele>71.800003</ele>
        <time>2011-09-07T12:01:45Z</time>
      </trkpt>
      <trkpt lat="43.43003" lon="6.51174">
        <ele>72.199997</ele>
        <time>2011-09-07T12:01:49Z</time>
      </trkpt>
      <trkpt lat="43.43003" lon="6.51175">
        <ele>73.099998</ele>
        <time>2011-09-07T12:01:55Z</time>
      </trkpt>
      <trkpt lat="43.43002" lon="6.51177">
        <ele>73.099998</ele>
        <time>2011-09-07T12:01:57Z</time>
      </trkpt>
      <trkpt lat="43.43008" lon="6.51181">
        <ele>72.900002</ele>
        <time>2011-09-07T12:02:03Z</time>
      </trkpt>
      <trkpt lat="43.43007" lon="6.51183">
        <ele>72.800003</ele>
        <time>2011-09-07T12:02:05Z</time>
      </trkpt>
      <trkpt lat="43.43007" lon="6.51187">
        <ele>72.400002</ele>
        <time>2011-09-07T12:02:09Z</time>
      </trkpt>
      <trkpt lat="43.43007" lon="6.51189">
        <ele>72.300003</ele>
        <time>2011-09-07T12:02:12Z</time>
      </trkpt>
      <trkpt lat="43.43004" lon="6.5119">
        <ele>72.5</ele>
        <time>2011-09-07T12:02:14Z</time>
      </trkpt>
      <trkpt lat="43.43001" lon="6.51193">
        <ele>72.900002</ele>
        <time>2011-09-07T12:02:17Z</time>
      </trkpt>
      <trkpt lat="43.42999" lon="6.51195">
        <ele>72.900002</ele>
        <time>2011-09-07T12:02:19Z</time>
      </trkpt>
      <trkpt lat="43.42998" lon="6.51197">
        <ele>72.699997</ele>
        <time>2011-09-07T12:02:23Z</time>
      </trkpt>
      <trkpt lat="43.42994" lon="6.512">
        <ele>72.699997</ele>
        <time>2011-09-07T12:02:27Z</time>
      </trkpt>
      <trkpt lat="43.42991" lon="6.51204">
        <ele>72.699997</ele>
        <time>2011-09-07T12:02:31Z</time>
      </trkpt>
      <trkpt lat="43.42989" lon="6.51207">
        <ele>72.599998</ele>
        <time>2011-09-07T12:02:33Z</time>
      </trkpt>
      <trkpt lat="43.42987" lon="6.51212">
        <ele>72.400002</ele>
        <time>2011-09-07T12:02:37Z</time>
      </trkpt>
      <trkpt lat="43.42984" lon="6.51213">
        <ele>72</ele>
        <time>2011-09-07T12:02:39Z</time>
      </trkpt>
      <trkpt lat="43.42981" lon="6.51217">
        <ele>72.599998</ele>
        <time>2011-09-07T12:02:43Z</time>
      </trkpt>
      <trkpt lat="43.42982" lon="6.5122">
        <ele>73.099998</ele>
        <time>2011-09-07T12:02:46Z</time>
      </trkpt>
      <trkpt lat="43.42981" lon="6.51223">
        <ele>73.199997</ele>
        <time>2011-09-07T12:02:48Z</time>
      </trkpt>
      <trkpt lat="43.42978" lon="6.51225">
        <ele>72.599998</ele>
        <time>2011-09-07T12:02:50Z</time>
      </trkpt>
      <trkpt lat="43.42976" lon="6.51229">
        <ele>71.900002</ele>
        <time>2011-09-07T12:02:53Z</time>
      </trkpt>
      <trkpt lat="43.42975" lon="6.5123">
        <ele>71.900002</ele>
        <time>2011-09-07T12:02:55Z</time>
      </trkpt>
      <trkpt lat="43.42973" lon="6.51234">
        <ele>72.099998</ele>
        <time>2011-09-07T12:02:58Z</time>
      </trkpt>
      <trkpt lat="43.42973" lon="6.51238">
        <ele>72.800003</ele>
        <time>2011-09-07T12:03:01Z</time>
      </trkpt>
      <trkpt lat="43.42972" lon="6.51243">
        <ele>73</ele>
        <time>2011-09-07T12:03:04Z</time>
      </trkpt>
      <trkpt lat="43.42971" lon="6.51246">
        <ele>72.900002</ele>
        <time>2011-09-07T12:03:06Z</time>
      </trkpt>
      <trkpt lat="43.42971" lon="6.51249">
        <ele>72.800003</ele>
        <time>2011-09-07T12:03:08Z</time>
      </trkpt>
      <trkpt lat="43.42969" lon="6.51252">
        <ele>72.5</ele>
        <time>2011-09-07T12:03:10Z</time>
      </trkpt>
      <trkpt lat="43.42971" lon="6.51259">
        <ele>72.199997</ele>
        <time>2011-09-07T12:03:14Z</time>
      </trkpt>
      <trkpt lat="43.4297" lon="6.51262">
        <ele>72.599998</ele>
        <time>2011-09-07T12:03:16Z</time>
      </trkpt>
      <trkpt lat="43.42968" lon="6.51266">
        <ele>72.699997</ele>
        <time>2011-09-07T12:03:19Z</time>
      </trkpt>
      <trkpt lat="43.42967" lon="6.51274">
        <ele>72.199997</ele>
        <time>2011-09-07T12:03:24Z</time>
      </trkpt>
      <trkpt lat="43.42964" lon="6.51282">
        <ele>73</ele>
        <time>2011-09-07T12:03:29Z</time>
      </trkpt>
      <trkpt lat="43.42959" lon="6.51289">
        <ele>72.400002</ele>
        <time>2011-09-07T12:03:34Z</time>
      </trkpt>
      <trkpt lat="43.42956" lon="6.51295">
        <ele>72.099998</ele>
        <time>2011-09-07T12:03:38Z</time>
      </trkpt>
      <trkpt lat="43.42956" lon="6.51298">
        <ele>71.800003</ele>
        <time>2011-09-07T12:03:40Z</time>
      </trkpt>
      <trkpt lat="43.42956" lon="6.51301">
        <ele>72.199997</ele>
        <time>2011-09-07T12:03:42Z</time>
      </trkpt>
      <trkpt lat="43.42956" lon="6.51305">
        <ele>72.599998</ele>
        <time>2011-09-07T12:03:45Z</time>
      </trkpt>
      <trkpt lat="43.42956" lon="6.51308">
        <ele>72.400002</ele>
        <time>2011-09-07T12:03:47Z</time>
      </trkpt>
      <trkpt lat="43.42954" lon="6.51315">
        <ele>72.400002</ele>
        <time>2011-09-07T12:03:52Z</time>
      </trkpt>
      <trkpt lat="43.42952" lon="6.51319">
        <ele>72</ele>
        <time>2011-09-07T12:03:55Z</time>
      </trkpt>
      <trkpt lat="43.42951" lon="6.51321">
        <ele>71.800003</ele>
        <time>2011-09-07T12:03:57Z</time>
      </trkpt>
      <trkpt lat="43.42951" lon="6.51325">
        <ele>71.699997</ele>
        <time>2011-09-07T12:04:00Z</time>
      </trkpt>
      <trkpt lat="43.42951" lon="6.5133">
        <ele>71.400002</ele>
        <time>2011-09-07T12:04:04Z</time>
      </trkpt>
      <trkpt lat="43.42949" lon="6.51335">
        <ele>71</ele>
        <time>2011-09-07T12:04:08Z</time>
      </trkpt>
      <trkpt lat="43.42946" lon="6.51339">
        <ele>71.099998</ele>
        <time>2011-09-07T12:04:11Z</time>
      </trkpt>
      <trkpt lat="43.42944" lon="6.51342">
        <ele>70.699997</ele>
        <time>2011-09-07T12:04:13Z</time>
      </trkpt>
      <trkpt lat="43.42941" lon="6.51346">
        <ele>71.199997</ele>
        <time>2011-09-07T12:04:16Z</time>
      </trkpt>
      <trkpt lat="43.42939" lon="6.5135">
        <ele>71.199997</ele>
        <time>2011-09-07T12:04:19Z</time>
      </trkpt>
      <trkpt lat="43.42937" lon="6.51355">
        <ele>71.400002</ele>
        <time>2011-09-07T12:04:22Z</time>
      </trkpt>
      <trkpt lat="43.42936" lon="6.5136">
        <ele>71.800003</ele>
        <time>2011-09-07T12:04:25Z</time>
      </trkpt>
      <trkpt lat="43.42935" lon="6.51364">
        <ele>71.400002</ele>
        <time>2011-09-07T12:04:28Z</time>
      </trkpt>
      <trkpt lat="43.42937" lon="6.51371">
        <ele>70.699997</ele>
        <time>2011-09-07T12:04:32Z</time>
      </trkpt>
      <trkpt lat="43.42939" lon="6.51374">
        <ele>70.900002</ele>
        <time>2011-09-07T12:04:34Z</time>
      </trkpt>
      <trkpt lat="43.42939" lon="6.51377">
        <ele>70.400002</ele>
        <time>2011-09-07T12:04:36Z</time>
      </trkpt>
      <trkpt lat="43.42942" lon="6.51381">
        <ele>70.199997</ele>
        <time>2011-09-07T12:04:38Z</time>
      </trkpt>
      <trkpt lat="43.42942" lon="6.51391">
        <ele>70.5</ele>
        <time>2011-09-07T12:04:45Z</time>
      </trkpt>
      <trkpt lat="43.4294" lon="6.51394">
        <ele>70.699997</ele>
        <time>2011-09-07T12:04:47Z</time>
      </trkpt>
      <trkpt lat="43.42938" lon="6.51398">
        <ele>71.099998</ele>
        <time>2011-09-07T12:04:50Z</time>
      </trkpt>
      <trkpt lat="43.42935" lon="6.51401">
        <ele>70.900002</ele>
        <time>2011-09-07T12:04:52Z</time>
      </trkpt>
      <trkpt lat="43.42934" lon="6.51402">
        <ele>70.900002</ele>
        <time>2011-09-07T12:04:53Z</time>
      </trkpt>
      <trkpt lat="43.42933" lon="6.51407">
        <ele>71.5</ele>
        <time>2011-09-07T12:04:56Z</time>
      </trkpt>
      <trkpt lat="43.42928" lon="6.51412">
        <ele>71.199997</ele>
        <time>2011-09-07T12:05:00Z</time>
      </trkpt>
      <trkpt lat="43.42921" lon="6.51415">
        <ele>70.699997</ele>
        <time>2011-09-07T12:05:03Z</time>
      </trkpt>
      <trkpt lat="43.4292" lon="6.51416">
        <ele>70.699997</ele>
        <time>2011-09-07T12:05:04Z</time>
      </trkpt>
      <trkpt lat="43.42918" lon="6.51419">
        <ele>70.099998</ele>
        <time>2011-09-07T12:05:06Z</time>
      </trkpt>
      <trkpt lat="43.42918" lon="6.51421">
        <ele>70.5</ele>
        <time>2011-09-07T12:05:08Z</time>
      </trkpt>
      <trkpt lat="43.42915" lon="6.51424">
        <ele>71</ele>
        <time>2011-09-07T12:05:10Z</time>
      </trkpt>
      <trkpt lat="43.4291" lon="6.51426">
        <ele>71</ele>
        <time>2011-09-07T12:05:12Z</time>
      </trkpt>
      <trkpt lat="43.42907" lon="6.51427">
        <ele>70.699997</ele>
        <time>2011-09-07T12:05:14Z</time>
      </trkpt>
      <trkpt lat="43.42905" lon="6.51429">
        <ele>71.199997</ele>
        <time>2011-09-07T12:05:17Z</time>
      </trkpt>
      <trkpt lat="43.42907" lon="6.51433">
        <ele>71.5</ele>
        <time>2011-09-07T12:05:20Z</time>
      </trkpt>
      <trkpt lat="43.42918" lon="6.51442">
        <ele>71.199997</ele>
        <time>2011-09-07T12:05:26Z</time>
      </trkpt>
      <trkpt lat="43.42918" lon="6.51446">
        <ele>70.699997</ele>
        <time>2011-09-07T12:05:28Z</time>
      </trkpt>
      <trkpt lat="43.42918" lon="6.51451">
        <ele>70.800003</ele>
        <time>2011-09-07T12:05:31Z</time>
      </trkpt>
      <trkpt lat="43.42919" lon="6.51455">
        <ele>70.599998</ele>
        <time>2011-09-07T12:05:34Z</time>
      </trkpt>
      <trkpt lat="43.4292" lon="6.51458">
        <ele>70.400002</ele>
        <time>2011-09-07T12:05:36Z</time>
      </trkpt>
      <trkpt lat="43.42918" lon="6.51462">
        <ele>70.400002</ele>
        <time>2011-09-07T12:05:39Z</time>
      </trkpt>
      <trkpt lat="43.4292" lon="6.51465">
        <ele>70.400002</ele>
        <time>2011-09-07T12:05:41Z</time>
      </trkpt>
      <trkpt lat="43.4292" lon="6.5147">
        <ele>70.099998</ele>
        <time>2011-09-07T12:05:44Z</time>
      </trkpt>
      <trkpt lat="43.42919" lon="6.51473">
        <ele>69.699997</ele>
        <time>2011-09-07T12:05:46Z</time>
      </trkpt>
      <trkpt lat="43.42918" lon="6.51476">
        <ele>70</ele>
        <time>2011-09-07T12:05:49Z</time>
      </trkpt>
      <trkpt lat="43.42917" lon="6.5148">
        <ele>69.900002</ele>
        <time>2011-09-07T12:05:51Z</time>
      </trkpt>
      <trkpt lat="43.4292" lon="6.51486">
        <ele>69.699997</ele>
        <time>2011-09-07T12:05:54Z</time>
      </trkpt>
      <trkpt lat="43.42921" lon="6.51491">
        <ele>69.699997</ele>
        <time>2011-09-07T12:05:57Z</time>
      </trkpt>
      <trkpt lat="43.4292" lon="6.51497">
        <ele>69.099998</ele>
        <time>2011-09-07T12:06:00Z</time>
      </trkpt>
      <trkpt lat="43.42922" lon="6.515">
        <ele>69</ele>
        <time>2011-09-07T12:06:02Z</time>
      </trkpt>
      <trkpt lat="43.42924" lon="6.51506">
        <ele>69.300003</ele>
        <time>2011-09-07T12:06:05Z</time>
      </trkpt>
      <trkpt lat="43.42924" lon="6.5151">
        <ele>69.300003</ele>
        <time>2011-09-07T12:06:08Z</time>
      </trkpt>
      <trkpt lat="43.42925" lon="6.51514">
        <ele>68.900002</ele>
        <time>2011-09-07T12:06:11Z</time>
      </trkpt>
      <trkpt lat="43.42926" lon="6.51517">
        <ele>68.400002</ele>
        <time>2011-09-07T12:06:13Z</time>
      </trkpt>
      <trkpt lat="43.42926" lon="6.51521">
        <ele>68.599998</ele>
        <time>2011-09-07T12:06:16Z</time>
      </trkpt>
      <trkpt lat="43.42928" lon="6.51524">
        <ele>68.800003</ele>
        <time>2011-09-07T12:06:18Z</time>
      </trkpt>
      <trkpt lat="43.42927" lon="6.51529">
        <ele>68.300003</ele>
        <time>2011-09-07T12:06:22Z</time>
      </trkpt>
      <trkpt lat="43.42926" lon="6.51532">
        <ele>67.900002</ele>
        <time>2011-09-07T12:06:25Z</time>
      </trkpt>
      <trkpt lat="43.42924" lon="6.51535">
        <ele>67.699997</ele>
        <time>2011-09-07T12:06:27Z</time>
      </trkpt>
      <trkpt lat="43.42923" lon="6.51541">
        <ele>67.5</ele>
        <time>2011-09-07T12:06:30Z</time>
      </trkpt>
      <trkpt lat="43.4292" lon="6.51544">
        <ele>67.5</ele>
        <time>2011-09-07T12:06:32Z</time>
      </trkpt>
      <trkpt lat="43.42917" lon="6.51548">
        <ele>67.400002</ele>
        <time>2011-09-07T12:06:35Z</time>
      </trkpt>
      <trkpt lat="43.42909" lon="6.51558">
        <ele>67.099998</ele>
        <time>2011-09-07T12:06:43Z</time>
      </trkpt>
      <trkpt lat="43.42909" lon="6.51561">
        <ele>67</ele>
        <time>2011-09-07T12:06:46Z</time>
      </trkpt>
      <trkpt lat="43.42907" lon="6.51563">
        <ele>66.900002</ele>
        <time>2011-09-07T12:06:48Z</time>
      </trkpt>
      <trkpt lat="43.42903" lon="6.51568">
        <ele>67</ele>
        <time>2011-09-07T12:06:51Z</time>
      </trkpt>
      <trkpt lat="43.42902" lon="6.51571">
        <ele>66.599998</ele>
        <time>2011-09-07T12:06:53Z</time>
      </trkpt>
      <trkpt lat="43.429" lon="6.51573">
        <ele>66.400002</ele>
        <time>2011-09-07T12:06:55Z</time>
      </trkpt>
      <trkpt lat="43.42898" lon="6.51576">
        <ele>66.400002</ele>
        <time>2011-09-07T12:06:57Z</time>
      </trkpt>
      <trkpt lat="43.42895" lon="6.51578">
        <ele>66.300003</ele>
        <time>2011-09-07T12:06:59Z</time>
      </trkpt>
      <trkpt lat="43.42892" lon="6.51582">
        <ele>66.199997</ele>
        <time>2011-09-07T12:07:02Z</time>
      </trkpt>
      <trkpt lat="43.42888" lon="6.51587">
        <ele>66.099998</ele>
        <time>2011-09-07T12:07:06Z</time>
      </trkpt>
      <trkpt lat="43.42891" lon="6.51591">
        <ele>66.199997</ele>
        <time>2011-09-07T12:07:09Z</time>
      </trkpt>
      <trkpt lat="43.4289" lon="6.51593">
        <ele>66.400002</ele>
        <time>2011-09-07T12:07:11Z</time>
      </trkpt>
      <trkpt lat="43.42891" lon="6.51597">
        <ele>66.699997</ele>
        <time>2011-09-07T12:07:14Z</time>
      </trkpt>
      <trkpt lat="43.42891" lon="6.51601">
        <ele>67</ele>
        <time>2011-09-07T12:07:17Z</time>
      </trkpt>
      <trkpt lat="43.42893" lon="6.51604">
        <ele>66.599998</ele>
        <time>2011-09-07T12:07:19Z</time>
      </trkpt>
      <trkpt lat="43.42891" lon="6.51607">
        <ele>66.5</ele>
        <time>2011-09-07T12:07:21Z</time>
      </trkpt>
      <trkpt lat="43.42889" lon="6.51609">
        <ele>66.599998</ele>
        <time>2011-09-07T12:07:23Z</time>
      </trkpt>
      <trkpt lat="43.42884" lon="6.51613">
        <ele>65.900002</ele>
        <time>2011-09-07T12:07:26Z</time>
      </trkpt>
      <trkpt lat="43.42882" lon="6.51614">
        <ele>65.699997</ele>
        <time>2011-09-07T12:07:27Z</time>
      </trkpt>
      <trkpt lat="43.42881" lon="6.51616">
        <ele>65.5</ele>
        <time>2011-09-07T12:07:29Z</time>
      </trkpt>
      <trkpt lat="43.42879" lon="6.51619">
        <ele>65.300003</ele>
        <time>2011-09-07T12:07:31Z</time>
      </trkpt>
      <trkpt lat="43.42877" lon="6.51622">
        <ele>65.400002</ele>
        <time>2011-09-07T12:07:33Z</time>
      </trkpt>
      <trkpt lat="43.42875" lon="6.51623">
        <ele>65.400002</ele>
        <time>2011-09-07T12:07:34Z</time>
      </trkpt>
      <trkpt lat="43.42872" lon="6.51625">
        <ele>65.5</ele>
        <time>2011-09-07T12:07:36Z</time>
      </trkpt>
      <trkpt lat="43.42871" lon="6.51628">
        <ele>65.800003</ele>
        <time>2011-09-07T12:07:39Z</time>
      </trkpt>
      <trkpt lat="43.42871" lon="6.51631">
        <ele>65.699997</ele>
        <time>2011-09-07T12:07:41Z</time>
      </trkpt>
      <trkpt lat="43.42871" lon="6.51636">
        <ele>64.900002</ele>
        <time>2011-09-07T12:07:44Z</time>
      </trkpt>
      <trkpt lat="43.4287" lon="6.51639">
        <ele>64.800003</ele>
        <time>2011-09-07T12:07:46Z</time>
      </trkpt>
      <trkpt lat="43.42869" lon="6.51642">
        <ele>64.300003</ele>
        <time>2011-09-07T12:07:49Z</time>
      </trkpt>
      <trkpt lat="43.42868" lon="6.51644">
        <ele>64.199997</ele>
        <time>2011-09-07T12:07:51Z</time>
      </trkpt>
      <trkpt lat="43.42867" lon="6.51649">
        <ele>63.299999</ele>
        <time>2011-09-07T12:07:55Z</time>
      </trkpt>
      <trkpt lat="43.42868" lon="6.51653">
        <ele>63.5</ele>
        <time>2011-09-07T12:07:57Z</time>
      </trkpt>
      <trkpt lat="43.4287" lon="6.51656">
        <ele>63.400002</ele>
        <time>2011-09-07T12:07:59Z</time>
      </trkpt>
      <trkpt lat="43.42872" lon="6.51657">
        <ele>63.400002</ele>
        <time>2011-09-07T12:08:00Z</time>
      </trkpt>
      <trkpt lat="43.42873" lon="6.51661">
        <ele>63.799999</ele>
        <time>2011-09-07T12:08:03Z</time>
      </trkpt>
      <trkpt lat="43.42872" lon="6.51663">
        <ele>63.700001</ele>
        <time>2011-09-07T12:08:04Z</time>
      </trkpt>
      <trkpt lat="43.4287" lon="6.51666">
        <ele>64.099998</ele>
        <time>2011-09-07T12:08:06Z</time>
      </trkpt>
      <trkpt lat="43.42871" lon="6.51672">
        <ele>64.099998</ele>
        <time>2011-09-07T12:08:10Z</time>
      </trkpt>
      <trkpt lat="43.42871" lon="6.51675">
        <ele>64.099998</ele>
        <time>2011-09-07T12:08:12Z</time>
      </trkpt>
      <trkpt lat="43.42869" lon="6.51676">
        <ele>64.300003</ele>
        <time>2011-09-07T12:08:13Z</time>
      </trkpt>
      <trkpt lat="43.42869" lon="6.51679">
        <ele>64</ele>
        <time>2011-09-07T12:08:17Z</time>
      </trkpt>
      <trkpt lat="43.42871" lon="6.51682">
        <ele>64.199997</ele>
        <time>2011-09-07T12:08:19Z</time>
      </trkpt>
      <trkpt lat="43.42869" lon="6.51684">
        <ele>63.799999</ele>
        <time>2011-09-07T12:08:21Z</time>
      </trkpt>
      <trkpt lat="43.42868" lon="6.51688">
        <ele>64</ele>
        <time>2011-09-07T12:08:24Z</time>
      </trkpt>
      <trkpt lat="43.42868" lon="6.51691">
        <ele>64.099998</ele>
        <time>2011-09-07T12:08:28Z</time>
      </trkpt>
      <trkpt lat="43.42869" lon="6.51695">
        <ele>64.099998</ele>
        <time>2011-09-07T12:08:31Z</time>
      </trkpt>
      <trkpt lat="43.4287" lon="6.51696">
        <ele>64.199997</ele>
        <time>2011-09-07T12:08:32Z</time>
      </trkpt>
      <trkpt lat="43.42872" lon="6.517">
        <ele>64.199997</ele>
        <time>2011-09-07T12:08:35Z</time>
      </trkpt>
      <trkpt lat="43.42873" lon="6.51704">
        <ele>63.900002</ele>
        <time>2011-09-07T12:08:38Z</time>
      </trkpt>
      <trkpt lat="43.42875" lon="6.51709">
        <ele>64</ele>
        <time>2011-09-07T12:08:41Z</time>
      </trkpt>
      <trkpt lat="43.42879" lon="6.51716">
        <ele>63.5</ele>
        <time>2011-09-07T12:08:46Z</time>
      </trkpt>
      <trkpt lat="43.42881" lon="6.51719">
        <ele>63.5</ele>
        <time>2011-09-07T12:08:48Z</time>
      </trkpt>
      <trkpt lat="43.42884" lon="6.51727">
        <ele>63</ele>
        <time>2011-09-07T12:08:53Z</time>
      </trkpt>
      <trkpt lat="43.42887" lon="6.51737">
        <ele>62.400002</ele>
        <time>2011-09-07T12:08:59Z</time>
      </trkpt>
      <trkpt lat="43.42893" lon="6.5175">
        <ele>62.599998</ele>
        <time>2011-09-07T12:09:06Z</time>
      </trkpt>
      <trkpt lat="43.42895" lon="6.51753">
        <ele>62.599998</ele>
        <time>2011-09-07T12:09:08Z</time>
      </trkpt>
      <trkpt lat="43.42895" lon="6.51756">
        <ele>62.900002</ele>
        <time>2011-09-07T12:09:10Z</time>
      </trkpt>
      <trkpt lat="43.42897" lon="6.51762">
        <ele>63.200001</ele>
        <time>2011-09-07T12:09:14Z</time>
      </trkpt>
      <trkpt lat="43.42899" lon="6.51767">
        <ele>63</ele>
        <time>2011-09-07T12:09:17Z</time>
      </trkpt>
      <trkpt lat="43.42899" lon="6.5177">
        <ele>62.900002</ele>
        <time>2011-09-07T12:09:19Z</time>
      </trkpt>
      <trkpt lat="43.42899" lon="6.51776">
        <ele>62.599998</ele>
        <time>2011-09-07T12:09:22Z</time>
      </trkpt>
      <trkpt lat="43.42902" lon="6.51788">
        <ele>62.599998</ele>
        <time>2011-09-07T12:09:28Z</time>
      </trkpt>
      <trkpt lat="43.42903" lon="6.51796">
        <ele>62.299999</ele>
        <time>2011-09-07T12:09:33Z</time>
      </trkpt>
      <trkpt lat="43.42902" lon="6.51801">
        <ele>62.5</ele>
        <time>2011-09-07T12:09:36Z</time>
      </trkpt>
      <trkpt lat="43.42902" lon="6.5181">
        <ele>62.299999</ele>
        <time>2011-09-07T12:09:40Z</time>
      </trkpt>
      <trkpt lat="43.42901" lon="6.51813">
        <ele>62.400002</ele>
        <time>2011-09-07T12:09:42Z</time>
      </trkpt>
      <trkpt lat="43.42901" lon="6.51817">
        <ele>62.400002</ele>
        <time>2011-09-07T12:09:44Z</time>
      </trkpt>
      <trkpt lat="43.42902" lon="6.51821">
        <ele>62.299999</ele>
        <time>2011-09-07T12:09:46Z</time>
      </trkpt>
      <trkpt lat="43.42903" lon="6.51828">
        <ele>61.900002</ele>
        <time>2011-09-07T12:09:50Z</time>
      </trkpt>
      <trkpt lat="43.42903" lon="6.51833">
        <ele>61.700001</ele>
        <time>2011-09-07T12:09:53Z</time>
      </trkpt>
      <trkpt lat="43.42904" lon="6.51839">
        <ele>61.700001</ele>
        <time>2011-09-07T12:09:56Z</time>
      </trkpt>
      <trkpt lat="43.42902" lon="6.51846">
        <ele>62</ele>
        <time>2011-09-07T12:10:00Z</time>
      </trkpt>
      <trkpt lat="43.42901" lon="6.51849">
        <ele>61.700001</ele>
        <time>2011-09-07T12:10:02Z</time>
      </trkpt>
      <trkpt lat="43.42901" lon="6.51853">
        <ele>61.099998</ele>
        <time>2011-09-07T12:10:04Z</time>
      </trkpt>
      <trkpt lat="43.42902" lon="6.5186">
        <ele>62.099998</ele>
        <time>2011-09-07T12:10:08Z</time>
      </trkpt>
      <trkpt lat="43.42903" lon="6.51862">
        <ele>62</ele>
        <time>2011-09-07T12:10:09Z</time>
      </trkpt>
      <trkpt lat="43.42905" lon="6.51869">
        <ele>62.5</ele>
        <time>2011-09-07T12:10:13Z</time>
      </trkpt>
      <trkpt lat="43.42904" lon="6.51872">
        <ele>62</ele>
        <time>2011-09-07T12:10:15Z</time>
      </trkpt>
      <trkpt lat="43.42899" lon="6.51875">
        <ele>61.400002</ele>
        <time>2011-09-07T12:10:18Z</time>
      </trkpt>
      <trkpt lat="43.42899" lon="6.5188">
        <ele>61.099998</ele>
        <time>2011-09-07T12:10:21Z</time>
      </trkpt>
      <trkpt lat="43.429" lon="6.51885">
        <ele>60.900002</ele>
        <time>2011-09-07T12:10:24Z</time>
      </trkpt>
      <trkpt lat="43.42901" lon="6.51889">
        <ele>61</ele>
        <time>2011-09-07T12:10:26Z</time>
      </trkpt>
      <trkpt lat="43.429" lon="6.51892">
        <ele>61.099998</ele>
        <time>2011-09-07T12:10:28Z</time>
      </trkpt>
      <trkpt lat="43.42899" lon="6.51897">
        <ele>60.5</ele>
        <time>2011-09-07T12:10:31Z</time>
      </trkpt>
      <trkpt lat="43.42898" lon="6.51899">
        <ele>60.400002</ele>
        <time>2011-09-07T12:10:33Z</time>
      </trkpt>
      <trkpt lat="43.42899" lon="6.51906">
        <ele>60.400002</ele>
        <time>2011-09-07T12:10:37Z</time>
      </trkpt>
      <trkpt lat="43.429" lon="6.51909">
        <ele>60.400002</ele>
        <time>2011-09-07T12:10:39Z</time>
      </trkpt>
      <trkpt lat="43.42909" lon="6.51926">
        <ele>60.200001</ele>
        <time>2011-09-07T12:10:49Z</time>
      </trkpt>
      <trkpt lat="43.42909" lon="6.51931">
        <ele>60.099998</ele>
        <time>2011-09-07T12:10:52Z</time>
      </trkpt>
      <trkpt lat="43.42908" lon="6.51934">
        <ele>59.700001</ele>
        <time>2011-09-07T12:10:55Z</time>
      </trkpt>
      <trkpt lat="43.42908" lon="6.51937">
        <ele>59.400002</ele>
        <time>2011-09-07T12:10:57Z</time>
      </trkpt>
      <trkpt lat="43.42907" lon="6.51942">
        <ele>59.400002</ele>
        <time>2011-09-07T12:11:01Z</time>
      </trkpt>
      <trkpt lat="43.42908" lon="6.51945">
        <ele>59.400002</ele>
        <time>2011-09-07T12:11:03Z</time>
      </trkpt>
      <trkpt lat="43.42908" lon="6.51949">
        <ele>58.900002</ele>
        <time>2011-09-07T12:11:06Z</time>
      </trkpt>
      <trkpt lat="43.42908" lon="6.51954">
        <ele>58.700001</ele>
        <time>2011-09-07T12:11:10Z</time>
      </trkpt>
      <trkpt lat="43.4291" lon="6.51958">
        <ele>58.900002</ele>
        <time>2011-09-07T12:11:13Z</time>
      </trkpt>
      <trkpt lat="43.42911" lon="6.51961">
        <ele>59</ele>
        <time>2011-09-07T12:11:15Z</time>
      </trkpt>
      <trkpt lat="43.42913" lon="6.51964">
        <ele>58.599998</ele>
        <time>2011-09-07T12:11:18Z</time>
      </trkpt>
      <trkpt lat="43.42917" lon="6.51969">
        <ele>58.599998</ele>
        <time>2011-09-07T12:11:21Z</time>
      </trkpt>
      <trkpt lat="43.42923" lon="6.51976">
        <ele>58.200001</ele>
        <time>2011-09-07T12:11:26Z</time>
      </trkpt>
      <trkpt lat="43.42923" lon="6.5198">
        <ele>57.900002</ele>
        <time>2011-09-07T12:11:29Z</time>
      </trkpt>
      <trkpt lat="43.42925" lon="6.51983">
        <ele>57.799999</ele>
        <time>2011-09-07T12:11:31Z</time>
      </trkpt>
      <trkpt lat="43.42926" lon="6.51987">
        <ele>57.400002</ele>
        <time>2011-09-07T12:11:33Z</time>
      </trkpt>
      <trkpt lat="43.42926" lon="6.51992">
        <ele>56.700001</ele>
        <time>2011-09-07T12:11:36Z</time>
      </trkpt>
      <trkpt lat="43.42928" lon="6.51995">
        <ele>56.200001</ele>
        <time>2011-09-07T12:11:38Z</time>
      </trkpt>
      <trkpt lat="43.42934" lon="6.52003">
        <ele>56.299999</ele>
        <time>2011-09-07T12:11:43Z</time>
      </trkpt>
      <trkpt lat="43.42936" lon="6.52007">
        <ele>56.400002</ele>
        <time>2011-09-07T12:11:45Z</time>
      </trkpt>
      <trkpt lat="43.42938" lon="6.5201">
        <ele>56.5</ele>
        <time>2011-09-07T12:11:47Z</time>
      </trkpt>
      <trkpt lat="43.4294" lon="6.52011">
        <ele>56.5</ele>
        <time>2011-09-07T12:11:48Z</time>
      </trkpt>
      <trkpt lat="43.42951" lon="6.52019">
        <ele>57.099998</ele>
        <time>2011-09-07T12:11:53Z</time>
      </trkpt>
      <trkpt lat="43.42963" lon="6.52033">
        <ele>56.700001</ele>
        <time>2011-09-07T12:12:00Z</time>
      </trkpt>
      <trkpt lat="43.42964" lon="6.52036">
        <ele>56.5</ele>
        <time>2011-09-07T12:12:02Z</time>
      </trkpt>
      <trkpt lat="43.42964" lon="6.52039">
        <ele>56.700001</ele>
        <time>2011-09-07T12:12:04Z</time>
      </trkpt>
      <trkpt lat="43.42966" lon="6.52043">
        <ele>56.5</ele>
        <time>2011-09-07T12:12:06Z</time>
      </trkpt>
      <trkpt lat="43.42963" lon="6.5205">
        <ele>56.400002</ele>
        <time>2011-09-07T12:12:11Z</time>
      </trkpt>
      <trkpt lat="43.42964" lon="6.52054">
        <ele>56.700001</ele>
        <time>2011-09-07T12:12:13Z</time>
      </trkpt>
      <trkpt lat="43.42963" lon="6.52058">
        <ele>56.299999</ele>
        <time>2011-09-07T12:12:15Z</time>
      </trkpt>
      <trkpt lat="43.42962" lon="6.5206">
        <ele>56.5</ele>
        <time>2011-09-07T12:12:16Z</time>
      </trkpt>
      <trkpt lat="43.42963" lon="6.52063">
        <ele>56.799999</ele>
        <time>2011-09-07T12:12:18Z</time>
      </trkpt>
      <trkpt lat="43.42967" lon="6.52073">
        <ele>56.599998</ele>
        <time>2011-09-07T12:12:23Z</time>
      </trkpt>
      <trkpt lat="43.42969" lon="6.52078">
        <ele>56.599998</ele>
        <time>2011-09-07T12:12:26Z</time>
      </trkpt>
      <trkpt lat="43.42972" lon="6.5208">
        <ele>56.599998</ele>
        <time>2011-09-07T12:12:28Z</time>
      </trkpt>
      <trkpt lat="43.42979" lon="6.52087">
        <ele>55.900002</ele>
        <time>2011-09-07T12:12:34Z</time>
      </trkpt>
      <trkpt lat="43.42979" lon="6.52089">
        <ele>55.799999</ele>
        <time>2011-09-07T12:12:35Z</time>
      </trkpt>
      <trkpt lat="43.42979" lon="6.52093">
        <ele>55.799999</ele>
        <time>2011-09-07T12:12:37Z</time>
      </trkpt>
      <trkpt lat="43.42981" lon="6.52095">
        <ele>56.299999</ele>
        <time>2011-09-07T12:12:39Z</time>
      </trkpt>
      <trkpt lat="43.42983" lon="6.52098">
        <ele>56</ele>
        <time>2011-09-07T12:12:41Z</time>
      </trkpt>
      <trkpt lat="43.42984" lon="6.52102">
        <ele>56</ele>
        <time>2011-09-07T12:12:45Z</time>
      </trkpt>
      <trkpt lat="43.42983" lon="6.52105">
        <ele>55.599998</ele>
        <time>2011-09-07T12:12:47Z</time>
      </trkpt>
      <trkpt lat="43.42982" lon="6.5211">
        <ele>55.299999</ele>
        <time>2011-09-07T12:12:51Z</time>
      </trkpt>
      <trkpt lat="43.42981" lon="6.52112">
        <ele>55.200001</ele>
        <time>2011-09-07T12:12:53Z</time>
      </trkpt>
      <trkpt lat="43.4298" lon="6.52115">
        <ele>55.5</ele>
        <time>2011-09-07T12:12:55Z</time>
      </trkpt>
      <trkpt lat="43.42978" lon="6.52118">
        <ele>56.200001</ele>
        <time>2011-09-07T12:12:57Z</time>
      </trkpt>
      <trkpt lat="43.42976" lon="6.5212">
        <ele>56.200001</ele>
        <time>2011-09-07T12:12:58Z</time>
      </trkpt>
      <trkpt lat="43.42976" lon="6.52123">
        <ele>56</ele>
        <time>2011-09-07T12:13:00Z</time>
      </trkpt>
      <trkpt lat="43.42978" lon="6.52125">
        <ele>56</ele>
        <time>2011-09-07T12:13:01Z</time>
      </trkpt>
      <trkpt lat="43.42986" lon="6.5213">
        <ele>55.200001</ele>
        <time>2011-09-07T12:13:04Z</time>
      </trkpt>
      <trkpt lat="43.42987" lon="6.52133">
        <ele>55.299999</ele>
        <time>2011-09-07T12:13:06Z</time>
      </trkpt>
      <trkpt lat="43.42984" lon="6.52136">
        <ele>55.200001</ele>
        <time>2011-09-07T12:13:08Z</time>
      </trkpt>
      <trkpt lat="43.42982" lon="6.52139">
        <ele>55.099998</ele>
        <time>2011-09-07T12:13:10Z</time>
      </trkpt>
      <trkpt lat="43.42982" lon="6.52142">
        <ele>55.200001</ele>
        <time>2011-09-07T12:13:12Z</time>
      </trkpt>
      <trkpt lat="43.42983" lon="6.52149">
        <ele>55.299999</ele>
        <time>2011-09-07T12:13:16Z</time>
      </trkpt>
      <trkpt lat="43.42984" lon="6.52152">
        <ele>55.200001</ele>
        <time>2011-09-07T12:13:18Z</time>
      </trkpt>
      <trkpt lat="43.4299" lon="6.52157">
        <ele>55.200001</ele>
        <time>2011-09-07T12:13:21Z</time>
      </trkpt>
      <trkpt lat="43.4299" lon="6.52161">
        <ele>55.5</ele>
        <time>2011-09-07T12:13:24Z</time>
      </trkpt>
      <trkpt lat="43.42989" lon="6.52164">
        <ele>56.099998</ele>
        <time>2011-09-07T12:13:26Z</time>
      </trkpt>
      <trkpt lat="43.42989" lon="6.52168">
        <ele>56.099998</ele>
        <time>2011-09-07T12:13:28Z</time>
      </trkpt>
      <trkpt lat="43.4299" lon="6.52171">
        <ele>56.099998</ele>
        <time>2011-09-07T12:13:30Z</time>
      </trkpt>
      <trkpt lat="43.42991" lon="6.52175">
        <ele>55.700001</ele>
        <time>2011-09-07T12:13:32Z</time>
      </trkpt>
      <trkpt lat="43.42992" lon="6.52178">
        <ele>55.5</ele>
        <time>2011-09-07T12:13:34Z</time>
      </trkpt>
      <trkpt lat="43.42988" lon="6.52184">
        <ele>54.700001</ele>
        <time>2011-09-07T12:13:38Z</time>
      </trkpt>
      <trkpt lat="43.42986" lon="6.52188">
        <ele>55.099998</ele>
        <time>2011-09-07T12:13:40Z</time>
      </trkpt>
      <trkpt lat="43.42987" lon="6.52195">
        <ele>54.900002</ele>
        <time>2011-09-07T12:13:44Z</time>
      </trkpt>
      <trkpt lat="43.42985" lon="6.522">
        <ele>55.299999</ele>
        <time>2011-09-07T12:13:47Z</time>
      </trkpt>
      <trkpt lat="43.42987" lon="6.5221">
        <ele>55.299999</ele>
        <time>2011-09-07T12:13:52Z</time>
      </trkpt>
      <trkpt lat="43.42987" lon="6.52216">
        <ele>55.700001</ele>
        <time>2011-09-07T12:13:55Z</time>
      </trkpt>
      <trkpt lat="43.42987" lon="6.5222">
        <ele>56.099998</ele>
        <time>2011-09-07T12:13:57Z</time>
      </trkpt>
      <trkpt lat="43.42988" lon="6.52228">
        <ele>55.900002</ele>
        <time>2011-09-07T12:14:02Z</time>
      </trkpt>
      <trkpt lat="43.42988" lon="6.52231">
        <ele>55.799999</ele>
        <time>2011-09-07T12:14:04Z</time>
      </trkpt>
      <trkpt lat="43.42989" lon="6.52234">
        <ele>56</ele>
        <time>2011-09-07T12:14:06Z</time>
      </trkpt>
      <trkpt lat="43.42991" lon="6.52239">
        <ele>56</ele>
        <time>2011-09-07T12:14:09Z</time>
      </trkpt>
      <trkpt lat="43.42992" lon="6.52243">
        <ele>56.099998</ele>
        <time>2011-09-07T12:14:11Z</time>
      </trkpt>
      <trkpt lat="43.42992" lon="6.52247">
        <ele>56.200001</ele>
        <time>2011-09-07T12:14:13Z</time>
      </trkpt>
      <trkpt lat="43.42992" lon="6.5225">
        <ele>56.200001</ele>
        <time>2011-09-07T12:14:15Z</time>
      </trkpt>
      <trkpt lat="43.42994" lon="6.52256">
        <ele>55.900002</ele>
        <time>2011-09-07T12:14:18Z</time>
      </trkpt>
      <trkpt lat="43.42996" lon="6.52259">
        <ele>55.5</ele>
        <time>2011-09-07T12:14:20Z</time>
      </trkpt>
      <trkpt lat="43.42996" lon="6.52263">
        <ele>55.5</ele>
        <time>2011-09-07T12:14:22Z</time>
      </trkpt>
      <trkpt lat="43.42996" lon="6.52268">
        <ele>55.5</ele>
        <time>2011-09-07T12:14:25Z</time>
      </trkpt>
      <trkpt lat="43.42996" lon="6.52273">
        <ele>55.400002</ele>
        <time>2011-09-07T12:14:28Z</time>
      </trkpt>
      <trkpt lat="43.42994" lon="6.52286">
        <ele>56</ele>
        <time>2011-09-07T12:14:35Z</time>
      </trkpt>
      <trkpt lat="43.42989" lon="6.52291">
        <ele>56.599998</ele>
        <time>2011-09-07T12:14:39Z</time>
      </trkpt>
      <trkpt lat="43.42986" lon="6.52293">
        <ele>56.400002</ele>
        <time>2011-09-07T12:14:41Z</time>
      </trkpt>
      <trkpt lat="43.42983" lon="6.52296">
        <ele>56.099998</ele>
        <time>2011-09-07T12:14:44Z</time>
      </trkpt>
      <trkpt lat="43.42981" lon="6.52298">
        <ele>55.900002</ele>
        <time>2011-09-07T12:14:46Z</time>
      </trkpt>
      <trkpt lat="43.42978" lon="6.523">
        <ele>55.900002</ele>
        <time>2011-09-07T12:14:49Z</time>
      </trkpt>
      <trkpt lat="43.42972" lon="6.52302">
        <ele>56.5</ele>
        <time>2011-09-07T12:14:52Z</time>
      </trkpt>
      <trkpt lat="43.4297" lon="6.52303">
        <ele>56.700001</ele>
        <time>2011-09-07T12:14:53Z</time>
      </trkpt>
      <trkpt lat="43.42966" lon="6.52306">
        <ele>56.5</ele>
        <time>2011-09-07T12:14:56Z</time>
      </trkpt>
      <trkpt lat="43.42965" lon="6.5231">
        <ele>56.799999</ele>
        <time>2011-09-07T12:14:59Z</time>
      </trkpt>
      <trkpt lat="43.42963" lon="6.52312">
        <ele>56.799999</ele>
        <time>2011-09-07T12:15:00Z</time>
      </trkpt>
      <trkpt lat="43.4296" lon="6.52315">
        <ele>57.200001</ele>
        <time>2011-09-07T12:15:03Z</time>
      </trkpt>
      <trkpt lat="43.42956" lon="6.52317">
        <ele>57.5</ele>
        <time>2011-09-07T12:15:05Z</time>
      </trkpt>
      <trkpt lat="43.42954" lon="6.5232">
        <ele>57.299999</ele>
        <time>2011-09-07T12:15:07Z</time>
      </trkpt>
      <trkpt lat="43.42947" lon="6.52325">
        <ele>56.700001</ele>
        <time>2011-09-07T12:15:12Z</time>
      </trkpt>
      <trkpt lat="43.42943" lon="6.52325">
        <ele>56.799999</ele>
        <time>2011-09-07T12:15:14Z</time>
      </trkpt>
      <trkpt lat="43.42939" lon="6.52326">
        <ele>57</ele>
        <time>2011-09-07T12:15:18Z</time>
      </trkpt>
      <trkpt lat="43.42936" lon="6.52326">
        <ele>57.200001</ele>
        <time>2011-09-07T12:15:20Z</time>
      </trkpt>
      <trkpt lat="43.42934" lon="6.52326">
        <ele>56.799999</ele>
        <time>2011-09-07T12:15:22Z</time>
      </trkpt>
      <trkpt lat="43.42932" lon="6.52326">
        <ele>56.900002</ele>
        <time>2011-09-07T12:15:23Z</time>
      </trkpt>
      <trkpt lat="43.42926" lon="6.52324">
        <ele>56.5</ele>
        <time>2011-09-07T12:15:27Z</time>
      </trkpt>
      <trkpt lat="43.42923" lon="6.52323">
        <ele>56.700001</ele>
        <time>2011-09-07T12:15:29Z</time>
      </trkpt>
      <trkpt lat="43.4292" lon="6.52322">
        <ele>56.599998</ele>
        <time>2011-09-07T12:15:31Z</time>
      </trkpt>
      <trkpt lat="43.42917" lon="6.52323">
        <ele>56.299999</ele>
        <time>2011-09-07T12:15:33Z</time>
      </trkpt>
      <trkpt lat="43.42916" lon="6.52322">
        <ele>56.5</ele>
        <time>2011-09-07T12:15:34Z</time>
      </trkpt>
      <trkpt lat="43.42912" lon="6.52323">
        <ele>56.700001</ele>
        <time>2011-09-07T12:15:36Z</time>
      </trkpt>
      <trkpt lat="43.4291" lon="6.52323">
        <ele>56.400002</ele>
        <time>2011-09-07T12:15:38Z</time>
      </trkpt>
      <trkpt lat="43.42907" lon="6.52323">
        <ele>56.5</ele>
        <time>2011-09-07T12:15:41Z</time>
      </trkpt>
      <trkpt lat="43.42903" lon="6.52326">
        <ele>56.700001</ele>
        <time>2011-09-07T12:15:44Z</time>
      </trkpt>
      <trkpt lat="43.42901" lon="6.52328">
        <ele>56.799999</ele>
        <time>2011-09-07T12:15:46Z</time>
      </trkpt>
      <trkpt lat="43.429" lon="6.5233">
        <ele>57</ele>
        <time>2011-09-07T12:15:48Z</time>
      </trkpt>
      <trkpt lat="43.42896" lon="6.52334">
        <ele>57.200001</ele>
        <time>2011-09-07T12:15:52Z</time>
      </trkpt>
      <trkpt lat="43.42891" lon="6.52337">
        <ele>57.200001</ele>
        <time>2011-09-07T12:15:56Z</time>
      </trkpt>
      <trkpt lat="43.42888" lon="6.5234">
        <ele>57</ele>
        <time>2011-09-07T12:16:00Z</time>
      </trkpt>
      <trkpt lat="43.42887" lon="6.52342">
        <ele>56.900002</ele>
        <time>2011-09-07T12:16:02Z</time>
      </trkpt>
      <trkpt lat="43.42885" lon="6.52344">
        <ele>56.700001</ele>
        <time>2011-09-07T12:16:04Z</time>
      </trkpt>
      <trkpt lat="43.42883" lon="6.52345">
        <ele>56.799999</ele>
        <time>2011-09-07T12:16:06Z</time>
      </trkpt>
      <trkpt lat="43.42881" lon="6.52347">
        <ele>56.599998</ele>
        <time>2011-09-07T12:16:10Z</time>
      </trkpt>
      <trkpt lat="43.42879" lon="6.52348">
        <ele>56.599998</ele>
        <time>2011-09-07T12:16:12Z</time>
      </trkpt>
      <trkpt lat="43.42875" lon="6.52349">
        <ele>56.200001</ele>
        <time>2011-09-07T12:16:16Z</time>
      </trkpt>
      <trkpt lat="43.42874" lon="6.5235">
        <ele>55.900002</ele>
        <time>2011-09-07T12:16:18Z</time>
      </trkpt>
      <trkpt lat="43.4287" lon="6.52351">
        <ele>56.5</ele>
        <time>2011-09-07T12:16:23Z</time>
      </trkpt>
      <trkpt lat="43.42868" lon="6.5235">
        <ele>56.5</ele>
        <time>2011-09-07T12:16:27Z</time>
      </trkpt>
      <trkpt lat="43.42865" lon="6.52349">
        <ele>56.5</ele>
        <time>2011-09-07T12:16:31Z</time>
      </trkpt>
      <trkpt lat="43.42865" lon="6.52349">
        <ele>57.200001</ele>
        <time>2011-09-07T12:16:36Z</time>
      </trkpt>
      <trkpt lat="43.42863" lon="6.52349">
        <ele>57.299999</ele>
        <time>2011-09-07T12:16:43Z</time>
      </trkpt>
      <trkpt lat="43.42863" lon="6.52351">
        <ele>57.599998</ele>
        <time>2011-09-07T12:16:45Z</time>
      </trkpt>
      <trkpt lat="43.42862" lon="6.52354">
        <ele>58.099998</ele>
        <time>2011-09-07T12:16:48Z</time>
      </trkpt>
      <trkpt lat="43.42858" lon="6.52357">
        <ele>58.099998</ele>
        <time>2011-09-07T12:16:52Z</time>
      </trkpt>
      <trkpt lat="43.42856" lon="6.52359">
        <ele>58</ele>
        <time>2011-09-07T12:16:55Z</time>
      </trkpt>
      <trkpt lat="43.42853" lon="6.52359">
        <ele>57.599998</ele>
        <time>2011-09-07T12:16:57Z</time>
      </trkpt>
      <trkpt lat="43.42847" lon="6.52359">
        <ele>57.5</ele>
        <time>2011-09-07T12:17:01Z</time>
      </trkpt>
      <trkpt lat="43.4284" lon="6.52363">
        <ele>57.400002</ele>
        <time>2011-09-07T12:17:07Z</time>
      </trkpt>
      <trkpt lat="43.42831" lon="6.52366">
        <ele>57.5</ele>
        <time>2011-09-07T12:17:13Z</time>
      </trkpt>
      <trkpt lat="43.42829" lon="6.52368">
        <ele>57.5</ele>
        <time>2011-09-07T12:17:15Z</time>
      </trkpt>
      <trkpt lat="43.42827" lon="6.52372">
        <ele>58.200001</ele>
        <time>2011-09-07T12:17:19Z</time>
      </trkpt>
      <trkpt lat="43.42826" lon="6.52373">
        <ele>58.400002</ele>
        <time>2011-09-07T12:17:20Z</time>
      </trkpt>
      <trkpt lat="43.42823" lon="6.52376">
        <ele>58.200001</ele>
        <time>2011-09-07T12:17:24Z</time>
      </trkpt>
      <trkpt lat="43.4282" lon="6.52376">
        <ele>58.400002</ele>
        <time>2011-09-07T12:17:26Z</time>
      </trkpt>
      <trkpt lat="43.42817" lon="6.52378">
        <ele>58.099998</ele>
        <time>2011-09-07T12:17:28Z</time>
      </trkpt>
      <trkpt lat="43.42812" lon="6.52382">
        <ele>58.099998</ele>
        <time>2011-09-07T12:17:32Z</time>
      </trkpt>
      <trkpt lat="43.4281" lon="6.52384">
        <ele>58</ele>
        <time>2011-09-07T12:17:34Z</time>
      </trkpt>
      <trkpt lat="43.42808" lon="6.52387">
        <ele>57.799999</ele>
        <time>2011-09-07T12:17:36Z</time>
      </trkpt>
      <trkpt lat="43.42805" lon="6.5239">
        <ele>57.700001</ele>
        <time>2011-09-07T12:17:38Z</time>
      </trkpt>
      <trkpt lat="43.42805" lon="6.52391">
        <ele>57.599998</ele>
        <time>2011-09-07T12:17:39Z</time>
      </trkpt>
      <trkpt lat="43.42801" lon="6.52396">
        <ele>57.599998</ele>
        <time>2011-09-07T12:17:43Z</time>
      </trkpt>
      <trkpt lat="43.42798" lon="6.52399">
        <ele>57.700001</ele>
        <time>2011-09-07T12:17:45Z</time>
      </trkpt>
      <trkpt lat="43.42791" lon="6.52411">
        <ele>56.799999</ele>
        <time>2011-09-07T12:17:54Z</time>
      </trkpt>
      <trkpt lat="43.4279" lon="6.52415">
        <ele>56.799999</ele>
        <time>2011-09-07T12:17:57Z</time>
      </trkpt>
      <trkpt lat="43.42789" lon="6.52416">
        <ele>56.700001</ele>
        <time>2011-09-07T12:17:59Z</time>
      </trkpt>
      <trkpt lat="43.42787" lon="6.52419">
        <ele>56.599998</ele>
        <time>2011-09-07T12:18:02Z</time>
      </trkpt>
      <trkpt lat="43.42785" lon="6.52421">
        <ele>56.599998</ele>
        <time>2011-09-07T12:18:04Z</time>
      </trkpt>
      <trkpt lat="43.42784" lon="6.52425">
        <ele>57</ele>
        <time>2011-09-07T12:18:07Z</time>
      </trkpt>
      <trkpt lat="43.4278" lon="6.52428">
        <ele>57.099998</ele>
        <time>2011-09-07T12:18:12Z</time>
      </trkpt>
      <trkpt lat="43.42775" lon="6.52429">
        <ele>57.599998</ele>
        <time>2011-09-07T12:18:16Z</time>
      </trkpt>
      <trkpt lat="43.42769" lon="6.52429">
        <ele>57.799999</ele>
        <time>2011-09-07T12:18:21Z</time>
      </trkpt>
      <trkpt lat="43.42765" lon="6.52431">
        <ele>58</ele>
        <time>2011-09-07T12:18:25Z</time>
      </trkpt>
      <trkpt lat="43.42747" lon="6.52438">
        <ele>59</ele>
        <time>2011-09-07T12:18:42Z</time>
      </trkpt>
      <trkpt lat="43.42743" lon="6.52438">
        <ele>58.900002</ele>
        <time>2011-09-07T12:18:46Z</time>
      </trkpt>
      <trkpt lat="43.4274" lon="6.52437">
        <ele>58.799999</ele>
        <time>2011-09-07T12:18:49Z</time>
      </trkpt>
      <trkpt lat="43.42736" lon="6.52436">
        <ele>59.5</ele>
        <time>2011-09-07T12:18:52Z</time>
      </trkpt>
      <trkpt lat="43.42734" lon="6.52435">
        <ele>60</ele>
        <time>2011-09-07T12:18:54Z</time>
      </trkpt>
      <trkpt lat="43.4273" lon="6.52433">
        <ele>60.299999</ele>
        <time>2011-09-07T12:18:58Z</time>
      </trkpt>
      <trkpt lat="43.42728" lon="6.52433">
        <ele>60.299999</ele>
        <time>2011-09-07T12:19:00Z</time>
      </trkpt>
      <trkpt lat="43.42725" lon="6.52433">
        <ele>60.900002</ele>
        <time>2011-09-07T12:19:03Z</time>
      </trkpt>
      <trkpt lat="43.4272" lon="6.52434">
        <ele>60.200001</ele>
        <time>2011-09-07T12:19:07Z</time>
      </trkpt>
      <trkpt lat="43.42717" lon="6.52436">
        <ele>59.900002</ele>
        <time>2011-09-07T12:19:10Z</time>
      </trkpt>
      <trkpt lat="43.42712" lon="6.52439">
        <ele>60.099998</ele>
        <time>2011-09-07T12:19:14Z</time>
      </trkpt>
      <trkpt lat="43.42708" lon="6.52441">
        <ele>60.599998</ele>
        <time>2011-09-07T12:19:17Z</time>
      </trkpt>
      <trkpt lat="43.42705" lon="6.52445">
        <ele>60.5</ele>
        <time>2011-09-07T12:19:21Z</time>
      </trkpt>
      <trkpt lat="43.42702" lon="6.52449">
        <ele>60.900002</ele>
        <time>2011-09-07T12:19:25Z</time>
      </trkpt>
      <trkpt lat="43.42701" lon="6.52454">
        <ele>61.099998</ele>
        <time>2011-09-07T12:19:29Z</time>
      </trkpt>
      <trkpt lat="43.427" lon="6.52456">
        <ele>61.400002</ele>
        <time>2011-09-07T12:19:31Z</time>
      </trkpt>
      <trkpt lat="43.42699" lon="6.52459">
        <ele>61.599998</ele>
        <time>2011-09-07T12:19:34Z</time>
      </trkpt>
      <trkpt lat="43.42698" lon="6.52462">
        <ele>61.299999</ele>
        <time>2011-09-07T12:19:37Z</time>
      </trkpt>
      <trkpt lat="43.42698" lon="6.52464">
        <ele>60.900002</ele>
        <time>2011-09-07T12:19:39Z</time>
      </trkpt>
      <trkpt lat="43.42698" lon="6.52467">
        <ele>61.200001</ele>
        <time>2011-09-07T12:19:42Z</time>
      </trkpt>
      <trkpt lat="43.42696" lon="6.52468">
        <ele>61.5</ele>
        <time>2011-09-07T12:19:44Z</time>
      </trkpt>
      <trkpt lat="43.42693" lon="6.52472">
        <ele>61.599998</ele>
        <time>2011-09-07T12:19:48Z</time>
      </trkpt>
      <trkpt lat="43.42692" lon="6.52475">
        <ele>61.5</ele>
        <time>2011-09-07T12:19:50Z</time>
      </trkpt>
      <trkpt lat="43.42693" lon="6.52485">
        <ele>61.299999</ele>
        <time>2011-09-07T12:19:57Z</time>
      </trkpt>
      <trkpt lat="43.42691" lon="6.5249">
        <ele>61.099998</ele>
        <time>2011-09-07T12:20:01Z</time>
      </trkpt>
      <trkpt lat="43.42686" lon="6.52499">
        <ele>61.599998</ele>
        <time>2011-09-07T12:20:08Z</time>
      </trkpt>
      <trkpt lat="43.42686" lon="6.525">
        <ele>61.5</ele>
        <time>2011-09-07T12:20:09Z</time>
      </trkpt>
      <trkpt lat="43.42685" lon="6.52506">
        <ele>61.900002</ele>
        <time>2011-09-07T12:20:13Z</time>
      </trkpt>
      <trkpt lat="43.42683" lon="6.52511">
        <ele>61.700001</ele>
        <time>2011-09-07T12:20:17Z</time>
      </trkpt>
      <trkpt lat="43.42681" lon="6.52513">
        <ele>62</ele>
        <time>2011-09-07T12:20:19Z</time>
      </trkpt>
      <trkpt lat="43.42674" lon="6.52523">
        <ele>62.400002</ele>
        <time>2011-09-07T12:20:27Z</time>
      </trkpt>
      <trkpt lat="43.42671" lon="6.52526">
        <ele>62.700001</ele>
        <time>2011-09-07T12:20:30Z</time>
      </trkpt>
      <trkpt lat="43.42663" lon="6.52535">
        <ele>62.400002</ele>
        <time>2011-09-07T12:20:38Z</time>
      </trkpt>
      <trkpt lat="43.4266" lon="6.52538">
        <ele>62.299999</ele>
        <time>2011-09-07T12:20:41Z</time>
      </trkpt>
      <trkpt lat="43.42656" lon="6.52543">
        <ele>62.5</ele>
        <time>2011-09-07T12:20:46Z</time>
      </trkpt>
      <trkpt lat="43.42654" lon="6.52547">
        <ele>62.599998</ele>
        <time>2011-09-07T12:20:49Z</time>
      </trkpt>
      <trkpt lat="43.42653" lon="6.52549">
        <ele>62.599998</ele>
        <time>2011-09-07T12:20:51Z</time>
      </trkpt>
      <trkpt lat="43.42648" lon="6.52551">
        <ele>62.400002</ele>
        <time>2011-09-07T12:20:55Z</time>
      </trkpt>
      <trkpt lat="43.42647" lon="6.52553">
        <ele>62.799999</ele>
        <time>2011-09-07T12:20:57Z</time>
      </trkpt>
      <trkpt lat="43.42644" lon="6.52555">
        <ele>63</ele>
        <time>2011-09-07T12:21:00Z</time>
      </trkpt>
      <trkpt lat="43.42642" lon="6.52558">
        <ele>63.299999</ele>
        <time>2011-09-07T12:21:03Z</time>
      </trkpt>
      <trkpt lat="43.42638" lon="6.52561">
        <ele>63.599998</ele>
        <time>2011-09-07T12:21:06Z</time>
      </trkpt>
      <trkpt lat="43.42637" lon="6.52562">
        <ele>63.900002</ele>
        <time>2011-09-07T12:21:07Z</time>
      </trkpt>
      <trkpt lat="43.42632" lon="6.52564">
        <ele>64.199997</ele>
        <time>2011-09-07T12:21:11Z</time>
      </trkpt>
      <trkpt lat="43.42629" lon="6.52567">
        <ele>64.099998</ele>
        <time>2011-09-07T12:21:14Z</time>
      </trkpt>
      <trkpt lat="43.42627" lon="6.52568">
        <ele>64.099998</ele>
        <time>2011-09-07T12:21:16Z</time>
      </trkpt>
      <trkpt lat="43.42622" lon="6.52569">
        <ele>64.599998</ele>
        <time>2011-09-07T12:21:20Z</time>
      </trkpt>
      <trkpt lat="43.4261" lon="6.52568">
        <ele>65.199997</ele>
        <time>2011-09-07T12:21:29Z</time>
      </trkpt>
      <trkpt lat="43.42602" lon="6.52564">
        <ele>65.699997</ele>
        <time>2011-09-07T12:21:35Z</time>
      </trkpt>
      <trkpt lat="43.42601" lon="6.52564">
        <ele>65.800003</ele>
        <time>2011-09-07T12:21:36Z</time>
      </trkpt>
      <trkpt lat="43.42593" lon="6.5256">
        <ele>65.199997</ele>
        <time>2011-09-07T12:21:42Z</time>
      </trkpt>
      <trkpt lat="43.42589" lon="6.52559">
        <ele>65.300003</ele>
        <time>2011-09-07T12:21:45Z</time>
      </trkpt>
      <trkpt lat="43.42587" lon="6.52558">
        <ele>65.599998</ele>
        <time>2011-09-07T12:21:47Z</time>
      </trkpt>
      <trkpt lat="43.4258" lon="6.52555">
        <ele>65.699997</ele>
        <time>2011-09-07T12:21:52Z</time>
      </trkpt>
      <trkpt lat="43.42577" lon="6.52554">
        <ele>65.400002</ele>
        <time>2011-09-07T12:21:55Z</time>
      </trkpt>
      <trkpt lat="43.42569" lon="6.5255">
        <ele>65</ele>
        <time>2011-09-07T12:22:02Z</time>
      </trkpt>
      <trkpt lat="43.4256" lon="6.52545">
        <ele>65.5</ele>
        <time>2011-09-07T12:22:09Z</time>
      </trkpt>
      <trkpt lat="43.42548" lon="6.52537">
        <ele>65.300003</ele>
        <time>2011-09-07T12:22:19Z</time>
      </trkpt>
      <trkpt lat="43.42545" lon="6.52536">
        <ele>66.099998</ele>
        <time>2011-09-07T12:22:22Z</time>
      </trkpt>
      <trkpt lat="43.42541" lon="6.52534">
        <ele>66.199997</ele>
        <time>2011-09-07T12:22:26Z</time>
      </trkpt>
      <trkpt lat="43.42537" lon="6.52535">
        <ele>66.099998</ele>
        <time>2011-09-07T12:22:29Z</time>
      </trkpt>
      <trkpt lat="43.42525" lon="6.52538">
        <ele>66.400002</ele>
        <time>2011-09-07T12:22:38Z</time>
      </trkpt>
      <trkpt lat="43.42522" lon="6.5254">
        <ele>66.400002</ele>
        <time>2011-09-07T12:22:41Z</time>
      </trkpt>
      <trkpt lat="43.42518" lon="6.52541">
        <ele>66.099998</ele>
        <time>2011-09-07T12:22:44Z</time>
      </trkpt>
      <trkpt lat="43.42514" lon="6.52544">
        <ele>66.5</ele>
        <time>2011-09-07T12:22:48Z</time>
      </trkpt>
      <trkpt lat="43.42511" lon="6.52547">
        <ele>66.699997</ele>
        <time>2011-09-07T12:22:51Z</time>
      </trkpt>
      <trkpt lat="43.42505" lon="6.52552">
        <ele>66.900002</ele>
        <time>2011-09-07T12:22:57Z</time>
      </trkpt>
      <trkpt lat="43.42497" lon="6.52555">
        <ele>66.699997</ele>
        <time>2011-09-07T12:23:04Z</time>
      </trkpt>
      <trkpt lat="43.42496" lon="6.52556">
        <ele>66.599998</ele>
        <time>2011-09-07T12:23:05Z</time>
      </trkpt>
      <trkpt lat="43.42492" lon="6.52557">
        <ele>66.699997</ele>
        <time>2011-09-07T12:23:08Z</time>
      </trkpt>
      <trkpt lat="43.42488" lon="6.52559">
        <ele>67.300003</ele>
        <time>2011-09-07T12:23:12Z</time>
      </trkpt>
      <trkpt lat="43.42483" lon="6.52561">
        <ele>67.699997</ele>
        <time>2011-09-07T12:23:16Z</time>
      </trkpt>
      <trkpt lat="43.42482" lon="6.52562">
        <ele>67.5</ele>
        <time>2011-09-07T12:23:17Z</time>
      </trkpt>
      <trkpt lat="43.42479" lon="6.52563">
        <ele>67.300003</ele>
        <time>2011-09-07T12:23:20Z</time>
      </trkpt>
      <trkpt lat="43.42473" lon="6.52566">
        <ele>67.199997</ele>
        <time>2011-09-07T12:23:25Z</time>
      </trkpt>
      <trkpt lat="43.42468" lon="6.5257">
        <ele>67.199997</ele>
        <time>2011-09-07T12:23:30Z</time>
      </trkpt>
      <trkpt lat="43.42467" lon="6.52571">
        <ele>67.300003</ele>
        <time>2011-09-07T12:23:31Z</time>
      </trkpt>
      <trkpt lat="43.42454" lon="6.52577">
        <ele>68</ele>
        <time>2011-09-07T12:23:43Z</time>
      </trkpt>
      <trkpt lat="43.42451" lon="6.52578">
        <ele>68.400002</ele>
        <time>2011-09-07T12:23:46Z</time>
      </trkpt>
      <trkpt lat="43.42447" lon="6.5258">
        <ele>68.699997</ele>
        <time>2011-09-07T12:23:50Z</time>
      </trkpt>
      <trkpt lat="43.42444" lon="6.5258">
        <ele>68.800003</ele>
        <time>2011-09-07T12:23:54Z</time>
      </trkpt>
      <trkpt lat="43.4244" lon="6.52579">
        <ele>69.300003</ele>
        <time>2011-09-07T12:23:57Z</time>
      </trkpt>
      <trkpt lat="43.42438" lon="6.52578">
        <ele>69.699997</ele>
        <time>2011-09-07T12:23:59Z</time>
      </trkpt>
      <trkpt lat="43.42436" lon="6.52577">
        <ele>70</ele>
        <time>2011-09-07T12:24:01Z</time>
      </trkpt>
      <trkpt lat="43.42433" lon="6.52576">
        <ele>70.400002</ele>
        <time>2011-09-07T12:24:05Z</time>
      </trkpt>
      <trkpt lat="43.42431" lon="6.52575">
        <ele>70.300003</ele>
        <time>2011-09-07T12:24:12Z</time>
      </trkpt>
      <trkpt lat="43.42429" lon="6.52574">
        <ele>70.199997</ele>
        <time>2011-09-07T12:24:20Z</time>
      </trkpt>
      <trkpt lat="43.4243" lon="6.52573">
        <ele>70.400002</ele>
        <time>2011-09-07T12:24:23Z</time>
      </trkpt>
      <trkpt lat="43.42429" lon="6.52571">
        <ele>69.300003</ele>
        <time>2011-09-07T12:24:31Z</time>
      </trkpt>
      <trkpt lat="43.4243" lon="6.52568">
        <ele>68.599998</ele>
        <time>2011-09-07T12:24:48Z</time>
      </trkpt>
      <trkpt lat="43.42431" lon="6.52569">
        <ele>69.199997</ele>
        <time>2011-09-07T12:24:57Z</time>
      </trkpt>
      <trkpt lat="43.42429" lon="6.52568">
        <ele>69.800003</ele>
        <time>2011-09-07T12:25:02Z</time>
      </trkpt>
      <trkpt lat="43.42429" lon="6.52569">
        <ele>69.800003</ele>
        <time>2011-09-07T12:25:09Z</time>
      </trkpt>
      <trkpt lat="43.42428" lon="6.52568">
        <ele>70</ele>
        <time>2011-09-07T12:25:11Z</time>
      </trkpt>
      <trkpt lat="43.42428" lon="6.52569">
        <ele>70</ele>
        <time>2011-09-07T12:25:15Z</time>
      </trkpt>
      <trkpt lat="43.42429" lon="6.5257">
        <ele>70</ele>
        <time>2011-09-07T12:25:20Z</time>
      </trkpt>
      <trkpt lat="43.42429" lon="6.52571">
        <ele>69.599998</ele>
        <time>2011-09-07T12:25:29Z</time>
      </trkpt>
      <trkpt lat="43.42428" lon="6.52571">
        <ele>69.5</ele>
        <time>2011-09-07T12:25:36Z</time>
      </trkpt>
      <trkpt lat="43.42427" lon="6.52571">
        <ele>69</ele>
        <time>2011-09-07T12:25:40Z</time>
      </trkpt>
      <trkpt lat="43.42426" lon="6.5257">
        <ele>68.800003</ele>
        <time>2011-09-07T12:25:44Z</time>
      </trkpt>
      <trkpt lat="43.42424" lon="6.52569">
        <ele>68.900002</ele>
        <time>2011-09-07T12:25:48Z</time>
      </trkpt>
      <trkpt lat="43.42427" lon="6.52569">
        <ele>68.5</ele>
        <time>2011-09-07T12:25:55Z</time>
      </trkpt>
      <trkpt lat="43.42427" lon="6.5257">
        <ele>69</ele>
        <time>2011-09-07T12:26:03Z</time>
      </trkpt>
      <trkpt lat="43.42429" lon="6.52571">
        <ele>69</ele>
        <time>2011-09-07T12:26:06Z</time>
      </trkpt>
      <trkpt lat="43.42429" lon="6.52572">
        <ele>69.5</ele>
        <time>2011-09-07T12:26:10Z</time>
      </trkpt>
      <trkpt lat="43.42427" lon="6.52572">
        <ele>69.5</ele>
        <time>2011-09-07T12:26:12Z</time>
      </trkpt>
      <trkpt lat="43.42427" lon="6.52573">
        <ele>69.300003</ele>
        <time>2011-09-07T12:26:20Z</time>
      </trkpt>
      <trkpt lat="43.42426" lon="6.52573">
        <ele>69.199997</ele>
        <time>2011-09-07T12:26:27Z</time>
      </trkpt>
      <trkpt lat="43.42425" lon="6.52574">
        <ele>69.300003</ele>
        <time>2011-09-07T12:26:32Z</time>
      </trkpt>
      <trkpt lat="43.42424" lon="6.52575">
        <ele>69.699997</ele>
        <time>2011-09-07T12:26:37Z</time>
      </trkpt>
      <trkpt lat="43.42422" lon="6.52575">
        <ele>69.5</ele>
        <time>2011-09-07T12:26:39Z</time>
      </trkpt>
      <trkpt lat="43.42421" lon="6.52577">
        <ele>69.599998</ele>
        <time>2011-09-07T12:26:44Z</time>
      </trkpt>
      <trkpt lat="43.42421" lon="6.52573">
        <ele>69.599998</ele>
        <time>2011-09-07T12:26:48Z</time>
      </trkpt>
      <trkpt lat="43.42421" lon="6.52571">
        <ele>69.5</ele>
        <time>2011-09-07T12:26:52Z</time>
      </trkpt>
      <trkpt lat="43.4242" lon="6.52569">
        <ele>69.5</ele>
        <time>2011-09-07T12:27:00Z</time>
      </trkpt>
      <trkpt lat="43.42418" lon="6.52566">
        <ele>69.599998</ele>
        <time>2011-09-07T12:27:04Z</time>
      </trkpt>
      <trkpt lat="43.42415" lon="6.52564">
        <ele>70.300003</ele>
        <time>2011-09-07T12:27:10Z</time>
      </trkpt>
      <trkpt lat="43.42414" lon="6.52563">
        <ele>70.5</ele>
        <time>2011-09-07T12:27:12Z</time>
      </trkpt>
      <trkpt lat="43.42411" lon="6.52561">
        <ele>70.800003</ele>
        <time>2011-09-07T12:27:16Z</time>
      </trkpt>
      <trkpt lat="43.42408" lon="6.52558">
        <ele>71.400002</ele>
        <time>2011-09-07T12:27:21Z</time>
      </trkpt>
      <trkpt lat="43.42405" lon="6.52557">
        <ele>71.900002</ele>
        <time>2011-09-07T12:27:26Z</time>
      </trkpt>
      <trkpt lat="43.42402" lon="6.52553">
        <ele>72.5</ele>
        <time>2011-09-07T12:27:29Z</time>
      </trkpt>
      <trkpt lat="43.42398" lon="6.52551">
        <ele>72.5</ele>
        <time>2011-09-07T12:27:33Z</time>
      </trkpt>
      <trkpt lat="43.42392" lon="6.52546">
        <ele>73.5</ele>
        <time>2011-09-07T12:27:39Z</time>
      </trkpt>
      <trkpt lat="43.42389" lon="6.52542">
        <ele>73.099998</ele>
        <time>2011-09-07T12:27:42Z</time>
      </trkpt>
      <trkpt lat="43.42383" lon="6.5253">
        <ele>73.599998</ele>
        <time>2011-09-07T12:27:51Z</time>
      </trkpt>
      <trkpt lat="43.4238" lon="6.52518">
        <ele>73.699997</ele>
        <time>2011-09-07T12:27:59Z</time>
      </trkpt>
      <trkpt lat="43.42379" lon="6.5251">
        <ele>73.699997</ele>
        <time>2011-09-07T12:28:05Z</time>
      </trkpt>
      <trkpt lat="43.42378" lon="6.52504">
        <ele>73.5</ele>
        <time>2011-09-07T12:28:11Z</time>
      </trkpt>
      <trkpt lat="43.42377" lon="6.52483">
        <ele>73.099998</ele>
        <time>2011-09-07T12:28:25Z</time>
      </trkpt>
      <trkpt lat="43.42377" lon="6.52475">
        <ele>73.599998</ele>
        <time>2011-09-07T12:28:30Z</time>
      </trkpt>
      <trkpt lat="43.42376" lon="6.52458">
        <ele>75.199997</ele>
        <time>2011-09-07T12:28:41Z</time>
      </trkpt>
      <trkpt lat="43.42374" lon="6.52451">
        <ele>75.800003</ele>
        <time>2011-09-07T12:28:46Z</time>
      </trkpt>
      <trkpt lat="43.42374" lon="6.5245">
        <ele>76</ele>
        <time>2011-09-07T12:28:47Z</time>
      </trkpt>
      <trkpt lat="43.4237" lon="6.52438">
        <ele>76.599998</ele>
        <time>2011-09-07T12:28:55Z</time>
      </trkpt>
      <trkpt lat="43.42362" lon="6.52423">
        <ele>76.800003</ele>
        <time>2011-09-07T12:29:07Z</time>
      </trkpt>
      <trkpt lat="43.42361" lon="6.52421">
        <ele>76.699997</ele>
        <time>2011-09-07T12:29:09Z</time>
      </trkpt>
      <trkpt lat="43.42355" lon="6.52414">
        <ele>76.599998</ele>
        <time>2011-09-07T12:29:17Z</time>
      </trkpt>
      <trkpt lat="43.42347" lon="6.52406">
        <ele>76.599998</ele>
        <time>2011-09-07T12:29:26Z</time>
      </trkpt>
      <trkpt lat="43.42341" lon="6.52402">
        <ele>76.699997</ele>
        <time>2011-09-07T12:29:32Z</time>
      </trkpt>
      <trkpt lat="43.42339" lon="6.52401">
        <ele>76.900002</ele>
        <time>2011-09-07T12:29:34Z</time>
      </trkpt>
      <trkpt lat="43.42337" lon="6.52398">
        <ele>77</ele>
        <time>2011-09-07T12:29:37Z</time>
      </trkpt>
      <trkpt lat="43.42333" lon="6.52393">
        <ele>77.199997</ele>
        <time>2011-09-07T12:29:42Z</time>
      </trkpt>
      <trkpt lat="43.42331" lon="6.52392">
        <ele>77.099998</ele>
        <time>2011-09-07T12:29:44Z</time>
      </trkpt>
      <trkpt lat="43.42327" lon="6.52386">
        <ele>77.699997</ele>
        <time>2011-09-07T12:29:49Z</time>
      </trkpt>
      <trkpt lat="43.42325" lon="6.52385">
        <ele>77.900002</ele>
        <time>2011-09-07T12:29:50Z</time>
      </trkpt>
      <trkpt lat="43.42318" lon="6.52377">
        <ele>78.300003</ele>
        <time>2011-09-07T12:29:59Z</time>
      </trkpt>
      <trkpt lat="43.42315" lon="6.52375">
        <ele>79</ele>
        <time>2011-09-07T12:30:03Z</time>
      </trkpt>
      <trkpt lat="43.42312" lon="6.52373">
        <ele>79.099998</ele>
        <time>2011-09-07T12:30:08Z</time>
      </trkpt>
      <trkpt lat="43.42309" lon="6.52372">
        <ele>79.199997</ele>
        <time>2011-09-07T12:30:11Z</time>
      </trkpt>
      <trkpt lat="43.42305" lon="6.5237">
        <ele>79.300003</ele>
        <time>2011-09-07T12:30:14Z</time>
      </trkpt>
      <trkpt lat="43.42295" lon="6.52365">
        <ele>79.300003</ele>
        <time>2011-09-07T12:30:23Z</time>
      </trkpt>
      <trkpt lat="43.42293" lon="6.52365">
        <ele>79.400002</ele>
        <time>2011-09-07T12:30:26Z</time>
      </trkpt>
      <trkpt lat="43.4229" lon="6.52365">
        <ele>78.699997</ele>
        <time>2011-09-07T12:30:29Z</time>
      </trkpt>
      <trkpt lat="43.42283" lon="6.52363">
        <ele>79</ele>
        <time>2011-09-07T12:30:36Z</time>
      </trkpt>
      <trkpt lat="43.42278" lon="6.52362">
        <ele>79.400002</ele>
        <time>2011-09-07T12:30:40Z</time>
      </trkpt>
      <trkpt lat="43.42274" lon="6.5236">
        <ele>79.199997</ele>
        <time>2011-09-07T12:30:44Z</time>
      </trkpt>
      <trkpt lat="43.4227" lon="6.52358">
        <ele>79.199997</ele>
        <time>2011-09-07T12:30:47Z</time>
      </trkpt>
      <trkpt lat="43.42261" lon="6.52353">
        <ele>79.5</ele>
        <time>2011-09-07T12:30:54Z</time>
      </trkpt>
      <trkpt lat="43.4226" lon="6.52353">
        <ele>79.5</ele>
        <time>2011-09-07T12:30:55Z</time>
      </trkpt>
      <trkpt lat="43.4225" lon="6.52347">
        <ele>79.300003</ele>
        <time>2011-09-07T12:31:03Z</time>
      </trkpt>
      <trkpt lat="43.42237" lon="6.52339">
        <ele>79.900002</ele>
        <time>2011-09-07T12:31:15Z</time>
      </trkpt>
      <trkpt lat="43.42228" lon="6.52336">
        <ele>80.400002</ele>
        <time>2011-09-07T12:31:23Z</time>
      </trkpt>
      <trkpt lat="43.42224" lon="6.52334">
        <ele>80.599998</ele>
        <time>2011-09-07T12:31:27Z</time>
      </trkpt>
      <trkpt lat="43.42223" lon="6.52333">
        <ele>80.699997</ele>
        <time>2011-09-07T12:31:28Z</time>
      </trkpt>
      <trkpt lat="43.42218" lon="6.52331">
        <ele>81.099998</ele>
        <time>2011-09-07T12:31:33Z</time>
      </trkpt>
      <trkpt lat="43.42215" lon="6.52331">
        <ele>81</ele>
        <time>2011-09-07T12:31:36Z</time>
      </trkpt>
      <trkpt lat="43.42211" lon="6.52331">
        <ele>81</ele>
        <time>2011-09-07T12:31:39Z</time>
      </trkpt>
      <trkpt lat="43.42206" lon="6.52332">
        <ele>81.099998</ele>
        <time>2011-09-07T12:31:44Z</time>
      </trkpt>
      <trkpt lat="43.42203" lon="6.52335">
        <ele>80.699997</ele>
        <time>2011-09-07T12:31:48Z</time>
      </trkpt>
      <trkpt lat="43.42197" lon="6.52339">
        <ele>81.199997</ele>
        <time>2011-09-07T12:31:53Z</time>
      </trkpt>
      <trkpt lat="43.42194" lon="6.52341">
        <ele>81.599998</ele>
        <time>2011-09-07T12:31:56Z</time>
      </trkpt>
      <trkpt lat="43.42186" lon="6.52344">
        <ele>82.300003</ele>
        <time>2011-09-07T12:32:02Z</time>
      </trkpt>
      <trkpt lat="43.42182" lon="6.52346">
        <ele>82.599998</ele>
        <time>2011-09-07T12:32:06Z</time>
      </trkpt>
      <trkpt lat="43.4218" lon="6.52346">
        <ele>82.900002</ele>
        <time>2011-09-07T12:32:08Z</time>
      </trkpt>
      <trkpt lat="43.42176" lon="6.52344">
        <ele>83</ele>
        <time>2011-09-07T12:32:12Z</time>
      </trkpt>
      <trkpt lat="43.42171" lon="6.52341">
        <ele>83.300003</ele>
        <time>2011-09-07T12:32:16Z</time>
      </trkpt>
      <trkpt lat="43.42164" lon="6.52335">
        <ele>83.400002</ele>
        <time>2011-09-07T12:32:22Z</time>
      </trkpt>
      <trkpt lat="43.42161" lon="6.52331">
        <ele>83.400002</ele>
        <time>2011-09-07T12:32:26Z</time>
      </trkpt>
      <trkpt lat="43.4215" lon="6.52318">
        <ele>83.699997</ele>
        <time>2011-09-07T12:32:38Z</time>
      </trkpt>
      <trkpt lat="43.42148" lon="6.52315">
        <ele>83.900002</ele>
        <time>2011-09-07T12:32:40Z</time>
      </trkpt>
      <trkpt lat="43.42138" lon="6.52303">
        <ele>85.099998</ele>
        <time>2011-09-07T12:32:51Z</time>
      </trkpt>
      <trkpt lat="43.42135" lon="6.52295">
        <ele>85.5</ele>
        <time>2011-09-07T12:32:57Z</time>
      </trkpt>
      <trkpt lat="43.42132" lon="6.52285">
        <ele>85.5</ele>
        <time>2011-09-07T12:33:04Z</time>
      </trkpt>
      <trkpt lat="43.42127" lon="6.52257">
        <ele>87.5</ele>
        <time>2011-09-07T12:33:22Z</time>
      </trkpt>
      <trkpt lat="43.42125" lon="6.52251">
        <ele>87.599998</ele>
        <time>2011-09-07T12:33:27Z</time>
      </trkpt>
      <trkpt lat="43.42123" lon="6.52247">
        <ele>87.800003</ele>
        <time>2011-09-07T12:33:32Z</time>
      </trkpt>
      <trkpt lat="43.42121" lon="6.52248">
        <ele>87.900002</ele>
        <time>2011-09-07T12:33:35Z</time>
      </trkpt>
      <trkpt lat="43.42118" lon="6.52246">
        <ele>87.900002</ele>
        <time>2011-09-07T12:33:40Z</time>
      </trkpt>
      <trkpt lat="43.42115" lon="6.52244">
        <ele>88.599998</ele>
        <time>2011-09-07T12:33:45Z</time>
      </trkpt>
      <trkpt lat="43.4211" lon="6.52241">
        <ele>88.800003</ele>
        <time>2011-09-07T12:33:50Z</time>
      </trkpt>
      <trkpt lat="43.42108" lon="6.52238">
        <ele>89.300003</ele>
        <time>2011-09-07T12:33:54Z</time>
      </trkpt>
      <trkpt lat="43.42103" lon="6.52233">
        <ele>90.300003</ele>
        <time>2011-09-07T12:33:59Z</time>
      </trkpt>
      <trkpt lat="43.42101" lon="6.52231">
        <ele>90.5</ele>
        <time>2011-09-07T12:34:02Z</time>
      </trkpt>
      <trkpt lat="43.42099" lon="6.52229">
        <ele>90.800003</ele>
        <time>2011-09-07T12:34:04Z</time>
      </trkpt>
      <trkpt lat="43.42096" lon="6.52226">
        <ele>90.900002</ele>
        <time>2011-09-07T12:34:08Z</time>
      </trkpt>
      <trkpt lat="43.42092" lon="6.52222">
        <ele>92.199997</ele>
        <time>2011-09-07T12:34:13Z</time>
      </trkpt>
      <trkpt lat="43.42084" lon="6.52216">
        <ele>93.699997</ele>
        <time>2011-09-07T12:34:22Z</time>
      </trkpt>
      <trkpt lat="43.42078" lon="6.52213">
        <ele>94.5</ele>
        <time>2011-09-07T12:34:28Z</time>
      </trkpt>
      <trkpt lat="43.42076" lon="6.52211">
        <ele>94.699997</ele>
        <time>2011-09-07T12:34:31Z</time>
      </trkpt>
      <trkpt lat="43.42073" lon="6.52209">
        <ele>94.900002</ele>
        <time>2011-09-07T12:34:34Z</time>
      </trkpt>
      <trkpt lat="43.42072" lon="6.52208">
        <ele>94.900002</ele>
        <time>2011-09-07T12:34:36Z</time>
      </trkpt>
      <trkpt lat="43.42068" lon="6.52206">
        <ele>94.900002</ele>
        <time>2011-09-07T12:34:40Z</time>
      </trkpt>
      <trkpt lat="43.42064" lon="6.52203">
        <ele>95.099998</ele>
        <time>2011-09-07T12:34:48Z</time>
      </trkpt>
      <trkpt lat="43.42061" lon="6.52201">
        <ele>95.099998</ele>
        <time>2011-09-07T12:34:53Z</time>
      </trkpt>
      <trkpt lat="43.4206" lon="6.522">
        <ele>95.099998</ele>
        <time>2011-09-07T12:34:55Z</time>
      </trkpt>
      <trkpt lat="43.42057" lon="6.52198">
        <ele>94.099998</ele>
        <time>2011-09-07T12:34:59Z</time>
      </trkpt>
      <trkpt lat="43.42055" lon="6.52196">
        <ele>94.199997</ele>
        <time>2011-09-07T12:35:02Z</time>
      </trkpt>
      <trkpt lat="43.42053" lon="6.52194">
        <ele>94</ele>
        <time>2011-09-07T12:35:05Z</time>
      </trkpt>
      <trkpt lat="43.42042" lon="6.52183">
        <ele>93.099998</ele>
        <time>2011-09-07T12:35:16Z</time>
      </trkpt>
      <trkpt lat="43.4203" lon="6.52173">
        <ele>92.300003</ele>
        <time>2011-09-07T12:35:29Z</time>
      </trkpt>
      <trkpt lat="43.42028" lon="6.52171">
        <ele>92.300003</ele>
        <time>2011-09-07T12:35:31Z</time>
      </trkpt>
      <trkpt lat="43.42015" lon="6.5216">
        <ele>92.199997</ele>
        <time>2011-09-07T12:35:44Z</time>
      </trkpt>
      <trkpt lat="43.42014" lon="6.52159">
        <ele>92.5</ele>
        <time>2011-09-07T12:35:46Z</time>
      </trkpt>
      <trkpt lat="43.42009" lon="6.52152">
        <ele>92.400002</ele>
        <time>2011-09-07T12:35:53Z</time>
      </trkpt>
      <trkpt lat="43.42007" lon="6.52149">
        <ele>92.400002</ele>
        <time>2011-09-07T12:35:56Z</time>
      </trkpt>
      <trkpt lat="43.42005" lon="6.52148">
        <ele>93.099998</ele>
        <time>2011-09-07T12:35:59Z</time>
      </trkpt>
      <trkpt lat="43.42001" lon="6.5215">
        <ele>93.300003</ele>
        <time>2011-09-07T12:36:04Z</time>
      </trkpt>
      <trkpt lat="43.41999" lon="6.52152">
        <ele>93.099998</ele>
        <time>2011-09-07T12:36:07Z</time>
      </trkpt>
      <trkpt lat="43.41996" lon="6.52156">
        <ele>92.900002</ele>
        <time>2011-09-07T12:36:12Z</time>
      </trkpt>
      <trkpt lat="43.41993" lon="6.5216">
        <ele>94.099998</ele>
        <time>2011-09-07T12:36:16Z</time>
      </trkpt>
      <trkpt lat="43.41988" lon="6.52165">
        <ele>94.800003</ele>
        <time>2011-09-07T12:36:22Z</time>
      </trkpt>
      <trkpt lat="43.41984" lon="6.52167">
        <ele>94.699997</ele>
        <time>2011-09-07T12:36:25Z</time>
      </trkpt>
      <trkpt lat="43.41982" lon="6.52169">
        <ele>94.900002</ele>
        <time>2011-09-07T12:36:27Z</time>
      </trkpt>
      <trkpt lat="43.41976" lon="6.52173">
        <ele>95.300003</ele>
        <time>2011-09-07T12:36:33Z</time>
      </trkpt>
      <trkpt lat="43.41974" lon="6.52175">
        <ele>95.599998</ele>
        <time>2011-09-07T12:36:35Z</time>
      </trkpt>
      <trkpt lat="43.41969" lon="6.52178">
        <ele>96</ele>
        <time>2011-09-07T12:36:39Z</time>
      </trkpt>
      <trkpt lat="43.41966" lon="6.52179">
        <ele>95.699997</ele>
        <time>2011-09-07T12:36:42Z</time>
      </trkpt>
      <trkpt lat="43.41964" lon="6.52181">
        <ele>95.800003</ele>
        <time>2011-09-07T12:36:44Z</time>
      </trkpt>
      <trkpt lat="43.4196" lon="6.52185">
        <ele>96</ele>
        <time>2011-09-07T12:36:48Z</time>
      </trkpt>
      <trkpt lat="43.41954" lon="6.52189">
        <ele>95.5</ele>
        <time>2011-09-07T12:36:53Z</time>
      </trkpt>
      <trkpt lat="43.41953" lon="6.52189">
        <ele>95.699997</ele>
        <time>2011-09-07T12:36:54Z</time>
      </trkpt>
      <trkpt lat="43.41949" lon="6.52191">
        <ele>95.699997</ele>
        <time>2011-09-07T12:36:58Z</time>
      </trkpt>
      <trkpt lat="43.41946" lon="6.52192">
        <ele>96</ele>
        <time>2011-09-07T12:37:00Z</time>
      </trkpt>
      <trkpt lat="43.41942" lon="6.52194">
        <ele>96.199997</ele>
        <time>2011-09-07T12:37:04Z</time>
      </trkpt>
      <trkpt lat="43.41935" lon="6.52195">
        <ele>96.5</ele>
        <time>2011-09-07T12:37:10Z</time>
      </trkpt>
      <trkpt lat="43.41932" lon="6.52194">
        <ele>96.599998</ele>
        <time>2011-09-07T12:37:13Z</time>
      </trkpt>
      <trkpt lat="43.41926" lon="6.52191">
        <ele>96.599998</ele>
        <time>2011-09-07T12:37:19Z</time>
      </trkpt>
      <trkpt lat="43.41922" lon="6.52189">
        <ele>97.400002</ele>
        <time>2011-09-07T12:37:23Z</time>
      </trkpt>
      <trkpt lat="43.41905" lon="6.52171">
        <ele>99.5</ele>
        <time>2011-09-07T12:37:41Z</time>
      </trkpt>
      <trkpt lat="43.41902" lon="6.5217">
        <ele>100</ele>
        <time>2011-09-07T12:37:45Z</time>
      </trkpt>
      <trkpt lat="43.41901" lon="6.52169">
        <ele>100.099998</ele>
        <time>2011-09-07T12:37:46Z</time>
      </trkpt>
      <trkpt lat="43.41894" lon="6.52163">
        <ele>99.800003</ele>
        <time>2011-09-07T12:37:55Z</time>
      </trkpt>
      <trkpt lat="43.41893" lon="6.52163">
        <ele>100.099998</ele>
        <time>2011-09-07T12:37:56Z</time>
      </trkpt>
      <trkpt lat="43.41886" lon="6.52161">
        <ele>100.599998</ele>
        <time>2011-09-07T12:38:02Z</time>
      </trkpt>
      <trkpt lat="43.41883" lon="6.52161">
        <ele>100.800003</ele>
        <time>2011-09-07T12:38:05Z</time>
      </trkpt>
      <trkpt lat="43.41872" lon="6.52163">
        <ele>102</ele>
        <time>2011-09-07T12:38:15Z</time>
      </trkpt>
      <trkpt lat="43.41852" lon="6.52166">
        <ele>102.400002</ele>
        <time>2011-09-07T12:38:32Z</time>
      </trkpt>
      <trkpt lat="43.4185" lon="6.52167">
        <ele>102.400002</ele>
        <time>2011-09-07T12:38:34Z</time>
      </trkpt>
      <trkpt lat="43.41848" lon="6.52167">
        <ele>102.599998</ele>
        <time>2011-09-07T12:38:36Z</time>
      </trkpt>
      <trkpt lat="43.41844" lon="6.52168">
        <ele>103</ele>
        <time>2011-09-07T12:38:40Z</time>
      </trkpt>
      <trkpt lat="43.4184" lon="6.52168">
        <ele>103.400002</ele>
        <time>2011-09-07T12:38:44Z</time>
      </trkpt>
      <trkpt lat="43.41835" lon="6.52169">
        <ele>104</ele>
        <time>2011-09-07T12:38:49Z</time>
      </trkpt>
      <trkpt lat="43.41833" lon="6.52169">
        <ele>104.400002</ele>
        <time>2011-09-07T12:38:52Z</time>
      </trkpt>
      <trkpt lat="43.41827" lon="6.52169">
        <ele>104.900002</ele>
        <time>2011-09-07T12:38:58Z</time>
      </trkpt>
      <trkpt lat="43.41824" lon="6.52168">
        <ele>106</ele>
        <time>2011-09-07T12:39:02Z</time>
      </trkpt>
      <trkpt lat="43.41819" lon="6.52168">
        <ele>106.900002</ele>
        <time>2011-09-07T12:39:07Z</time>
      </trkpt>
      <trkpt lat="43.41812" lon="6.52166">
        <ele>106.800003</ele>
        <time>2011-09-07T12:39:13Z</time>
      </trkpt>
      <trkpt lat="43.41804" lon="6.52166">
        <ele>107.599998</ele>
        <time>2011-09-07T12:39:20Z</time>
      </trkpt>
      <trkpt lat="43.41802" lon="6.52166">
        <ele>107.800003</ele>
        <time>2011-09-07T12:39:22Z</time>
      </trkpt>
      <trkpt lat="43.41798" lon="6.52166">
        <ele>108</ele>
        <time>2011-09-07T12:39:26Z</time>
      </trkpt>
      <trkpt lat="43.41796" lon="6.52166">
        <ele>107.800003</ele>
        <time>2011-09-07T12:39:28Z</time>
      </trkpt>
      <trkpt lat="43.41793" lon="6.52167">
        <ele>107.900002</ele>
        <time>2011-09-07T12:39:31Z</time>
      </trkpt>
      <trkpt lat="43.41788" lon="6.52167">
        <ele>108.199997</ele>
        <time>2011-09-07T12:39:36Z</time>
      </trkpt>
      <trkpt lat="43.41787" lon="6.52167">
        <ele>108.300003</ele>
        <time>2011-09-07T12:39:37Z</time>
      </trkpt>
      <trkpt lat="43.41781" lon="6.52166">
        <ele>108.099998</ele>
        <time>2011-09-07T12:39:42Z</time>
      </trkpt>
      <trkpt lat="43.41771" lon="6.52165">
        <ele>107.900002</ele>
        <time>2011-09-07T12:39:50Z</time>
      </trkpt>
      <trkpt lat="43.41763" lon="6.52164">
        <ele>107.699997</ele>
        <time>2011-09-07T12:39:56Z</time>
      </trkpt>
      <trkpt lat="43.41762" lon="6.52165">
        <ele>107.800003</ele>
        <time>2011-09-07T12:39:58Z</time>
      </trkpt>
      <trkpt lat="43.41757" lon="6.52164">
        <ele>108.099998</ele>
        <time>2011-09-07T12:40:03Z</time>
      </trkpt>
      <trkpt lat="43.41754" lon="6.52164">
        <ele>108.099998</ele>
        <time>2011-09-07T12:40:07Z</time>
      </trkpt>
      <trkpt lat="43.4175" lon="6.52164">
        <ele>108.099998</ele>
        <time>2011-09-07T12:40:10Z</time>
      </trkpt>
      <trkpt lat="43.41743" lon="6.52164">
        <ele>107.900002</ele>
        <time>2011-09-07T12:40:17Z</time>
      </trkpt>
      <trkpt lat="43.4174" lon="6.52164">
        <ele>107.900002</ele>
        <time>2011-09-07T12:40:19Z</time>
      </trkpt>
      <trkpt lat="43.41736" lon="6.52165">
        <ele>107.900002</ele>
        <time>2011-09-07T12:40:24Z</time>
      </trkpt>
      <trkpt lat="43.41735" lon="6.52165">
        <ele>107.900002</ele>
        <time>2011-09-07T12:40:26Z</time>
      </trkpt>
      <trkpt lat="43.41732" lon="6.52163">
        <ele>108.199997</ele>
        <time>2011-09-07T12:40:33Z</time>
      </trkpt>
      <trkpt lat="43.4173" lon="6.52163">
        <ele>108.800003</ele>
        <time>2011-09-07T12:40:40Z</time>
      </trkpt>
      <trkpt lat="43.41729" lon="6.52165">
        <ele>108.800003</ele>
        <time>2011-09-07T12:40:45Z</time>
      </trkpt>
      <trkpt lat="43.41726" lon="6.52165">
        <ele>108.699997</ele>
        <time>2011-09-07T12:40:50Z</time>
      </trkpt>
      <trkpt lat="43.41724" lon="6.52165">
        <ele>108.699997</ele>
        <time>2011-09-07T12:40:55Z</time>
      </trkpt>
      <trkpt lat="43.41722" lon="6.52166">
        <ele>109</ele>
        <time>2011-09-07T12:40:59Z</time>
      </trkpt>
      <trkpt lat="43.41719" lon="6.52168">
        <ele>109.300003</ele>
        <time>2011-09-07T12:41:03Z</time>
      </trkpt>
      <trkpt lat="43.41717" lon="6.52171">
        <ele>109.400002</ele>
        <time>2011-09-07T12:41:05Z</time>
      </trkpt>
      <trkpt lat="43.41714" lon="6.52172">
        <ele>109.400002</ele>
        <time>2011-09-07T12:41:07Z</time>
      </trkpt>
      <trkpt lat="43.41711" lon="6.52172">
        <ele>109.400002</ele>
        <time>2011-09-07T12:41:10Z</time>
      </trkpt>
      <trkpt lat="43.41709" lon="6.52175">
        <ele>109.400002</ele>
        <time>2011-09-07T12:41:13Z</time>
      </trkpt>
      <trkpt lat="43.41706" lon="6.52176">
        <ele>109.5</ele>
        <time>2011-09-07T12:41:16Z</time>
      </trkpt>
      <trkpt lat="43.41705" lon="6.52177">
        <ele>109.400002</ele>
        <time>2011-09-07T12:41:18Z</time>
      </trkpt>
      <trkpt lat="43.41701" lon="6.52177">
        <ele>110.400002</ele>
        <time>2011-09-07T12:41:22Z</time>
      </trkpt>
      <trkpt lat="43.41698" lon="6.52178">
        <ele>110.800003</ele>
        <time>2011-09-07T12:41:27Z</time>
      </trkpt>
      <trkpt lat="43.41691" lon="6.52179">
        <ele>109.900002</ele>
        <time>2011-09-07T12:41:35Z</time>
      </trkpt>
      <trkpt lat="43.41687" lon="6.52181">
        <ele>110</ele>
        <time>2011-09-07T12:41:42Z</time>
      </trkpt>
      <trkpt lat="43.41684" lon="6.52182">
        <ele>110.5</ele>
        <time>2011-09-07T12:41:46Z</time>
      </trkpt>
      <trkpt lat="43.41681" lon="6.5218">
        <ele>111.400002</ele>
        <time>2011-09-07T12:41:50Z</time>
      </trkpt>
      <trkpt lat="43.41678" lon="6.5218">
        <ele>112.099998</ele>
        <time>2011-09-07T12:41:55Z</time>
      </trkpt>
      <trkpt lat="43.41677" lon="6.52179">
        <ele>112.800003</ele>
        <time>2011-09-07T12:42:00Z</time>
      </trkpt>
      <trkpt lat="43.41675" lon="6.52178">
        <ele>113.400002</ele>
        <time>2011-09-07T12:42:04Z</time>
      </trkpt>
      <trkpt lat="43.41673" lon="6.52176">
        <ele>113.699997</ele>
        <time>2011-09-07T12:42:09Z</time>
      </trkpt>
      <trkpt lat="43.41671" lon="6.52173">
        <ele>114.199997</ele>
        <time>2011-09-07T12:42:12Z</time>
      </trkpt>
      <trkpt lat="43.41667" lon="6.52161">
        <ele>115</ele>
        <time>2011-09-07T12:42:24Z</time>
      </trkpt>
      <trkpt lat="43.41666" lon="6.52158">
        <ele>115.599998</ele>
        <time>2011-09-07T12:42:28Z</time>
      </trkpt>
      <trkpt lat="43.41665" lon="6.52155">
        <ele>116.099998</ele>
        <time>2011-09-07T12:42:31Z</time>
      </trkpt>
      <trkpt lat="43.41663" lon="6.52143">
        <ele>117.099998</ele>
        <time>2011-09-07T12:42:42Z</time>
      </trkpt>
      <trkpt lat="43.41662" lon="6.52141">
        <ele>117.300003</ele>
        <time>2011-09-07T12:42:43Z</time>
      </trkpt>
      <trkpt lat="43.4166" lon="6.52138">
        <ele>117.199997</ele>
        <time>2011-09-07T12:42:46Z</time>
      </trkpt>
      <trkpt lat="43.41659" lon="6.52129">
        <ele>118.300003</ele>
        <time>2011-09-07T12:42:53Z</time>
      </trkpt>
      <trkpt lat="43.4166" lon="6.52122">
        <ele>118.699997</ele>
        <time>2011-09-07T12:42:58Z</time>
      </trkpt>
      <trkpt lat="43.4166" lon="6.52119">
        <ele>118.900002</ele>
        <time>2011-09-07T12:43:00Z</time>
      </trkpt>
      <trkpt lat="43.4166" lon="6.52112">
        <ele>119.800003</ele>
        <time>2011-09-07T12:43:05Z</time>
      </trkpt>
      <trkpt lat="43.41661" lon="6.52111">
        <ele>120.099998</ele>
        <time>2011-09-07T12:43:06Z</time>
      </trkpt>
      <trkpt lat="43.41662" lon="6.52106">
        <ele>120.300003</ele>
        <time>2011-09-07T12:43:09Z</time>
      </trkpt>
      <trkpt lat="43.41663" lon="6.52099">
        <ele>120.599998</ele>
        <time>2011-09-07T12:43:14Z</time>
      </trkpt>
      <trkpt lat="43.41665" lon="6.52092">
        <ele>121.099998</ele>
        <time>2011-09-07T12:43:21Z</time>
      </trkpt>
      <trkpt lat="43.41667" lon="6.52087">
        <ele>121.599998</ele>
        <time>2011-09-07T12:43:26Z</time>
      </trkpt>
      <trkpt lat="43.4167" lon="6.52084">
        <ele>122.099998</ele>
        <time>2011-09-07T12:43:30Z</time>
      </trkpt>
      <trkpt lat="43.41672" lon="6.52079">
        <ele>122.599998</ele>
        <time>2011-09-07T12:43:37Z</time>
      </trkpt>
      <trkpt lat="43.41672" lon="6.52078">
        <ele>123</ele>
        <time>2011-09-07T12:43:40Z</time>
      </trkpt>
      <trkpt lat="43.41673" lon="6.52077">
        <ele>123.099998</ele>
        <time>2011-09-07T12:43:43Z</time>
      </trkpt>
      <trkpt lat="43.41673" lon="6.52078">
        <ele>123.099998</ele>
        <time>2011-09-07T12:43:47Z</time>
      </trkpt>
      <trkpt lat="43.41673" lon="6.52081">
        <ele>122.699997</ele>
        <time>2011-09-07T12:43:53Z</time>
      </trkpt>
      <trkpt lat="43.41673" lon="6.52086">
        <ele>123.300003</ele>
        <time>2011-09-07T12:43:58Z</time>
      </trkpt>
      <trkpt lat="43.4167" lon="6.52094">
        <ele>123.199997</ele>
        <time>2011-09-07T12:44:04Z</time>
      </trkpt>
      <trkpt lat="43.41669" lon="6.52098">
        <ele>123.5</ele>
        <time>2011-09-07T12:44:07Z</time>
      </trkpt>
      <trkpt lat="43.41669" lon="6.52103">
        <ele>123.800003</ele>
        <time>2011-09-07T12:44:11Z</time>
      </trkpt>
      <trkpt lat="43.4167" lon="6.52107">
        <ele>124</ele>
        <time>2011-09-07T12:44:14Z</time>
      </trkpt>
      <trkpt lat="43.41673" lon="6.52112">
        <ele>124.099998</ele>
        <time>2011-09-07T12:44:18Z</time>
      </trkpt>
      <trkpt lat="43.41674" lon="6.52115">
        <ele>124.400002</ele>
        <time>2011-09-07T12:44:20Z</time>
      </trkpt>
      <trkpt lat="43.41676" lon="6.52117">
        <ele>124.599998</ele>
        <time>2011-09-07T12:44:22Z</time>
      </trkpt>
      <trkpt lat="43.41678" lon="6.5212">
        <ele>124.699997</ele>
        <time>2011-09-07T12:44:25Z</time>
      </trkpt>
      <trkpt lat="43.41679" lon="6.52123">
        <ele>124.599998</ele>
        <time>2011-09-07T12:44:27Z</time>
      </trkpt>
      <trkpt lat="43.41682" lon="6.52125">
        <ele>124.800003</ele>
        <time>2011-09-07T12:44:30Z</time>
      </trkpt>
      <trkpt lat="43.41687" lon="6.52127">
        <ele>125.300003</ele>
        <time>2011-09-07T12:44:35Z</time>
      </trkpt>
      <trkpt lat="43.41695" lon="6.52127">
        <ele>126</ele>
        <time>2011-09-07T12:44:41Z</time>
      </trkpt>
      <trkpt lat="43.41697" lon="6.52126">
        <ele>126.5</ele>
        <time>2011-09-07T12:44:43Z</time>
      </trkpt>
      <trkpt lat="43.41703" lon="6.52121">
        <ele>126.800003</ele>
        <time>2011-09-07T12:44:48Z</time>
      </trkpt>
      <trkpt lat="43.41709" lon="6.52111">
        <ele>127.300003</ele>
        <time>2011-09-07T12:44:56Z</time>
      </trkpt>
      <trkpt lat="43.4171" lon="6.52108">
        <ele>127.300003</ele>
        <time>2011-09-07T12:44:58Z</time>
      </trkpt>
      <trkpt lat="43.41712" lon="6.52103">
        <ele>127.5</ele>
        <time>2011-09-07T12:45:02Z</time>
      </trkpt>
      <trkpt lat="43.41713" lon="6.52097">
        <ele>128.100006</ele>
        <time>2011-09-07T12:45:07Z</time>
      </trkpt>
      <trkpt lat="43.41715" lon="6.52092">
        <ele>128.199997</ele>
        <time>2011-09-07T12:45:11Z</time>
      </trkpt>
      <trkpt lat="43.41721" lon="6.52072">
        <ele>129.800003</ele>
        <time>2011-09-07T12:45:27Z</time>
      </trkpt>
      <trkpt lat="43.41725" lon="6.52062">
        <ele>130.399994</ele>
        <time>2011-09-07T12:45:35Z</time>
      </trkpt>
      <trkpt lat="43.4173" lon="6.52048">
        <ele>132.100006</ele>
        <time>2011-09-07T12:45:46Z</time>
      </trkpt>
      <trkpt lat="43.41732" lon="6.52044">
        <ele>132.5</ele>
        <time>2011-09-07T12:45:50Z</time>
      </trkpt>
      <trkpt lat="43.41733" lon="6.52042">
        <ele>132.800003</ele>
        <time>2011-09-07T12:45:52Z</time>
      </trkpt>
      <trkpt lat="43.41739" lon="6.5203">
        <ele>133.899994</ele>
        <time>2011-09-07T12:46:02Z</time>
      </trkpt>
      <trkpt lat="43.41747" lon="6.52019">
        <ele>134.800003</ele>
        <time>2011-09-07T12:46:12Z</time>
      </trkpt>
      <trkpt lat="43.41748" lon="6.52018">
        <ele>134.899994</ele>
        <time>2011-09-07T12:46:13Z</time>
      </trkpt>
      <trkpt lat="43.41752" lon="6.52014">
        <ele>134.899994</ele>
        <time>2011-09-07T12:46:18Z</time>
      </trkpt>
      <trkpt lat="43.41754" lon="6.52013">
        <ele>135</ele>
        <time>2011-09-07T12:46:21Z</time>
      </trkpt>
      <trkpt lat="43.41756" lon="6.52013">
        <ele>134.699997</ele>
        <time>2011-09-07T12:46:23Z</time>
      </trkpt>
      <trkpt lat="43.41761" lon="6.52014">
        <ele>134.800003</ele>
        <time>2011-09-07T12:46:28Z</time>
      </trkpt>
      <trkpt lat="43.41762" lon="6.52016">
        <ele>135.199997</ele>
        <time>2011-09-07T12:46:31Z</time>
      </trkpt>
      <trkpt lat="43.41764" lon="6.52022">
        <ele>134.899994</ele>
        <time>2011-09-07T12:46:36Z</time>
      </trkpt>
      <trkpt lat="43.41766" lon="6.52026">
        <ele>135.699997</ele>
        <time>2011-09-07T12:46:41Z</time>
      </trkpt>
      <trkpt lat="43.41768" lon="6.52028">
        <ele>136.199997</ele>
        <time>2011-09-07T12:46:43Z</time>
      </trkpt>
      <trkpt lat="43.4177" lon="6.52032">
        <ele>136.899994</ele>
        <time>2011-09-07T12:46:47Z</time>
      </trkpt>
      <trkpt lat="43.41771" lon="6.52037">
        <ele>137.399994</ele>
        <time>2011-09-07T12:46:51Z</time>
      </trkpt>
      <trkpt lat="43.41773" lon="6.5204">
        <ele>137.699997</ele>
        <time>2011-09-07T12:46:54Z</time>
      </trkpt>
      <trkpt lat="43.41774" lon="6.52043">
        <ele>137.800003</ele>
        <time>2011-09-07T12:46:57Z</time>
      </trkpt>
      <trkpt lat="43.41776" lon="6.52046">
        <ele>137.899994</ele>
        <time>2011-09-07T12:47:00Z</time>
      </trkpt>
      <trkpt lat="43.41778" lon="6.52049">
        <ele>137.800003</ele>
        <time>2011-09-07T12:47:02Z</time>
      </trkpt>
      <trkpt lat="43.41779" lon="6.52053">
        <ele>138.100006</ele>
        <time>2011-09-07T12:47:05Z</time>
      </trkpt>
      <trkpt lat="43.41781" lon="6.52055">
        <ele>138.399994</ele>
        <time>2011-09-07T12:47:07Z</time>
      </trkpt>
      <trkpt lat="43.41784" lon="6.52057">
        <ele>138.899994</ele>
        <time>2011-09-07T12:47:10Z</time>
      </trkpt>
      <trkpt lat="43.41788" lon="6.52058">
        <ele>139</ele>
        <time>2011-09-07T12:47:13Z</time>
      </trkpt>
      <trkpt lat="43.41791" lon="6.52057">
        <ele>138.699997</ele>
        <time>2011-09-07T12:47:16Z</time>
      </trkpt>
      <trkpt lat="43.41794" lon="6.52055">
        <ele>139.600006</ele>
        <time>2011-09-07T12:47:19Z</time>
      </trkpt>
      <trkpt lat="43.41795" lon="6.52054">
        <ele>139.5</ele>
        <time>2011-09-07T12:47:20Z</time>
      </trkpt>
      <trkpt lat="43.4181" lon="6.52043">
        <ele>140.199997</ele>
        <time>2011-09-07T12:47:34Z</time>
      </trkpt>
      <trkpt lat="43.41824" lon="6.52035">
        <ele>142.399994</ele>
        <time>2011-09-07T12:47:48Z</time>
      </trkpt>
      <trkpt lat="43.4183" lon="6.52029">
        <ele>143</ele>
        <time>2011-09-07T12:47:55Z</time>
      </trkpt>
      <trkpt lat="43.41839" lon="6.52018">
        <ele>144</ele>
        <time>2011-09-07T12:48:05Z</time>
      </trkpt>
      <trkpt lat="43.4184" lon="6.52016">
        <ele>144.699997</ele>
        <time>2011-09-07T12:48:07Z</time>
      </trkpt>
      <trkpt lat="43.41845" lon="6.52003">
        <ele>145.399994</ele>
        <time>2011-09-07T12:48:17Z</time>
      </trkpt>
      <trkpt lat="43.41847" lon="6.51991">
        <ele>146.100006</ele>
        <time>2011-09-07T12:48:26Z</time>
      </trkpt>
      <trkpt lat="43.41847" lon="6.51988">
        <ele>146.5</ele>
        <time>2011-09-07T12:48:28Z</time>
      </trkpt>
      <trkpt lat="43.41846" lon="6.5197">
        <ele>147.699997</ele>
        <time>2011-09-07T12:48:41Z</time>
      </trkpt>
      <trkpt lat="43.41839" lon="6.51947">
        <ele>151</ele>
        <time>2011-09-07T12:49:01Z</time>
      </trkpt>
      <trkpt lat="43.41834" lon="6.5194">
        <ele>151</ele>
        <time>2011-09-07T12:49:08Z</time>
      </trkpt>
      <trkpt lat="43.41832" lon="6.51939">
        <ele>151.300003</ele>
        <time>2011-09-07T12:49:10Z</time>
      </trkpt>
      <trkpt lat="43.41823" lon="6.51937">
        <ele>151.899994</ele>
        <time>2011-09-07T12:49:19Z</time>
      </trkpt>
      <trkpt lat="43.41821" lon="6.51937">
        <ele>152</ele>
        <time>2011-09-07T12:49:21Z</time>
      </trkpt>
      <trkpt lat="43.41816" lon="6.51934">
        <ele>151.600006</ele>
        <time>2011-09-07T12:49:26Z</time>
      </trkpt>
      <trkpt lat="43.41809" lon="6.5193">
        <ele>150.699997</ele>
        <time>2011-09-07T12:49:32Z</time>
      </trkpt>
      <trkpt lat="43.41807" lon="6.5193">
        <ele>151</ele>
        <time>2011-09-07T12:49:34Z</time>
      </trkpt>
      <trkpt lat="43.41803" lon="6.5193">
        <ele>151.199997</ele>
        <time>2011-09-07T12:49:38Z</time>
      </trkpt>
      <trkpt lat="43.41797" lon="6.51931">
        <ele>151.399994</ele>
        <time>2011-09-07T12:49:44Z</time>
      </trkpt>
      <trkpt lat="43.41794" lon="6.5193">
        <ele>152</ele>
        <time>2011-09-07T12:49:47Z</time>
      </trkpt>
      <trkpt lat="43.4179" lon="6.5193">
        <ele>152.5</ele>
        <time>2011-09-07T12:49:51Z</time>
      </trkpt>
      <trkpt lat="43.41788" lon="6.51929">
        <ele>152.800003</ele>
        <time>2011-09-07T12:49:53Z</time>
      </trkpt>
      <trkpt lat="43.41779" lon="6.51931">
        <ele>153.100006</ele>
        <time>2011-09-07T12:50:01Z</time>
      </trkpt>
      <trkpt lat="43.4177" lon="6.51932">
        <ele>154.699997</ele>
        <time>2011-09-07T12:50:10Z</time>
      </trkpt>
      <trkpt lat="43.41768" lon="6.51932">
        <ele>155.100006</ele>
        <time>2011-09-07T12:50:13Z</time>
      </trkpt>
      <trkpt lat="43.41766" lon="6.51932">
        <ele>155.300003</ele>
        <time>2011-09-07T12:50:15Z</time>
      </trkpt>
      <trkpt lat="43.41762" lon="6.51933">
        <ele>156.100006</ele>
        <time>2011-09-07T12:50:20Z</time>
      </trkpt>
      <trkpt lat="43.41758" lon="6.51933">
        <ele>156.600006</ele>
        <time>2011-09-07T12:50:25Z</time>
      </trkpt>
      <trkpt lat="43.41751" lon="6.51934">
        <ele>158</ele>
        <time>2011-09-07T12:50:32Z</time>
      </trkpt>
      <trkpt lat="43.41748" lon="6.51934">
        <ele>158.699997</ele>
        <time>2011-09-07T12:50:35Z</time>
      </trkpt>
      <trkpt lat="43.41744" lon="6.51935">
        <ele>159.199997</ele>
        <time>2011-09-07T12:50:39Z</time>
      </trkpt>
      <trkpt lat="43.41742" lon="6.51934">
        <ele>159.5</ele>
        <time>2011-09-07T12:50:42Z</time>
      </trkpt>
      <trkpt lat="43.41731" lon="6.51931">
        <ele>160.600006</ele>
        <time>2011-09-07T12:50:51Z</time>
      </trkpt>
      <trkpt lat="43.41714" lon="6.51923">
        <ele>160.600006</ele>
        <time>2011-09-07T12:51:06Z</time>
      </trkpt>
      <trkpt lat="43.41713" lon="6.51922">
        <ele>160.800003</ele>
        <time>2011-09-07T12:51:07Z</time>
      </trkpt>
      <trkpt lat="43.41702" lon="6.51914">
        <ele>160.899994</ele>
        <time>2011-09-07T12:51:17Z</time>
      </trkpt>
      <trkpt lat="43.41701" lon="6.51913">
        <ele>160.899994</ele>
        <time>2011-09-07T12:51:18Z</time>
      </trkpt>
      <trkpt lat="43.41698" lon="6.51911">
        <ele>160.5</ele>
        <time>2011-09-07T12:51:22Z</time>
      </trkpt>
      <trkpt lat="43.41697" lon="6.51911">
        <ele>160.600006</ele>
        <time>2011-09-07T12:51:24Z</time>
      </trkpt>
      <trkpt lat="43.41694" lon="6.51909">
        <ele>160.699997</ele>
        <time>2011-09-07T12:51:27Z</time>
      </trkpt>
      <trkpt lat="43.41693" lon="6.51909">
        <ele>161</ele>
        <time>2011-09-07T12:51:29Z</time>
      </trkpt>
      <trkpt lat="43.4169" lon="6.51907">
        <ele>161.399994</ele>
        <time>2011-09-07T12:51:32Z</time>
      </trkpt>
      <trkpt lat="43.41685" lon="6.51904">
        <ele>162.100006</ele>
        <time>2011-09-07T12:51:36Z</time>
      </trkpt>
      <trkpt lat="43.41683" lon="6.51903">
        <ele>162.899994</ele>
        <time>2011-09-07T12:51:39Z</time>
      </trkpt>
      <trkpt lat="43.41679" lon="6.51903">
        <ele>163.899994</ele>
        <time>2011-09-07T12:51:43Z</time>
      </trkpt>
      <trkpt lat="43.41675" lon="6.51903">
        <ele>165</ele>
        <time>2011-09-07T12:51:47Z</time>
      </trkpt>
      <trkpt lat="43.41673" lon="6.51904">
        <ele>165.199997</ele>
        <time>2011-09-07T12:51:50Z</time>
      </trkpt>
      <trkpt lat="43.41669" lon="6.51903">
        <ele>164.699997</ele>
        <time>2011-09-07T12:51:56Z</time>
      </trkpt>
      <trkpt lat="43.41669" lon="6.51902">
        <ele>164.600006</ele>
        <time>2011-09-07T12:51:58Z</time>
      </trkpt>
      <trkpt lat="43.41668" lon="6.519">
        <ele>164.600006</ele>
        <time>2011-09-07T12:52:05Z</time>
      </trkpt>
      <trkpt lat="43.41668" lon="6.519">
        <ele>164.899994</ele>
        <time>2011-09-07T12:52:10Z</time>
      </trkpt>
      <trkpt lat="43.41666" lon="6.51899">
        <ele>165.800003</ele>
        <time>2011-09-07T12:52:21Z</time>
      </trkpt>
      <trkpt lat="43.41666" lon="6.519">
        <ele>166.100006</ele>
        <time>2011-09-07T12:52:29Z</time>
      </trkpt>
      <trkpt lat="43.41665" lon="6.51899">
        <ele>166</ele>
        <time>2011-09-07T12:52:32Z</time>
      </trkpt>
      <trkpt lat="43.41664" lon="6.51888">
        <ele>165.699997</ele>
        <time>2011-09-07T12:52:42Z</time>
      </trkpt>
      <trkpt lat="43.41665" lon="6.51886">
        <ele>165.399994</ele>
        <time>2011-09-07T12:52:47Z</time>
      </trkpt>
      <trkpt lat="43.41665" lon="6.51885">
        <ele>165.100006</ele>
        <time>2011-09-07T12:52:51Z</time>
      </trkpt>
      <trkpt lat="43.41664" lon="6.51884">
        <ele>165.5</ele>
        <time>2011-09-07T12:52:56Z</time>
      </trkpt>
      <trkpt lat="43.41663" lon="6.51873">
        <ele>165.699997</ele>
        <time>2011-09-07T12:53:04Z</time>
      </trkpt>
      <trkpt lat="43.4166" lon="6.51859">
        <ele>166.600006</ele>
        <time>2011-09-07T12:53:15Z</time>
      </trkpt>
      <trkpt lat="43.41659" lon="6.51854">
        <ele>167.100006</ele>
        <time>2011-09-07T12:53:19Z</time>
      </trkpt>
      <trkpt lat="43.41658" lon="6.5185">
        <ele>167.100006</ele>
        <time>2011-09-07T12:53:23Z</time>
      </trkpt>
      <trkpt lat="43.41657" lon="6.51839">
        <ele>168.399994</ele>
        <time>2011-09-07T12:53:33Z</time>
      </trkpt>
      <trkpt lat="43.41657" lon="6.51837">
        <ele>168.699997</ele>
        <time>2011-09-07T12:53:34Z</time>
      </trkpt>
      <trkpt lat="43.41656" lon="6.51831">
        <ele>169.600006</ele>
        <time>2011-09-07T12:53:40Z</time>
      </trkpt>
      <trkpt lat="43.41656" lon="6.51827">
        <ele>170.199997</ele>
        <time>2011-09-07T12:53:43Z</time>
      </trkpt>
      <trkpt lat="43.41656" lon="6.51808">
        <ele>171</ele>
        <time>2011-09-07T12:54:00Z</time>
      </trkpt>
      <trkpt lat="43.41657" lon="6.51803">
        <ele>171.899994</ele>
        <time>2011-09-07T12:54:04Z</time>
      </trkpt>
      <trkpt lat="43.41657" lon="6.51801">
        <ele>172</ele>
        <time>2011-09-07T12:54:05Z</time>
      </trkpt>
      <trkpt lat="43.41658" lon="6.51794">
        <ele>172.5</ele>
        <time>2011-09-07T12:54:11Z</time>
      </trkpt>
      <trkpt lat="43.41658" lon="6.5179">
        <ele>172.699997</ele>
        <time>2011-09-07T12:54:17Z</time>
      </trkpt>
      <trkpt lat="43.41657" lon="6.51776">
        <ele>173.899994</ele>
        <time>2011-09-07T12:54:30Z</time>
      </trkpt>
      <trkpt lat="43.41657" lon="6.51774">
        <ele>174</ele>
        <time>2011-09-07T12:54:31Z</time>
      </trkpt>
      <trkpt lat="43.41655" lon="6.51745">
        <ele>176</ele>
        <time>2011-09-07T12:54:58Z</time>
      </trkpt>
      <trkpt lat="43.41655" lon="6.51741">
        <ele>176.600006</ele>
        <time>2011-09-07T12:55:02Z</time>
      </trkpt>
      <trkpt lat="43.41656" lon="6.51737">
        <ele>176.600006</ele>
        <time>2011-09-07T12:55:05Z</time>
      </trkpt>
      <trkpt lat="43.41656" lon="6.51734">
        <ele>176.899994</ele>
        <time>2011-09-07T12:55:07Z</time>
      </trkpt>
      <trkpt lat="43.41657" lon="6.5173">
        <ele>177.600006</ele>
        <time>2011-09-07T12:55:11Z</time>
      </trkpt>
      <trkpt lat="43.41658" lon="6.51728">
        <ele>177.699997</ele>
        <time>2011-09-07T12:55:14Z</time>
      </trkpt>
      <trkpt lat="43.41659" lon="6.51722">
        <ele>179.199997</ele>
        <time>2011-09-07T12:55:21Z</time>
      </trkpt>
      <trkpt lat="43.41657" lon="6.51717">
        <ele>179.199997</ele>
        <time>2011-09-07T12:55:28Z</time>
      </trkpt>
      <trkpt lat="43.41657" lon="6.51716">
        <ele>179.100006</ele>
        <time>2011-09-07T12:55:37Z</time>
      </trkpt>
      <trkpt lat="43.41658" lon="6.51714">
        <ele>179.199997</ele>
        <time>2011-09-07T12:55:41Z</time>
      </trkpt>
      <trkpt lat="43.41659" lon="6.51712">
        <ele>179.199997</ele>
        <time>2011-09-07T12:55:47Z</time>
      </trkpt>
      <trkpt lat="43.41659" lon="6.51713">
        <ele>179.699997</ele>
        <time>2011-09-07T12:55:53Z</time>
      </trkpt>
      <trkpt lat="43.41661" lon="6.51707">
        <ele>180.199997</ele>
        <time>2011-09-07T12:56:05Z</time>
      </trkpt>
      <trkpt lat="43.41662" lon="6.51704">
        <ele>180.100006</ele>
        <time>2011-09-07T12:56:14Z</time>
      </trkpt>
      <trkpt lat="43.41664" lon="6.51706">
        <ele>179.800003</ele>
        <time>2011-09-07T12:56:21Z</time>
      </trkpt>
      <trkpt lat="43.41663" lon="6.51711">
        <ele>179.300003</ele>
        <time>2011-09-07T12:56:29Z</time>
      </trkpt>
      <trkpt lat="43.41661" lon="6.51712">
        <ele>180</ele>
        <time>2011-09-07T12:56:32Z</time>
      </trkpt>
      <trkpt lat="43.4166" lon="6.51712">
        <ele>179.699997</ele>
        <time>2011-09-07T12:56:34Z</time>
      </trkpt>
      <trkpt lat="43.41659" lon="6.51711">
        <ele>179.5</ele>
        <time>2011-09-07T12:56:37Z</time>
      </trkpt>
      <trkpt lat="43.41658" lon="6.51711">
        <ele>179.399994</ele>
        <time>2011-09-07T12:56:41Z</time>
      </trkpt>
      <trkpt lat="43.41657" lon="6.51712">
        <ele>179.399994</ele>
        <time>2011-09-07T12:56:49Z</time>
      </trkpt>
      <trkpt lat="43.41656" lon="6.51711">
        <ele>179</ele>
        <time>2011-09-07T12:56:54Z</time>
      </trkpt>
      <trkpt lat="43.41656" lon="6.51713">
        <ele>179</ele>
        <time>2011-09-07T12:57:01Z</time>
      </trkpt>
      <trkpt lat="43.41657" lon="6.51712">
        <ele>179.600006</ele>
        <time>2011-09-07T12:57:12Z</time>
      </trkpt>
      <trkpt lat="43.41661" lon="6.51711">
        <ele>179.600006</ele>
        <time>2011-09-07T12:57:22Z</time>
      </trkpt>
      <trkpt lat="43.41664" lon="6.51711">
        <ele>179.899994</ele>
        <time>2011-09-07T12:57:32Z</time>
      </trkpt>
      <trkpt lat="43.41662" lon="6.51712">
        <ele>179.600006</ele>
        <time>2011-09-07T12:57:38Z</time>
      </trkpt>
      <trkpt lat="43.4166" lon="6.51712">
        <ele>180.199997</ele>
        <time>2011-09-07T12:57:58Z</time>
      </trkpt>
      <trkpt lat="43.41658" lon="6.51713">
        <ele>180.199997</ele>
        <time>2011-09-07T12:58:02Z</time>
      </trkpt>
      <trkpt lat="43.41658" lon="6.51715">
        <ele>180.5</ele>
        <time>2011-09-07T12:58:06Z</time>
      </trkpt>
      <trkpt lat="43.41659" lon="6.51718">
        <ele>180.699997</ele>
        <time>2011-09-07T12:58:13Z</time>
      </trkpt>
      <trkpt lat="43.41657" lon="6.51715">
        <ele>180.699997</ele>
        <time>2011-09-07T12:58:22Z</time>
      </trkpt>
      <trkpt lat="43.41656" lon="6.51714">
        <ele>180.399994</ele>
        <time>2011-09-07T12:58:31Z</time>
      </trkpt>
      <trkpt lat="43.41657" lon="6.51715">
        <ele>180.199997</ele>
        <time>2011-09-07T12:58:43Z</time>
      </trkpt>
      <trkpt lat="43.41656" lon="6.51714">
        <ele>180.399994</ele>
        <time>2011-09-07T12:58:53Z</time>
      </trkpt>
      <trkpt lat="43.41656" lon="6.51715">
        <ele>180.899994</ele>
        <time>2011-09-07T12:59:00Z</time>
      </trkpt>
      <trkpt lat="43.41657" lon="6.51715">
        <ele>181.100006</ele>
        <time>2011-09-07T12:59:03Z</time>
      </trkpt>
      <trkpt lat="43.41655" lon="6.51713">
        <ele>181</ele>
        <time>2011-09-07T12:59:10Z</time>
      </trkpt>
      <trkpt lat="43.41654" lon="6.51712">
        <ele>180.399994</ele>
        <time>2011-09-07T12:59:28Z</time>
      </trkpt>
      <trkpt lat="43.41657" lon="6.51712">
        <ele>180.399994</ele>
        <time>2011-09-07T12:59:40Z</time>
      </trkpt>
      <trkpt lat="43.41657" lon="6.51712">
        <ele>180.699997</ele>
        <time>2011-09-07T12:59:44Z</time>
      </trkpt>
      <trkpt lat="43.41657" lon="6.5171">
        <ele>180.300003</ele>
        <time>2011-09-07T12:59:49Z</time>
      </trkpt>
      <trkpt lat="43.41655" lon="6.51708">
        <ele>180.699997</ele>
        <time>2011-09-07T13:00:01Z</time>
      </trkpt>
      <trkpt lat="43.41655" lon="6.51709">
        <ele>180.600006</ele>
        <time>2011-09-07T13:00:08Z</time>
      </trkpt>
      <trkpt lat="43.41655" lon="6.51709">
        <ele>180.199997</ele>
        <time>2011-09-07T13:00:13Z</time>
      </trkpt>
      <trkpt lat="43.41654" lon="6.51709">
        <ele>179.699997</ele>
        <time>2011-09-07T13:00:17Z</time>
      </trkpt>
      <trkpt lat="43.41654" lon="6.5171">
        <ele>179.800003</ele>
        <time>2011-09-07T13:00:21Z</time>
      </trkpt>
      <trkpt lat="43.41654" lon="6.51711">
        <ele>179.800003</ele>
        <time>2011-09-07T13:00:32Z</time>
      </trkpt>
      <trkpt lat="43.41653" lon="6.51718">
        <ele>179.199997</ele>
        <time>2011-09-07T13:00:41Z</time>
      </trkpt>
      <trkpt lat="43.41653" lon="6.51716">
        <ele>179</ele>
        <time>2011-09-07T13:00:44Z</time>
      </trkpt>
      <trkpt lat="43.41654" lon="6.51712">
        <ele>179</ele>
        <time>2011-09-07T13:00:48Z</time>
      </trkpt>
      <trkpt lat="43.41653" lon="6.5171">
        <ele>178.5</ele>
        <time>2011-09-07T13:00:54Z</time>
      </trkpt>
      <trkpt lat="43.41653" lon="6.51708">
        <ele>179</ele>
        <time>2011-09-07T13:01:03Z</time>
      </trkpt>
      <trkpt lat="43.41654" lon="6.51707">
        <ele>179.199997</ele>
        <time>2011-09-07T13:01:08Z</time>
      </trkpt>
      <trkpt lat="43.41655" lon="6.51702">
        <ele>179.300003</ele>
        <time>2011-09-07T13:01:14Z</time>
      </trkpt>
      <trkpt lat="43.41655" lon="6.517">
        <ele>179.800003</ele>
        <time>2011-09-07T13:01:20Z</time>
      </trkpt>
      <trkpt lat="43.41654" lon="6.51702">
        <ele>181</ele>
        <time>2011-09-07T13:01:37Z</time>
      </trkpt>
      <trkpt lat="43.41654" lon="6.51703">
        <ele>181.100006</ele>
        <time>2011-09-07T13:01:45Z</time>
      </trkpt>
      <trkpt lat="43.41654" lon="6.51702">
        <ele>180.600006</ele>
        <time>2011-09-07T13:01:52Z</time>
      </trkpt>
      <trkpt lat="43.41651" lon="6.51701">
        <ele>180.199997</ele>
        <time>2011-09-07T13:01:56Z</time>
      </trkpt>
      <trkpt lat="43.41648" lon="6.517">
        <ele>179.899994</ele>
        <time>2011-09-07T13:01:59Z</time>
      </trkpt>
      <trkpt lat="43.41647" lon="6.51699">
        <ele>179.800003</ele>
        <time>2011-09-07T13:02:01Z</time>
      </trkpt>
      <trkpt lat="43.41641" lon="6.51696">
        <ele>180</ele>
        <time>2011-09-07T13:02:07Z</time>
      </trkpt>
      <trkpt lat="43.41637" lon="6.51695">
        <ele>179.600006</ele>
        <time>2011-09-07T13:02:10Z</time>
      </trkpt>
      <trkpt lat="43.41634" lon="6.51696">
        <ele>179.899994</ele>
        <time>2011-09-07T13:02:13Z</time>
      </trkpt>
      <trkpt lat="43.41628" lon="6.517">
        <ele>179</ele>
        <time>2011-09-07T13:02:21Z</time>
      </trkpt>
      <trkpt lat="43.41625" lon="6.51706">
        <ele>179.300003</ele>
        <time>2011-09-07T13:02:27Z</time>
      </trkpt>
      <trkpt lat="43.41622" lon="6.5171">
        <ele>179.5</ele>
        <time>2011-09-07T13:02:30Z</time>
      </trkpt>
      <trkpt lat="43.41619" lon="6.51712">
        <ele>179.5</ele>
        <time>2011-09-07T13:02:33Z</time>
      </trkpt>
      <trkpt lat="43.41617" lon="6.51716">
        <ele>179.699997</ele>
        <time>2011-09-07T13:02:36Z</time>
      </trkpt>
      <trkpt lat="43.41615" lon="6.51718">
        <ele>179.600006</ele>
        <time>2011-09-07T13:02:38Z</time>
      </trkpt>
      <trkpt lat="43.41614" lon="6.5172">
        <ele>179.699997</ele>
        <time>2011-09-07T13:02:40Z</time>
      </trkpt>
      <trkpt lat="43.41609" lon="6.51727">
        <ele>179.899994</ele>
        <time>2011-09-07T13:02:46Z</time>
      </trkpt>
      <trkpt lat="43.41603" lon="6.51735">
        <ele>179.399994</ele>
        <time>2011-09-07T13:02:53Z</time>
      </trkpt>
      <trkpt lat="43.41596" lon="6.51741">
        <ele>179.300003</ele>
        <time>2011-09-07T13:02:59Z</time>
      </trkpt>
      <trkpt lat="43.41591" lon="6.51744">
        <ele>179.100006</ele>
        <time>2011-09-07T13:03:03Z</time>
      </trkpt>
      <trkpt lat="43.41583" lon="6.51744">
        <ele>179.399994</ele>
        <time>2011-09-07T13:03:09Z</time>
      </trkpt>
      <trkpt lat="43.41582" lon="6.51744">
        <ele>179.600006</ele>
        <time>2011-09-07T13:03:10Z</time>
      </trkpt>
      <trkpt lat="43.41572" lon="6.51742">
        <ele>179.300003</ele>
        <time>2011-09-07T13:03:18Z</time>
      </trkpt>
      <trkpt lat="43.41564" lon="6.5174">
        <ele>179.5</ele>
        <time>2011-09-07T13:03:25Z</time>
      </trkpt>
      <trkpt lat="43.41552" lon="6.51735">
        <ele>179.100006</ele>
        <time>2011-09-07T13:03:36Z</time>
      </trkpt>
      <trkpt lat="43.41546" lon="6.5173">
        <ele>178.600006</ele>
        <time>2011-09-07T13:03:42Z</time>
      </trkpt>
      <trkpt lat="43.4154" lon="6.51727">
        <ele>178.5</ele>
        <time>2011-09-07T13:03:47Z</time>
      </trkpt>
      <trkpt lat="43.41535" lon="6.51723">
        <ele>178.399994</ele>
        <time>2011-09-07T13:03:52Z</time>
      </trkpt>
      <trkpt lat="43.41533" lon="6.51722">
        <ele>178.600006</ele>
        <time>2011-09-07T13:03:54Z</time>
      </trkpt>
      <trkpt lat="43.41529" lon="6.51719">
        <ele>178.399994</ele>
        <time>2011-09-07T13:03:58Z</time>
      </trkpt>
      <trkpt lat="43.41522" lon="6.51714">
        <ele>178.800003</ele>
        <time>2011-09-07T13:04:04Z</time>
      </trkpt>
      <trkpt lat="43.41519" lon="6.51712">
        <ele>178.800003</ele>
        <time>2011-09-07T13:04:07Z</time>
      </trkpt>
      <trkpt lat="43.41517" lon="6.51713">
        <ele>179</ele>
        <time>2011-09-07T13:04:10Z</time>
      </trkpt>
      <trkpt lat="43.41513" lon="6.51711">
        <ele>178.899994</ele>
        <time>2011-09-07T13:04:14Z</time>
      </trkpt>
      <trkpt lat="43.41506" lon="6.51711">
        <ele>178.899994</ele>
        <time>2011-09-07T13:04:20Z</time>
      </trkpt>
      <trkpt lat="43.41503" lon="6.51709">
        <ele>178.699997</ele>
        <time>2011-09-07T13:04:23Z</time>
      </trkpt>
      <trkpt lat="43.415" lon="6.51708">
        <ele>179.199997</ele>
        <time>2011-09-07T13:04:26Z</time>
      </trkpt>
      <trkpt lat="43.41494" lon="6.51706">
        <ele>179.300003</ele>
        <time>2011-09-07T13:04:31Z</time>
      </trkpt>
      <trkpt lat="43.41493" lon="6.51705">
        <ele>179.399994</ele>
        <time>2011-09-07T13:04:32Z</time>
      </trkpt>
      <trkpt lat="43.41488" lon="6.51702">
        <ele>179.199997</ele>
        <time>2011-09-07T13:04:36Z</time>
      </trkpt>
      <trkpt lat="43.41486" lon="6.51702">
        <ele>179.399994</ele>
        <time>2011-09-07T13:04:37Z</time>
      </trkpt>
      <trkpt lat="43.41482" lon="6.51699">
        <ele>179.699997</ele>
        <time>2011-09-07T13:04:40Z</time>
      </trkpt>
      <trkpt lat="43.41478" lon="6.51698">
        <ele>179.699997</ele>
        <time>2011-09-07T13:04:44Z</time>
      </trkpt>
      <trkpt lat="43.41477" lon="6.51699">
        <ele>179.800003</ele>
        <time>2011-09-07T13:04:45Z</time>
      </trkpt>
      <trkpt lat="43.41473" lon="6.51701">
        <ele>180</ele>
        <time>2011-09-07T13:04:48Z</time>
      </trkpt>
      <trkpt lat="43.4147" lon="6.51703">
        <ele>180.300003</ele>
        <time>2011-09-07T13:04:51Z</time>
      </trkpt>
      <trkpt lat="43.41467" lon="6.51707">
        <ele>180.300003</ele>
        <time>2011-09-07T13:04:55Z</time>
      </trkpt>
      <trkpt lat="43.41466" lon="6.51709">
        <ele>180.100006</ele>
        <time>2011-09-07T13:04:57Z</time>
      </trkpt>
      <trkpt lat="43.41463" lon="6.51713">
        <ele>180.399994</ele>
        <time>2011-09-07T13:05:01Z</time>
      </trkpt>
      <trkpt lat="43.41461" lon="6.51718">
        <ele>180.199997</ele>
        <time>2011-09-07T13:05:05Z</time>
      </trkpt>
      <trkpt lat="43.41456" lon="6.51726">
        <ele>179.800003</ele>
        <time>2011-09-07T13:05:12Z</time>
      </trkpt>
      <trkpt lat="43.41453" lon="6.51732">
        <ele>179.699997</ele>
        <time>2011-09-07T13:05:18Z</time>
      </trkpt>
      <trkpt lat="43.4145" lon="6.51736">
        <ele>179.199997</ele>
        <time>2011-09-07T13:05:21Z</time>
      </trkpt>
      <trkpt lat="43.41447" lon="6.51741">
        <ele>179.300003</ele>
        <time>2011-09-07T13:05:25Z</time>
      </trkpt>
      <trkpt lat="43.41445" lon="6.51745">
        <ele>179.5</ele>
        <time>2011-09-07T13:05:29Z</time>
      </trkpt>
      <trkpt lat="43.41426" lon="6.51766">
        <ele>180.399994</ele>
        <time>2011-09-07T13:05:47Z</time>
      </trkpt>
      <trkpt lat="43.41416" lon="6.51774">
        <ele>179.899994</ele>
        <time>2011-09-07T13:05:55Z</time>
      </trkpt>
      <trkpt lat="43.41412" lon="6.51776">
        <ele>179.899994</ele>
        <time>2011-09-07T13:05:58Z</time>
      </trkpt>
      <trkpt lat="43.41411" lon="6.51776">
        <ele>179.699997</ele>
        <time>2011-09-07T13:05:59Z</time>
      </trkpt>
      <trkpt lat="43.41404" lon="6.51776">
        <ele>179.100006</ele>
        <time>2011-09-07T13:06:04Z</time>
      </trkpt>
      <trkpt lat="43.41399" lon="6.51774">
        <ele>179.199997</ele>
        <time>2011-09-07T13:06:08Z</time>
      </trkpt>
      <trkpt lat="43.41398" lon="6.51773">
        <ele>178.699997</ele>
        <time>2011-09-07T13:06:09Z</time>
      </trkpt>
      <trkpt lat="43.41385" lon="6.51761">
        <ele>179.100006</ele>
        <time>2011-09-07T13:06:21Z</time>
      </trkpt>
      <trkpt lat="43.41379" lon="6.51756">
        <ele>179.699997</ele>
        <time>2011-09-07T13:06:27Z</time>
      </trkpt>
      <trkpt lat="43.41369" lon="6.51744">
        <ele>179.800003</ele>
        <time>2011-09-07T13:06:38Z</time>
      </trkpt>
      <trkpt lat="43.41366" lon="6.5174">
        <ele>180.300003</ele>
        <time>2011-09-07T13:06:42Z</time>
      </trkpt>
      <trkpt lat="43.41363" lon="6.51737">
        <ele>180.399994</ele>
        <time>2011-09-07T13:06:45Z</time>
      </trkpt>
      <trkpt lat="43.41361" lon="6.51735">
        <ele>180.5</ele>
        <time>2011-09-07T13:06:47Z</time>
      </trkpt>
      <trkpt lat="43.41357" lon="6.51732">
        <ele>180.300003</ele>
        <time>2011-09-07T13:06:52Z</time>
      </trkpt>
      <trkpt lat="43.41349" lon="6.51729">
        <ele>181.5</ele>
        <time>2011-09-07T13:06:59Z</time>
      </trkpt>
      <trkpt lat="43.41344" lon="6.51728">
        <ele>181.5</ele>
        <time>2011-09-07T13:07:03Z</time>
      </trkpt>
      <trkpt lat="43.4134" lon="6.51729">
        <ele>182.699997</ele>
        <time>2011-09-07T13:07:07Z</time>
      </trkpt>
      <trkpt lat="43.41338" lon="6.51729">
        <ele>183</ele>
        <time>2011-09-07T13:07:09Z</time>
      </trkpt>
      <trkpt lat="43.41334" lon="6.51731">
        <ele>183.699997</ele>
        <time>2011-09-07T13:07:14Z</time>
      </trkpt>
      <trkpt lat="43.41331" lon="6.51732">
        <ele>184.600006</ele>
        <time>2011-09-07T13:07:18Z</time>
      </trkpt>
      <trkpt lat="43.41326" lon="6.51732">
        <ele>184.199997</ele>
        <time>2011-09-07T13:07:22Z</time>
      </trkpt>
      <trkpt lat="43.41323" lon="6.51733">
        <ele>185.199997</ele>
        <time>2011-09-07T13:07:26Z</time>
      </trkpt>
      <trkpt lat="43.41319" lon="6.51733">
        <ele>185.399994</ele>
        <time>2011-09-07T13:07:29Z</time>
      </trkpt>
      <trkpt lat="43.41314" lon="6.51733">
        <ele>185.300003</ele>
        <time>2011-09-07T13:07:34Z</time>
      </trkpt>
      <trkpt lat="43.41307" lon="6.51731">
        <ele>186.300003</ele>
        <time>2011-09-07T13:07:40Z</time>
      </trkpt>
      <trkpt lat="43.41303" lon="6.5173">
        <ele>186.300003</ele>
        <time>2011-09-07T13:07:43Z</time>
      </trkpt>
      <trkpt lat="43.41301" lon="6.5173">
        <ele>186.199997</ele>
        <time>2011-09-07T13:07:45Z</time>
      </trkpt>
      <trkpt lat="43.41298" lon="6.51729">
        <ele>186.5</ele>
        <time>2011-09-07T13:07:48Z</time>
      </trkpt>
      <trkpt lat="43.41287" lon="6.51723">
        <ele>187.800003</ele>
        <time>2011-09-07T13:07:57Z</time>
      </trkpt>
      <trkpt lat="43.41285" lon="6.51722">
        <ele>187.800003</ele>
        <time>2011-09-07T13:07:59Z</time>
      </trkpt>
      <trkpt lat="43.41281" lon="6.51718">
        <ele>188.5</ele>
        <time>2011-09-07T13:08:04Z</time>
      </trkpt>
      <trkpt lat="43.41279" lon="6.51717">
        <ele>188.699997</ele>
        <time>2011-09-07T13:08:06Z</time>
      </trkpt>
      <trkpt lat="43.41276" lon="6.51715">
        <ele>187.800003</ele>
        <time>2011-09-07T13:08:10Z</time>
      </trkpt>
      <trkpt lat="43.41269" lon="6.5171">
        <ele>187.800003</ele>
        <time>2011-09-07T13:08:16Z</time>
      </trkpt>
      <trkpt lat="43.41258" lon="6.51702">
        <ele>189.300003</ele>
        <time>2011-09-07T13:08:27Z</time>
      </trkpt>
      <trkpt lat="43.41252" lon="6.51698">
        <ele>190.600006</ele>
        <time>2011-09-07T13:08:33Z</time>
      </trkpt>
      <trkpt lat="43.4125" lon="6.51696">
        <ele>190.800003</ele>
        <time>2011-09-07T13:08:35Z</time>
      </trkpt>
      <trkpt lat="43.41246" lon="6.51694">
        <ele>190.699997</ele>
        <time>2011-09-07T13:08:39Z</time>
      </trkpt>
      <trkpt lat="43.41243" lon="6.51692">
        <ele>191.100006</ele>
        <time>2011-09-07T13:08:42Z</time>
      </trkpt>
      <trkpt lat="43.41239" lon="6.51689">
        <ele>191.399994</ele>
        <time>2011-09-07T13:08:46Z</time>
      </trkpt>
      <trkpt lat="43.41233" lon="6.51685">
        <ele>192.199997</ele>
        <time>2011-09-07T13:08:52Z</time>
      </trkpt>
      <trkpt lat="43.41231" lon="6.51681">
        <ele>192.100006</ele>
        <time>2011-09-07T13:08:55Z</time>
      </trkpt>
      <trkpt lat="43.41229" lon="6.51679">
        <ele>192.399994</ele>
        <time>2011-09-07T13:08:57Z</time>
      </trkpt>
      <trkpt lat="43.41224" lon="6.5167">
        <ele>192.399994</ele>
        <time>2011-09-07T13:09:04Z</time>
      </trkpt>
      <trkpt lat="43.41223" lon="6.51669">
        <ele>192.5</ele>
        <time>2011-09-07T13:09:05Z</time>
      </trkpt>
      <trkpt lat="43.41215" lon="6.51649">
        <ele>194</ele>
        <time>2011-09-07T13:09:19Z</time>
      </trkpt>
      <trkpt lat="43.41212" lon="6.51641">
        <ele>194.5</ele>
        <time>2011-09-07T13:09:25Z</time>
      </trkpt>
      <trkpt lat="43.4121" lon="6.51633">
        <ele>195.300003</ele>
        <time>2011-09-07T13:09:31Z</time>
      </trkpt>
      <trkpt lat="43.41207" lon="6.51614">
        <ele>197.399994</ele>
        <time>2011-09-07T13:09:44Z</time>
      </trkpt>
      <trkpt lat="43.41206" lon="6.51602">
        <ele>198.199997</ele>
        <time>2011-09-07T13:09:52Z</time>
      </trkpt>
      <trkpt lat="43.41206" lon="6.51589">
        <ele>198.699997</ele>
        <time>2011-09-07T13:10:01Z</time>
      </trkpt>
      <trkpt lat="43.41207" lon="6.51584">
        <ele>199.5</ele>
        <time>2011-09-07T13:10:05Z</time>
      </trkpt>
      <trkpt lat="43.41207" lon="6.51583">
        <ele>199.699997</ele>
        <time>2011-09-07T13:10:07Z</time>
      </trkpt>
      <trkpt lat="43.41206" lon="6.51578">
        <ele>199.199997</ele>
        <time>2011-09-07T13:10:11Z</time>
      </trkpt>
      <trkpt lat="43.41207" lon="6.51574">
        <ele>199.100006</ele>
        <time>2011-09-07T13:10:14Z</time>
      </trkpt>
      <trkpt lat="43.41208" lon="6.51569">
        <ele>199.100006</ele>
        <time>2011-09-07T13:10:18Z</time>
      </trkpt>
      <trkpt lat="43.41209" lon="6.51568">
        <ele>199</ele>
        <time>2011-09-07T13:10:20Z</time>
      </trkpt>
      <trkpt lat="43.41212" lon="6.51566">
        <ele>199.100006</ele>
        <time>2011-09-07T13:10:24Z</time>
      </trkpt>
      <trkpt lat="43.41214" lon="6.51568">
        <ele>199.600006</ele>
        <time>2011-09-07T13:10:29Z</time>
      </trkpt>
      <trkpt lat="43.41216" lon="6.51571">
        <ele>200</ele>
        <time>2011-09-07T13:10:32Z</time>
      </trkpt>
      <trkpt lat="43.41217" lon="6.51573">
        <ele>201.399994</ele>
        <time>2011-09-07T13:10:37Z</time>
      </trkpt>
      <trkpt lat="43.41218" lon="6.51576">
        <ele>201.800003</ele>
        <time>2011-09-07T13:10:40Z</time>
      </trkpt>
      <trkpt lat="43.41219" lon="6.51577">
        <ele>201.800003</ele>
        <time>2011-09-07T13:10:42Z</time>
      </trkpt>
      <trkpt lat="43.4122" lon="6.5158">
        <ele>202.100006</ele>
        <time>2011-09-07T13:10:46Z</time>
      </trkpt>
      <trkpt lat="43.41224" lon="6.51582">
        <ele>203</ele>
        <time>2011-09-07T13:10:51Z</time>
      </trkpt>
      <trkpt lat="43.41226" lon="6.51583">
        <ele>203.600006</ele>
        <time>2011-09-07T13:10:54Z</time>
      </trkpt>
      <trkpt lat="43.41229" lon="6.51582">
        <ele>203.899994</ele>
        <time>2011-09-07T13:10:57Z</time>
      </trkpt>
      <trkpt lat="43.41232" lon="6.51582">
        <ele>204.5</ele>
        <time>2011-09-07T13:11:01Z</time>
      </trkpt>
      <trkpt lat="43.41234" lon="6.51581">
        <ele>204.600006</ele>
        <time>2011-09-07T13:11:02Z</time>
      </trkpt>
      <trkpt lat="43.41237" lon="6.51579">
        <ele>205.600006</ele>
        <time>2011-09-07T13:11:06Z</time>
      </trkpt>
      <trkpt lat="43.41239" lon="6.51578">
        <ele>205.899994</ele>
        <time>2011-09-07T13:11:09Z</time>
      </trkpt>
      <trkpt lat="43.41243" lon="6.51575">
        <ele>206</ele>
        <time>2011-09-07T13:11:13Z</time>
      </trkpt>
      <trkpt lat="43.41245" lon="6.51571">
        <ele>207</ele>
        <time>2011-09-07T13:11:17Z</time>
      </trkpt>
      <trkpt lat="43.41248" lon="6.51568">
        <ele>207.5</ele>
        <time>2011-09-07T13:11:22Z</time>
      </trkpt>
      <trkpt lat="43.4125" lon="6.51562">
        <ele>208.100006</ele>
        <time>2011-09-07T13:11:27Z</time>
      </trkpt>
      <trkpt lat="43.41252" lon="6.51558">
        <ele>208.800003</ele>
        <time>2011-09-07T13:11:31Z</time>
      </trkpt>
      <trkpt lat="43.41252" lon="6.51556">
        <ele>209.300003</ele>
        <time>2011-09-07T13:11:32Z</time>
      </trkpt>
      <trkpt lat="43.41253" lon="6.5155">
        <ele>209.800003</ele>
        <time>2011-09-07T13:11:37Z</time>
      </trkpt>
      <trkpt lat="43.41254" lon="6.51548">
        <ele>210.199997</ele>
        <time>2011-09-07T13:11:39Z</time>
      </trkpt>
      <trkpt lat="43.41254" lon="6.51542">
        <ele>210.699997</ele>
        <time>2011-09-07T13:11:44Z</time>
      </trkpt>
      <trkpt lat="43.41254" lon="6.51535">
        <ele>211.199997</ele>
        <time>2011-09-07T13:11:50Z</time>
      </trkpt>
      <trkpt lat="43.41253" lon="6.51525">
        <ele>211.699997</ele>
        <time>2011-09-07T13:11:58Z</time>
      </trkpt>
      <trkpt lat="43.41253" lon="6.51524">
        <ele>211.199997</ele>
        <time>2011-09-07T13:11:59Z</time>
      </trkpt>
      <trkpt lat="43.41251" lon="6.5152">
        <ele>211.699997</ele>
        <time>2011-09-07T13:12:04Z</time>
      </trkpt>
      <trkpt lat="43.4125" lon="6.5152">
        <ele>211.800003</ele>
        <time>2011-09-07T13:12:06Z</time>
      </trkpt>
      <trkpt lat="43.41248" lon="6.51517">
        <ele>211.800003</ele>
        <time>2011-09-07T13:12:09Z</time>
      </trkpt>
      <trkpt lat="43.41245" lon="6.51513">
        <ele>212.399994</ele>
        <time>2011-09-07T13:12:13Z</time>
      </trkpt>
      <trkpt lat="43.41242" lon="6.5151">
        <ele>212.5</ele>
        <time>2011-09-07T13:12:16Z</time>
      </trkpt>
      <trkpt lat="43.41238" lon="6.51508">
        <ele>212.899994</ele>
        <time>2011-09-07T13:12:21Z</time>
      </trkpt>
      <trkpt lat="43.41235" lon="6.51507">
        <ele>213.699997</ele>
        <time>2011-09-07T13:12:24Z</time>
      </trkpt>
      <trkpt lat="43.41231" lon="6.51503">
        <ele>213.699997</ele>
        <time>2011-09-07T13:12:29Z</time>
      </trkpt>
      <trkpt lat="43.41226" lon="6.515">
        <ele>214.5</ele>
        <time>2011-09-07T13:12:34Z</time>
      </trkpt>
      <trkpt lat="43.41222" lon="6.51497">
        <ele>215.100006</ele>
        <time>2011-09-07T13:12:38Z</time>
      </trkpt>
      <trkpt lat="43.41218" lon="6.51492">
        <ele>215.5</ele>
        <time>2011-09-07T13:12:42Z</time>
      </trkpt>
      <trkpt lat="43.41215" lon="6.51489">
        <ele>216</ele>
        <time>2011-09-07T13:12:45Z</time>
      </trkpt>
      <trkpt lat="43.41209" lon="6.51482">
        <ele>216.800003</ele>
        <time>2011-09-07T13:12:52Z</time>
      </trkpt>
      <trkpt lat="43.41207" lon="6.51479">
        <ele>216.899994</ele>
        <time>2011-09-07T13:12:55Z</time>
      </trkpt>
      <trkpt lat="43.41204" lon="6.51474">
        <ele>217.899994</ele>
        <time>2011-09-07T13:12:59Z</time>
      </trkpt>
      <trkpt lat="43.41202" lon="6.51474">
        <ele>218.100006</ele>
        <time>2011-09-07T13:13:01Z</time>
      </trkpt>
      <trkpt lat="43.412" lon="6.51472">
        <ele>218.699997</ele>
        <time>2011-09-07T13:13:04Z</time>
      </trkpt>
      <trkpt lat="43.41197" lon="6.51469">
        <ele>219.100006</ele>
        <time>2011-09-07T13:13:07Z</time>
      </trkpt>
      <trkpt lat="43.41194" lon="6.51466">
        <ele>219.300003</ele>
        <time>2011-09-07T13:13:10Z</time>
      </trkpt>
      <trkpt lat="43.41192" lon="6.51462">
        <ele>219.300003</ele>
        <time>2011-09-07T13:13:13Z</time>
      </trkpt>
      <trkpt lat="43.41189" lon="6.51457">
        <ele>219.800003</ele>
        <time>2011-09-07T13:13:18Z</time>
      </trkpt>
      <trkpt lat="43.41186" lon="6.51455">
        <ele>219.800003</ele>
        <time>2011-09-07T13:13:21Z</time>
      </trkpt>
      <trkpt lat="43.41185" lon="6.51453">
        <ele>220.600006</ele>
        <time>2011-09-07T13:13:23Z</time>
      </trkpt>
      <trkpt lat="43.41182" lon="6.5145">
        <ele>220.899994</ele>
        <time>2011-09-07T13:13:26Z</time>
      </trkpt>
      <trkpt lat="43.41181" lon="6.51449">
        <ele>221.100006</ele>
        <time>2011-09-07T13:13:28Z</time>
      </trkpt>
      <trkpt lat="43.41178" lon="6.51445">
        <ele>222.199997</ele>
        <time>2011-09-07T13:13:32Z</time>
      </trkpt>
      <trkpt lat="43.41175" lon="6.51444">
        <ele>222.699997</ele>
        <time>2011-09-07T13:13:35Z</time>
      </trkpt>
      <trkpt lat="43.41173" lon="6.51442">
        <ele>223.100006</ele>
        <time>2011-09-07T13:13:38Z</time>
      </trkpt>
      <trkpt lat="43.41172" lon="6.51439">
        <ele>223</ele>
        <time>2011-09-07T13:13:40Z</time>
      </trkpt>
      <trkpt lat="43.41169" lon="6.51436">
        <ele>222.899994</ele>
        <time>2011-09-07T13:13:43Z</time>
      </trkpt>
      <trkpt lat="43.41166" lon="6.51433">
        <ele>223.699997</ele>
        <time>2011-09-07T13:13:47Z</time>
      </trkpt>
      <trkpt lat="43.41161" lon="6.5143">
        <ele>224.100006</ele>
        <time>2011-09-07T13:13:52Z</time>
      </trkpt>
      <trkpt lat="43.41159" lon="6.51429">
        <ele>224</ele>
        <time>2011-09-07T13:13:54Z</time>
      </trkpt>
      <trkpt lat="43.41156" lon="6.51425">
        <ele>224.300003</ele>
        <time>2011-09-07T13:13:58Z</time>
      </trkpt>
      <trkpt lat="43.41153" lon="6.5142">
        <ele>225.300003</ele>
        <time>2011-09-07T13:14:02Z</time>
      </trkpt>
      <trkpt lat="43.4115" lon="6.51417">
        <ele>225.800003</ele>
        <time>2011-09-07T13:14:06Z</time>
      </trkpt>
      <trkpt lat="43.41148" lon="6.51413">
        <ele>226.300003</ele>
        <time>2011-09-07T13:14:10Z</time>
      </trkpt>
      <trkpt lat="43.41146" lon="6.5141">
        <ele>226.800003</ele>
        <time>2011-09-07T13:14:13Z</time>
      </trkpt>
      <trkpt lat="43.41143" lon="6.51404">
        <ele>227.5</ele>
        <time>2011-09-07T13:14:18Z</time>
      </trkpt>
      <trkpt lat="43.41142" lon="6.51402">
        <ele>227.600006</ele>
        <time>2011-09-07T13:14:20Z</time>
      </trkpt>
      <trkpt lat="43.4114" lon="6.51399">
        <ele>228.100006</ele>
        <time>2011-09-07T13:14:23Z</time>
      </trkpt>
      <trkpt lat="43.41132" lon="6.51367">
        <ele>232</ele>
        <time>2011-09-07T13:14:48Z</time>
      </trkpt>
      <trkpt lat="43.41132" lon="6.51362">
        <ele>232.399994</ele>
        <time>2011-09-07T13:14:51Z</time>
      </trkpt>
      <trkpt lat="43.41131" lon="6.51355">
        <ele>232.199997</ele>
        <time>2011-09-07T13:14:56Z</time>
      </trkpt>
      <trkpt lat="43.41131" lon="6.51349">
        <ele>232.5</ele>
        <time>2011-09-07T13:15:02Z</time>
      </trkpt>
      <trkpt lat="43.41134" lon="6.51348">
        <ele>233.399994</ele>
        <time>2011-09-07T13:15:06Z</time>
      </trkpt>
      <trkpt lat="43.41135" lon="6.5135">
        <ele>233.699997</ele>
        <time>2011-09-07T13:15:10Z</time>
      </trkpt>
      <trkpt lat="43.41138" lon="6.51353">
        <ele>234.5</ele>
        <time>2011-09-07T13:15:16Z</time>
      </trkpt>
      <trkpt lat="43.4114" lon="6.51355">
        <ele>235.199997</ele>
        <time>2011-09-07T13:15:19Z</time>
      </trkpt>
      <trkpt lat="43.41143" lon="6.51358">
        <ele>236.5</ele>
        <time>2011-09-07T13:15:25Z</time>
      </trkpt>
      <trkpt lat="43.41146" lon="6.51359">
        <ele>237.399994</ele>
        <time>2011-09-07T13:15:29Z</time>
      </trkpt>
      <trkpt lat="43.4115" lon="6.51361">
        <ele>237.600006</ele>
        <time>2011-09-07T13:15:34Z</time>
      </trkpt>
      <trkpt lat="43.41153" lon="6.51362">
        <ele>237.600006</ele>
        <time>2011-09-07T13:15:36Z</time>
      </trkpt>
      <trkpt lat="43.41157" lon="6.51361">
        <ele>237.800003</ele>
        <time>2011-09-07T13:15:40Z</time>
      </trkpt>
      <trkpt lat="43.41161" lon="6.51361">
        <ele>237.699997</ele>
        <time>2011-09-07T13:15:44Z</time>
      </trkpt>
      <trkpt lat="43.41163" lon="6.51362">
        <ele>237.800003</ele>
        <time>2011-09-07T13:15:46Z</time>
      </trkpt>
      <trkpt lat="43.41166" lon="6.51362">
        <ele>238.5</ele>
        <time>2011-09-07T13:15:49Z</time>
      </trkpt>
      <trkpt lat="43.41168" lon="6.51363">
        <ele>239.100006</ele>
        <time>2011-09-07T13:15:51Z</time>
      </trkpt>
      <trkpt lat="43.4117" lon="6.51363">
        <ele>239.600006</ele>
        <time>2011-09-07T13:15:54Z</time>
      </trkpt>
      <trkpt lat="43.41172" lon="6.51363">
        <ele>239.5</ele>
        <time>2011-09-07T13:15:57Z</time>
      </trkpt>
      <trkpt lat="43.41174" lon="6.51362">
        <ele>240.100006</ele>
        <time>2011-09-07T13:15:59Z</time>
      </trkpt>
      <trkpt lat="43.41179" lon="6.51362">
        <ele>241</ele>
        <time>2011-09-07T13:16:04Z</time>
      </trkpt>
      <trkpt lat="43.41181" lon="6.51363">
        <ele>241.600006</ele>
        <time>2011-09-07T13:16:06Z</time>
      </trkpt>
      <trkpt lat="43.41186" lon="6.51364">
        <ele>242</ele>
        <time>2011-09-07T13:16:11Z</time>
      </trkpt>
      <trkpt lat="43.4119" lon="6.51365">
        <ele>242.5</ele>
        <time>2011-09-07T13:16:16Z</time>
      </trkpt>
      <trkpt lat="43.41194" lon="6.51366">
        <ele>242.699997</ele>
        <time>2011-09-07T13:16:22Z</time>
      </trkpt>
      <trkpt lat="43.41197" lon="6.51367">
        <ele>243.600006</ele>
        <time>2011-09-07T13:16:26Z</time>
      </trkpt>
      <trkpt lat="43.41201" lon="6.51368">
        <ele>244</ele>
        <time>2011-09-07T13:16:30Z</time>
      </trkpt>
      <trkpt lat="43.41204" lon="6.51368">
        <ele>244.800003</ele>
        <time>2011-09-07T13:16:34Z</time>
      </trkpt>
      <trkpt lat="43.41209" lon="6.51369">
        <ele>245</ele>
        <time>2011-09-07T13:16:40Z</time>
      </trkpt>
      <trkpt lat="43.41211" lon="6.5137">
        <ele>245.100006</ele>
        <time>2011-09-07T13:16:42Z</time>
      </trkpt>
      <trkpt lat="43.41213" lon="6.51371">
        <ele>245.300003</ele>
        <time>2011-09-07T13:16:45Z</time>
      </trkpt>
      <trkpt lat="43.41216" lon="6.51373">
        <ele>245.800003</ele>
        <time>2011-09-07T13:16:49Z</time>
      </trkpt>
      <trkpt lat="43.41219" lon="6.51374">
        <ele>246.199997</ele>
        <time>2011-09-07T13:16:53Z</time>
      </trkpt>
      <trkpt lat="43.41223" lon="6.51374">
        <ele>246.699997</ele>
        <time>2011-09-07T13:16:57Z</time>
      </trkpt>
      <trkpt lat="43.41225" lon="6.51374">
        <ele>246.800003</ele>
        <time>2011-09-07T13:16:59Z</time>
      </trkpt>
      <trkpt lat="43.41228" lon="6.51374">
        <ele>247.100006</ele>
        <time>2011-09-07T13:17:02Z</time>
      </trkpt>
      <trkpt lat="43.41233" lon="6.51374">
        <ele>247.399994</ele>
        <time>2011-09-07T13:17:07Z</time>
      </trkpt>
      <trkpt lat="43.41236" lon="6.51374">
        <ele>248.100006</ele>
        <time>2011-09-07T13:17:11Z</time>
      </trkpt>
      <trkpt lat="43.4124" lon="6.51374">
        <ele>248.5</ele>
        <time>2011-09-07T13:17:15Z</time>
      </trkpt>
      <trkpt lat="43.41243" lon="6.51374">
        <ele>248.800003</ele>
        <time>2011-09-07T13:17:19Z</time>
      </trkpt>
      <trkpt lat="43.41248" lon="6.51374">
        <ele>249.100006</ele>
        <time>2011-09-07T13:17:24Z</time>
      </trkpt>
      <trkpt lat="43.41253" lon="6.51374">
        <ele>249.5</ele>
        <time>2011-09-07T13:17:29Z</time>
      </trkpt>
      <trkpt lat="43.41254" lon="6.51374">
        <ele>249.5</ele>
        <time>2011-09-07T13:17:30Z</time>
      </trkpt>
      <trkpt lat="43.41259" lon="6.51374">
        <ele>249.899994</ele>
        <time>2011-09-07T13:17:35Z</time>
      </trkpt>
      <trkpt lat="43.41262" lon="6.51375">
        <ele>250.199997</ele>
        <time>2011-09-07T13:17:39Z</time>
      </trkpt>
      <trkpt lat="43.41265" lon="6.51374">
        <ele>250.800003</ele>
        <time>2011-09-07T13:17:42Z</time>
      </trkpt>
      <trkpt lat="43.41267" lon="6.51374">
        <ele>250.800003</ele>
        <time>2011-09-07T13:17:44Z</time>
      </trkpt>
      <trkpt lat="43.41271" lon="6.51373">
        <ele>251.199997</ele>
        <time>2011-09-07T13:17:48Z</time>
      </trkpt>
      <trkpt lat="43.41275" lon="6.51372">
        <ele>251.899994</ele>
        <time>2011-09-07T13:17:52Z</time>
      </trkpt>
      <trkpt lat="43.41278" lon="6.51371">
        <ele>252.300003</ele>
        <time>2011-09-07T13:17:56Z</time>
      </trkpt>
      <trkpt lat="43.41282" lon="6.51371">
        <ele>252.899994</ele>
        <time>2011-09-07T13:18:00Z</time>
      </trkpt>
      <trkpt lat="43.41285" lon="6.51371">
        <ele>253.199997</ele>
        <time>2011-09-07T13:18:04Z</time>
      </trkpt>
      <trkpt lat="43.41289" lon="6.51371">
        <ele>253.800003</ele>
        <time>2011-09-07T13:18:09Z</time>
      </trkpt>
      <trkpt lat="43.41292" lon="6.51371">
        <ele>253.699997</ele>
        <time>2011-09-07T13:18:12Z</time>
      </trkpt>
      <trkpt lat="43.41299" lon="6.51374">
        <ele>254.399994</ele>
        <time>2011-09-07T13:18:21Z</time>
      </trkpt>
      <trkpt lat="43.413" lon="6.51375">
        <ele>254.699997</ele>
        <time>2011-09-07T13:18:23Z</time>
      </trkpt>
      <trkpt lat="43.41303" lon="6.51378">
        <ele>255.199997</ele>
        <time>2011-09-07T13:18:28Z</time>
      </trkpt>
      <trkpt lat="43.41306" lon="6.51381">
        <ele>256.5</ele>
        <time>2011-09-07T13:18:34Z</time>
      </trkpt>
      <trkpt lat="43.41309" lon="6.51385">
        <ele>256.600006</ele>
        <time>2011-09-07T13:18:38Z</time>
      </trkpt>
      <trkpt lat="43.41312" lon="6.51386">
        <ele>256.899994</ele>
        <time>2011-09-07T13:18:41Z</time>
      </trkpt>
      <trkpt lat="43.41314" lon="6.5139">
        <ele>257.5</ele>
        <time>2011-09-07T13:18:46Z</time>
      </trkpt>
      <trkpt lat="43.41317" lon="6.51393">
        <ele>257.799988</ele>
        <time>2011-09-07T13:18:51Z</time>
      </trkpt>
      <trkpt lat="43.41323" lon="6.51395">
        <ele>257.899994</ele>
        <time>2011-09-07T13:18:57Z</time>
      </trkpt>
      <trkpt lat="43.41325" lon="6.51397">
        <ele>258.5</ele>
        <time>2011-09-07T13:19:01Z</time>
      </trkpt>
      <trkpt lat="43.41328" lon="6.51398">
        <ele>258.799988</ele>
        <time>2011-09-07T13:19:04Z</time>
      </trkpt>
      <trkpt lat="43.41331" lon="6.514">
        <ele>259.399994</ele>
        <time>2011-09-07T13:19:07Z</time>
      </trkpt>
      <trkpt lat="43.41335" lon="6.51401">
        <ele>260.100006</ele>
        <time>2011-09-07T13:19:11Z</time>
      </trkpt>
      <trkpt lat="43.41338" lon="6.51402">
        <ele>261</ele>
        <time>2011-09-07T13:19:15Z</time>
      </trkpt>
      <trkpt lat="43.4134" lon="6.51402">
        <ele>260.899994</ele>
        <time>2011-09-07T13:19:17Z</time>
      </trkpt>
      <trkpt lat="43.41344" lon="6.51402">
        <ele>261.5</ele>
        <time>2011-09-07T13:19:21Z</time>
      </trkpt>
      <trkpt lat="43.4135" lon="6.51403">
        <ele>261.200012</ele>
        <time>2011-09-07T13:19:26Z</time>
      </trkpt>
      <trkpt lat="43.41356" lon="6.51403">
        <ele>262</ele>
        <time>2011-09-07T13:19:32Z</time>
      </trkpt>
      <trkpt lat="43.4136" lon="6.51403">
        <ele>262.399994</ele>
        <time>2011-09-07T13:19:36Z</time>
      </trkpt>
      <trkpt lat="43.41364" lon="6.51402">
        <ele>262.799988</ele>
        <time>2011-09-07T13:19:39Z</time>
      </trkpt>
      <trkpt lat="43.41368" lon="6.514">
        <ele>263.299988</ele>
        <time>2011-09-07T13:19:43Z</time>
      </trkpt>
      <trkpt lat="43.41378" lon="6.51397">
        <ele>264.5</ele>
        <time>2011-09-07T13:19:53Z</time>
      </trkpt>
      <trkpt lat="43.41379" lon="6.51397">
        <ele>264.899994</ele>
        <time>2011-09-07T13:19:54Z</time>
      </trkpt>
      <trkpt lat="43.41384" lon="6.51395">
        <ele>265.799988</ele>
        <time>2011-09-07T13:19:59Z</time>
      </trkpt>
      <trkpt lat="43.41387" lon="6.51394">
        <ele>266.600006</ele>
        <time>2011-09-07T13:20:02Z</time>
      </trkpt>
      <trkpt lat="43.4139" lon="6.51394">
        <ele>267</ele>
        <time>2011-09-07T13:20:06Z</time>
      </trkpt>
      <trkpt lat="43.41396" lon="6.51393">
        <ele>267.399994</ele>
        <time>2011-09-07T13:20:12Z</time>
      </trkpt>
      <trkpt lat="43.41397" lon="6.51392">
        <ele>268</ele>
        <time>2011-09-07T13:20:14Z</time>
      </trkpt>
      <trkpt lat="43.414" lon="6.51392">
        <ele>268.200012</ele>
        <time>2011-09-07T13:20:17Z</time>
      </trkpt>
      <trkpt lat="43.41404" lon="6.51389">
        <ele>268.799988</ele>
        <time>2011-09-07T13:20:22Z</time>
      </trkpt>
      <trkpt lat="43.41407" lon="6.51389">
        <ele>269.399994</ele>
        <time>2011-09-07T13:20:25Z</time>
      </trkpt>
      <trkpt lat="43.41411" lon="6.51388">
        <ele>269.799988</ele>
        <time>2011-09-07T13:20:29Z</time>
      </trkpt>
      <trkpt lat="43.41417" lon="6.51386">
        <ele>270.100006</ele>
        <time>2011-09-07T13:20:35Z</time>
      </trkpt>
      <trkpt lat="43.41421" lon="6.51384">
        <ele>270.200012</ele>
        <time>2011-09-07T13:20:39Z</time>
      </trkpt>
      <trkpt lat="43.41424" lon="6.51382">
        <ele>270.299988</ele>
        <time>2011-09-07T13:20:43Z</time>
      </trkpt>
      <trkpt lat="43.41428" lon="6.5138">
        <ele>271.100006</ele>
        <time>2011-09-07T13:20:47Z</time>
      </trkpt>
      <trkpt lat="43.41429" lon="6.51379">
        <ele>271.100006</ele>
        <time>2011-09-07T13:20:48Z</time>
      </trkpt>
      <trkpt lat="43.41445" lon="6.51371">
        <ele>272.700012</ele>
        <time>2011-09-07T13:21:04Z</time>
      </trkpt>
      <trkpt lat="43.41446" lon="6.51371">
        <ele>273</ele>
        <time>2011-09-07T13:21:06Z</time>
      </trkpt>
      <trkpt lat="43.41457" lon="6.51369">
        <ele>274.200012</ele>
        <time>2011-09-07T13:21:17Z</time>
      </trkpt>
      <trkpt lat="43.41461" lon="6.51369">
        <ele>274.899994</ele>
        <time>2011-09-07T13:21:21Z</time>
      </trkpt>
      <trkpt lat="43.41465" lon="6.51369">
        <ele>275.799988</ele>
        <time>2011-09-07T13:21:26Z</time>
      </trkpt>
      <trkpt lat="43.41469" lon="6.51369">
        <ele>276.200012</ele>
        <time>2011-09-07T13:21:30Z</time>
      </trkpt>
      <trkpt lat="43.41478" lon="6.51369">
        <ele>277.100006</ele>
        <time>2011-09-07T13:21:39Z</time>
      </trkpt>
      <trkpt lat="43.41481" lon="6.51369">
        <ele>277.299988</ele>
        <time>2011-09-07T13:21:43Z</time>
      </trkpt>
      <trkpt lat="43.41497" lon="6.51365">
        <ele>279.5</ele>
        <time>2011-09-07T13:22:00Z</time>
      </trkpt>
      <trkpt lat="43.41503" lon="6.51363">
        <ele>280</ele>
        <time>2011-09-07T13:22:06Z</time>
      </trkpt>
      <trkpt lat="43.41504" lon="6.51362">
        <ele>280.399994</ele>
        <time>2011-09-07T13:22:07Z</time>
      </trkpt>
      <trkpt lat="43.41507" lon="6.5136">
        <ele>280.700012</ele>
        <time>2011-09-07T13:22:11Z</time>
      </trkpt>
      <trkpt lat="43.41509" lon="6.5136">
        <ele>280.600006</ele>
        <time>2011-09-07T13:22:12Z</time>
      </trkpt>
      <trkpt lat="43.41516" lon="6.51357">
        <ele>280.799988</ele>
        <time>2011-09-07T13:22:19Z</time>
      </trkpt>
      <trkpt lat="43.41518" lon="6.51356">
        <ele>281.299988</ele>
        <time>2011-09-07T13:22:22Z</time>
      </trkpt>
      <trkpt lat="43.41521" lon="6.51357">
        <ele>281.5</ele>
        <time>2011-09-07T13:22:25Z</time>
      </trkpt>
      <trkpt lat="43.41524" lon="6.51355">
        <ele>281.899994</ele>
        <time>2011-09-07T13:22:29Z</time>
      </trkpt>
      <trkpt lat="43.41529" lon="6.51355">
        <ele>283.299988</ele>
        <time>2011-09-07T13:22:34Z</time>
      </trkpt>
      <trkpt lat="43.41532" lon="6.51356">
        <ele>283.899994</ele>
        <time>2011-09-07T13:22:38Z</time>
      </trkpt>
      <trkpt lat="43.4154" lon="6.51356">
        <ele>284.700012</ele>
        <time>2011-09-07T13:22:47Z</time>
      </trkpt>
      <trkpt lat="43.41544" lon="6.51356">
        <ele>285.399994</ele>
        <time>2011-09-07T13:22:51Z</time>
      </trkpt>
      <trkpt lat="43.41546" lon="6.51356">
        <ele>285.5</ele>
        <time>2011-09-07T13:22:53Z</time>
      </trkpt>
      <trkpt lat="43.41551" lon="6.51356">
        <ele>285.799988</ele>
        <time>2011-09-07T13:22:58Z</time>
      </trkpt>
      <trkpt lat="43.41558" lon="6.51354">
        <ele>287</ele>
        <time>2011-09-07T13:23:05Z</time>
      </trkpt>
      <trkpt lat="43.41559" lon="6.51354">
        <ele>287.200012</ele>
        <time>2011-09-07T13:23:06Z</time>
      </trkpt>
      <trkpt lat="43.41564" lon="6.51353">
        <ele>287.5</ele>
        <time>2011-09-07T13:23:11Z</time>
      </trkpt>
      <trkpt lat="43.41568" lon="6.51354">
        <ele>288.5</ele>
        <time>2011-09-07T13:23:16Z</time>
      </trkpt>
      <trkpt lat="43.41571" lon="6.51354">
        <ele>288.600006</ele>
        <time>2011-09-07T13:23:19Z</time>
      </trkpt>
      <trkpt lat="43.41581" lon="6.51355">
        <ele>289.200012</ele>
        <time>2011-09-07T13:23:31Z</time>
      </trkpt>
      <trkpt lat="43.41584" lon="6.51357">
        <ele>289.799988</ele>
        <time>2011-09-07T13:23:35Z</time>
      </trkpt>
      <trkpt lat="43.41587" lon="6.51357">
        <ele>289.799988</ele>
        <time>2011-09-07T13:23:38Z</time>
      </trkpt>
      <trkpt lat="43.41591" lon="6.51358">
        <ele>289.700012</ele>
        <time>2011-09-07T13:23:42Z</time>
      </trkpt>
      <trkpt lat="43.41593" lon="6.51359">
        <ele>289.700012</ele>
        <time>2011-09-07T13:23:45Z</time>
      </trkpt>
      <trkpt lat="43.41596" lon="6.51359">
        <ele>289.5</ele>
        <time>2011-09-07T13:23:48Z</time>
      </trkpt>
      <trkpt lat="43.41602" lon="6.51358">
        <ele>289.200012</ele>
        <time>2011-09-07T13:23:53Z</time>
      </trkpt>
      <trkpt lat="43.41605" lon="6.51357">
        <ele>289.100006</ele>
        <time>2011-09-07T13:23:56Z</time>
      </trkpt>
      <trkpt lat="43.41611" lon="6.51353">
        <ele>289.200012</ele>
        <time>2011-09-07T13:24:03Z</time>
      </trkpt>
      <trkpt lat="43.41614" lon="6.51352">
        <ele>289.399994</ele>
        <time>2011-09-07T13:24:06Z</time>
      </trkpt>
      <trkpt lat="43.41618" lon="6.51348">
        <ele>289.399994</ele>
        <time>2011-09-07T13:24:10Z</time>
      </trkpt>
      <trkpt lat="43.4162" lon="6.51347">
        <ele>289.299988</ele>
        <time>2011-09-07T13:24:13Z</time>
      </trkpt>
      <trkpt lat="43.41621" lon="6.51346">
        <ele>289.200012</ele>
        <time>2011-09-07T13:24:16Z</time>
      </trkpt>
      <trkpt lat="43.41623" lon="6.51344">
        <ele>288.899994</ele>
        <time>2011-09-07T13:24:19Z</time>
      </trkpt>
      <trkpt lat="43.41625" lon="6.51341">
        <ele>289.399994</ele>
        <time>2011-09-07T13:24:23Z</time>
      </trkpt>
      <trkpt lat="43.41626" lon="6.5134">
        <ele>289.700012</ele>
        <time>2011-09-07T13:24:41Z</time>
      </trkpt>
      <trkpt lat="43.41627" lon="6.5134">
        <ele>290.200012</ele>
        <time>2011-09-07T13:24:46Z</time>
      </trkpt>
      <trkpt lat="43.41628" lon="6.51339">
        <ele>289.399994</ele>
        <time>2011-09-07T13:25:02Z</time>
      </trkpt>
      <trkpt lat="43.41629" lon="6.51338">
        <ele>288.799988</ele>
        <time>2011-09-07T13:25:11Z</time>
      </trkpt>
      <trkpt lat="43.4163" lon="6.51339">
        <ele>288.299988</ele>
        <time>2011-09-07T13:25:28Z</time>
      </trkpt>
      <trkpt lat="43.41628" lon="6.51338">
        <ele>288.200012</ele>
        <time>2011-09-07T13:25:31Z</time>
      </trkpt>
      <trkpt lat="43.41626" lon="6.51339">
        <ele>288.700012</ele>
        <time>2011-09-07T13:25:36Z</time>
      </trkpt>
      <trkpt lat="43.41628" lon="6.51341">
        <ele>289</ele>
        <time>2011-09-07T13:26:09Z</time>
      </trkpt>
      <trkpt lat="43.41628" lon="6.51341">
        <ele>289.600006</ele>
        <time>2011-09-07T13:26:25Z</time>
      </trkpt>
      <trkpt lat="43.4163" lon="6.5134">
        <ele>288.899994</ele>
        <time>2011-09-07T13:26:43Z</time>
      </trkpt>
      <trkpt lat="43.4163" lon="6.51339">
        <ele>288.899994</ele>
        <time>2011-09-07T13:26:57Z</time>
      </trkpt>
      <trkpt lat="43.41632" lon="6.51338">
        <ele>288.5</ele>
        <time>2011-09-07T13:27:21Z</time>
      </trkpt>
      <trkpt lat="43.41631" lon="6.51338">
        <ele>289.100006</ele>
        <time>2011-09-07T13:27:41Z</time>
      </trkpt>
      <trkpt lat="43.4163" lon="6.51337">
        <ele>288.700012</ele>
        <time>2011-09-07T13:27:49Z</time>
      </trkpt>
      <trkpt lat="43.41632" lon="6.51337">
        <ele>289.5</ele>
        <time>2011-09-07T13:28:01Z</time>
      </trkpt>
      <trkpt lat="43.41632" lon="6.51337">
        <ele>288.799988</ele>
        <time>2011-09-07T13:28:13Z</time>
      </trkpt>
      <trkpt lat="43.4163" lon="6.51337">
        <ele>289.299988</ele>
        <time>2011-09-07T13:29:00Z</time>
      </trkpt>
      <trkpt lat="43.4163" lon="6.51335">
        <ele>289</ele>
        <time>2011-09-07T13:29:11Z</time>
      </trkpt>
      <trkpt lat="43.41631" lon="6.51334">
        <ele>289.5</ele>
        <time>2011-09-07T13:29:15Z</time>
      </trkpt>
      <trkpt lat="43.41632" lon="6.51335">
        <ele>289.799988</ele>
        <time>2011-09-07T13:29:23Z</time>
      </trkpt>
      <trkpt lat="43.41632" lon="6.51336">
        <ele>289.299988</ele>
        <time>2011-09-07T13:29:32Z</time>
      </trkpt>
      <trkpt lat="43.41631" lon="6.51336">
        <ele>289.799988</ele>
        <time>2011-09-07T13:30:18Z</time>
      </trkpt>
      <trkpt lat="43.41632" lon="6.51336">
        <ele>290</ele>
        <time>2011-09-07T13:30:26Z</time>
      </trkpt>
      <trkpt lat="43.41631" lon="6.51335">
        <ele>289.700012</ele>
        <time>2011-09-07T13:30:38Z</time>
      </trkpt>
      <trkpt lat="43.41631" lon="6.51337">
        <ele>289.100006</ele>
        <time>2011-09-07T13:30:53Z</time>
      </trkpt>
      <trkpt lat="43.4163" lon="6.51341">
        <ele>290</ele>
        <time>2011-09-07T13:31:22Z</time>
      </trkpt>
      <trkpt lat="43.41631" lon="6.51341">
        <ele>290.299988</ele>
        <time>2011-09-07T13:31:32Z</time>
      </trkpt>
      <trkpt lat="43.41631" lon="6.51343">
        <ele>289.899994</ele>
        <time>2011-09-07T13:31:42Z</time>
      </trkpt>
      <trkpt lat="43.41631" lon="6.51342">
        <ele>290.200012</ele>
        <time>2011-09-07T13:31:58Z</time>
      </trkpt>
      <trkpt lat="43.41631" lon="6.51341">
        <ele>290.600006</ele>
        <time>2011-09-07T13:32:11Z</time>
      </trkpt>
      <trkpt lat="43.41631" lon="6.5134">
        <ele>290.700012</ele>
        <time>2011-09-07T13:32:29Z</time>
      </trkpt>
      <trkpt lat="43.41632" lon="6.51339">
        <ele>290.799988</ele>
        <time>2011-09-07T13:33:34Z</time>
      </trkpt>
      <trkpt lat="43.41633" lon="6.51339">
        <ele>290.5</ele>
        <time>2011-09-07T13:33:54Z</time>
      </trkpt>
      <trkpt lat="43.41631" lon="6.51339">
        <ele>289.700012</ele>
        <time>2011-09-07T13:34:13Z</time>
      </trkpt>
      <trkpt lat="43.4163" lon="6.51338">
        <ele>290.399994</ele>
        <time>2011-09-07T13:34:17Z</time>
      </trkpt>
      <trkpt lat="43.41629" lon="6.51336">
        <ele>290.100006</ele>
        <time>2011-09-07T13:34:19Z</time>
      </trkpt>
      <trkpt lat="43.41625" lon="6.51331">
        <ele>291</ele>
        <time>2011-09-07T13:34:27Z</time>
      </trkpt>
      <trkpt lat="43.41622" lon="6.51326">
        <ele>291.799988</ele>
        <time>2011-09-07T13:34:34Z</time>
      </trkpt>
      <trkpt lat="43.41621" lon="6.51325">
        <ele>292.200012</ele>
        <time>2011-09-07T13:34:36Z</time>
      </trkpt>
      <trkpt lat="43.4162" lon="6.51321">
        <ele>293</ele>
        <time>2011-09-07T13:34:40Z</time>
      </trkpt>
      <trkpt lat="43.41615" lon="6.51312">
        <ele>293.5</ele>
        <time>2011-09-07T13:34:50Z</time>
      </trkpt>
      <trkpt lat="43.41614" lon="6.51311">
        <ele>293.399994</ele>
        <time>2011-09-07T13:34:52Z</time>
      </trkpt>
      <trkpt lat="43.41611" lon="6.51307">
        <ele>293.799988</ele>
        <time>2011-09-07T13:34:57Z</time>
      </trkpt>
      <trkpt lat="43.41609" lon="6.51303">
        <ele>294.799988</ele>
        <time>2011-09-07T13:35:02Z</time>
      </trkpt>
      <trkpt lat="43.41609" lon="6.51301">
        <ele>295.299988</ele>
        <time>2011-09-07T13:35:04Z</time>
      </trkpt>
      <trkpt lat="43.41607" lon="6.51297">
        <ele>296.799988</ele>
        <time>2011-09-07T13:35:09Z</time>
      </trkpt>
      <trkpt lat="43.41604" lon="6.51292">
        <ele>297.399994</ele>
        <time>2011-09-07T13:35:16Z</time>
      </trkpt>
      <trkpt lat="43.41603" lon="6.51292">
        <ele>297.5</ele>
        <time>2011-09-07T13:35:17Z</time>
      </trkpt>
      <trkpt lat="43.41601" lon="6.51289">
        <ele>297.299988</ele>
        <time>2011-09-07T13:35:22Z</time>
      </trkpt>
      <trkpt lat="43.41598" lon="6.51287">
        <ele>297.200012</ele>
        <time>2011-09-07T13:35:26Z</time>
      </trkpt>
      <trkpt lat="43.41597" lon="6.51285">
        <ele>297.700012</ele>
        <time>2011-09-07T13:35:28Z</time>
      </trkpt>
      <trkpt lat="43.41594" lon="6.51283">
        <ele>298.200012</ele>
        <time>2011-09-07T13:35:32Z</time>
      </trkpt>
      <trkpt lat="43.41593" lon="6.51281">
        <ele>299</ele>
        <time>2011-09-07T13:35:34Z</time>
      </trkpt>
      <trkpt lat="43.41589" lon="6.51278">
        <ele>299.600006</ele>
        <time>2011-09-07T13:35:41Z</time>
      </trkpt>
      <trkpt lat="43.41587" lon="6.51277">
        <ele>299.399994</ele>
        <time>2011-09-07T13:35:43Z</time>
      </trkpt>
      <trkpt lat="43.41585" lon="6.51276">
        <ele>299.700012</ele>
        <time>2011-09-07T13:35:47Z</time>
      </trkpt>
      <trkpt lat="43.41583" lon="6.51274">
        <ele>300.399994</ele>
        <time>2011-09-07T13:35:50Z</time>
      </trkpt>
      <trkpt lat="43.4158" lon="6.51271">
        <ele>301.5</ele>
        <time>2011-09-07T13:35:55Z</time>
      </trkpt>
      <trkpt lat="43.41576" lon="6.51269">
        <ele>301.799988</ele>
        <time>2011-09-07T13:36:00Z</time>
      </trkpt>
      <trkpt lat="43.41575" lon="6.51267">
        <ele>302.299988</ele>
        <time>2011-09-07T13:36:03Z</time>
      </trkpt>
      <trkpt lat="43.41572" lon="6.51264">
        <ele>302.799988</ele>
        <time>2011-09-07T13:36:07Z</time>
      </trkpt>
      <trkpt lat="43.41568" lon="6.51263">
        <ele>303.5</ele>
        <time>2011-09-07T13:36:13Z</time>
      </trkpt>
      <trkpt lat="43.41565" lon="6.51264">
        <ele>303.899994</ele>
        <time>2011-09-07T13:36:18Z</time>
      </trkpt>
      <trkpt lat="43.41561" lon="6.51263">
        <ele>304.399994</ele>
        <time>2011-09-07T13:36:24Z</time>
      </trkpt>
      <trkpt lat="43.41558" lon="6.51263">
        <ele>305.5</ele>
        <time>2011-09-07T13:36:29Z</time>
      </trkpt>
      <trkpt lat="43.41554" lon="6.51262">
        <ele>306.100006</ele>
        <time>2011-09-07T13:36:34Z</time>
      </trkpt>
      <trkpt lat="43.41553" lon="6.51262">
        <ele>306.200012</ele>
        <time>2011-09-07T13:36:35Z</time>
      </trkpt>
      <trkpt lat="43.41548" lon="6.51262">
        <ele>307.399994</ele>
        <time>2011-09-07T13:36:41Z</time>
      </trkpt>
      <trkpt lat="43.41542" lon="6.51263">
        <ele>309</ele>
        <time>2011-09-07T13:36:48Z</time>
      </trkpt>
      <trkpt lat="43.41535" lon="6.51266">
        <ele>309.299988</ele>
        <time>2011-09-07T13:36:55Z</time>
      </trkpt>
      <trkpt lat="43.41531" lon="6.51267">
        <ele>309.799988</ele>
        <time>2011-09-07T13:36:59Z</time>
      </trkpt>
      <trkpt lat="43.41526" lon="6.51267">
        <ele>310.600006</ele>
        <time>2011-09-07T13:37:04Z</time>
      </trkpt>
      <trkpt lat="43.41525" lon="6.51266">
        <ele>310.5</ele>
        <time>2011-09-07T13:37:05Z</time>
      </trkpt>
      <trkpt lat="43.41522" lon="6.51265">
        <ele>310.600006</ele>
        <time>2011-09-07T13:37:09Z</time>
      </trkpt>
      <trkpt lat="43.4152" lon="6.51265">
        <ele>310.600006</ele>
        <time>2011-09-07T13:37:12Z</time>
      </trkpt>
      <trkpt lat="43.41518" lon="6.51263">
        <ele>310.899994</ele>
        <time>2011-09-07T13:37:15Z</time>
      </trkpt>
      <trkpt lat="43.41515" lon="6.5126">
        <ele>311.799988</ele>
        <time>2011-09-07T13:37:20Z</time>
      </trkpt>
      <trkpt lat="43.41512" lon="6.51256">
        <ele>312.299988</ele>
        <time>2011-09-07T13:37:26Z</time>
      </trkpt>
      <trkpt lat="43.41509" lon="6.51253">
        <ele>313.399994</ele>
        <time>2011-09-07T13:37:31Z</time>
      </trkpt>
      <trkpt lat="43.41507" lon="6.51253">
        <ele>313.700012</ele>
        <time>2011-09-07T13:37:34Z</time>
      </trkpt>
      <trkpt lat="43.41505" lon="6.51253">
        <ele>314.200012</ele>
        <time>2011-09-07T13:37:37Z</time>
      </trkpt>
      <trkpt lat="43.41503" lon="6.51252">
        <ele>314.700012</ele>
        <time>2011-09-07T13:37:40Z</time>
      </trkpt>
      <trkpt lat="43.41498" lon="6.51251">
        <ele>316.100006</ele>
        <time>2011-09-07T13:37:47Z</time>
      </trkpt>
      <trkpt lat="43.41496" lon="6.5125">
        <ele>316.700012</ele>
        <time>2011-09-07T13:37:50Z</time>
      </trkpt>
      <trkpt lat="43.41495" lon="6.51249">
        <ele>316.899994</ele>
        <time>2011-09-07T13:37:52Z</time>
      </trkpt>
      <trkpt lat="43.41491" lon="6.51246">
        <ele>317.799988</ele>
        <time>2011-09-07T13:37:58Z</time>
      </trkpt>
      <trkpt lat="43.41488" lon="6.51243">
        <ele>318.399994</ele>
        <time>2011-09-07T13:38:02Z</time>
      </trkpt>
      <trkpt lat="43.41485" lon="6.5124">
        <ele>319.299988</ele>
        <time>2011-09-07T13:38:07Z</time>
      </trkpt>
      <trkpt lat="43.41485" lon="6.51239">
        <ele>319.899994</ele>
        <time>2011-09-07T13:38:09Z</time>
      </trkpt>
      <trkpt lat="43.41479" lon="6.51229">
        <ele>321.399994</ele>
        <time>2011-09-07T13:38:23Z</time>
      </trkpt>
      <trkpt lat="43.41476" lon="6.51227">
        <ele>322.299988</ele>
        <time>2011-09-07T13:38:28Z</time>
      </trkpt>
      <trkpt lat="43.41475" lon="6.51226">
        <ele>322.899994</ele>
        <time>2011-09-07T13:38:30Z</time>
      </trkpt>
      <trkpt lat="43.41472" lon="6.51226">
        <ele>324.200012</ele>
        <time>2011-09-07T13:38:35Z</time>
      </trkpt>
      <trkpt lat="43.41465" lon="6.51224">
        <ele>325.399994</ele>
        <time>2011-09-07T13:38:45Z</time>
      </trkpt>
      <trkpt lat="43.41463" lon="6.51224">
        <ele>326.200012</ele>
        <time>2011-09-07T13:38:48Z</time>
      </trkpt>
      <trkpt lat="43.41461" lon="6.51223">
        <ele>327.299988</ele>
        <time>2011-09-07T13:38:52Z</time>
      </trkpt>
      <trkpt lat="43.41457" lon="6.51221">
        <ele>328.5</ele>
        <time>2011-09-07T13:38:58Z</time>
      </trkpt>
      <trkpt lat="43.41455" lon="6.5122">
        <ele>329.399994</ele>
        <time>2011-09-07T13:39:03Z</time>
      </trkpt>
      <trkpt lat="43.41453" lon="6.51219">
        <ele>329.5</ele>
        <time>2011-09-07T13:39:07Z</time>
      </trkpt>
      <trkpt lat="43.41451" lon="6.51218">
        <ele>330</ele>
        <time>2011-09-07T13:39:12Z</time>
      </trkpt>
      <trkpt lat="43.41451" lon="6.51217">
        <ele>329.5</ele>
        <time>2011-09-07T13:39:31Z</time>
      </trkpt>
      <trkpt lat="43.41451" lon="6.51216">
        <ele>330.799988</ele>
        <time>2011-09-07T13:40:34Z</time>
      </trkpt>
      <trkpt lat="43.41451" lon="6.51215">
        <ele>330.100006</ele>
        <time>2011-09-07T13:41:54Z</time>
      </trkpt>
      <trkpt lat="43.41449" lon="6.51214">
        <ele>330.5</ele>
        <time>2011-09-07T13:41:58Z</time>
      </trkpt>
      <trkpt lat="43.41447" lon="6.51211">
        <ele>331</ele>
        <time>2011-09-07T13:42:04Z</time>
      </trkpt>
      <trkpt lat="43.41446" lon="6.51209">
        <ele>331.399994</ele>
        <time>2011-09-07T13:42:06Z</time>
      </trkpt>
      <trkpt lat="43.41444" lon="6.51207">
        <ele>332</ele>
        <time>2011-09-07T13:42:11Z</time>
      </trkpt>
      <trkpt lat="43.4144" lon="6.51205">
        <ele>333</ele>
        <time>2011-09-07T13:42:16Z</time>
      </trkpt>
      <trkpt lat="43.41437" lon="6.51202">
        <ele>333.100006</ele>
        <time>2011-09-07T13:42:22Z</time>
      </trkpt>
      <trkpt lat="43.41434" lon="6.512">
        <ele>333</ele>
        <time>2011-09-07T13:42:28Z</time>
      </trkpt>
      <trkpt lat="43.41432" lon="6.51198">
        <ele>333.399994</ele>
        <time>2011-09-07T13:42:32Z</time>
      </trkpt>
      <trkpt lat="43.41429" lon="6.51196">
        <ele>334.200012</ele>
        <time>2011-09-07T13:42:37Z</time>
      </trkpt>
      <trkpt lat="43.41426" lon="6.51193">
        <ele>334.5</ele>
        <time>2011-09-07T13:42:44Z</time>
      </trkpt>
      <trkpt lat="43.41423" lon="6.5119">
        <ele>334.399994</ele>
        <time>2011-09-07T13:42:49Z</time>
      </trkpt>
      <trkpt lat="43.41422" lon="6.51189">
        <ele>334.600006</ele>
        <time>2011-09-07T13:43:03Z</time>
      </trkpt>
      <trkpt lat="43.4142" lon="6.51188">
        <ele>335.399994</ele>
        <time>2011-09-07T13:43:07Z</time>
      </trkpt>
      <trkpt lat="43.41416" lon="6.51185">
        <ele>334.399994</ele>
        <time>2011-09-07T13:43:13Z</time>
      </trkpt>
      <trkpt lat="43.41413" lon="6.51183">
        <ele>335.200012</ele>
        <time>2011-09-07T13:43:17Z</time>
      </trkpt>
      <trkpt lat="43.41411" lon="6.5118">
        <ele>335.5</ele>
        <time>2011-09-07T13:43:20Z</time>
      </trkpt>
      <trkpt lat="43.41406" lon="6.51175">
        <ele>336.399994</ele>
        <time>2011-09-07T13:43:28Z</time>
      </trkpt>
      <trkpt lat="43.41404" lon="6.51174">
        <ele>336.799988</ele>
        <time>2011-09-07T13:43:31Z</time>
      </trkpt>
      <trkpt lat="43.41402" lon="6.51172">
        <ele>336.899994</ele>
        <time>2011-09-07T13:43:34Z</time>
      </trkpt>
      <trkpt lat="43.414" lon="6.5117">
        <ele>337.899994</ele>
        <time>2011-09-07T13:43:38Z</time>
      </trkpt>
      <trkpt lat="43.41398" lon="6.5117">
        <ele>338.100006</ele>
        <time>2011-09-07T13:43:40Z</time>
      </trkpt>
      <trkpt lat="43.41395" lon="6.51169">
        <ele>338.100006</ele>
        <time>2011-09-07T13:43:44Z</time>
      </trkpt>
      <trkpt lat="43.41394" lon="6.51168">
        <ele>339.100006</ele>
        <time>2011-09-07T13:43:46Z</time>
      </trkpt>
      <trkpt lat="43.41389" lon="6.51167">
        <ele>340</ele>
        <time>2011-09-07T13:43:53Z</time>
      </trkpt>
      <trkpt lat="43.41386" lon="6.51165">
        <ele>340.899994</ele>
        <time>2011-09-07T13:43:58Z</time>
      </trkpt>
      <trkpt lat="43.41383" lon="6.51163">
        <ele>340.899994</ele>
        <time>2011-09-07T13:44:02Z</time>
      </trkpt>
      <trkpt lat="43.41382" lon="6.51162">
        <ele>340.899994</ele>
        <time>2011-09-07T13:44:04Z</time>
      </trkpt>
      <trkpt lat="43.41378" lon="6.51158">
        <ele>341.700012</ele>
        <time>2011-09-07T13:44:09Z</time>
      </trkpt>
      <trkpt lat="43.41377" lon="6.51157">
        <ele>341.899994</ele>
        <time>2011-09-07T13:44:11Z</time>
      </trkpt>
      <trkpt lat="43.41373" lon="6.51154">
        <ele>342.200012</ele>
        <time>2011-09-07T13:44:16Z</time>
      </trkpt>
      <trkpt lat="43.4137" lon="6.51151">
        <ele>342.799988</ele>
        <time>2011-09-07T13:44:20Z</time>
      </trkpt>
      <trkpt lat="43.41367" lon="6.51149">
        <ele>343.5</ele>
        <time>2011-09-07T13:44:25Z</time>
      </trkpt>
      <trkpt lat="43.41365" lon="6.51147">
        <ele>343</ele>
        <time>2011-09-07T13:44:27Z</time>
      </trkpt>
      <trkpt lat="43.4136" lon="6.51145">
        <ele>343.700012</ele>
        <time>2011-09-07T13:44:33Z</time>
      </trkpt>
      <trkpt lat="43.41356" lon="6.51145">
        <ele>343.799988</ele>
        <time>2011-09-07T13:44:37Z</time>
      </trkpt>
      <trkpt lat="43.41353" lon="6.51144">
        <ele>344.299988</ele>
        <time>2011-09-07T13:44:41Z</time>
      </trkpt>
      <trkpt lat="43.41349" lon="6.51144">
        <ele>344.700012</ele>
        <time>2011-09-07T13:44:45Z</time>
      </trkpt>
      <trkpt lat="43.41347" lon="6.51144">
        <ele>345.700012</ele>
        <time>2011-09-07T13:44:48Z</time>
      </trkpt>
      <trkpt lat="43.41341" lon="6.51144">
        <ele>346.600006</ele>
        <time>2011-09-07T13:44:55Z</time>
      </trkpt>
      <trkpt lat="43.41338" lon="6.51145">
        <ele>346.600006</ele>
        <time>2011-09-07T13:44:59Z</time>
      </trkpt>
      <trkpt lat="43.41334" lon="6.51145">
        <ele>346.899994</ele>
        <time>2011-09-07T13:45:03Z</time>
      </trkpt>
      <trkpt lat="43.41329" lon="6.51145">
        <ele>347.5</ele>
        <time>2011-09-07T13:45:09Z</time>
      </trkpt>
      <trkpt lat="43.41326" lon="6.51144">
        <ele>348</ele>
        <time>2011-09-07T13:45:13Z</time>
      </trkpt>
      <trkpt lat="43.41323" lon="6.51142">
        <ele>348.600006</ele>
        <time>2011-09-07T13:45:17Z</time>
      </trkpt>
      <trkpt lat="43.41321" lon="6.5114">
        <ele>348.899994</ele>
        <time>2011-09-07T13:45:20Z</time>
      </trkpt>
      <trkpt lat="43.41318" lon="6.51137">
        <ele>349.299988</ele>
        <time>2011-09-07T13:45:24Z</time>
      </trkpt>
      <trkpt lat="43.41316" lon="6.51134">
        <ele>349.899994</ele>
        <time>2011-09-07T13:45:28Z</time>
      </trkpt>
      <trkpt lat="43.41314" lon="6.51131">
        <ele>350.200012</ele>
        <time>2011-09-07T13:45:32Z</time>
      </trkpt>
      <trkpt lat="43.41313" lon="6.51127">
        <ele>350.600006</ele>
        <time>2011-09-07T13:45:36Z</time>
      </trkpt>
      <trkpt lat="43.41303" lon="6.51103">
        <ele>354</ele>
        <time>2011-09-07T13:46:04Z</time>
      </trkpt>
      <trkpt lat="43.413" lon="6.51098">
        <ele>354.799988</ele>
        <time>2011-09-07T13:46:10Z</time>
      </trkpt>
      <trkpt lat="43.41297" lon="6.51095">
        <ele>355.600006</ele>
        <time>2011-09-07T13:46:14Z</time>
      </trkpt>
      <trkpt lat="43.41296" lon="6.51093">
        <ele>356.100006</ele>
        <time>2011-09-07T13:46:17Z</time>
      </trkpt>
      <trkpt lat="43.41293" lon="6.51091">
        <ele>356.600006</ele>
        <time>2011-09-07T13:46:21Z</time>
      </trkpt>
      <trkpt lat="43.41292" lon="6.5109">
        <ele>356.600006</ele>
        <time>2011-09-07T13:46:22Z</time>
      </trkpt>
      <trkpt lat="43.41289" lon="6.51087">
        <ele>356.5</ele>
        <time>2011-09-07T13:46:26Z</time>
      </trkpt>
      <trkpt lat="43.41287" lon="6.51084">
        <ele>356.799988</ele>
        <time>2011-09-07T13:46:29Z</time>
      </trkpt>
      <trkpt lat="43.41285" lon="6.51081">
        <ele>358</ele>
        <time>2011-09-07T13:46:33Z</time>
      </trkpt>
      <trkpt lat="43.41283" lon="6.51079">
        <ele>358.100006</ele>
        <time>2011-09-07T13:46:35Z</time>
      </trkpt>
      <trkpt lat="43.41281" lon="6.51077">
        <ele>357.700012</ele>
        <time>2011-09-07T13:46:38Z</time>
      </trkpt>
      <trkpt lat="43.41279" lon="6.51075">
        <ele>357.700012</ele>
        <time>2011-09-07T13:46:41Z</time>
      </trkpt>
      <trkpt lat="43.41272" lon="6.5107">
        <ele>358.200012</ele>
        <time>2011-09-07T13:46:49Z</time>
      </trkpt>
      <trkpt lat="43.41267" lon="6.51064">
        <ele>358.299988</ele>
        <time>2011-09-07T13:46:55Z</time>
      </trkpt>
      <trkpt lat="43.41264" lon="6.51061">
        <ele>358.299988</ele>
        <time>2011-09-07T13:46:59Z</time>
      </trkpt>
      <trkpt lat="43.41263" lon="6.51059">
        <ele>358.299988</ele>
        <time>2011-09-07T13:47:01Z</time>
      </trkpt>
      <trkpt lat="43.4126" lon="6.51055">
        <ele>358.399994</ele>
        <time>2011-09-07T13:47:05Z</time>
      </trkpt>
      <trkpt lat="43.41259" lon="6.51054">
        <ele>358.5</ele>
        <time>2011-09-07T13:47:06Z</time>
      </trkpt>
      <trkpt lat="43.41253" lon="6.51045">
        <ele>359.100006</ele>
        <time>2011-09-07T13:47:15Z</time>
      </trkpt>
      <trkpt lat="43.41251" lon="6.51041">
        <ele>359.600006</ele>
        <time>2011-09-07T13:47:20Z</time>
      </trkpt>
      <trkpt lat="43.4125" lon="6.51037">
        <ele>359.399994</ele>
        <time>2011-09-07T13:47:29Z</time>
      </trkpt>
      <trkpt lat="43.41252" lon="6.51034">
        <ele>359.399994</ele>
        <time>2011-09-07T13:47:38Z</time>
      </trkpt>
      <trkpt lat="43.41254" lon="6.51032">
        <ele>359.200012</ele>
        <time>2011-09-07T13:47:44Z</time>
      </trkpt>
      <trkpt lat="43.41258" lon="6.51029">
        <ele>359</ele>
        <time>2011-09-07T13:47:49Z</time>
      </trkpt>
      <trkpt lat="43.41259" lon="6.51028">
        <ele>359</ele>
        <time>2011-09-07T13:47:50Z</time>
      </trkpt>
      <trkpt lat="43.41262" lon="6.51027">
        <ele>358.700012</ele>
        <time>2011-09-07T13:47:54Z</time>
      </trkpt>
      <trkpt lat="43.41264" lon="6.51026">
        <ele>358.299988</ele>
        <time>2011-09-07T13:47:56Z</time>
      </trkpt>
      <trkpt lat="43.41267" lon="6.51025">
        <ele>357.700012</ele>
        <time>2011-09-07T13:48:00Z</time>
      </trkpt>
      <trkpt lat="43.41273" lon="6.51023">
        <ele>357.299988</ele>
        <time>2011-09-07T13:48:07Z</time>
      </trkpt>
      <trkpt lat="43.413" lon="6.51008">
        <ele>356.100006</ele>
        <time>2011-09-07T13:48:35Z</time>
      </trkpt>
      <trkpt lat="43.41304" lon="6.51007">
        <ele>356.799988</ele>
        <time>2011-09-07T13:48:39Z</time>
      </trkpt>
      <trkpt lat="43.41308" lon="6.51005">
        <ele>356.600006</ele>
        <time>2011-09-07T13:48:43Z</time>
      </trkpt>
      <trkpt lat="43.41312" lon="6.51002">
        <ele>356.799988</ele>
        <time>2011-09-07T13:48:48Z</time>
      </trkpt>
      <trkpt lat="43.41314" lon="6.51001">
        <ele>357</ele>
        <time>2011-09-07T13:48:50Z</time>
      </trkpt>
      <trkpt lat="43.41317" lon="6.50999">
        <ele>357.600006</ele>
        <time>2011-09-07T13:48:54Z</time>
      </trkpt>
      <trkpt lat="43.41319" lon="6.50997">
        <ele>357.299988</ele>
        <time>2011-09-07T13:48:58Z</time>
      </trkpt>
      <trkpt lat="43.41321" lon="6.50995">
        <ele>357.100006</ele>
        <time>2011-09-07T13:49:01Z</time>
      </trkpt>
      <trkpt lat="43.41323" lon="6.50994">
        <ele>356.700012</ele>
        <time>2011-09-07T13:49:03Z</time>
      </trkpt>
      <trkpt lat="43.41326" lon="6.50991">
        <ele>356</ele>
        <time>2011-09-07T13:49:07Z</time>
      </trkpt>
      <trkpt lat="43.41329" lon="6.50989">
        <ele>355.299988</ele>
        <time>2011-09-07T13:49:10Z</time>
      </trkpt>
      <trkpt lat="43.41331" lon="6.50985">
        <ele>355</ele>
        <time>2011-09-07T13:49:14Z</time>
      </trkpt>
      <trkpt lat="43.41334" lon="6.50983">
        <ele>354.399994</ele>
        <time>2011-09-07T13:49:17Z</time>
      </trkpt>
      <trkpt lat="43.4134" lon="6.50978">
        <ele>353.399994</ele>
        <time>2011-09-07T13:49:24Z</time>
      </trkpt>
      <trkpt lat="43.41354" lon="6.50962">
        <ele>352.799988</ele>
        <time>2011-09-07T13:49:41Z</time>
      </trkpt>
      <trkpt lat="43.41357" lon="6.50953">
        <ele>353.399994</ele>
        <time>2011-09-07T13:49:48Z</time>
      </trkpt>
      <trkpt lat="43.41358" lon="6.50947">
        <ele>352.700012</ele>
        <time>2011-09-07T13:49:53Z</time>
      </trkpt>
      <trkpt lat="43.41359" lon="6.50943">
        <ele>351.899994</ele>
        <time>2011-09-07T13:50:04Z</time>
      </trkpt>
      <trkpt lat="43.41359" lon="6.50939">
        <ele>351.799988</ele>
        <time>2011-09-07T13:50:16Z</time>
      </trkpt>
      <trkpt lat="43.4136" lon="6.50936">
        <ele>352.700012</ele>
        <time>2011-09-07T13:50:23Z</time>
      </trkpt>
      <trkpt lat="43.41361" lon="6.50932">
        <ele>352.200012</ele>
        <time>2011-09-07T13:50:27Z</time>
      </trkpt>
      <trkpt lat="43.41361" lon="6.50929">
        <ele>351.5</ele>
        <time>2011-09-07T13:50:30Z</time>
      </trkpt>
      <trkpt lat="43.41362" lon="6.50922">
        <ele>351.200012</ele>
        <time>2011-09-07T13:50:38Z</time>
      </trkpt>
      <trkpt lat="43.41364" lon="6.50919">
        <ele>350.5</ele>
        <time>2011-09-07T13:50:41Z</time>
      </trkpt>
      <trkpt lat="43.41364" lon="6.50916">
        <ele>350.100006</ele>
        <time>2011-09-07T13:50:44Z</time>
      </trkpt>
      <trkpt lat="43.41366" lon="6.50911">
        <ele>349.200012</ele>
        <time>2011-09-07T13:50:50Z</time>
      </trkpt>
      <trkpt lat="43.41367" lon="6.5091">
        <ele>349.200012</ele>
        <time>2011-09-07T13:50:52Z</time>
      </trkpt>
      <trkpt lat="43.41368" lon="6.50909">
        <ele>349.600006</ele>
        <time>2011-09-07T13:51:00Z</time>
      </trkpt>
      <trkpt lat="43.41368" lon="6.50908">
        <ele>349.200012</ele>
        <time>2011-09-07T13:51:14Z</time>
      </trkpt>
      <trkpt lat="43.41369" lon="6.50907">
        <ele>349.5</ele>
        <time>2011-09-07T13:51:42Z</time>
      </trkpt>
      <trkpt lat="43.41369" lon="6.50909">
        <ele>349.700012</ele>
        <time>2011-09-07T13:52:00Z</time>
      </trkpt>
      <trkpt lat="43.4137" lon="6.5091">
        <ele>349.399994</ele>
        <time>2011-09-07T13:52:10Z</time>
      </trkpt>
      <trkpt lat="43.4137" lon="6.50907">
        <ele>349.200012</ele>
        <time>2011-09-07T13:53:22Z</time>
      </trkpt>
      <trkpt lat="43.41371" lon="6.50908">
        <ele>348.399994</ele>
        <time>2011-09-07T13:53:40Z</time>
      </trkpt>
      <trkpt lat="43.41372" lon="6.50908">
        <ele>349.399994</ele>
        <time>2011-09-07T13:54:11Z</time>
      </trkpt>
      <trkpt lat="43.41372" lon="6.5091">
        <ele>349.600006</ele>
        <time>2011-09-07T13:54:55Z</time>
      </trkpt>
      <trkpt lat="43.4137" lon="6.50911">
        <ele>349.100006</ele>
        <time>2011-09-07T13:55:24Z</time>
      </trkpt>
      <trkpt lat="43.41369" lon="6.5091">
        <ele>349.700012</ele>
        <time>2011-09-07T13:55:34Z</time>
      </trkpt>
      <trkpt lat="43.41367" lon="6.50915">
        <ele>349.299988</ele>
        <time>2011-09-07T13:55:46Z</time>
      </trkpt>
      <trkpt lat="43.41366" lon="6.50919">
        <ele>349.700012</ele>
        <time>2011-09-07T13:55:51Z</time>
      </trkpt>
      <trkpt lat="43.41364" lon="6.50922">
        <ele>350.200012</ele>
        <time>2011-09-07T13:55:55Z</time>
      </trkpt>
      <trkpt lat="43.41363" lon="6.50927">
        <ele>350.799988</ele>
        <time>2011-09-07T13:56:01Z</time>
      </trkpt>
      <trkpt lat="43.41361" lon="6.50932">
        <ele>351.700012</ele>
        <time>2011-09-07T13:56:07Z</time>
      </trkpt>
      <trkpt lat="43.4136" lon="6.50937">
        <ele>351.700012</ele>
        <time>2011-09-07T13:56:12Z</time>
      </trkpt>
      <trkpt lat="43.41359" lon="6.5094">
        <ele>352.200012</ele>
        <time>2011-09-07T13:56:14Z</time>
      </trkpt>
      <trkpt lat="43.41359" lon="6.50943">
        <ele>352</ele>
        <time>2011-09-07T13:56:17Z</time>
      </trkpt>
      <trkpt lat="43.41358" lon="6.5095">
        <ele>353.100006</ele>
        <time>2011-09-07T13:56:23Z</time>
      </trkpt>
      <trkpt lat="43.41357" lon="6.50954">
        <ele>353.200012</ele>
        <time>2011-09-07T13:56:27Z</time>
      </trkpt>
      <trkpt lat="43.41355" lon="6.50958">
        <ele>353.700012</ele>
        <time>2011-09-07T13:56:31Z</time>
      </trkpt>
      <trkpt lat="43.41354" lon="6.5096">
        <ele>353.700012</ele>
        <time>2011-09-07T13:56:33Z</time>
      </trkpt>
      <trkpt lat="43.41348" lon="6.50966">
        <ele>354.100006</ele>
        <time>2011-09-07T13:56:40Z</time>
      </trkpt>
      <trkpt lat="43.41347" lon="6.50967">
        <ele>354.100006</ele>
        <time>2011-09-07T13:56:42Z</time>
      </trkpt>
      <trkpt lat="43.41336" lon="6.50978">
        <ele>355.299988</ele>
        <time>2011-09-07T13:56:56Z</time>
      </trkpt>
      <trkpt lat="43.41332" lon="6.50981">
        <ele>356.100006</ele>
        <time>2011-09-07T13:57:01Z</time>
      </trkpt>
      <trkpt lat="43.41329" lon="6.50985">
        <ele>356.399994</ele>
        <time>2011-09-07T13:57:06Z</time>
      </trkpt>
      <trkpt lat="43.41327" lon="6.50988">
        <ele>357.799988</ele>
        <time>2011-09-07T13:57:11Z</time>
      </trkpt>
      <trkpt lat="43.41324" lon="6.5099">
        <ele>358.299988</ele>
        <time>2011-09-07T13:57:16Z</time>
      </trkpt>
      <trkpt lat="43.41321" lon="6.50993">
        <ele>358.399994</ele>
        <time>2011-09-07T13:57:21Z</time>
      </trkpt>
      <trkpt lat="43.4132" lon="6.50993">
        <ele>358.5</ele>
        <time>2011-09-07T13:57:23Z</time>
      </trkpt>
      <trkpt lat="43.41317" lon="6.50996">
        <ele>358.5</ele>
        <time>2011-09-07T13:57:27Z</time>
      </trkpt>
      <trkpt lat="43.41308" lon="6.51002">
        <ele>358.399994</ele>
        <time>2011-09-07T13:57:37Z</time>
      </trkpt>
      <trkpt lat="43.41292" lon="6.51011">
        <ele>358</ele>
        <time>2011-09-07T13:57:52Z</time>
      </trkpt>
      <trkpt lat="43.4128" lon="6.51016">
        <ele>358.299988</ele>
        <time>2011-09-07T13:58:04Z</time>
      </trkpt>
      <trkpt lat="43.41272" lon="6.5102">
        <ele>358.700012</ele>
        <time>2011-09-07T13:58:12Z</time>
      </trkpt>
      <trkpt lat="43.41269" lon="6.51021">
        <ele>359.100006</ele>
        <time>2011-09-07T13:58:15Z</time>
      </trkpt>
      <trkpt lat="43.41267" lon="6.51023">
        <ele>359.200012</ele>
        <time>2011-09-07T13:58:18Z</time>
      </trkpt>
      <trkpt lat="43.41255" lon="6.51027">
        <ele>360.299988</ele>
        <time>2011-09-07T13:58:30Z</time>
      </trkpt>
      <trkpt lat="43.41254" lon="6.51028">
        <ele>360.399994</ele>
        <time>2011-09-07T13:58:35Z</time>
      </trkpt>
      <trkpt lat="43.41252" lon="6.51028">
        <ele>361.799988</ele>
        <time>2011-09-07T13:58:56Z</time>
      </trkpt>
      <trkpt lat="43.41252" lon="6.51027">
        <ele>360.200012</ele>
        <time>2011-09-07T13:59:03Z</time>
      </trkpt>
      <trkpt lat="43.41251" lon="6.51027">
        <ele>359.799988</ele>
        <time>2011-09-07T13:59:20Z</time>
      </trkpt>
      <trkpt lat="43.4125" lon="6.51027">
        <ele>359.700012</ele>
        <time>2011-09-07T13:59:48Z</time>
      </trkpt>
      <trkpt lat="43.4125" lon="6.51028">
        <ele>360.600006</ele>
        <time>2011-09-07T13:59:58Z</time>
      </trkpt>
      <trkpt lat="43.41249" lon="6.51028">
        <ele>361</ele>
        <time>2011-09-07T14:00:00Z</time>
      </trkpt>
      <trkpt lat="43.41249" lon="6.51029">
        <ele>361.100006</ele>
        <time>2011-09-07T14:00:08Z</time>
      </trkpt>
      <trkpt lat="43.41249" lon="6.5103">
        <ele>360.299988</ele>
        <time>2011-09-07T14:00:17Z</time>
      </trkpt>
      <trkpt lat="43.4125" lon="6.5103">
        <ele>361</ele>
        <time>2011-09-07T14:00:29Z</time>
      </trkpt>
      <trkpt lat="43.41249" lon="6.51031">
        <ele>360.700012</ele>
        <time>2011-09-07T14:00:49Z</time>
      </trkpt>
      <trkpt lat="43.41247" lon="6.51032">
        <ele>360</ele>
        <time>2011-09-07T14:01:08Z</time>
      </trkpt>
      <trkpt lat="43.41244" lon="6.51033">
        <ele>360.5</ele>
        <time>2011-09-07T14:01:13Z</time>
      </trkpt>
      <trkpt lat="43.41242" lon="6.51035">
        <ele>361.200012</ele>
        <time>2011-09-07T14:01:18Z</time>
      </trkpt>
      <trkpt lat="43.41242" lon="6.51035">
        <ele>360.899994</ele>
        <time>2011-09-07T14:01:29Z</time>
      </trkpt>
      <trkpt lat="43.4124" lon="6.51034">
        <ele>361</ele>
        <time>2011-09-07T14:01:31Z</time>
      </trkpt>
      <trkpt lat="43.41236" lon="6.51034">
        <ele>361.200012</ele>
        <time>2011-09-07T14:01:35Z</time>
      </trkpt>
      <trkpt lat="43.41233" lon="6.51034">
        <ele>361.299988</ele>
        <time>2011-09-07T14:01:38Z</time>
      </trkpt>
      <trkpt lat="43.41231" lon="6.51034">
        <ele>361.399994</ele>
        <time>2011-09-07T14:01:40Z</time>
      </trkpt>
      <trkpt lat="43.41218" lon="6.51029">
        <ele>361</ele>
        <time>2011-09-07T14:01:51Z</time>
      </trkpt>
      <trkpt lat="43.41206" lon="6.51022">
        <ele>361.100006</ele>
        <time>2011-09-07T14:02:03Z</time>
      </trkpt>
      <trkpt lat="43.41206" lon="6.51021">
        <ele>361</ele>
        <time>2011-09-07T14:02:04Z</time>
      </trkpt>
      <trkpt lat="43.412" lon="6.5102">
        <ele>360.899994</ele>
        <time>2011-09-07T14:02:09Z</time>
      </trkpt>
      <trkpt lat="43.41191" lon="6.5102">
        <ele>361</ele>
        <time>2011-09-07T14:02:17Z</time>
      </trkpt>
      <trkpt lat="43.41186" lon="6.51019">
        <ele>361.299988</ele>
        <time>2011-09-07T14:02:21Z</time>
      </trkpt>
      <trkpt lat="43.41177" lon="6.51014">
        <ele>360.299988</ele>
        <time>2011-09-07T14:02:29Z</time>
      </trkpt>
      <trkpt lat="43.41173" lon="6.51013">
        <ele>359.399994</ele>
        <time>2011-09-07T14:02:33Z</time>
      </trkpt>
      <trkpt lat="43.41171" lon="6.51013">
        <ele>359.299988</ele>
        <time>2011-09-07T14:02:35Z</time>
      </trkpt>
      <trkpt lat="43.4116" lon="6.51012">
        <ele>358.299988</ele>
        <time>2011-09-07T14:02:45Z</time>
      </trkpt>
      <trkpt lat="43.41157" lon="6.51011">
        <ele>358.5</ele>
        <time>2011-09-07T14:02:48Z</time>
      </trkpt>
      <trkpt lat="43.41156" lon="6.5101">
        <ele>358.700012</ele>
        <time>2011-09-07T14:02:49Z</time>
      </trkpt>
      <trkpt lat="43.4115" lon="6.51005">
        <ele>358.600006</ele>
        <time>2011-09-07T14:02:55Z</time>
      </trkpt>
      <trkpt lat="43.41148" lon="6.51004">
        <ele>358.299988</ele>
        <time>2011-09-07T14:02:57Z</time>
      </trkpt>
      <trkpt lat="43.41145" lon="6.51003">
        <ele>358.399994</ele>
        <time>2011-09-07T14:02:59Z</time>
      </trkpt>
      <trkpt lat="43.41143" lon="6.51003">
        <ele>358.100006</ele>
        <time>2011-09-07T14:03:01Z</time>
      </trkpt>
      <trkpt lat="43.41141" lon="6.51004">
        <ele>357.899994</ele>
        <time>2011-09-07T14:03:03Z</time>
      </trkpt>
      <trkpt lat="43.41138" lon="6.51007">
        <ele>358</ele>
        <time>2011-09-07T14:03:08Z</time>
      </trkpt>
      <trkpt lat="43.41134" lon="6.51008">
        <ele>357.5</ele>
        <time>2011-09-07T14:03:12Z</time>
      </trkpt>
      <trkpt lat="43.41132" lon="6.51009">
        <ele>356.799988</ele>
        <time>2011-09-07T14:03:14Z</time>
      </trkpt>
      <trkpt lat="43.41128" lon="6.51008">
        <ele>355.5</ele>
        <time>2011-09-07T14:03:18Z</time>
      </trkpt>
      <trkpt lat="43.41124" lon="6.51006">
        <ele>355</ele>
        <time>2011-09-07T14:03:22Z</time>
      </trkpt>
      <trkpt lat="43.41122" lon="6.51006">
        <ele>354.799988</ele>
        <time>2011-09-07T14:03:23Z</time>
      </trkpt>
      <trkpt lat="43.41118" lon="6.51005">
        <ele>354.399994</ele>
        <time>2011-09-07T14:03:27Z</time>
      </trkpt>
      <trkpt lat="43.41116" lon="6.51005">
        <ele>354.299988</ele>
        <time>2011-09-07T14:03:29Z</time>
      </trkpt>
      <trkpt lat="43.41112" lon="6.51004">
        <ele>353.200012</ele>
        <time>2011-09-07T14:03:33Z</time>
      </trkpt>
      <trkpt lat="43.41109" lon="6.51003">
        <ele>352.5</ele>
        <time>2011-09-07T14:03:36Z</time>
      </trkpt>
      <trkpt lat="43.41093" lon="6.51002">
        <ele>351.100006</ele>
        <time>2011-09-07T14:03:49Z</time>
      </trkpt>
      <trkpt lat="43.41081" lon="6.50997">
        <ele>350.700012</ele>
        <time>2011-09-07T14:04:00Z</time>
      </trkpt>
      <trkpt lat="43.41078" lon="6.50997">
        <ele>350.700012</ele>
        <time>2011-09-07T14:04:03Z</time>
      </trkpt>
      <trkpt lat="43.4107" lon="6.50995">
        <ele>350</ele>
        <time>2011-09-07T14:04:10Z</time>
      </trkpt>
      <trkpt lat="43.41054" lon="6.50994">
        <ele>348.700012</ele>
        <time>2011-09-07T14:04:23Z</time>
      </trkpt>
      <trkpt lat="43.4104" lon="6.50992">
        <ele>347.600006</ele>
        <time>2011-09-07T14:04:34Z</time>
      </trkpt>
      <trkpt lat="43.41024" lon="6.5099">
        <ele>345.600006</ele>
        <time>2011-09-07T14:04:49Z</time>
      </trkpt>
      <trkpt lat="43.41019" lon="6.50989">
        <ele>345.299988</ele>
        <time>2011-09-07T14:04:53Z</time>
      </trkpt>
      <trkpt lat="43.41017" lon="6.50987">
        <ele>344.700012</ele>
        <time>2011-09-07T14:04:55Z</time>
      </trkpt>
      <trkpt lat="43.41012" lon="6.50981">
        <ele>344.299988</ele>
        <time>2011-09-07T14:05:02Z</time>
      </trkpt>
      <trkpt lat="43.4101" lon="6.50977">
        <ele>343.299988</ele>
        <time>2011-09-07T14:05:05Z</time>
      </trkpt>
      <trkpt lat="43.41007" lon="6.50972">
        <ele>342.700012</ele>
        <time>2011-09-07T14:05:10Z</time>
      </trkpt>
      <trkpt lat="43.41004" lon="6.50966">
        <ele>341.899994</ele>
        <time>2011-09-07T14:05:15Z</time>
      </trkpt>
      <trkpt lat="43.41002" lon="6.50962">
        <ele>341.299988</ele>
        <time>2011-09-07T14:05:19Z</time>
      </trkpt>
      <trkpt lat="43.41" lon="6.50959">
        <ele>340.399994</ele>
        <time>2011-09-07T14:05:22Z</time>
      </trkpt>
      <trkpt lat="43.40998" lon="6.50956">
        <ele>339.799988</ele>
        <time>2011-09-07T14:05:25Z</time>
      </trkpt>
      <trkpt lat="43.40995" lon="6.50952">
        <ele>339.200012</ele>
        <time>2011-09-07T14:05:29Z</time>
      </trkpt>
      <trkpt lat="43.40993" lon="6.50948">
        <ele>337.799988</ele>
        <time>2011-09-07T14:05:33Z</time>
      </trkpt>
      <trkpt lat="43.40984" lon="6.50923">
        <ele>333.5</ele>
        <time>2011-09-07T14:05:52Z</time>
      </trkpt>
      <trkpt lat="43.4098" lon="6.50916">
        <ele>332.200012</ele>
        <time>2011-09-07T14:05:59Z</time>
      </trkpt>
      <trkpt lat="43.40977" lon="6.50911">
        <ele>331.299988</ele>
        <time>2011-09-07T14:06:03Z</time>
      </trkpt>
      <trkpt lat="43.40976" lon="6.50908">
        <ele>330.799988</ele>
        <time>2011-09-07T14:06:05Z</time>
      </trkpt>
      <trkpt lat="43.4097" lon="6.50896">
        <ele>327.399994</ele>
        <time>2011-09-07T14:06:17Z</time>
      </trkpt>
      <trkpt lat="43.40968" lon="6.50893">
        <ele>326.100006</ele>
        <time>2011-09-07T14:06:21Z</time>
      </trkpt>
      <trkpt lat="43.40966" lon="6.50889">
        <ele>324.700012</ele>
        <time>2011-09-07T14:06:26Z</time>
      </trkpt>
      <trkpt lat="43.40964" lon="6.50884">
        <ele>323.899994</ele>
        <time>2011-09-07T14:06:30Z</time>
      </trkpt>
      <trkpt lat="43.40961" lon="6.5088">
        <ele>322.799988</ele>
        <time>2011-09-07T14:06:35Z</time>
      </trkpt>
      <trkpt lat="43.40959" lon="6.50879">
        <ele>322.200012</ele>
        <time>2011-09-07T14:06:38Z</time>
      </trkpt>
      <trkpt lat="43.40958" lon="6.50875">
        <ele>321.5</ele>
        <time>2011-09-07T14:06:41Z</time>
      </trkpt>
      <trkpt lat="43.40957" lon="6.50871">
        <ele>320.700012</ele>
        <time>2011-09-07T14:06:44Z</time>
      </trkpt>
      <trkpt lat="43.40954" lon="6.50867">
        <ele>320.200012</ele>
        <time>2011-09-07T14:06:49Z</time>
      </trkpt>
      <trkpt lat="43.40952" lon="6.50864">
        <ele>318.799988</ele>
        <time>2011-09-07T14:06:53Z</time>
      </trkpt>
      <trkpt lat="43.40949" lon="6.50859">
        <ele>316.899994</ele>
        <time>2011-09-07T14:06:58Z</time>
      </trkpt>
      <trkpt lat="43.40945" lon="6.50853">
        <ele>315.700012</ele>
        <time>2011-09-07T14:07:05Z</time>
      </trkpt>
      <trkpt lat="43.40943" lon="6.5085">
        <ele>314.700012</ele>
        <time>2011-09-07T14:07:09Z</time>
      </trkpt>
      <trkpt lat="43.40941" lon="6.50849">
        <ele>313.899994</ele>
        <time>2011-09-07T14:07:11Z</time>
      </trkpt>
      <trkpt lat="43.40937" lon="6.50846">
        <ele>312.299988</ele>
        <time>2011-09-07T14:07:16Z</time>
      </trkpt>
      <trkpt lat="43.40934" lon="6.50843">
        <ele>311.700012</ele>
        <time>2011-09-07T14:07:20Z</time>
      </trkpt>
      <trkpt lat="43.40932" lon="6.50839">
        <ele>311.399994</ele>
        <time>2011-09-07T14:07:24Z</time>
      </trkpt>
      <trkpt lat="43.40929" lon="6.50835">
        <ele>310.200012</ele>
        <time>2011-09-07T14:07:28Z</time>
      </trkpt>
      <trkpt lat="43.40928" lon="6.50834">
        <ele>309.700012</ele>
        <time>2011-09-07T14:07:30Z</time>
      </trkpt>
      <trkpt lat="43.4092" lon="6.50824">
        <ele>307.299988</ele>
        <time>2011-09-07T14:07:39Z</time>
      </trkpt>
      <trkpt lat="43.40911" lon="6.50815">
        <ele>305.600006</ele>
        <time>2011-09-07T14:07:48Z</time>
      </trkpt>
      <trkpt lat="43.40909" lon="6.50813">
        <ele>305</ele>
        <time>2011-09-07T14:07:50Z</time>
      </trkpt>
      <trkpt lat="43.40907" lon="6.50812">
        <ele>304.200012</ele>
        <time>2011-09-07T14:07:52Z</time>
      </trkpt>
      <trkpt lat="43.40901" lon="6.50808">
        <ele>303.799988</ele>
        <time>2011-09-07T14:07:57Z</time>
      </trkpt>
      <trkpt lat="43.40899" lon="6.50805">
        <ele>304.399994</ele>
        <time>2011-09-07T14:08:01Z</time>
      </trkpt>
      <trkpt lat="43.40896" lon="6.50801">
        <ele>303.700012</ele>
        <time>2011-09-07T14:08:05Z</time>
      </trkpt>
      <trkpt lat="43.40895" lon="6.508">
        <ele>303.600006</ele>
        <time>2011-09-07T14:08:06Z</time>
      </trkpt>
      <trkpt lat="43.40892" lon="6.50797">
        <ele>302.700012</ele>
        <time>2011-09-07T14:08:09Z</time>
      </trkpt>
      <trkpt lat="43.40887" lon="6.50792">
        <ele>301.700012</ele>
        <time>2011-09-07T14:08:14Z</time>
      </trkpt>
      <trkpt lat="43.4088" lon="6.50785">
        <ele>300.5</ele>
        <time>2011-09-07T14:08:21Z</time>
      </trkpt>
      <trkpt lat="43.40874" lon="6.50779">
        <ele>300.200012</ele>
        <time>2011-09-07T14:08:26Z</time>
      </trkpt>
      <trkpt lat="43.40872" lon="6.50777">
        <ele>299.600006</ele>
        <time>2011-09-07T14:08:31Z</time>
      </trkpt>
      <trkpt lat="43.40869" lon="6.50774">
        <ele>299.600006</ele>
        <time>2011-09-07T14:08:44Z</time>
      </trkpt>
      <trkpt lat="43.40868" lon="6.50773">
        <ele>299.899994</ele>
        <time>2011-09-07T14:08:47Z</time>
      </trkpt>
      <trkpt lat="43.40868" lon="6.50772">
        <ele>300.5</ele>
        <time>2011-09-07T14:08:54Z</time>
      </trkpt>
      <trkpt lat="43.40866" lon="6.50772">
        <ele>299.600006</ele>
        <time>2011-09-07T14:09:00Z</time>
      </trkpt>
      <trkpt lat="43.40865" lon="6.50771">
        <ele>299.700012</ele>
        <time>2011-09-07T14:09:11Z</time>
      </trkpt>
      <trkpt lat="43.40865" lon="6.5077">
        <ele>299.700012</ele>
        <time>2011-09-07T14:09:15Z</time>
      </trkpt>
      <trkpt lat="43.40864" lon="6.50771">
        <ele>300</ele>
        <time>2011-09-07T14:09:19Z</time>
      </trkpt>
      <trkpt lat="43.40864" lon="6.5077">
        <ele>299.899994</ele>
        <time>2011-09-07T14:09:24Z</time>
      </trkpt>
      <trkpt lat="43.40865" lon="6.50769">
        <ele>300.200012</ele>
        <time>2011-09-07T14:09:36Z</time>
      </trkpt>
      <trkpt lat="43.40864" lon="6.50768">
        <ele>300.200012</ele>
        <time>2011-09-07T14:09:43Z</time>
      </trkpt>
      <trkpt lat="43.40866" lon="6.50768">
        <ele>300.399994</ele>
        <time>2011-09-07T14:09:57Z</time>
      </trkpt>
      <trkpt lat="43.40865" lon="6.50769">
        <ele>300</ele>
        <time>2011-09-07T14:10:26Z</time>
      </trkpt>
      <trkpt lat="43.40862" lon="6.50771">
        <ele>299.5</ele>
        <time>2011-09-07T14:10:30Z</time>
      </trkpt>
      <trkpt lat="43.40861" lon="6.50779">
        <ele>298.700012</ele>
        <time>2011-09-07T14:10:40Z</time>
      </trkpt>
      <trkpt lat="43.40862" lon="6.50784">
        <ele>297.399994</ele>
        <time>2011-09-07T14:10:46Z</time>
      </trkpt>
      <trkpt lat="43.40863" lon="6.50787">
        <ele>298.100006</ele>
        <time>2011-09-07T14:10:49Z</time>
      </trkpt>
      <trkpt lat="43.40864" lon="6.5079">
        <ele>298</ele>
        <time>2011-09-07T14:10:51Z</time>
      </trkpt>
      <trkpt lat="43.40865" lon="6.50793">
        <ele>297.399994</ele>
        <time>2011-09-07T14:10:55Z</time>
      </trkpt>
      <trkpt lat="43.40866" lon="6.50798">
        <ele>297.200012</ele>
        <time>2011-09-07T14:10:59Z</time>
      </trkpt>
      <trkpt lat="43.40867" lon="6.50802">
        <ele>296.899994</ele>
        <time>2011-09-07T14:11:02Z</time>
      </trkpt>
      <trkpt lat="43.40868" lon="6.50806">
        <ele>296</ele>
        <time>2011-09-07T14:11:05Z</time>
      </trkpt>
      <trkpt lat="43.40868" lon="6.50811">
        <ele>295.200012</ele>
        <time>2011-09-07T14:11:09Z</time>
      </trkpt>
      <trkpt lat="43.40873" lon="6.50821">
        <ele>295.799988</ele>
        <time>2011-09-07T14:11:16Z</time>
      </trkpt>
      <trkpt lat="43.40874" lon="6.50824">
        <ele>295.700012</ele>
        <time>2011-09-07T14:11:18Z</time>
      </trkpt>
      <trkpt lat="43.40876" lon="6.50829">
        <ele>295.200012</ele>
        <time>2011-09-07T14:11:21Z</time>
      </trkpt>
      <trkpt lat="43.40877" lon="6.5083">
        <ele>295</ele>
        <time>2011-09-07T14:11:22Z</time>
      </trkpt>
      <trkpt lat="43.40878" lon="6.50835">
        <ele>294.100006</ele>
        <time>2011-09-07T14:11:25Z</time>
      </trkpt>
      <trkpt lat="43.40879" lon="6.50838">
        <ele>294.100006</ele>
        <time>2011-09-07T14:11:27Z</time>
      </trkpt>
      <trkpt lat="43.4088" lon="6.50842">
        <ele>294.299988</ele>
        <time>2011-09-07T14:11:30Z</time>
      </trkpt>
      <trkpt lat="43.40881" lon="6.50845">
        <ele>294.100006</ele>
        <time>2011-09-07T14:11:32Z</time>
      </trkpt>
      <trkpt lat="43.40881" lon="6.50848">
        <ele>294.200012</ele>
        <time>2011-09-07T14:11:34Z</time>
      </trkpt>
      <trkpt lat="43.40882" lon="6.50853">
        <ele>293.700012</ele>
        <time>2011-09-07T14:11:37Z</time>
      </trkpt>
      <trkpt lat="43.40883" lon="6.50858">
        <ele>294.200012</ele>
        <time>2011-09-07T14:11:40Z</time>
      </trkpt>
      <trkpt lat="43.40884" lon="6.50861">
        <ele>294.100006</ele>
        <time>2011-09-07T14:11:42Z</time>
      </trkpt>
      <trkpt lat="43.40885" lon="6.50871">
        <ele>293.100006</ele>
        <time>2011-09-07T14:11:48Z</time>
      </trkpt>
      <trkpt lat="43.40885" lon="6.50873">
        <ele>293.100006</ele>
        <time>2011-09-07T14:11:49Z</time>
      </trkpt>
      <trkpt lat="43.40886" lon="6.50885">
        <ele>291.899994</ele>
        <time>2011-09-07T14:11:56Z</time>
      </trkpt>
      <trkpt lat="43.40885" lon="6.50891">
        <ele>292.5</ele>
        <time>2011-09-07T14:12:00Z</time>
      </trkpt>
      <trkpt lat="43.40885" lon="6.50896">
        <ele>292.200012</ele>
        <time>2011-09-07T14:12:04Z</time>
      </trkpt>
      <trkpt lat="43.40883" lon="6.50902">
        <ele>291.799988</ele>
        <time>2011-09-07T14:12:08Z</time>
      </trkpt>
      <trkpt lat="43.40882" lon="6.50906">
        <ele>292.600006</ele>
        <time>2011-09-07T14:12:11Z</time>
      </trkpt>
      <trkpt lat="43.40875" lon="6.50927">
        <ele>290.899994</ele>
        <time>2011-09-07T14:12:23Z</time>
      </trkpt>
      <trkpt lat="43.40871" lon="6.50936">
        <ele>290.700012</ele>
        <time>2011-09-07T14:12:29Z</time>
      </trkpt>
      <trkpt lat="43.40865" lon="6.50946">
        <ele>289.200012</ele>
        <time>2011-09-07T14:12:36Z</time>
      </trkpt>
      <trkpt lat="43.4086" lon="6.50952">
        <ele>288.200012</ele>
        <time>2011-09-07T14:12:41Z</time>
      </trkpt>
      <trkpt lat="43.40859" lon="6.50953">
        <ele>288.100006</ele>
        <time>2011-09-07T14:12:42Z</time>
      </trkpt>
      <trkpt lat="43.40853" lon="6.50958">
        <ele>287.5</ele>
        <time>2011-09-07T14:12:48Z</time>
      </trkpt>
      <trkpt lat="43.40851" lon="6.50959">
        <ele>287.600006</ele>
        <time>2011-09-07T14:12:50Z</time>
      </trkpt>
      <trkpt lat="43.40845" lon="6.50963">
        <ele>285.899994</ele>
        <time>2011-09-07T14:12:56Z</time>
      </trkpt>
      <trkpt lat="43.40835" lon="6.50969">
        <ele>285.200012</ele>
        <time>2011-09-07T14:13:05Z</time>
      </trkpt>
      <trkpt lat="43.40832" lon="6.50972">
        <ele>284.299988</ele>
        <time>2011-09-07T14:13:08Z</time>
      </trkpt>
      <trkpt lat="43.40831" lon="6.50974">
        <ele>283.700012</ele>
        <time>2011-09-07T14:13:10Z</time>
      </trkpt>
      <trkpt lat="43.40828" lon="6.50978">
        <ele>282.600006</ele>
        <time>2011-09-07T14:13:14Z</time>
      </trkpt>
      <trkpt lat="43.40825" lon="6.50981">
        <ele>281.299988</ele>
        <time>2011-09-07T14:13:18Z</time>
      </trkpt>
      <trkpt lat="43.40822" lon="6.50984">
        <ele>280.600006</ele>
        <time>2011-09-07T14:13:21Z</time>
      </trkpt>
      <trkpt lat="43.40819" lon="6.50988">
        <ele>279.399994</ele>
        <time>2011-09-07T14:13:26Z</time>
      </trkpt>
      <trkpt lat="43.40817" lon="6.50991">
        <ele>278.899994</ele>
        <time>2011-09-07T14:13:29Z</time>
      </trkpt>
      <trkpt lat="43.40813" lon="6.50996">
        <ele>278</ele>
        <time>2011-09-07T14:13:34Z</time>
      </trkpt>
      <trkpt lat="43.40808" lon="6.51001">
        <ele>276.799988</ele>
        <time>2011-09-07T14:13:40Z</time>
      </trkpt>
      <trkpt lat="43.40806" lon="6.51003">
        <ele>276.200012</ele>
        <time>2011-09-07T14:13:43Z</time>
      </trkpt>
      <trkpt lat="43.40801" lon="6.5101">
        <ele>274.899994</ele>
        <time>2011-09-07T14:13:50Z</time>
      </trkpt>
      <trkpt lat="43.40799" lon="6.51012">
        <ele>274.299988</ele>
        <time>2011-09-07T14:13:52Z</time>
      </trkpt>
      <trkpt lat="43.40794" lon="6.51014">
        <ele>274.100006</ele>
        <time>2011-09-07T14:13:57Z</time>
      </trkpt>
      <trkpt lat="43.40789" lon="6.51014">
        <ele>271.899994</ele>
        <time>2011-09-07T14:14:01Z</time>
      </trkpt>
      <trkpt lat="43.4078" lon="6.51013">
        <ele>271.100006</ele>
        <time>2011-09-07T14:14:09Z</time>
      </trkpt>
      <trkpt lat="43.40773" lon="6.51014">
        <ele>270.5</ele>
        <time>2011-09-07T14:14:15Z</time>
      </trkpt>
      <trkpt lat="43.40765" lon="6.51015">
        <ele>268.899994</ele>
        <time>2011-09-07T14:14:21Z</time>
      </trkpt>
      <trkpt lat="43.40762" lon="6.51013">
        <ele>268.899994</ele>
        <time>2011-09-07T14:14:24Z</time>
      </trkpt>
      <trkpt lat="43.4076" lon="6.51011">
        <ele>268.200012</ele>
        <time>2011-09-07T14:14:27Z</time>
      </trkpt>
      <trkpt lat="43.40757" lon="6.51008">
        <ele>267.5</ele>
        <time>2011-09-07T14:14:30Z</time>
      </trkpt>
      <trkpt lat="43.40754" lon="6.51005">
        <ele>266.5</ele>
        <time>2011-09-07T14:14:34Z</time>
      </trkpt>
      <trkpt lat="43.40751" lon="6.51001">
        <ele>265.799988</ele>
        <time>2011-09-07T14:14:38Z</time>
      </trkpt>
      <trkpt lat="43.4075" lon="6.51">
        <ele>265.200012</ele>
        <time>2011-09-07T14:14:39Z</time>
      </trkpt>
      <trkpt lat="43.40748" lon="6.50997">
        <ele>264.100006</ele>
        <time>2011-09-07T14:14:42Z</time>
      </trkpt>
      <trkpt lat="43.40742" lon="6.50991">
        <ele>264.100006</ele>
        <time>2011-09-07T14:14:48Z</time>
      </trkpt>
      <trkpt lat="43.40739" lon="6.50989">
        <ele>263.600006</ele>
        <time>2011-09-07T14:14:52Z</time>
      </trkpt>
      <trkpt lat="43.40735" lon="6.50985">
        <ele>263.200012</ele>
        <time>2011-09-07T14:14:56Z</time>
      </trkpt>
      <trkpt lat="43.40732" lon="6.50983">
        <ele>263</ele>
        <time>2011-09-07T14:14:59Z</time>
      </trkpt>
      <trkpt lat="43.40728" lon="6.5098">
        <ele>262.700012</ele>
        <time>2011-09-07T14:15:03Z</time>
      </trkpt>
      <trkpt lat="43.40722" lon="6.50974">
        <ele>261.700012</ele>
        <time>2011-09-07T14:15:09Z</time>
      </trkpt>
      <trkpt lat="43.40719" lon="6.50972">
        <ele>261.5</ele>
        <time>2011-09-07T14:15:12Z</time>
      </trkpt>
      <trkpt lat="43.40716" lon="6.50971">
        <ele>260.799988</ele>
        <time>2011-09-07T14:15:15Z</time>
      </trkpt>
      <trkpt lat="43.40712" lon="6.5097">
        <ele>259.5</ele>
        <time>2011-09-07T14:15:19Z</time>
      </trkpt>
      <trkpt lat="43.40709" lon="6.50969">
        <ele>259.200012</ele>
        <time>2011-09-07T14:15:21Z</time>
      </trkpt>
      <trkpt lat="43.40707" lon="6.50968">
        <ele>259.200012</ele>
        <time>2011-09-07T14:15:23Z</time>
      </trkpt>
      <trkpt lat="43.40703" lon="6.50967">
        <ele>258.700012</ele>
        <time>2011-09-07T14:15:27Z</time>
      </trkpt>
      <trkpt lat="43.40701" lon="6.50967">
        <ele>258.200012</ele>
        <time>2011-09-07T14:15:30Z</time>
      </trkpt>
      <trkpt lat="43.40694" lon="6.50967">
        <ele>257.5</ele>
        <time>2011-09-07T14:15:36Z</time>
      </trkpt>
      <trkpt lat="43.40692" lon="6.50967">
        <ele>257.5</ele>
        <time>2011-09-07T14:15:38Z</time>
      </trkpt>
      <trkpt lat="43.40688" lon="6.50968">
        <ele>257.299988</ele>
        <time>2011-09-07T14:15:42Z</time>
      </trkpt>
      <trkpt lat="43.40683" lon="6.50967">
        <ele>257.100006</ele>
        <time>2011-09-07T14:15:46Z</time>
      </trkpt>
      <trkpt lat="43.40679" lon="6.50966">
        <ele>256</ele>
        <time>2011-09-07T14:15:50Z</time>
      </trkpt>
      <trkpt lat="43.40678" lon="6.50966">
        <ele>255.600006</ele>
        <time>2011-09-07T14:15:51Z</time>
      </trkpt>
      <trkpt lat="43.40674" lon="6.50962">
        <ele>255.300003</ele>
        <time>2011-09-07T14:15:55Z</time>
      </trkpt>
      <trkpt lat="43.40672" lon="6.50962">
        <ele>255.100006</ele>
        <time>2011-09-07T14:15:56Z</time>
      </trkpt>
      <trkpt lat="43.40668" lon="6.5096">
        <ele>254.300003</ele>
        <time>2011-09-07T14:16:00Z</time>
      </trkpt>
      <trkpt lat="43.40665" lon="6.50959">
        <ele>253.800003</ele>
        <time>2011-09-07T14:16:03Z</time>
      </trkpt>
      <trkpt lat="43.4066" lon="6.50956">
        <ele>253.399994</ele>
        <time>2011-09-07T14:16:07Z</time>
      </trkpt>
      <trkpt lat="43.40654" lon="6.50952">
        <ele>253.199997</ele>
        <time>2011-09-07T14:16:12Z</time>
      </trkpt>
      <trkpt lat="43.4065" lon="6.50951">
        <ele>253.300003</ele>
        <time>2011-09-07T14:16:16Z</time>
      </trkpt>
      <trkpt lat="43.40646" lon="6.50949">
        <ele>252.699997</ele>
        <time>2011-09-07T14:16:20Z</time>
      </trkpt>
      <trkpt lat="43.40643" lon="6.50947">
        <ele>252.699997</ele>
        <time>2011-09-07T14:16:23Z</time>
      </trkpt>
      <trkpt lat="43.40641" lon="6.50946">
        <ele>252.199997</ele>
        <time>2011-09-07T14:16:25Z</time>
      </trkpt>
      <trkpt lat="43.40635" lon="6.50943">
        <ele>251.699997</ele>
        <time>2011-09-07T14:16:31Z</time>
      </trkpt>
      <trkpt lat="43.40634" lon="6.50943">
        <ele>251.899994</ele>
        <time>2011-09-07T14:16:32Z</time>
      </trkpt>
      <trkpt lat="43.40631" lon="6.50941">
        <ele>251.699997</ele>
        <time>2011-09-07T14:16:35Z</time>
      </trkpt>
      <trkpt lat="43.4063" lon="6.50941">
        <ele>251.699997</ele>
        <time>2011-09-07T14:16:36Z</time>
      </trkpt>
      <trkpt lat="43.40626" lon="6.5094">
        <ele>251.699997</ele>
        <time>2011-09-07T14:16:40Z</time>
      </trkpt>
      <trkpt lat="43.40625" lon="6.5094">
        <ele>251.699997</ele>
        <time>2011-09-07T14:16:41Z</time>
      </trkpt>
      <trkpt lat="43.40619" lon="6.50938">
        <ele>251.199997</ele>
        <time>2011-09-07T14:16:46Z</time>
      </trkpt>
      <trkpt lat="43.40616" lon="6.50936">
        <ele>251.5</ele>
        <time>2011-09-07T14:16:49Z</time>
      </trkpt>
      <trkpt lat="43.40615" lon="6.50936">
        <ele>251.100006</ele>
        <time>2011-09-07T14:16:50Z</time>
      </trkpt>
      <trkpt lat="43.40608" lon="6.50933">
        <ele>251</ele>
        <time>2011-09-07T14:16:55Z</time>
      </trkpt>
      <trkpt lat="43.40604" lon="6.50931">
        <ele>251.800003</ele>
        <time>2011-09-07T14:16:59Z</time>
      </trkpt>
      <trkpt lat="43.406" lon="6.50928">
        <ele>252</ele>
        <time>2011-09-07T14:17:03Z</time>
      </trkpt>
      <trkpt lat="43.40598" lon="6.50926">
        <ele>251.899994</ele>
        <time>2011-09-07T14:17:06Z</time>
      </trkpt>
      <trkpt lat="43.40595" lon="6.50925">
        <ele>251.5</ele>
        <time>2011-09-07T14:17:08Z</time>
      </trkpt>
      <trkpt lat="43.40592" lon="6.50921">
        <ele>250.699997</ele>
        <time>2011-09-07T14:17:11Z</time>
      </trkpt>
      <trkpt lat="43.40589" lon="6.50919">
        <ele>250.800003</ele>
        <time>2011-09-07T14:17:14Z</time>
      </trkpt>
      <trkpt lat="43.4058" lon="6.50912">
        <ele>251.199997</ele>
        <time>2011-09-07T14:17:21Z</time>
      </trkpt>
      <trkpt lat="43.40575" lon="6.50905">
        <ele>252</ele>
        <time>2011-09-07T14:17:26Z</time>
      </trkpt>
      <trkpt lat="43.40569" lon="6.50894">
        <ele>251.399994</ele>
        <time>2011-09-07T14:17:33Z</time>
      </trkpt>
      <trkpt lat="43.40566" lon="6.50886">
        <ele>250.800003</ele>
        <time>2011-09-07T14:17:39Z</time>
      </trkpt>
      <trkpt lat="43.40565" lon="6.50884">
        <ele>250.5</ele>
        <time>2011-09-07T14:17:41Z</time>
      </trkpt>
      <trkpt lat="43.40563" lon="6.50882">
        <ele>249.800003</ele>
        <time>2011-09-07T14:17:43Z</time>
      </trkpt>
      <trkpt lat="43.40562" lon="6.50879">
        <ele>249.399994</ele>
        <time>2011-09-07T14:17:45Z</time>
      </trkpt>
      <trkpt lat="43.40561" lon="6.50877">
        <ele>249.199997</ele>
        <time>2011-09-07T14:17:47Z</time>
      </trkpt>
      <trkpt lat="43.40558" lon="6.50874">
        <ele>248.899994</ele>
        <time>2011-09-07T14:17:50Z</time>
      </trkpt>
      <trkpt lat="43.40555" lon="6.5087">
        <ele>247.5</ele>
        <time>2011-09-07T14:17:54Z</time>
      </trkpt>
      <trkpt lat="43.40553" lon="6.50867">
        <ele>246.600006</ele>
        <time>2011-09-07T14:17:56Z</time>
      </trkpt>
      <trkpt lat="43.40552" lon="6.50865">
        <ele>245.300003</ele>
        <time>2011-09-07T14:17:58Z</time>
      </trkpt>
      <trkpt lat="43.4055" lon="6.50863">
        <ele>244.600006</ele>
        <time>2011-09-07T14:18:01Z</time>
      </trkpt>
      <trkpt lat="43.40548" lon="6.50861">
        <ele>244.899994</ele>
        <time>2011-09-07T14:18:03Z</time>
      </trkpt>
      <trkpt lat="43.40546" lon="6.50859">
        <ele>244.699997</ele>
        <time>2011-09-07T14:18:05Z</time>
      </trkpt>
      <trkpt lat="43.40544" lon="6.50857">
        <ele>244.5</ele>
        <time>2011-09-07T14:18:07Z</time>
      </trkpt>
      <trkpt lat="43.40542" lon="6.50855">
        <ele>244.199997</ele>
        <time>2011-09-07T14:18:09Z</time>
      </trkpt>
      <trkpt lat="43.40539" lon="6.50851">
        <ele>243.5</ele>
        <time>2011-09-07T14:18:13Z</time>
      </trkpt>
      <trkpt lat="43.40536" lon="6.50849">
        <ele>243</ele>
        <time>2011-09-07T14:18:16Z</time>
      </trkpt>
      <trkpt lat="43.40533" lon="6.50847">
        <ele>241.899994</ele>
        <time>2011-09-07T14:18:19Z</time>
      </trkpt>
      <trkpt lat="43.4053" lon="6.50844">
        <ele>241.699997</ele>
        <time>2011-09-07T14:18:22Z</time>
      </trkpt>
      <trkpt lat="43.40528" lon="6.50841">
        <ele>241.199997</ele>
        <time>2011-09-07T14:18:25Z</time>
      </trkpt>
      <trkpt lat="43.40526" lon="6.50838">
        <ele>240.600006</ele>
        <time>2011-09-07T14:18:28Z</time>
      </trkpt>
      <trkpt lat="43.40522" lon="6.50836">
        <ele>240.399994</ele>
        <time>2011-09-07T14:18:32Z</time>
      </trkpt>
      <trkpt lat="43.40518" lon="6.50832">
        <ele>240</ele>
        <time>2011-09-07T14:18:36Z</time>
      </trkpt>
      <trkpt lat="43.40513" lon="6.50829">
        <ele>238.899994</ele>
        <time>2011-09-07T14:18:40Z</time>
      </trkpt>
      <trkpt lat="43.40512" lon="6.50827">
        <ele>238.800003</ele>
        <time>2011-09-07T14:18:42Z</time>
      </trkpt>
      <trkpt lat="43.40507" lon="6.50823">
        <ele>237.699997</ele>
        <time>2011-09-07T14:18:47Z</time>
      </trkpt>
      <trkpt lat="43.40504" lon="6.50819">
        <ele>236.5</ele>
        <time>2011-09-07T14:18:51Z</time>
      </trkpt>
      <trkpt lat="43.40501" lon="6.50816">
        <ele>235.5</ele>
        <time>2011-09-07T14:18:55Z</time>
      </trkpt>
      <trkpt lat="43.40499" lon="6.50813">
        <ele>235.5</ele>
        <time>2011-09-07T14:18:58Z</time>
      </trkpt>
      <trkpt lat="43.40493" lon="6.50809">
        <ele>234.100006</ele>
        <time>2011-09-07T14:19:05Z</time>
      </trkpt>
      <trkpt lat="43.40491" lon="6.50807">
        <ele>233.800003</ele>
        <time>2011-09-07T14:19:08Z</time>
      </trkpt>
      <trkpt lat="43.40489" lon="6.50805">
        <ele>233.300003</ele>
        <time>2011-09-07T14:19:10Z</time>
      </trkpt>
      <trkpt lat="43.40485" lon="6.50802">
        <ele>232.5</ele>
        <time>2011-09-07T14:19:14Z</time>
      </trkpt>
      <trkpt lat="43.40482" lon="6.50798">
        <ele>231.899994</ele>
        <time>2011-09-07T14:19:18Z</time>
      </trkpt>
      <trkpt lat="43.40479" lon="6.50794">
        <ele>231.800003</ele>
        <time>2011-09-07T14:19:21Z</time>
      </trkpt>
      <trkpt lat="43.40476" lon="6.50788">
        <ele>231.300003</ele>
        <time>2011-09-07T14:19:25Z</time>
      </trkpt>
      <trkpt lat="43.40475" lon="6.50782">
        <ele>230.600006</ele>
        <time>2011-09-07T14:19:29Z</time>
      </trkpt>
      <trkpt lat="43.40475" lon="6.50781">
        <ele>230.5</ele>
        <time>2011-09-07T14:19:30Z</time>
      </trkpt>
      <trkpt lat="43.40472" lon="6.50772">
        <ele>229.399994</ele>
        <time>2011-09-07T14:19:36Z</time>
      </trkpt>
      <trkpt lat="43.4047" lon="6.5077">
        <ele>228.899994</ele>
        <time>2011-09-07T14:19:38Z</time>
      </trkpt>
      <trkpt lat="43.40468" lon="6.50767">
        <ele>228.5</ele>
        <time>2011-09-07T14:19:42Z</time>
      </trkpt>
      <trkpt lat="43.40465" lon="6.50765">
        <ele>227.300003</ele>
        <time>2011-09-07T14:19:46Z</time>
      </trkpt>
      <trkpt lat="43.40462" lon="6.50764">
        <ele>227.100006</ele>
        <time>2011-09-07T14:19:50Z</time>
      </trkpt>
      <trkpt lat="43.40459" lon="6.50764">
        <ele>227.100006</ele>
        <time>2011-09-07T14:19:54Z</time>
      </trkpt>
      <trkpt lat="43.40456" lon="6.5076">
        <ele>226.699997</ele>
        <time>2011-09-07T14:19:58Z</time>
      </trkpt>
      <trkpt lat="43.40455" lon="6.50758">
        <ele>226.800003</ele>
        <time>2011-09-07T14:20:00Z</time>
      </trkpt>
      <trkpt lat="43.4045" lon="6.5074">
        <ele>226.100006</ele>
        <time>2011-09-07T14:20:13Z</time>
      </trkpt>
      <trkpt lat="43.40443" lon="6.50724">
        <ele>226.100006</ele>
        <time>2011-09-07T14:20:28Z</time>
      </trkpt>
      <trkpt lat="43.40441" lon="6.50721">
        <ele>225.399994</ele>
        <time>2011-09-07T14:20:31Z</time>
      </trkpt>
      <trkpt lat="43.40431" lon="6.50701">
        <ele>225.199997</ele>
        <time>2011-09-07T14:20:44Z</time>
      </trkpt>
      <trkpt lat="43.40428" lon="6.50689">
        <ele>224.600006</ele>
        <time>2011-09-07T14:20:51Z</time>
      </trkpt>
      <trkpt lat="43.40427" lon="6.50683">
        <ele>223.5</ele>
        <time>2011-09-07T14:20:55Z</time>
      </trkpt>
      <trkpt lat="43.40426" lon="6.50678">
        <ele>223</ele>
        <time>2011-09-07T14:20:58Z</time>
      </trkpt>
      <trkpt lat="43.40425" lon="6.50673">
        <ele>222.100006</ele>
        <time>2011-09-07T14:21:02Z</time>
      </trkpt>
      <trkpt lat="43.40424" lon="6.5067">
        <ele>221.699997</ele>
        <time>2011-09-07T14:21:04Z</time>
      </trkpt>
      <trkpt lat="43.40423" lon="6.50662">
        <ele>220.699997</ele>
        <time>2011-09-07T14:21:09Z</time>
      </trkpt>
      <trkpt lat="43.40419" lon="6.50651">
        <ele>220.100006</ele>
        <time>2011-09-07T14:21:16Z</time>
      </trkpt>
      <trkpt lat="43.40416" lon="6.50637">
        <ele>217.899994</ele>
        <time>2011-09-07T14:21:24Z</time>
      </trkpt>
      <trkpt lat="43.40415" lon="6.50631">
        <ele>217.800003</ele>
        <time>2011-09-07T14:21:28Z</time>
      </trkpt>
      <trkpt lat="43.40414" lon="6.50626">
        <ele>217.699997</ele>
        <time>2011-09-07T14:21:31Z</time>
      </trkpt>
      <trkpt lat="43.40413" lon="6.50622">
        <ele>217.600006</ele>
        <time>2011-09-07T14:21:35Z</time>
      </trkpt>
      <trkpt lat="43.40411" lon="6.50618">
        <ele>218</ele>
        <time>2011-09-07T14:21:40Z</time>
      </trkpt>
      <trkpt lat="43.40405" lon="6.50597">
        <ele>217.5</ele>
        <time>2011-09-07T14:21:53Z</time>
      </trkpt>
      <trkpt lat="43.40404" lon="6.50583">
        <ele>217.699997</ele>
        <time>2011-09-07T14:22:00Z</time>
      </trkpt>
      <trkpt lat="43.40404" lon="6.50572">
        <ele>218.300003</ele>
        <time>2011-09-07T14:22:06Z</time>
      </trkpt>
      <trkpt lat="43.40403" lon="6.50569">
        <ele>218</ele>
        <time>2011-09-07T14:22:08Z</time>
      </trkpt>
      <trkpt lat="43.40403" lon="6.50553">
        <ele>216.699997</ele>
        <time>2011-09-07T14:22:17Z</time>
      </trkpt>
      <trkpt lat="43.40403" lon="6.50547">
        <ele>216.600006</ele>
        <time>2011-09-07T14:22:20Z</time>
      </trkpt>
      <trkpt lat="43.40402" lon="6.50544">
        <ele>216.399994</ele>
        <time>2011-09-07T14:22:22Z</time>
      </trkpt>
      <trkpt lat="43.404" lon="6.50536">
        <ele>216.399994</ele>
        <time>2011-09-07T14:22:27Z</time>
      </trkpt>
      <trkpt lat="43.40399" lon="6.50531">
        <ele>215.800003</ele>
        <time>2011-09-07T14:22:30Z</time>
      </trkpt>
      <trkpt lat="43.40398" lon="6.50527">
        <ele>215.100006</ele>
        <time>2011-09-07T14:22:33Z</time>
      </trkpt>
      <trkpt lat="43.40398" lon="6.50525">
        <ele>214.899994</ele>
        <time>2011-09-07T14:22:34Z</time>
      </trkpt>
      <trkpt lat="43.40396" lon="6.5052">
        <ele>214.399994</ele>
        <time>2011-09-07T14:22:38Z</time>
      </trkpt>
      <trkpt lat="43.40394" lon="6.50516">
        <ele>213</ele>
        <time>2011-09-07T14:22:41Z</time>
      </trkpt>
      <trkpt lat="43.40391" lon="6.5051">
        <ele>212.699997</ele>
        <time>2011-09-07T14:22:46Z</time>
      </trkpt>
      <trkpt lat="43.40389" lon="6.50505">
        <ele>212.300003</ele>
        <time>2011-09-07T14:22:50Z</time>
      </trkpt>
      <trkpt lat="43.40386" lon="6.50497">
        <ele>210.100006</ele>
        <time>2011-09-07T14:22:56Z</time>
      </trkpt>
      <trkpt lat="43.40384" lon="6.50489">
        <ele>210.600006</ele>
        <time>2011-09-07T14:23:01Z</time>
      </trkpt>
      <trkpt lat="43.40383" lon="6.50487">
        <ele>210.600006</ele>
        <time>2011-09-07T14:23:02Z</time>
      </trkpt>
      <trkpt lat="43.40382" lon="6.50475">
        <ele>210</ele>
        <time>2011-09-07T14:23:09Z</time>
      </trkpt>
      <trkpt lat="43.40382" lon="6.5047">
        <ele>210.399994</ele>
        <time>2011-09-07T14:23:12Z</time>
      </trkpt>
      <trkpt lat="43.40381" lon="6.50462">
        <ele>210.600006</ele>
        <time>2011-09-07T14:23:16Z</time>
      </trkpt>
      <trkpt lat="43.40382" lon="6.50459">
        <ele>210.800003</ele>
        <time>2011-09-07T14:23:18Z</time>
      </trkpt>
      <trkpt lat="43.40382" lon="6.5045">
        <ele>210.5</ele>
        <time>2011-09-07T14:23:23Z</time>
      </trkpt>
      <trkpt lat="43.40383" lon="6.50443">
        <ele>210.100006</ele>
        <time>2011-09-07T14:23:27Z</time>
      </trkpt>
      <trkpt lat="43.40385" lon="6.50437">
        <ele>210.600006</ele>
        <time>2011-09-07T14:23:31Z</time>
      </trkpt>
      <trkpt lat="43.40387" lon="6.50431">
        <ele>211.899994</ele>
        <time>2011-09-07T14:23:35Z</time>
      </trkpt>
      <trkpt lat="43.40388" lon="6.50426">
        <ele>212.699997</ele>
        <time>2011-09-07T14:23:38Z</time>
      </trkpt>
      <trkpt lat="43.40388" lon="6.50422">
        <ele>212.600006</ele>
        <time>2011-09-07T14:23:40Z</time>
      </trkpt>
      <trkpt lat="43.4039" lon="6.50415">
        <ele>212.5</ele>
        <time>2011-09-07T14:23:44Z</time>
      </trkpt>
      <trkpt lat="43.40391" lon="6.50412">
        <ele>212.899994</ele>
        <time>2011-09-07T14:23:46Z</time>
      </trkpt>
      <trkpt lat="43.40392" lon="6.50408">
        <ele>212.5</ele>
        <time>2011-09-07T14:23:48Z</time>
      </trkpt>
      <trkpt lat="43.40394" lon="6.50405">
        <ele>211.800003</ele>
        <time>2011-09-07T14:23:50Z</time>
      </trkpt>
      <trkpt lat="43.40395" lon="6.50401">
        <ele>212.300003</ele>
        <time>2011-09-07T14:23:52Z</time>
      </trkpt>
      <trkpt lat="43.40398" lon="6.50396">
        <ele>212.5</ele>
        <time>2011-09-07T14:23:55Z</time>
      </trkpt>
      <trkpt lat="43.40398" lon="6.50394">
        <ele>212.5</ele>
        <time>2011-09-07T14:23:56Z</time>
      </trkpt>
      <trkpt lat="43.404" lon="6.5039">
        <ele>212</ele>
        <time>2011-09-07T14:23:59Z</time>
      </trkpt>
      <trkpt lat="43.40404" lon="6.50383">
        <ele>213.300003</ele>
        <time>2011-09-07T14:24:04Z</time>
      </trkpt>
      <trkpt lat="43.40405" lon="6.50382">
        <ele>213.5</ele>
        <time>2011-09-07T14:24:05Z</time>
      </trkpt>
      <trkpt lat="43.40407" lon="6.50378">
        <ele>214.5</ele>
        <time>2011-09-07T14:24:09Z</time>
      </trkpt>
      <trkpt lat="43.40408" lon="6.50377">
        <ele>214.899994</ele>
        <time>2011-09-07T14:24:11Z</time>
      </trkpt>
      <trkpt lat="43.4041" lon="6.50377">
        <ele>214.800003</ele>
        <time>2011-09-07T14:24:15Z</time>
      </trkpt>
      <trkpt lat="43.40411" lon="6.50376">
        <ele>214.600006</ele>
        <time>2011-09-07T14:24:20Z</time>
      </trkpt>
      <trkpt lat="43.40412" lon="6.50376">
        <ele>214.699997</ele>
        <time>2011-09-07T14:24:23Z</time>
      </trkpt>
      <trkpt lat="43.40412" lon="6.50374">
        <ele>214.699997</ele>
        <time>2011-09-07T14:24:32Z</time>
      </trkpt>
      <trkpt lat="43.40413" lon="6.50372">
        <ele>215</ele>
        <time>2011-09-07T14:24:38Z</time>
      </trkpt>
      <trkpt lat="43.40413" lon="6.50371">
        <ele>214.199997</ele>
        <time>2011-09-07T14:24:43Z</time>
      </trkpt>
      <trkpt lat="43.40415" lon="6.50371">
        <ele>215.300003</ele>
        <time>2011-09-07T14:24:53Z</time>
      </trkpt>
      <trkpt lat="43.40415" lon="6.5037">
        <ele>215</ele>
        <time>2011-09-07T14:25:05Z</time>
      </trkpt>
      <trkpt lat="43.40415" lon="6.50369">
        <ele>214.5</ele>
        <time>2011-09-07T14:25:10Z</time>
      </trkpt>
      <trkpt lat="43.40416" lon="6.50368">
        <ele>213.199997</ele>
        <time>2011-09-07T14:25:33Z</time>
      </trkpt>
      <trkpt lat="43.40417" lon="6.50368">
        <ele>214.300003</ele>
        <time>2011-09-07T14:25:58Z</time>
      </trkpt>
      <trkpt lat="43.40416" lon="6.50365">
        <ele>214.100006</ele>
        <time>2011-09-07T14:26:21Z</time>
      </trkpt>
      <trkpt lat="43.40411" lon="6.50355">
        <ele>210.699997</ele>
        <time>2011-09-07T14:26:33Z</time>
      </trkpt>
      <trkpt lat="43.4041" lon="6.50354">
        <ele>210.600006</ele>
        <time>2011-09-07T14:26:34Z</time>
      </trkpt>
      <trkpt lat="43.40405" lon="6.50343">
        <ele>207.100006</ele>
        <time>2011-09-07T14:26:48Z</time>
      </trkpt>
      <trkpt lat="43.40404" lon="6.50339">
        <ele>206.5</ele>
        <time>2011-09-07T14:26:52Z</time>
      </trkpt>
      <trkpt lat="43.40403" lon="6.50331">
        <ele>204.699997</ele>
        <time>2011-09-07T14:26:58Z</time>
      </trkpt>
      <trkpt lat="43.40403" lon="6.50326">
        <ele>203.800003</ele>
        <time>2011-09-07T14:27:02Z</time>
      </trkpt>
      <trkpt lat="43.40403" lon="6.50319">
        <ele>202.5</ele>
        <time>2011-09-07T14:27:07Z</time>
      </trkpt>
      <trkpt lat="43.40404" lon="6.50316">
        <ele>202.100006</ele>
        <time>2011-09-07T14:27:09Z</time>
      </trkpt>
      <trkpt lat="43.40405" lon="6.50313">
        <ele>201.600006</ele>
        <time>2011-09-07T14:27:12Z</time>
      </trkpt>
      <trkpt lat="43.40406" lon="6.50311">
        <ele>201.300003</ele>
        <time>2011-09-07T14:27:14Z</time>
      </trkpt>
      <trkpt lat="43.40408" lon="6.50308">
        <ele>200.899994</ele>
        <time>2011-09-07T14:27:17Z</time>
      </trkpt>
      <trkpt lat="43.40409" lon="6.50306">
        <ele>199.800003</ele>
        <time>2011-09-07T14:27:19Z</time>
      </trkpt>
      <trkpt lat="43.40415" lon="6.50294">
        <ele>197.399994</ele>
        <time>2011-09-07T14:27:28Z</time>
      </trkpt>
      <trkpt lat="43.40416" lon="6.50291">
        <ele>196.100006</ele>
        <time>2011-09-07T14:27:31Z</time>
      </trkpt>
      <trkpt lat="43.40421" lon="6.50284">
        <ele>196</ele>
        <time>2011-09-07T14:27:37Z</time>
      </trkpt>
      <trkpt lat="43.40423" lon="6.50282">
        <ele>195.199997</ele>
        <time>2011-09-07T14:27:39Z</time>
      </trkpt>
      <trkpt lat="43.40438" lon="6.50267">
        <ele>193.600006</ele>
        <time>2011-09-07T14:27:54Z</time>
      </trkpt>
      <trkpt lat="43.40444" lon="6.5026">
        <ele>192.5</ele>
        <time>2011-09-07T14:28:01Z</time>
      </trkpt>
      <trkpt lat="43.40446" lon="6.50258">
        <ele>192.600006</ele>
        <time>2011-09-07T14:28:03Z</time>
      </trkpt>
      <trkpt lat="43.40449" lon="6.50252">
        <ele>192.699997</ele>
        <time>2011-09-07T14:28:08Z</time>
      </trkpt>
      <trkpt lat="43.40451" lon="6.50248">
        <ele>191.399994</ele>
        <time>2011-09-07T14:28:11Z</time>
      </trkpt>
      <trkpt lat="43.40451" lon="6.50246">
        <ele>191</ele>
        <time>2011-09-07T14:28:13Z</time>
      </trkpt>
      <trkpt lat="43.40442" lon="6.50221">
        <ele>192.5</ele>
        <time>2011-09-07T14:28:37Z</time>
      </trkpt>
      <trkpt lat="43.40442" lon="6.50219">
        <ele>192.899994</ele>
        <time>2011-09-07T14:28:38Z</time>
      </trkpt>
      <trkpt lat="43.4044" lon="6.50214">
        <ele>194.199997</ele>
        <time>2011-09-07T14:28:42Z</time>
      </trkpt>
      <trkpt lat="43.40439" lon="6.50213">
        <ele>194.800003</ele>
        <time>2011-09-07T14:28:43Z</time>
      </trkpt>
      <trkpt lat="43.40436" lon="6.50211">
        <ele>195.300003</ele>
        <time>2011-09-07T14:28:46Z</time>
      </trkpt>
      <trkpt lat="43.40433" lon="6.5021">
        <ele>195.800003</ele>
        <time>2011-09-07T14:28:50Z</time>
      </trkpt>
      <trkpt lat="43.4043" lon="6.50211">
        <ele>196.199997</ele>
        <time>2011-09-07T14:28:54Z</time>
      </trkpt>
      <trkpt lat="43.40428" lon="6.50213">
        <ele>196.699997</ele>
        <time>2011-09-07T14:28:57Z</time>
      </trkpt>
      <trkpt lat="43.40426" lon="6.50215">
        <ele>196.699997</ele>
        <time>2011-09-07T14:29:01Z</time>
      </trkpt>
      <trkpt lat="43.40424" lon="6.50217">
        <ele>198.199997</ele>
        <time>2011-09-07T14:29:05Z</time>
      </trkpt>
      <trkpt lat="43.4042" lon="6.5022">
        <ele>199.5</ele>
        <time>2011-09-07T14:29:10Z</time>
      </trkpt>
      <trkpt lat="43.40418" lon="6.50225">
        <ele>200.699997</ele>
        <time>2011-09-07T14:29:15Z</time>
      </trkpt>
      <trkpt lat="43.40414" lon="6.50229">
        <ele>201.800003</ele>
        <time>2011-09-07T14:29:21Z</time>
      </trkpt>
      <trkpt lat="43.4041" lon="6.50232">
        <ele>203.300003</ele>
        <time>2011-09-07T14:29:26Z</time>
      </trkpt>
      <trkpt lat="43.40404" lon="6.50234">
        <ele>204.5</ele>
        <time>2011-09-07T14:29:33Z</time>
      </trkpt>
      <trkpt lat="43.404" lon="6.50238">
        <ele>204.399994</ele>
        <time>2011-09-07T14:29:38Z</time>
      </trkpt>
      <trkpt lat="43.40389" lon="6.50249">
        <ele>203.699997</ele>
        <time>2011-09-07T14:29:51Z</time>
      </trkpt>
      <trkpt lat="43.40386" lon="6.50254">
        <ele>203.100006</ele>
        <time>2011-09-07T14:29:56Z</time>
      </trkpt>
      <trkpt lat="43.40385" lon="6.50257">
        <ele>203.199997</ele>
        <time>2011-09-07T14:29:58Z</time>
      </trkpt>
      <trkpt lat="43.40384" lon="6.5026">
        <ele>203.300003</ele>
        <time>2011-09-07T14:30:01Z</time>
      </trkpt>
      <trkpt lat="43.40383" lon="6.50263">
        <ele>203.399994</ele>
        <time>2011-09-07T14:30:04Z</time>
      </trkpt>
      <trkpt lat="43.40383" lon="6.50271">
        <ele>201.699997</ele>
        <time>2011-09-07T14:30:10Z</time>
      </trkpt>
      <trkpt lat="43.40383" lon="6.50273">
        <ele>201.699997</ele>
        <time>2011-09-07T14:30:11Z</time>
      </trkpt>
      <trkpt lat="43.40381" lon="6.50278">
        <ele>201.199997</ele>
        <time>2011-09-07T14:30:15Z</time>
      </trkpt>
      <trkpt lat="43.40381" lon="6.50283">
        <ele>200.800003</ele>
        <time>2011-09-07T14:30:18Z</time>
      </trkpt>
      <trkpt lat="43.40382" lon="6.50286">
        <ele>200.600006</ele>
        <time>2011-09-07T14:30:20Z</time>
      </trkpt>
      <trkpt lat="43.40384" lon="6.5029">
        <ele>200.5</ele>
        <time>2011-09-07T14:30:22Z</time>
      </trkpt>
      <trkpt lat="43.40385" lon="6.50298">
        <ele>199.800003</ele>
        <time>2011-09-07T14:30:26Z</time>
      </trkpt>
      <trkpt lat="43.40385" lon="6.50302">
        <ele>200.199997</ele>
        <time>2011-09-07T14:30:28Z</time>
      </trkpt>
      <trkpt lat="43.40385" lon="6.50304">
        <ele>200.399994</ele>
        <time>2011-09-07T14:30:29Z</time>
      </trkpt>
      <trkpt lat="43.40385" lon="6.50309">
        <ele>200.899994</ele>
        <time>2011-09-07T14:30:32Z</time>
      </trkpt>
      <trkpt lat="43.40386" lon="6.50311">
        <ele>201.100006</ele>
        <time>2011-09-07T14:30:33Z</time>
      </trkpt>
      <trkpt lat="43.40384" lon="6.50322">
        <ele>200.399994</ele>
        <time>2011-09-07T14:30:40Z</time>
      </trkpt>
      <trkpt lat="43.40384" lon="6.50323">
        <ele>200.300003</ele>
        <time>2011-09-07T14:30:41Z</time>
      </trkpt>
      <trkpt lat="43.4038" lon="6.5033">
        <ele>200.800003</ele>
        <time>2011-09-07T14:30:46Z</time>
      </trkpt>
      <trkpt lat="43.40377" lon="6.50335">
        <ele>200.699997</ele>
        <time>2011-09-07T14:30:50Z</time>
      </trkpt>
      <trkpt lat="43.40375" lon="6.50337">
        <ele>200.399994</ele>
        <time>2011-09-07T14:30:52Z</time>
      </trkpt>
      <trkpt lat="43.40374" lon="6.50341">
        <ele>200.899994</ele>
        <time>2011-09-07T14:30:55Z</time>
      </trkpt>
      <trkpt lat="43.40371" lon="6.50345">
        <ele>201.100006</ele>
        <time>2011-09-07T14:30:59Z</time>
      </trkpt>
      <trkpt lat="43.4037" lon="6.50349">
        <ele>201.100006</ele>
        <time>2011-09-07T14:31:02Z</time>
      </trkpt>
      <trkpt lat="43.4037" lon="6.50353">
        <ele>201.399994</ele>
        <time>2011-09-07T14:31:05Z</time>
      </trkpt>
      <trkpt lat="43.40368" lon="6.50356">
        <ele>201.300003</ele>
        <time>2011-09-07T14:31:08Z</time>
      </trkpt>
      <trkpt lat="43.40367" lon="6.50359">
        <ele>201.399994</ele>
        <time>2011-09-07T14:31:10Z</time>
      </trkpt>
      <trkpt lat="43.40364" lon="6.50364">
        <ele>200.800003</ele>
        <time>2011-09-07T14:31:14Z</time>
      </trkpt>
      <trkpt lat="43.40359" lon="6.50371">
        <ele>200.199997</ele>
        <time>2011-09-07T14:31:20Z</time>
      </trkpt>
      <trkpt lat="43.40356" lon="6.50376">
        <ele>200.100006</ele>
        <time>2011-09-07T14:31:24Z</time>
      </trkpt>
      <trkpt lat="43.40353" lon="6.50381">
        <ele>199.899994</ele>
        <time>2011-09-07T14:31:28Z</time>
      </trkpt>
      <trkpt lat="43.40352" lon="6.50386">
        <ele>200</ele>
        <time>2011-09-07T14:31:32Z</time>
      </trkpt>
      <trkpt lat="43.40351" lon="6.50388">
        <ele>199.800003</ele>
        <time>2011-09-07T14:31:34Z</time>
      </trkpt>
      <trkpt lat="43.40349" lon="6.5039">
        <ele>200</ele>
        <time>2011-09-07T14:31:36Z</time>
      </trkpt>
      <trkpt lat="43.40347" lon="6.50393">
        <ele>199.800003</ele>
        <time>2011-09-07T14:31:38Z</time>
      </trkpt>
      <trkpt lat="43.40344" lon="6.50396">
        <ele>199.399994</ele>
        <time>2011-09-07T14:31:41Z</time>
      </trkpt>
      <trkpt lat="43.40342" lon="6.50401">
        <ele>199.600006</ele>
        <time>2011-09-07T14:31:45Z</time>
      </trkpt>
      <trkpt lat="43.40339" lon="6.50404">
        <ele>199.699997</ele>
        <time>2011-09-07T14:31:48Z</time>
      </trkpt>
      <trkpt lat="43.40336" lon="6.50405">
        <ele>200</ele>
        <time>2011-09-07T14:31:50Z</time>
      </trkpt>
      <trkpt lat="43.40332" lon="6.50408">
        <ele>200</ele>
        <time>2011-09-07T14:31:53Z</time>
      </trkpt>
      <trkpt lat="43.40331" lon="6.50411">
        <ele>199.800003</ele>
        <time>2011-09-07T14:31:55Z</time>
      </trkpt>
      <trkpt lat="43.40331" lon="6.50417">
        <ele>199.5</ele>
        <time>2011-09-07T14:31:58Z</time>
      </trkpt>
      <trkpt lat="43.4033" lon="6.50421">
        <ele>199.699997</ele>
        <time>2011-09-07T14:32:01Z</time>
      </trkpt>
      <trkpt lat="43.40328" lon="6.50423">
        <ele>199.800003</ele>
        <time>2011-09-07T14:32:04Z</time>
      </trkpt>
      <trkpt lat="43.40326" lon="6.50426">
        <ele>200</ele>
        <time>2011-09-07T14:32:08Z</time>
      </trkpt>
      <trkpt lat="43.40323" lon="6.50429">
        <ele>200.899994</ele>
        <time>2011-09-07T14:32:12Z</time>
      </trkpt>
      <trkpt lat="43.40322" lon="6.50433">
        <ele>201.100006</ele>
        <time>2011-09-07T14:32:16Z</time>
      </trkpt>
      <trkpt lat="43.40321" lon="6.50437">
        <ele>201.100006</ele>
        <time>2011-09-07T14:32:19Z</time>
      </trkpt>
      <trkpt lat="43.40321" lon="6.50445">
        <ele>201.600006</ele>
        <time>2011-09-07T14:32:24Z</time>
      </trkpt>
      <trkpt lat="43.40321" lon="6.50448">
        <ele>201.300003</ele>
        <time>2011-09-07T14:32:26Z</time>
      </trkpt>
      <trkpt lat="43.40319" lon="6.50453">
        <ele>201.5</ele>
        <time>2011-09-07T14:32:30Z</time>
      </trkpt>
      <trkpt lat="43.40318" lon="6.50459">
        <ele>201.699997</ele>
        <time>2011-09-07T14:32:34Z</time>
      </trkpt>
      <trkpt lat="43.40318" lon="6.50467">
        <ele>201.600006</ele>
        <time>2011-09-07T14:32:38Z</time>
      </trkpt>
      <trkpt lat="43.40318" lon="6.50471">
        <ele>201.399994</ele>
        <time>2011-09-07T14:32:40Z</time>
      </trkpt>
      <trkpt lat="43.40319" lon="6.50475">
        <ele>201.699997</ele>
        <time>2011-09-07T14:32:42Z</time>
      </trkpt>
      <trkpt lat="43.40318" lon="6.50477">
        <ele>201.399994</ele>
        <time>2011-09-07T14:32:43Z</time>
      </trkpt>
      <trkpt lat="43.40319" lon="6.50483">
        <ele>201.899994</ele>
        <time>2011-09-07T14:32:46Z</time>
      </trkpt>
      <trkpt lat="43.4032" lon="6.50489">
        <ele>201.800003</ele>
        <time>2011-09-07T14:32:49Z</time>
      </trkpt>
      <trkpt lat="43.40321" lon="6.50494">
        <ele>201.5</ele>
        <time>2011-09-07T14:32:52Z</time>
      </trkpt>
      <trkpt lat="43.40321" lon="6.50498">
        <ele>201.5</ele>
        <time>2011-09-07T14:32:55Z</time>
      </trkpt>
      <trkpt lat="43.40321" lon="6.50503">
        <ele>201.899994</ele>
        <time>2011-09-07T14:32:58Z</time>
      </trkpt>
      <trkpt lat="43.4032" lon="6.50506">
        <ele>202.300003</ele>
        <time>2011-09-07T14:33:00Z</time>
      </trkpt>
      <trkpt lat="43.4032" lon="6.5051">
        <ele>202.300003</ele>
        <time>2011-09-07T14:33:02Z</time>
      </trkpt>
      <trkpt lat="43.40319" lon="6.50514">
        <ele>202.899994</ele>
        <time>2011-09-07T14:33:05Z</time>
      </trkpt>
      <trkpt lat="43.40316" lon="6.50518">
        <ele>203.699997</ele>
        <time>2011-09-07T14:33:09Z</time>
      </trkpt>
      <trkpt lat="43.40314" lon="6.50521">
        <ele>203.800003</ele>
        <time>2011-09-07T14:33:11Z</time>
      </trkpt>
      <trkpt lat="43.40313" lon="6.50525">
        <ele>204.100006</ele>
        <time>2011-09-07T14:33:14Z</time>
      </trkpt>
      <trkpt lat="43.40312" lon="6.50528">
        <ele>204.199997</ele>
        <time>2011-09-07T14:33:16Z</time>
      </trkpt>
      <trkpt lat="43.40312" lon="6.50531">
        <ele>204.399994</ele>
        <time>2011-09-07T14:33:18Z</time>
      </trkpt>
      <trkpt lat="43.40311" lon="6.50538">
        <ele>204.399994</ele>
        <time>2011-09-07T14:33:22Z</time>
      </trkpt>
      <trkpt lat="43.40309" lon="6.50543">
        <ele>204.699997</ele>
        <time>2011-09-07T14:33:25Z</time>
      </trkpt>
      <trkpt lat="43.40309" lon="6.50549">
        <ele>204.899994</ele>
        <time>2011-09-07T14:33:29Z</time>
      </trkpt>
      <trkpt lat="43.40309" lon="6.50553">
        <ele>204.800003</ele>
        <time>2011-09-07T14:33:31Z</time>
      </trkpt>
      <trkpt lat="43.40309" lon="6.50556">
        <ele>205</ele>
        <time>2011-09-07T14:33:33Z</time>
      </trkpt>
      <trkpt lat="43.40309" lon="6.50559">
        <ele>205</ele>
        <time>2011-09-07T14:33:35Z</time>
      </trkpt>
      <trkpt lat="43.40307" lon="6.50562">
        <ele>205.5</ele>
        <time>2011-09-07T14:33:37Z</time>
      </trkpt>
      <trkpt lat="43.40305" lon="6.50564">
        <ele>206.100006</ele>
        <time>2011-09-07T14:33:39Z</time>
      </trkpt>
      <trkpt lat="43.40303" lon="6.50568">
        <ele>206.5</ele>
        <time>2011-09-07T14:33:42Z</time>
      </trkpt>
      <trkpt lat="43.40301" lon="6.50571">
        <ele>206.800003</ele>
        <time>2011-09-07T14:33:44Z</time>
      </trkpt>
      <trkpt lat="43.40298" lon="6.50575">
        <ele>206.600006</ele>
        <time>2011-09-07T14:33:47Z</time>
      </trkpt>
      <trkpt lat="43.40294" lon="6.50579">
        <ele>206.600006</ele>
        <time>2011-09-07T14:33:52Z</time>
      </trkpt>
      <trkpt lat="43.40293" lon="6.50582">
        <ele>206.699997</ele>
        <time>2011-09-07T14:33:54Z</time>
      </trkpt>
      <trkpt lat="43.4029" lon="6.50585">
        <ele>207</ele>
        <time>2011-09-07T14:33:57Z</time>
      </trkpt>
      <trkpt lat="43.40289" lon="6.50588">
        <ele>207.199997</ele>
        <time>2011-09-07T14:33:59Z</time>
      </trkpt>
      <trkpt lat="43.40287" lon="6.50593">
        <ele>206.800003</ele>
        <time>2011-09-07T14:34:03Z</time>
      </trkpt>
      <trkpt lat="43.40285" lon="6.50598">
        <ele>206.899994</ele>
        <time>2011-09-07T14:34:06Z</time>
      </trkpt>
      <trkpt lat="43.40283" lon="6.506">
        <ele>206.699997</ele>
        <time>2011-09-07T14:34:09Z</time>
      </trkpt>
      <trkpt lat="43.40282" lon="6.50606">
        <ele>206.5</ele>
        <time>2011-09-07T14:34:13Z</time>
      </trkpt>
      <trkpt lat="43.4028" lon="6.50608">
        <ele>206.600006</ele>
        <time>2011-09-07T14:34:15Z</time>
      </trkpt>
      <trkpt lat="43.40279" lon="6.50616">
        <ele>206.800003</ele>
        <time>2011-09-07T14:34:19Z</time>
      </trkpt>
      <trkpt lat="43.40279" lon="6.50618">
        <ele>207.100006</ele>
        <time>2011-09-07T14:34:20Z</time>
      </trkpt>
      <trkpt lat="43.4028" lon="6.50634">
        <ele>206.300003</ele>
        <time>2011-09-07T14:34:28Z</time>
      </trkpt>
      <trkpt lat="43.4028" lon="6.50638">
        <ele>206.800003</ele>
        <time>2011-09-07T14:34:31Z</time>
      </trkpt>
      <trkpt lat="43.40279" lon="6.50641">
        <ele>206.600006</ele>
        <time>2011-09-07T14:34:33Z</time>
      </trkpt>
      <trkpt lat="43.40277" lon="6.50644">
        <ele>207.199997</ele>
        <time>2011-09-07T14:34:36Z</time>
      </trkpt>
      <trkpt lat="43.40276" lon="6.50648">
        <ele>207.5</ele>
        <time>2011-09-07T14:34:39Z</time>
      </trkpt>
      <trkpt lat="43.40275" lon="6.50649">
        <ele>207.399994</ele>
        <time>2011-09-07T14:34:40Z</time>
      </trkpt>
      <trkpt lat="43.40275" lon="6.50655">
        <ele>207.699997</ele>
        <time>2011-09-07T14:34:44Z</time>
      </trkpt>
      <trkpt lat="43.40273" lon="6.5066">
        <ele>207.899994</ele>
        <time>2011-09-07T14:34:48Z</time>
      </trkpt>
      <trkpt lat="43.40272" lon="6.50663">
        <ele>208.300003</ele>
        <time>2011-09-07T14:34:51Z</time>
      </trkpt>
      <trkpt lat="43.40271" lon="6.50666">
        <ele>208.399994</ele>
        <time>2011-09-07T14:34:53Z</time>
      </trkpt>
      <trkpt lat="43.40272" lon="6.50669">
        <ele>208.399994</ele>
        <time>2011-09-07T14:34:56Z</time>
      </trkpt>
      <trkpt lat="43.40272" lon="6.50673">
        <ele>207.800003</ele>
        <time>2011-09-07T14:35:00Z</time>
      </trkpt>
      <trkpt lat="43.40273" lon="6.50676">
        <ele>208.300003</ele>
        <time>2011-09-07T14:35:02Z</time>
      </trkpt>
      <trkpt lat="43.40274" lon="6.50682">
        <ele>209.100006</ele>
        <time>2011-09-07T14:35:06Z</time>
      </trkpt>
      <trkpt lat="43.40275" lon="6.50687">
        <ele>209.800003</ele>
        <time>2011-09-07T14:35:09Z</time>
      </trkpt>
      <trkpt lat="43.40277" lon="6.50691">
        <ele>210</ele>
        <time>2011-09-07T14:35:12Z</time>
      </trkpt>
      <trkpt lat="43.40277" lon="6.50694">
        <ele>209.600006</ele>
        <time>2011-09-07T14:35:15Z</time>
      </trkpt>
      <trkpt lat="43.40278" lon="6.50699">
        <ele>208.600006</ele>
        <time>2011-09-07T14:35:19Z</time>
      </trkpt>
      <trkpt lat="43.40277" lon="6.50702">
        <ele>208.399994</ele>
        <time>2011-09-07T14:35:22Z</time>
      </trkpt>
      <trkpt lat="43.40278" lon="6.50707">
        <ele>209.300003</ele>
        <time>2011-09-07T14:35:26Z</time>
      </trkpt>
      <trkpt lat="43.40278" lon="6.50711">
        <ele>210.199997</ele>
        <time>2011-09-07T14:35:29Z</time>
      </trkpt>
      <trkpt lat="43.40279" lon="6.50715">
        <ele>210.800003</ele>
        <time>2011-09-07T14:35:31Z</time>
      </trkpt>
      <trkpt lat="43.4028" lon="6.50718">
        <ele>211.300003</ele>
        <time>2011-09-07T14:35:33Z</time>
      </trkpt>
      <trkpt lat="43.4028" lon="6.50722">
        <ele>211.600006</ele>
        <time>2011-09-07T14:35:36Z</time>
      </trkpt>
      <trkpt lat="43.4028" lon="6.50725">
        <ele>212</ele>
        <time>2011-09-07T14:35:38Z</time>
      </trkpt>
      <trkpt lat="43.40281" lon="6.5073">
        <ele>212.300003</ele>
        <time>2011-09-07T14:35:41Z</time>
      </trkpt>
      <trkpt lat="43.40282" lon="6.50734">
        <ele>213</ele>
        <time>2011-09-07T14:35:43Z</time>
      </trkpt>
      <trkpt lat="43.40283" lon="6.5074">
        <ele>213.399994</ele>
        <time>2011-09-07T14:35:47Z</time>
      </trkpt>
      <trkpt lat="43.40284" lon="6.50743">
        <ele>214.100006</ele>
        <time>2011-09-07T14:35:49Z</time>
      </trkpt>
      <trkpt lat="43.40284" lon="6.50747">
        <ele>215.100006</ele>
        <time>2011-09-07T14:35:52Z</time>
      </trkpt>
      <trkpt lat="43.40283" lon="6.50752">
        <ele>215.199997</ele>
        <time>2011-09-07T14:35:56Z</time>
      </trkpt>
      <trkpt lat="43.40282" lon="6.50755">
        <ele>215.5</ele>
        <time>2011-09-07T14:35:58Z</time>
      </trkpt>
      <trkpt lat="43.40282" lon="6.5076">
        <ele>216.5</ele>
        <time>2011-09-07T14:36:02Z</time>
      </trkpt>
      <trkpt lat="43.40281" lon="6.50765">
        <ele>217</ele>
        <time>2011-09-07T14:36:06Z</time>
      </trkpt>
      <trkpt lat="43.40279" lon="6.50768">
        <ele>217.199997</ele>
        <time>2011-09-07T14:36:08Z</time>
      </trkpt>
      <trkpt lat="43.40277" lon="6.50773">
        <ele>217.399994</ele>
        <time>2011-09-07T14:36:12Z</time>
      </trkpt>
      <trkpt lat="43.40276" lon="6.50776">
        <ele>217.600006</ele>
        <time>2011-09-07T14:36:14Z</time>
      </trkpt>
      <trkpt lat="43.40275" lon="6.50781">
        <ele>218.199997</ele>
        <time>2011-09-07T14:36:19Z</time>
      </trkpt>
      <trkpt lat="43.40275" lon="6.50783">
        <ele>218.600006</ele>
        <time>2011-09-07T14:36:21Z</time>
      </trkpt>
      <trkpt lat="43.40274" lon="6.50789">
        <ele>218.899994</ele>
        <time>2011-09-07T14:36:25Z</time>
      </trkpt>
      <trkpt lat="43.40274" lon="6.50796">
        <ele>219.199997</ele>
        <time>2011-09-07T14:36:30Z</time>
      </trkpt>
      <trkpt lat="43.40274" lon="6.50798">
        <ele>219.199997</ele>
        <time>2011-09-07T14:36:31Z</time>
      </trkpt>
      <trkpt lat="43.40273" lon="6.50804">
        <ele>219.600006</ele>
        <time>2011-09-07T14:36:35Z</time>
      </trkpt>
      <trkpt lat="43.40272" lon="6.50806">
        <ele>219.600006</ele>
        <time>2011-09-07T14:36:37Z</time>
      </trkpt>
      <trkpt lat="43.40269" lon="6.50811">
        <ele>219.399994</ele>
        <time>2011-09-07T14:36:41Z</time>
      </trkpt>
      <trkpt lat="43.40267" lon="6.50815">
        <ele>219.800003</ele>
        <time>2011-09-07T14:36:44Z</time>
      </trkpt>
      <trkpt lat="43.40266" lon="6.50817">
        <ele>220.600006</ele>
        <time>2011-09-07T14:36:47Z</time>
      </trkpt>
      <trkpt lat="43.40265" lon="6.50819">
        <ele>220.5</ele>
        <time>2011-09-07T14:36:49Z</time>
      </trkpt>
      <trkpt lat="43.40263" lon="6.50823">
        <ele>221</ele>
        <time>2011-09-07T14:36:53Z</time>
      </trkpt>
      <trkpt lat="43.40261" lon="6.50826">
        <ele>221.100006</ele>
        <time>2011-09-07T14:36:56Z</time>
      </trkpt>
      <trkpt lat="43.40259" lon="6.50829">
        <ele>221.899994</ele>
        <time>2011-09-07T14:37:00Z</time>
      </trkpt>
      <trkpt lat="43.40257" lon="6.50832">
        <ele>222.5</ele>
        <time>2011-09-07T14:37:03Z</time>
      </trkpt>
      <trkpt lat="43.40256" lon="6.50834">
        <ele>222.300003</ele>
        <time>2011-09-07T14:37:05Z</time>
      </trkpt>
      <trkpt lat="43.40253" lon="6.50836">
        <ele>221.800003</ele>
        <time>2011-09-07T14:37:08Z</time>
      </trkpt>
      <trkpt lat="43.4025" lon="6.50837">
        <ele>221.699997</ele>
        <time>2011-09-07T14:37:10Z</time>
      </trkpt>
      <trkpt lat="43.40248" lon="6.5084">
        <ele>222</ele>
        <time>2011-09-07T14:37:14Z</time>
      </trkpt>
      <trkpt lat="43.40247" lon="6.50841">
        <ele>222.800003</ele>
        <time>2011-09-07T14:37:16Z</time>
      </trkpt>
      <trkpt lat="43.40245" lon="6.50845">
        <ele>223.699997</ele>
        <time>2011-09-07T14:37:19Z</time>
      </trkpt>
      <trkpt lat="43.40243" lon="6.50848">
        <ele>224.699997</ele>
        <time>2011-09-07T14:37:23Z</time>
      </trkpt>
      <trkpt lat="43.40241" lon="6.5085">
        <ele>225</ele>
        <time>2011-09-07T14:37:26Z</time>
      </trkpt>
      <trkpt lat="43.40237" lon="6.50852">
        <ele>225.199997</ele>
        <time>2011-09-07T14:37:30Z</time>
      </trkpt>
      <trkpt lat="43.40235" lon="6.50854">
        <ele>225.399994</ele>
        <time>2011-09-07T14:37:32Z</time>
      </trkpt>
      <trkpt lat="43.40231" lon="6.50856">
        <ele>225.800003</ele>
        <time>2011-09-07T14:37:36Z</time>
      </trkpt>
      <trkpt lat="43.40227" lon="6.50858">
        <ele>226.5</ele>
        <time>2011-09-07T14:37:40Z</time>
      </trkpt>
      <trkpt lat="43.40226" lon="6.50861">
        <ele>226.899994</ele>
        <time>2011-09-07T14:37:43Z</time>
      </trkpt>
      <trkpt lat="43.40224" lon="6.50863">
        <ele>227.199997</ele>
        <time>2011-09-07T14:37:45Z</time>
      </trkpt>
      <trkpt lat="43.40221" lon="6.50866">
        <ele>227.699997</ele>
        <time>2011-09-07T14:37:49Z</time>
      </trkpt>
      <trkpt lat="43.40219" lon="6.50867">
        <ele>228</ele>
        <time>2011-09-07T14:37:51Z</time>
      </trkpt>
      <trkpt lat="43.40218" lon="6.5087">
        <ele>228.399994</ele>
        <time>2011-09-07T14:37:54Z</time>
      </trkpt>
      <trkpt lat="43.40217" lon="6.50875">
        <ele>228.300003</ele>
        <time>2011-09-07T14:37:58Z</time>
      </trkpt>
      <trkpt lat="43.40214" lon="6.5088">
        <ele>228.899994</ele>
        <time>2011-09-07T14:38:02Z</time>
      </trkpt>
      <trkpt lat="43.40214" lon="6.50884">
        <ele>229.300003</ele>
        <time>2011-09-07T14:38:05Z</time>
      </trkpt>
      <trkpt lat="43.40213" lon="6.50889">
        <ele>230.600006</ele>
        <time>2011-09-07T14:38:09Z</time>
      </trkpt>
      <trkpt lat="43.40212" lon="6.50891">
        <ele>231</ele>
        <time>2011-09-07T14:38:11Z</time>
      </trkpt>
      <trkpt lat="43.40209" lon="6.50892">
        <ele>231.199997</ele>
        <time>2011-09-07T14:38:13Z</time>
      </trkpt>
      <trkpt lat="43.40208" lon="6.50894">
        <ele>231.600006</ele>
        <time>2011-09-07T14:38:15Z</time>
      </trkpt>
      <trkpt lat="43.40206" lon="6.50897">
        <ele>232.300003</ele>
        <time>2011-09-07T14:38:18Z</time>
      </trkpt>
      <trkpt lat="43.40204" lon="6.509">
        <ele>232.699997</ele>
        <time>2011-09-07T14:38:21Z</time>
      </trkpt>
      <trkpt lat="43.40202" lon="6.509">
        <ele>232.899994</ele>
        <time>2011-09-07T14:38:22Z</time>
      </trkpt>
      <trkpt lat="43.40198" lon="6.50903">
        <ele>233.399994</ele>
        <time>2011-09-07T14:38:26Z</time>
      </trkpt>
      <trkpt lat="43.40196" lon="6.50907">
        <ele>233.699997</ele>
        <time>2011-09-07T14:38:30Z</time>
      </trkpt>
      <trkpt lat="43.40195" lon="6.5091">
        <ele>234.300003</ele>
        <time>2011-09-07T14:38:32Z</time>
      </trkpt>
      <trkpt lat="43.40193" lon="6.50912">
        <ele>234.699997</ele>
        <time>2011-09-07T14:38:35Z</time>
      </trkpt>
      <trkpt lat="43.40192" lon="6.50915">
        <ele>235</ele>
        <time>2011-09-07T14:38:37Z</time>
      </trkpt>
      <trkpt lat="43.4019" lon="6.50918">
        <ele>235.399994</ele>
        <time>2011-09-07T14:38:40Z</time>
      </trkpt>
      <trkpt lat="43.40189" lon="6.50923">
        <ele>235.699997</ele>
        <time>2011-09-07T14:38:44Z</time>
      </trkpt>
      <trkpt lat="43.40188" lon="6.50928">
        <ele>236.100006</ele>
        <time>2011-09-07T14:38:48Z</time>
      </trkpt>
      <trkpt lat="43.40186" lon="6.50932">
        <ele>236.300003</ele>
        <time>2011-09-07T14:38:52Z</time>
      </trkpt>
      <trkpt lat="43.40185" lon="6.50933">
        <ele>236.399994</ele>
        <time>2011-09-07T14:38:53Z</time>
      </trkpt>
      <trkpt lat="43.40183" lon="6.50941">
        <ele>236.899994</ele>
        <time>2011-09-07T14:38:59Z</time>
      </trkpt>
      <trkpt lat="43.40182" lon="6.50945">
        <ele>237.100006</ele>
        <time>2011-09-07T14:39:02Z</time>
      </trkpt>
      <trkpt lat="43.4018" lon="6.50949">
        <ele>237.699997</ele>
        <time>2011-09-07T14:39:05Z</time>
      </trkpt>
      <trkpt lat="43.40177" lon="6.50953">
        <ele>238.600006</ele>
        <time>2011-09-07T14:39:09Z</time>
      </trkpt>
      <trkpt lat="43.40175" lon="6.50954">
        <ele>238.800003</ele>
        <time>2011-09-07T14:39:11Z</time>
      </trkpt>
      <trkpt lat="43.40171" lon="6.50956">
        <ele>238.800003</ele>
        <time>2011-09-07T14:39:18Z</time>
      </trkpt>
      <trkpt lat="43.4017" lon="6.50956">
        <ele>238.100006</ele>
        <time>2011-09-07T14:39:23Z</time>
      </trkpt>
      <trkpt lat="43.40168" lon="6.50955">
        <ele>237.5</ele>
        <time>2011-09-07T14:39:28Z</time>
      </trkpt>
      <trkpt lat="43.40166" lon="6.50955">
        <ele>237.600006</ele>
        <time>2011-09-07T14:39:30Z</time>
      </trkpt>
      <trkpt lat="43.40163" lon="6.50953">
        <ele>238.100006</ele>
        <time>2011-09-07T14:39:35Z</time>
      </trkpt>
      <trkpt lat="43.40164" lon="6.50953">
        <ele>238.5</ele>
        <time>2011-09-07T14:39:42Z</time>
      </trkpt>
      <trkpt lat="43.40163" lon="6.50954">
        <ele>238.899994</ele>
        <time>2011-09-07T14:39:50Z</time>
      </trkpt>
      <trkpt lat="43.40167" lon="6.50955">
        <ele>238.100006</ele>
        <time>2011-09-07T14:39:59Z</time>
      </trkpt>
      <trkpt lat="43.40165" lon="6.50954">
        <ele>238.300003</ele>
        <time>2011-09-07T14:40:09Z</time>
      </trkpt>
      <trkpt lat="43.40164" lon="6.50953">
        <ele>238.699997</ele>
        <time>2011-09-07T14:40:12Z</time>
      </trkpt>
      <trkpt lat="43.40164" lon="6.50955">
        <ele>237.899994</ele>
        <time>2011-09-07T14:40:17Z</time>
      </trkpt>
      <trkpt lat="43.40165" lon="6.50956">
        <ele>238</ele>
        <time>2011-09-07T14:40:19Z</time>
      </trkpt>
      <trkpt lat="43.40166" lon="6.50955">
        <ele>238.699997</ele>
        <time>2011-09-07T14:40:28Z</time>
      </trkpt>
      <trkpt lat="43.40165" lon="6.50955">
        <ele>238.600006</ele>
        <time>2011-09-07T14:40:31Z</time>
      </trkpt>
      <trkpt lat="43.40162" lon="6.50954">
        <ele>238.300003</ele>
        <time>2011-09-07T14:40:36Z</time>
      </trkpt>
      <trkpt lat="43.40161" lon="6.50949">
        <ele>238.300003</ele>
        <time>2011-09-07T14:40:41Z</time>
      </trkpt>
      <trkpt lat="43.40161" lon="6.50945">
        <ele>238.5</ele>
        <time>2011-09-07T14:40:46Z</time>
      </trkpt>
      <trkpt lat="43.4016" lon="6.50941">
        <ele>238.800003</ele>
        <time>2011-09-07T14:40:50Z</time>
      </trkpt>
      <trkpt lat="43.40159" lon="6.50939">
        <ele>239.100006</ele>
        <time>2011-09-07T14:40:53Z</time>
      </trkpt>
      <trkpt lat="43.40159" lon="6.50939">
        <ele>238.600006</ele>
        <time>2011-09-07T14:40:58Z</time>
      </trkpt>
      <trkpt lat="43.40158" lon="6.50941">
        <ele>238.199997</ele>
        <time>2011-09-07T14:41:02Z</time>
      </trkpt>
      <trkpt lat="43.40159" lon="6.50943">
        <ele>238.199997</ele>
        <time>2011-09-07T14:41:04Z</time>
      </trkpt>
      <trkpt lat="43.40159" lon="6.50947">
        <ele>238.300003</ele>
        <time>2011-09-07T14:41:09Z</time>
      </trkpt>
      <trkpt lat="43.40159" lon="6.5095">
        <ele>238.800003</ele>
        <time>2011-09-07T14:41:13Z</time>
      </trkpt>
      <trkpt lat="43.40158" lon="6.5095">
        <ele>238.600006</ele>
        <time>2011-09-07T14:41:15Z</time>
      </trkpt>
      <trkpt lat="43.40154" lon="6.5095">
        <ele>238.600006</ele>
        <time>2011-09-07T14:41:21Z</time>
      </trkpt>
      <trkpt lat="43.40152" lon="6.50948">
        <ele>238.600006</ele>
        <time>2011-09-07T14:41:23Z</time>
      </trkpt>
      <trkpt lat="43.40149" lon="6.50948">
        <ele>237.699997</ele>
        <time>2011-09-07T14:41:26Z</time>
      </trkpt>
      <trkpt lat="43.40147" lon="6.50948">
        <ele>237.899994</ele>
        <time>2011-09-07T14:41:28Z</time>
      </trkpt>
      <trkpt lat="43.40144" lon="6.50948">
        <ele>237.899994</ele>
        <time>2011-09-07T14:41:39Z</time>
      </trkpt>
      <trkpt lat="43.40144" lon="6.50946">
        <ele>237.600006</ele>
        <time>2011-09-07T14:41:45Z</time>
      </trkpt>
      <trkpt lat="43.40143" lon="6.50945">
        <ele>237.899994</ele>
        <time>2011-09-07T14:41:48Z</time>
      </trkpt>
      <trkpt lat="43.40144" lon="6.50945">
        <ele>238.399994</ele>
        <time>2011-09-07T14:41:52Z</time>
      </trkpt>
      <trkpt lat="43.40147" lon="6.50946">
        <ele>239</ele>
        <time>2011-09-07T14:41:56Z</time>
      </trkpt>
      <trkpt lat="43.40149" lon="6.50946">
        <ele>238.600006</ele>
        <time>2011-09-07T14:42:01Z</time>
      </trkpt>
      <trkpt lat="43.4015" lon="6.50946">
        <ele>238</ele>
        <time>2011-09-07T14:42:07Z</time>
      </trkpt>
      <trkpt lat="43.40152" lon="6.50946">
        <ele>238.5</ele>
        <time>2011-09-07T14:42:10Z</time>
      </trkpt>
      <trkpt lat="43.40152" lon="6.50947">
        <ele>238.399994</ele>
        <time>2011-09-07T14:42:23Z</time>
      </trkpt>
      <trkpt lat="43.40153" lon="6.50948">
        <ele>238.100006</ele>
        <time>2011-09-07T14:42:32Z</time>
      </trkpt>
      <trkpt lat="43.40153" lon="6.50947">
        <ele>238.600006</ele>
        <time>2011-09-07T14:42:48Z</time>
      </trkpt>
      <trkpt lat="43.40152" lon="6.50946">
        <ele>238.300003</ele>
        <time>2011-09-07T14:43:01Z</time>
      </trkpt>
      <trkpt lat="43.40152" lon="6.50947">
        <ele>238.699997</ele>
        <time>2011-09-07T14:43:17Z</time>
      </trkpt>
      <trkpt lat="43.40152" lon="6.50948">
        <ele>238.199997</ele>
        <time>2011-09-07T14:43:24Z</time>
      </trkpt>
      <trkpt lat="43.40153" lon="6.50948">
        <ele>238.199997</ele>
        <time>2011-09-07T14:43:30Z</time>
      </trkpt>
      <trkpt lat="43.40154" lon="6.50949">
        <ele>238.199997</ele>
        <time>2011-09-07T14:43:42Z</time>
      </trkpt>
      <trkpt lat="43.40153" lon="6.50949">
        <ele>238.600006</ele>
        <time>2011-09-07T14:43:58Z</time>
      </trkpt>
      <trkpt lat="43.40153" lon="6.50949">
        <ele>237.800003</ele>
        <time>2011-09-07T14:44:09Z</time>
      </trkpt>
      <trkpt lat="43.40153" lon="6.5095">
        <ele>238.699997</ele>
        <time>2011-09-07T14:44:16Z</time>
      </trkpt>
      <trkpt lat="43.40152" lon="6.50951">
        <ele>239</ele>
        <time>2011-09-07T14:44:21Z</time>
      </trkpt>
      <trkpt lat="43.40152" lon="6.50951">
        <ele>237.600006</ele>
        <time>2011-09-07T14:44:29Z</time>
      </trkpt>
      <trkpt lat="43.40154" lon="6.5095">
        <ele>237.100006</ele>
        <time>2011-09-07T14:44:38Z</time>
      </trkpt>
      <trkpt lat="43.40153" lon="6.50951">
        <ele>237.5</ele>
        <time>2011-09-07T14:44:50Z</time>
      </trkpt>
      <trkpt lat="43.40154" lon="6.5095">
        <ele>237.800003</ele>
        <time>2011-09-07T14:45:02Z</time>
      </trkpt>
      <trkpt lat="43.40154" lon="6.50951">
        <ele>237.899994</ele>
        <time>2011-09-07T14:45:14Z</time>
      </trkpt>
      <trkpt lat="43.40155" lon="6.50952">
        <ele>237.899994</ele>
        <time>2011-09-07T14:45:20Z</time>
      </trkpt>
      <trkpt lat="43.40156" lon="6.50951">
        <ele>237.600006</ele>
        <time>2011-09-07T14:45:29Z</time>
      </trkpt>
      <trkpt lat="43.40157" lon="6.50951">
        <ele>238</ele>
        <time>2011-09-07T14:45:50Z</time>
      </trkpt>
      <trkpt lat="43.40158" lon="6.50952">
        <ele>237.300003</ele>
        <time>2011-09-07T14:46:04Z</time>
      </trkpt>
      <trkpt lat="43.40157" lon="6.50953">
        <ele>238.100006</ele>
        <time>2011-09-07T14:46:19Z</time>
      </trkpt>
      <trkpt lat="43.40156" lon="6.50953">
        <ele>237.899994</ele>
        <time>2011-09-07T14:46:24Z</time>
      </trkpt>
      <trkpt lat="43.40158" lon="6.50955">
        <ele>238</ele>
        <time>2011-09-07T14:46:28Z</time>
      </trkpt>
      <trkpt lat="43.40159" lon="6.5096">
        <ele>237.800003</ele>
        <time>2011-09-07T14:46:33Z</time>
      </trkpt>
      <trkpt lat="43.4016" lon="6.50961">
        <ele>237.699997</ele>
        <time>2011-09-07T14:46:34Z</time>
      </trkpt>
      <trkpt lat="43.40162" lon="6.50966">
        <ele>237.600006</ele>
        <time>2011-09-07T14:46:38Z</time>
      </trkpt>
      <trkpt lat="43.40164" lon="6.5097">
        <ele>237.5</ele>
        <time>2011-09-07T14:46:42Z</time>
      </trkpt>
      <trkpt lat="43.40165" lon="6.50974">
        <ele>237.399994</ele>
        <time>2011-09-07T14:46:46Z</time>
      </trkpt>
      <trkpt lat="43.40165" lon="6.50976">
        <ele>237.399994</ele>
        <time>2011-09-07T14:46:48Z</time>
      </trkpt>
      <trkpt lat="43.40162" lon="6.50979">
        <ele>237.399994</ele>
        <time>2011-09-07T14:46:51Z</time>
      </trkpt>
      <trkpt lat="43.4016" lon="6.50982">
        <ele>237.899994</ele>
        <time>2011-09-07T14:46:54Z</time>
      </trkpt>
      <trkpt lat="43.40159" lon="6.50985">
        <ele>238.199997</ele>
        <time>2011-09-07T14:46:56Z</time>
      </trkpt>
      <trkpt lat="43.40158" lon="6.50988">
        <ele>238.199997</ele>
        <time>2011-09-07T14:46:59Z</time>
      </trkpt>
      <trkpt lat="43.40156" lon="6.5099">
        <ele>238.199997</ele>
        <time>2011-09-07T14:47:01Z</time>
      </trkpt>
      <trkpt lat="43.40154" lon="6.50993">
        <ele>238.300003</ele>
        <time>2011-09-07T14:47:04Z</time>
      </trkpt>
      <trkpt lat="43.40151" lon="6.50994">
        <ele>238.399994</ele>
        <time>2011-09-07T14:47:06Z</time>
      </trkpt>
      <trkpt lat="43.40148" lon="6.50996">
        <ele>238.300003</ele>
        <time>2011-09-07T14:47:09Z</time>
      </trkpt>
      <trkpt lat="43.40144" lon="6.50999">
        <ele>238.899994</ele>
        <time>2011-09-07T14:47:13Z</time>
      </trkpt>
      <trkpt lat="43.40141" lon="6.51002">
        <ele>239.699997</ele>
        <time>2011-09-07T14:47:17Z</time>
      </trkpt>
      <trkpt lat="43.4014" lon="6.51005">
        <ele>239.699997</ele>
        <time>2011-09-07T14:47:19Z</time>
      </trkpt>
      <trkpt lat="43.40137" lon="6.5101">
        <ele>239.5</ele>
        <time>2011-09-07T14:47:23Z</time>
      </trkpt>
      <trkpt lat="43.40137" lon="6.51011">
        <ele>239.199997</ele>
        <time>2011-09-07T14:47:24Z</time>
      </trkpt>
      <trkpt lat="43.40135" lon="6.51019">
        <ele>238.699997</ele>
        <time>2011-09-07T14:47:30Z</time>
      </trkpt>
      <trkpt lat="43.40133" lon="6.51022">
        <ele>238.600006</ele>
        <time>2011-09-07T14:47:33Z</time>
      </trkpt>
      <trkpt lat="43.40132" lon="6.51027">
        <ele>239</ele>
        <time>2011-09-07T14:47:36Z</time>
      </trkpt>
      <trkpt lat="43.40131" lon="6.5103">
        <ele>239.399994</ele>
        <time>2011-09-07T14:47:39Z</time>
      </trkpt>
      <trkpt lat="43.40128" lon="6.51033">
        <ele>239.5</ele>
        <time>2011-09-07T14:47:43Z</time>
      </trkpt>
      <trkpt lat="43.40126" lon="6.51036">
        <ele>239.399994</ele>
        <time>2011-09-07T14:47:48Z</time>
      </trkpt>
      <trkpt lat="43.40126" lon="6.5104">
        <ele>239.100006</ele>
        <time>2011-09-07T14:47:52Z</time>
      </trkpt>
      <trkpt lat="43.40126" lon="6.51043">
        <ele>239.100006</ele>
        <time>2011-09-07T14:47:54Z</time>
      </trkpt>
      <trkpt lat="43.40128" lon="6.51047">
        <ele>238.899994</ele>
        <time>2011-09-07T14:47:58Z</time>
      </trkpt>
      <trkpt lat="43.4013" lon="6.51051">
        <ele>238.800003</ele>
        <time>2011-09-07T14:48:01Z</time>
      </trkpt>
      <trkpt lat="43.40132" lon="6.51057">
        <ele>238.199997</ele>
        <time>2011-09-07T14:48:04Z</time>
      </trkpt>
      <trkpt lat="43.40134" lon="6.51062">
        <ele>238</ele>
        <time>2011-09-07T14:48:08Z</time>
      </trkpt>
      <trkpt lat="43.40136" lon="6.51065">
        <ele>237.600006</ele>
        <time>2011-09-07T14:48:10Z</time>
      </trkpt>
      <trkpt lat="43.40139" lon="6.51072">
        <ele>237.899994</ele>
        <time>2011-09-07T14:48:15Z</time>
      </trkpt>
      <trkpt lat="43.40142" lon="6.51079">
        <ele>238.100006</ele>
        <time>2011-09-07T14:48:19Z</time>
      </trkpt>
      <trkpt lat="43.40144" lon="6.51083">
        <ele>237.899994</ele>
        <time>2011-09-07T14:48:21Z</time>
      </trkpt>
      <trkpt lat="43.40145" lon="6.51088">
        <ele>237.699997</ele>
        <time>2011-09-07T14:48:24Z</time>
      </trkpt>
      <trkpt lat="43.40145" lon="6.51091">
        <ele>237.899994</ele>
        <time>2011-09-07T14:48:26Z</time>
      </trkpt>
      <trkpt lat="43.40146" lon="6.51096">
        <ele>237.5</ele>
        <time>2011-09-07T14:48:29Z</time>
      </trkpt>
      <trkpt lat="43.40147" lon="6.51099">
        <ele>237.600006</ele>
        <time>2011-09-07T14:48:31Z</time>
      </trkpt>
      <trkpt lat="43.40148" lon="6.51105">
        <ele>237.100006</ele>
        <time>2011-09-07T14:48:35Z</time>
      </trkpt>
      <trkpt lat="43.40149" lon="6.51108">
        <ele>237.100006</ele>
        <time>2011-09-07T14:48:37Z</time>
      </trkpt>
      <trkpt lat="43.40149" lon="6.51111">
        <ele>237.199997</ele>
        <time>2011-09-07T14:48:39Z</time>
      </trkpt>
      <trkpt lat="43.40149" lon="6.5112">
        <ele>237.399994</ele>
        <time>2011-09-07T14:48:45Z</time>
      </trkpt>
      <trkpt lat="43.40152" lon="6.51125">
        <ele>237.699997</ele>
        <time>2011-09-07T14:48:48Z</time>
      </trkpt>
      <trkpt lat="43.40153" lon="6.51127">
        <ele>238</ele>
        <time>2011-09-07T14:48:49Z</time>
      </trkpt>
      <trkpt lat="43.40158" lon="6.51133">
        <ele>238.300003</ele>
        <time>2011-09-07T14:48:53Z</time>
      </trkpt>
      <trkpt lat="43.40161" lon="6.51135">
        <ele>238.300003</ele>
        <time>2011-09-07T14:48:56Z</time>
      </trkpt>
      <trkpt lat="43.40164" lon="6.51138">
        <ele>238.699997</ele>
        <time>2011-09-07T14:49:01Z</time>
      </trkpt>
      <trkpt lat="43.40165" lon="6.51139">
        <ele>238.800003</ele>
        <time>2011-09-07T14:49:02Z</time>
      </trkpt>
      <trkpt lat="43.4017" lon="6.51142">
        <ele>238.699997</ele>
        <time>2011-09-07T14:49:06Z</time>
      </trkpt>
      <trkpt lat="43.40175" lon="6.51147">
        <ele>238.399994</ele>
        <time>2011-09-07T14:49:11Z</time>
      </trkpt>
      <trkpt lat="43.40177" lon="6.5115">
        <ele>238.5</ele>
        <time>2011-09-07T14:49:13Z</time>
      </trkpt>
      <trkpt lat="43.40182" lon="6.51156">
        <ele>238.300003</ele>
        <time>2011-09-07T14:49:18Z</time>
      </trkpt>
      <trkpt lat="43.40184" lon="6.51157">
        <ele>238</ele>
        <time>2011-09-07T14:49:20Z</time>
      </trkpt>
      <trkpt lat="43.40192" lon="6.51162">
        <ele>237.800003</ele>
        <time>2011-09-07T14:49:26Z</time>
      </trkpt>
      <trkpt lat="43.40194" lon="6.51164">
        <ele>237.899994</ele>
        <time>2011-09-07T14:49:28Z</time>
      </trkpt>
      <trkpt lat="43.40197" lon="6.51165">
        <ele>238</ele>
        <time>2011-09-07T14:49:31Z</time>
      </trkpt>
      <trkpt lat="43.402" lon="6.51168">
        <ele>238.899994</ele>
        <time>2011-09-07T14:49:35Z</time>
      </trkpt>
      <trkpt lat="43.40202" lon="6.5117">
        <ele>238.5</ele>
        <time>2011-09-07T14:49:37Z</time>
      </trkpt>
      <trkpt lat="43.40204" lon="6.51172">
        <ele>238.800003</ele>
        <time>2011-09-07T14:49:39Z</time>
      </trkpt>
      <trkpt lat="43.40207" lon="6.51174">
        <ele>238.800003</ele>
        <time>2011-09-07T14:49:42Z</time>
      </trkpt>
      <trkpt lat="43.40213" lon="6.51179">
        <ele>239</ele>
        <time>2011-09-07T14:49:47Z</time>
      </trkpt>
      <trkpt lat="43.40218" lon="6.51182">
        <ele>239.699997</ele>
        <time>2011-09-07T14:49:52Z</time>
      </trkpt>
      <trkpt lat="43.40221" lon="6.51184">
        <ele>239.800003</ele>
        <time>2011-09-07T14:49:55Z</time>
      </trkpt>
      <trkpt lat="43.40223" lon="6.51185">
        <ele>240</ele>
        <time>2011-09-07T14:49:56Z</time>
      </trkpt>
      <trkpt lat="43.40231" lon="6.51191">
        <ele>239.399994</ele>
        <time>2011-09-07T14:50:02Z</time>
      </trkpt>
      <trkpt lat="43.40234" lon="6.51193">
        <ele>239.300003</ele>
        <time>2011-09-07T14:50:04Z</time>
      </trkpt>
      <trkpt lat="43.40237" lon="6.51195">
        <ele>239.100006</ele>
        <time>2011-09-07T14:50:07Z</time>
      </trkpt>
      <trkpt lat="43.4024" lon="6.51198">
        <ele>238.699997</ele>
        <time>2011-09-07T14:50:10Z</time>
      </trkpt>
      <trkpt lat="43.40244" lon="6.51201">
        <ele>238.300003</ele>
        <time>2011-09-07T14:50:13Z</time>
      </trkpt>
      <trkpt lat="43.4025" lon="6.51207">
        <ele>237.199997</ele>
        <time>2011-09-07T14:50:19Z</time>
      </trkpt>
      <trkpt lat="43.40253" lon="6.5121">
        <ele>236.800003</ele>
        <time>2011-09-07T14:50:22Z</time>
      </trkpt>
      <trkpt lat="43.40255" lon="6.51212">
        <ele>236.800003</ele>
        <time>2011-09-07T14:50:24Z</time>
      </trkpt>
      <trkpt lat="43.4026" lon="6.51214">
        <ele>236.600006</ele>
        <time>2011-09-07T14:50:28Z</time>
      </trkpt>
      <trkpt lat="43.40263" lon="6.51216">
        <ele>237.100006</ele>
        <time>2011-09-07T14:50:31Z</time>
      </trkpt>
      <trkpt lat="43.40268" lon="6.51219">
        <ele>236.899994</ele>
        <time>2011-09-07T14:50:35Z</time>
      </trkpt>
      <trkpt lat="43.4027" lon="6.5122">
        <ele>236.5</ele>
        <time>2011-09-07T14:50:37Z</time>
      </trkpt>
      <trkpt lat="43.40275" lon="6.51223">
        <ele>235.800003</ele>
        <time>2011-09-07T14:50:43Z</time>
      </trkpt>
      <trkpt lat="43.40276" lon="6.51225">
        <ele>236.100006</ele>
        <time>2011-09-07T14:50:45Z</time>
      </trkpt>
      <trkpt lat="43.40278" lon="6.51228">
        <ele>236.600006</ele>
        <time>2011-09-07T14:50:48Z</time>
      </trkpt>
      <trkpt lat="43.40282" lon="6.51235">
        <ele>236.699997</ele>
        <time>2011-09-07T14:50:53Z</time>
      </trkpt>
      <trkpt lat="43.40283" lon="6.51239">
        <ele>237.199997</ele>
        <time>2011-09-07T14:50:56Z</time>
      </trkpt>
      <trkpt lat="43.40285" lon="6.51243">
        <ele>236.800003</ele>
        <time>2011-09-07T14:51:00Z</time>
      </trkpt>
      <trkpt lat="43.40289" lon="6.5125">
        <ele>238.100006</ele>
        <time>2011-09-07T14:51:06Z</time>
      </trkpt>
      <trkpt lat="43.4029" lon="6.51254">
        <ele>238.199997</ele>
        <time>2011-09-07T14:51:10Z</time>
      </trkpt>
      <trkpt lat="43.40292" lon="6.51257">
        <ele>238.199997</ele>
        <time>2011-09-07T14:51:13Z</time>
      </trkpt>
      <trkpt lat="43.40294" lon="6.5126">
        <ele>238.199997</ele>
        <time>2011-09-07T14:51:15Z</time>
      </trkpt>
      <trkpt lat="43.40295" lon="6.51263">
        <ele>238.399994</ele>
        <time>2011-09-07T14:51:17Z</time>
      </trkpt>
      <trkpt lat="43.40296" lon="6.51266">
        <ele>239</ele>
        <time>2011-09-07T14:51:19Z</time>
      </trkpt>
      <trkpt lat="43.40297" lon="6.51268">
        <ele>239.199997</ele>
        <time>2011-09-07T14:51:21Z</time>
      </trkpt>
      <trkpt lat="43.403" lon="6.51272">
        <ele>239.100006</ele>
        <time>2011-09-07T14:51:25Z</time>
      </trkpt>
      <trkpt lat="43.40301" lon="6.51275">
        <ele>239.300003</ele>
        <time>2011-09-07T14:51:27Z</time>
      </trkpt>
      <trkpt lat="43.40301" lon="6.51277">
        <ele>238.5</ele>
        <time>2011-09-07T14:51:29Z</time>
      </trkpt>
      <trkpt lat="43.40304" lon="6.51283">
        <ele>238.800003</ele>
        <time>2011-09-07T14:51:33Z</time>
      </trkpt>
      <trkpt lat="43.40305" lon="6.51289">
        <ele>238.199997</ele>
        <time>2011-09-07T14:51:37Z</time>
      </trkpt>
      <trkpt lat="43.40304" lon="6.51292">
        <ele>238.699997</ele>
        <time>2011-09-07T14:51:39Z</time>
      </trkpt>
      <trkpt lat="43.40303" lon="6.51295">
        <ele>239.699997</ele>
        <time>2011-09-07T14:51:42Z</time>
      </trkpt>
      <trkpt lat="43.40303" lon="6.51298">
        <ele>240.100006</ele>
        <time>2011-09-07T14:51:44Z</time>
      </trkpt>
      <trkpt lat="43.40304" lon="6.51304">
        <ele>240</ele>
        <time>2011-09-07T14:51:47Z</time>
      </trkpt>
      <trkpt lat="43.40306" lon="6.5131">
        <ele>240</ele>
        <time>2011-09-07T14:51:51Z</time>
      </trkpt>
      <trkpt lat="43.40309" lon="6.51314">
        <ele>240</ele>
        <time>2011-09-07T14:51:53Z</time>
      </trkpt>
      <trkpt lat="43.4031" lon="6.51318">
        <ele>240.199997</ele>
        <time>2011-09-07T14:51:56Z</time>
      </trkpt>
      <trkpt lat="43.4031" lon="6.5132">
        <ele>240.600006</ele>
        <time>2011-09-07T14:51:59Z</time>
      </trkpt>
      <trkpt lat="43.40311" lon="6.51321">
        <ele>240.300003</ele>
        <time>2011-09-07T14:52:00Z</time>
      </trkpt>
      <trkpt lat="43.40311" lon="6.51325">
        <ele>239.899994</ele>
        <time>2011-09-07T14:52:04Z</time>
      </trkpt>
      <trkpt lat="43.40311" lon="6.5133">
        <ele>239.600006</ele>
        <time>2011-09-07T14:52:08Z</time>
      </trkpt>
      <trkpt lat="43.40312" lon="6.51334">
        <ele>238.899994</ele>
        <time>2011-09-07T14:52:11Z</time>
      </trkpt>
      <trkpt lat="43.40312" lon="6.51336">
        <ele>239.199997</ele>
        <time>2011-09-07T14:52:13Z</time>
      </trkpt>
      <trkpt lat="43.40314" lon="6.5134">
        <ele>239</ele>
        <time>2011-09-07T14:52:15Z</time>
      </trkpt>
      <trkpt lat="43.40314" lon="6.51345">
        <ele>239.100006</ele>
        <time>2011-09-07T14:52:19Z</time>
      </trkpt>
      <trkpt lat="43.40316" lon="6.51349">
        <ele>239.399994</ele>
        <time>2011-09-07T14:52:22Z</time>
      </trkpt>
      <trkpt lat="43.4032" lon="6.51356">
        <ele>239.800003</ele>
        <time>2011-09-07T14:52:26Z</time>
      </trkpt>
      <trkpt lat="43.40321" lon="6.51358">
        <ele>239.899994</ele>
        <time>2011-09-07T14:52:27Z</time>
      </trkpt>
      <trkpt lat="43.40323" lon="6.51361">
        <ele>240.100006</ele>
        <time>2011-09-07T14:52:29Z</time>
      </trkpt>
      <trkpt lat="43.40326" lon="6.51366">
        <ele>240.399994</ele>
        <time>2011-09-07T14:52:32Z</time>
      </trkpt>
      <trkpt lat="43.40328" lon="6.51369">
        <ele>240.5</ele>
        <time>2011-09-07T14:52:34Z</time>
      </trkpt>
      <trkpt lat="43.4033" lon="6.51374">
        <ele>240.5</ele>
        <time>2011-09-07T14:52:37Z</time>
      </trkpt>
      <trkpt lat="43.40332" lon="6.51378">
        <ele>240.5</ele>
        <time>2011-09-07T14:52:40Z</time>
      </trkpt>
      <trkpt lat="43.40333" lon="6.51381">
        <ele>240.300003</ele>
        <time>2011-09-07T14:52:42Z</time>
      </trkpt>
      <trkpt lat="43.40335" lon="6.51383">
        <ele>239.800003</ele>
        <time>2011-09-07T14:52:44Z</time>
      </trkpt>
      <trkpt lat="43.40338" lon="6.51386">
        <ele>240</ele>
        <time>2011-09-07T14:52:46Z</time>
      </trkpt>
      <trkpt lat="43.40342" lon="6.51389">
        <ele>240.100006</ele>
        <time>2011-09-07T14:52:50Z</time>
      </trkpt>
      <trkpt lat="43.40343" lon="6.5139">
        <ele>240</ele>
        <time>2011-09-07T14:52:51Z</time>
      </trkpt>
      <trkpt lat="43.4035" lon="6.51394">
        <ele>239.600006</ele>
        <time>2011-09-07T14:52:57Z</time>
      </trkpt>
      <trkpt lat="43.40361" lon="6.51402">
        <ele>239.600006</ele>
        <time>2011-09-07T14:53:06Z</time>
      </trkpt>
      <trkpt lat="43.40362" lon="6.51403">
        <ele>239.5</ele>
        <time>2011-09-07T14:53:07Z</time>
      </trkpt>
      <trkpt lat="43.40365" lon="6.51405">
        <ele>240.199997</ele>
        <time>2011-09-07T14:53:10Z</time>
      </trkpt>
      <trkpt lat="43.40366" lon="6.51408">
        <ele>240.199997</ele>
        <time>2011-09-07T14:53:12Z</time>
      </trkpt>
      <trkpt lat="43.40367" lon="6.51411">
        <ele>240.600006</ele>
        <time>2011-09-07T14:53:15Z</time>
      </trkpt>
      <trkpt lat="43.40369" lon="6.51415">
        <ele>241.100006</ele>
        <time>2011-09-07T14:53:18Z</time>
      </trkpt>
      <trkpt lat="43.4037" lon="6.51419">
        <ele>241.600006</ele>
        <time>2011-09-07T14:53:21Z</time>
      </trkpt>
      <trkpt lat="43.40372" lon="6.51423">
        <ele>242.199997</ele>
        <time>2011-09-07T14:53:24Z</time>
      </trkpt>
      <trkpt lat="43.40375" lon="6.51429">
        <ele>241.800003</ele>
        <time>2011-09-07T14:53:29Z</time>
      </trkpt>
      <trkpt lat="43.40375" lon="6.5143">
        <ele>241.899994</ele>
        <time>2011-09-07T14:53:30Z</time>
      </trkpt>
      <trkpt lat="43.40377" lon="6.51435">
        <ele>242.100006</ele>
        <time>2011-09-07T14:53:34Z</time>
      </trkpt>
      <trkpt lat="43.40378" lon="6.51436">
        <ele>242.199997</ele>
        <time>2011-09-07T14:53:35Z</time>
      </trkpt>
      <trkpt lat="43.4038" lon="6.51441">
        <ele>242.600006</ele>
        <time>2011-09-07T14:53:39Z</time>
      </trkpt>
      <trkpt lat="43.40383" lon="6.51445">
        <ele>243.100006</ele>
        <time>2011-09-07T14:53:42Z</time>
      </trkpt>
      <trkpt lat="43.40386" lon="6.51451">
        <ele>243.699997</ele>
        <time>2011-09-07T14:53:47Z</time>
      </trkpt>
      <trkpt lat="43.40389" lon="6.51457">
        <ele>244.199997</ele>
        <time>2011-09-07T14:53:52Z</time>
      </trkpt>
      <trkpt lat="43.4039" lon="6.51458">
        <ele>244.300003</ele>
        <time>2011-09-07T14:53:53Z</time>
      </trkpt>
      <trkpt lat="43.40391" lon="6.51461">
        <ele>244.199997</ele>
        <time>2011-09-07T14:53:56Z</time>
      </trkpt>
      <trkpt lat="43.40393" lon="6.51465">
        <ele>244.699997</ele>
        <time>2011-09-07T14:53:59Z</time>
      </trkpt>
      <trkpt lat="43.40395" lon="6.51468">
        <ele>245.5</ele>
        <time>2011-09-07T14:54:03Z</time>
      </trkpt>
      <trkpt lat="43.40397" lon="6.51473">
        <ele>245.800003</ele>
        <time>2011-09-07T14:54:07Z</time>
      </trkpt>
      <trkpt lat="43.40399" lon="6.51478">
        <ele>246.100006</ele>
        <time>2011-09-07T14:54:11Z</time>
      </trkpt>
      <trkpt lat="43.40401" lon="6.51482">
        <ele>246.199997</ele>
        <time>2011-09-07T14:54:15Z</time>
      </trkpt>
      <trkpt lat="43.40403" lon="6.51486">
        <ele>246.300003</ele>
        <time>2011-09-07T14:54:18Z</time>
      </trkpt>
      <trkpt lat="43.40405" lon="6.5149">
        <ele>247.100006</ele>
        <time>2011-09-07T14:54:21Z</time>
      </trkpt>
      <trkpt lat="43.40407" lon="6.51494">
        <ele>246.800003</ele>
        <time>2011-09-07T14:54:24Z</time>
      </trkpt>
      <trkpt lat="43.40409" lon="6.51497">
        <ele>247.100006</ele>
        <time>2011-09-07T14:54:27Z</time>
      </trkpt>
      <trkpt lat="43.40411" lon="6.51499">
        <ele>247.300003</ele>
        <time>2011-09-07T14:54:29Z</time>
      </trkpt>
      <trkpt lat="43.40412" lon="6.51502">
        <ele>247.300003</ele>
        <time>2011-09-07T14:54:32Z</time>
      </trkpt>
      <trkpt lat="43.40416" lon="6.5151">
        <ele>247.800003</ele>
        <time>2011-09-07T14:54:38Z</time>
      </trkpt>
      <trkpt lat="43.40417" lon="6.51512">
        <ele>248.100006</ele>
        <time>2011-09-07T14:54:40Z</time>
      </trkpt>
      <trkpt lat="43.40419" lon="6.51516">
        <ele>248.5</ele>
        <time>2011-09-07T14:54:44Z</time>
      </trkpt>
      <trkpt lat="43.40421" lon="6.51521">
        <ele>249.199997</ele>
        <time>2011-09-07T14:54:48Z</time>
      </trkpt>
      <trkpt lat="43.40423" lon="6.51525">
        <ele>249.699997</ele>
        <time>2011-09-07T14:54:52Z</time>
      </trkpt>
      <trkpt lat="43.40424" lon="6.51528">
        <ele>250.199997</ele>
        <time>2011-09-07T14:54:55Z</time>
      </trkpt>
      <trkpt lat="43.40427" lon="6.51533">
        <ele>251.199997</ele>
        <time>2011-09-07T14:55:00Z</time>
      </trkpt>
      <trkpt lat="43.40429" lon="6.51537">
        <ele>252.199997</ele>
        <time>2011-09-07T14:55:04Z</time>
      </trkpt>
      <trkpt lat="43.40429" lon="6.5154">
        <ele>252.699997</ele>
        <time>2011-09-07T14:55:08Z</time>
      </trkpt>
      <trkpt lat="43.4043" lon="6.51543">
        <ele>253.5</ele>
        <time>2011-09-07T14:55:12Z</time>
      </trkpt>
      <trkpt lat="43.4043" lon="6.51547">
        <ele>254.399994</ele>
        <time>2011-09-07T14:55:17Z</time>
      </trkpt>
      <trkpt lat="43.40431" lon="6.5155">
        <ele>254.300003</ele>
        <time>2011-09-07T14:55:20Z</time>
      </trkpt>
      <trkpt lat="43.40433" lon="6.51554">
        <ele>254.600006</ele>
        <time>2011-09-07T14:55:23Z</time>
      </trkpt>
      <trkpt lat="43.40435" lon="6.51557">
        <ele>254.699997</ele>
        <time>2011-09-07T14:55:26Z</time>
      </trkpt>
      <trkpt lat="43.40437" lon="6.51559">
        <ele>254.800003</ele>
        <time>2011-09-07T14:55:28Z</time>
      </trkpt>
      <trkpt lat="43.40439" lon="6.51561">
        <ele>255.100006</ele>
        <time>2011-09-07T14:55:30Z</time>
      </trkpt>
      <trkpt lat="43.40442" lon="6.51563">
        <ele>255</ele>
        <time>2011-09-07T14:55:33Z</time>
      </trkpt>
      <trkpt lat="43.40444" lon="6.51566">
        <ele>255.199997</ele>
        <time>2011-09-07T14:55:35Z</time>
      </trkpt>
      <trkpt lat="43.40448" lon="6.51568">
        <ele>255.5</ele>
        <time>2011-09-07T14:55:38Z</time>
      </trkpt>
      <trkpt lat="43.40451" lon="6.5157">
        <ele>255.800003</ele>
        <time>2011-09-07T14:55:40Z</time>
      </trkpt>
      <trkpt lat="43.40454" lon="6.51572">
        <ele>255.899994</ele>
        <time>2011-09-07T14:55:43Z</time>
      </trkpt>
      <trkpt lat="43.40458" lon="6.51577">
        <ele>257.100006</ele>
        <time>2011-09-07T14:55:48Z</time>
      </trkpt>
      <trkpt lat="43.40461" lon="6.5158">
        <ele>257.899994</ele>
        <time>2011-09-07T14:55:53Z</time>
      </trkpt>
      <trkpt lat="43.40464" lon="6.51583">
        <ele>258.5</ele>
        <time>2011-09-07T14:55:56Z</time>
      </trkpt>
      <trkpt lat="43.40468" lon="6.51586">
        <ele>259.200012</ele>
        <time>2011-09-07T14:56:01Z</time>
      </trkpt>
      <trkpt lat="43.40474" lon="6.5159">
        <ele>259.799988</ele>
        <time>2011-09-07T14:56:07Z</time>
      </trkpt>
      <trkpt lat="43.40478" lon="6.51593">
        <ele>260.5</ele>
        <time>2011-09-07T14:56:10Z</time>
      </trkpt>
      <trkpt lat="43.40482" lon="6.51596">
        <ele>261</ele>
        <time>2011-09-07T14:56:14Z</time>
      </trkpt>
      <trkpt lat="43.40486" lon="6.51599">
        <ele>261.399994</ele>
        <time>2011-09-07T14:56:19Z</time>
      </trkpt>
      <trkpt lat="43.40489" lon="6.51602">
        <ele>261.399994</ele>
        <time>2011-09-07T14:56:23Z</time>
      </trkpt>
      <trkpt lat="43.40491" lon="6.51603">
        <ele>261.600006</ele>
        <time>2011-09-07T14:56:25Z</time>
      </trkpt>
      <trkpt lat="43.40493" lon="6.51605">
        <ele>261.600006</ele>
        <time>2011-09-07T14:56:27Z</time>
      </trkpt>
      <trkpt lat="43.405" lon="6.51611">
        <ele>262.299988</ele>
        <time>2011-09-07T14:56:34Z</time>
      </trkpt>
      <trkpt lat="43.40504" lon="6.51615">
        <ele>263.100006</ele>
        <time>2011-09-07T14:56:39Z</time>
      </trkpt>
      <trkpt lat="43.40506" lon="6.51616">
        <ele>263.5</ele>
        <time>2011-09-07T14:56:41Z</time>
      </trkpt>
      <trkpt lat="43.40509" lon="6.51619">
        <ele>263.799988</ele>
        <time>2011-09-07T14:56:45Z</time>
      </trkpt>
      <trkpt lat="43.40514" lon="6.51624">
        <ele>264.5</ele>
        <time>2011-09-07T14:56:52Z</time>
      </trkpt>
      <trkpt lat="43.40517" lon="6.51629">
        <ele>264.700012</ele>
        <time>2011-09-07T14:56:57Z</time>
      </trkpt>
      <trkpt lat="43.4052" lon="6.51632">
        <ele>264.899994</ele>
        <time>2011-09-07T14:57:01Z</time>
      </trkpt>
      <trkpt lat="43.40522" lon="6.51636">
        <ele>265.600006</ele>
        <time>2011-09-07T14:57:06Z</time>
      </trkpt>
      <trkpt lat="43.40524" lon="6.5164">
        <ele>266.200012</ele>
        <time>2011-09-07T14:57:10Z</time>
      </trkpt>
      <trkpt lat="43.40527" lon="6.51643">
        <ele>267.100006</ele>
        <time>2011-09-07T14:57:14Z</time>
      </trkpt>
      <trkpt lat="43.40531" lon="6.51647">
        <ele>267.399994</ele>
        <time>2011-09-07T14:57:20Z</time>
      </trkpt>
      <trkpt lat="43.40534" lon="6.5165">
        <ele>267.899994</ele>
        <time>2011-09-07T14:57:24Z</time>
      </trkpt>
      <trkpt lat="43.40537" lon="6.51652">
        <ele>268.100006</ele>
        <time>2011-09-07T14:57:28Z</time>
      </trkpt>
      <trkpt lat="43.40541" lon="6.51656">
        <ele>269.399994</ele>
        <time>2011-09-07T14:57:33Z</time>
      </trkpt>
      <trkpt lat="43.40543" lon="6.51657">
        <ele>269.799988</ele>
        <time>2011-09-07T14:57:36Z</time>
      </trkpt>
      <trkpt lat="43.40545" lon="6.51659">
        <ele>270.399994</ele>
        <time>2011-09-07T14:57:39Z</time>
      </trkpt>
      <trkpt lat="43.40548" lon="6.51662">
        <ele>271.299988</ele>
        <time>2011-09-07T14:57:43Z</time>
      </trkpt>
      <trkpt lat="43.40552" lon="6.51663">
        <ele>272.600006</ele>
        <time>2011-09-07T14:57:47Z</time>
      </trkpt>
      <trkpt lat="43.40556" lon="6.51666">
        <ele>273</ele>
        <time>2011-09-07T14:57:51Z</time>
      </trkpt>
      <trkpt lat="43.40559" lon="6.51667">
        <ele>272.600006</ele>
        <time>2011-09-07T14:57:57Z</time>
      </trkpt>
      <trkpt lat="43.40563" lon="6.51668">
        <ele>272.600006</ele>
        <time>2011-09-07T14:58:05Z</time>
      </trkpt>
      <trkpt lat="43.40564" lon="6.51669">
        <ele>274.100006</ele>
        <time>2011-09-07T14:58:10Z</time>
      </trkpt>
      <trkpt lat="43.40566" lon="6.51671">
        <ele>272.200012</ele>
        <time>2011-09-07T14:58:29Z</time>
      </trkpt>
      <trkpt lat="43.40568" lon="6.51672">
        <ele>272.299988</ele>
        <time>2011-09-07T14:58:36Z</time>
      </trkpt>
      <trkpt lat="43.40568" lon="6.51673">
        <ele>272.200012</ele>
        <time>2011-09-07T14:58:38Z</time>
      </trkpt>
      <trkpt lat="43.40569" lon="6.51673">
        <ele>272.700012</ele>
        <time>2011-09-07T14:58:44Z</time>
      </trkpt>
      <trkpt lat="43.4057" lon="6.51673">
        <ele>272</ele>
        <time>2011-09-07T14:58:53Z</time>
      </trkpt>
      <trkpt lat="43.4057" lon="6.51674">
        <ele>272.899994</ele>
        <time>2011-09-07T14:59:16Z</time>
      </trkpt>
      <trkpt lat="43.40569" lon="6.51675">
        <ele>273.100006</ele>
        <time>2011-09-07T14:59:35Z</time>
      </trkpt>
      <trkpt lat="43.40569" lon="6.51678">
        <ele>273.200012</ele>
        <time>2011-09-07T14:59:43Z</time>
      </trkpt>
      <trkpt lat="43.4057" lon="6.51683">
        <ele>273.5</ele>
        <time>2011-09-07T14:59:52Z</time>
      </trkpt>
      <trkpt lat="43.40569" lon="6.51687">
        <ele>273.299988</ele>
        <time>2011-09-07T14:59:56Z</time>
      </trkpt>
      <trkpt lat="43.4057" lon="6.5169">
        <ele>272.899994</ele>
        <time>2011-09-07T15:00:00Z</time>
      </trkpt>
      <trkpt lat="43.40571" lon="6.51693">
        <ele>272.799988</ele>
        <time>2011-09-07T15:00:03Z</time>
      </trkpt>
      <trkpt lat="43.40573" lon="6.51697">
        <ele>272.899994</ele>
        <time>2011-09-07T15:00:08Z</time>
      </trkpt>
      <trkpt lat="43.40575" lon="6.51699">
        <ele>273.100006</ele>
        <time>2011-09-07T15:00:11Z</time>
      </trkpt>
      <trkpt lat="43.40579" lon="6.51709">
        <ele>273.299988</ele>
        <time>2011-09-07T15:00:19Z</time>
      </trkpt>
      <trkpt lat="43.4058" lon="6.51711">
        <ele>273.299988</ele>
        <time>2011-09-07T15:00:21Z</time>
      </trkpt>
      <trkpt lat="43.40582" lon="6.51713">
        <ele>273.5</ele>
        <time>2011-09-07T15:00:24Z</time>
      </trkpt>
      <trkpt lat="43.40585" lon="6.51718">
        <ele>274.299988</ele>
        <time>2011-09-07T15:00:28Z</time>
      </trkpt>
      <trkpt lat="43.40586" lon="6.51719">
        <ele>274.5</ele>
        <time>2011-09-07T15:00:29Z</time>
      </trkpt>
      <trkpt lat="43.40589" lon="6.51724">
        <ele>275</ele>
        <time>2011-09-07T15:00:34Z</time>
      </trkpt>
      <trkpt lat="43.40591" lon="6.51729">
        <ele>274.799988</ele>
        <time>2011-09-07T15:00:39Z</time>
      </trkpt>
      <trkpt lat="43.40591" lon="6.51731">
        <ele>275</ele>
        <time>2011-09-07T15:00:41Z</time>
      </trkpt>
      <trkpt lat="43.40593" lon="6.51737">
        <ele>275.100006</ele>
        <time>2011-09-07T15:00:45Z</time>
      </trkpt>
      <trkpt lat="43.40594" lon="6.51741">
        <ele>274.899994</ele>
        <time>2011-09-07T15:00:48Z</time>
      </trkpt>
      <trkpt lat="43.40595" lon="6.51746">
        <ele>274.899994</ele>
        <time>2011-09-07T15:00:52Z</time>
      </trkpt>
      <trkpt lat="43.40595" lon="6.51751">
        <ele>275.399994</ele>
        <time>2011-09-07T15:00:56Z</time>
      </trkpt>
      <trkpt lat="43.40597" lon="6.51759">
        <ele>275.700012</ele>
        <time>2011-09-07T15:01:01Z</time>
      </trkpt>
      <trkpt lat="43.40598" lon="6.51762">
        <ele>275.799988</ele>
        <time>2011-09-07T15:01:03Z</time>
      </trkpt>
      <trkpt lat="43.40599" lon="6.51768">
        <ele>275.100006</ele>
        <time>2011-09-07T15:01:07Z</time>
      </trkpt>
      <trkpt lat="43.406" lon="6.51771">
        <ele>275.399994</ele>
        <time>2011-09-07T15:01:09Z</time>
      </trkpt>
      <trkpt lat="43.40601" lon="6.51774">
        <ele>275.200012</ele>
        <time>2011-09-07T15:01:11Z</time>
      </trkpt>
      <trkpt lat="43.40603" lon="6.51777">
        <ele>275.299988</ele>
        <time>2011-09-07T15:01:14Z</time>
      </trkpt>
      <trkpt lat="43.40614" lon="6.51787">
        <ele>275.399994</ele>
        <time>2011-09-07T15:01:23Z</time>
      </trkpt>
      <trkpt lat="43.40625" lon="6.51794">
        <ele>276.799988</ele>
        <time>2011-09-07T15:01:35Z</time>
      </trkpt>
      <trkpt lat="43.40627" lon="6.51796">
        <ele>277</ele>
        <time>2011-09-07T15:01:38Z</time>
      </trkpt>
      <trkpt lat="43.4065" lon="6.51815">
        <ele>278.600006</ele>
        <time>2011-09-07T15:02:00Z</time>
      </trkpt>
      <trkpt lat="43.40658" lon="6.51826">
        <ele>278.299988</ele>
        <time>2011-09-07T15:02:10Z</time>
      </trkpt>
      <trkpt lat="43.4066" lon="6.5183">
        <ele>277.700012</ele>
        <time>2011-09-07T15:02:13Z</time>
      </trkpt>
      <trkpt lat="43.4067" lon="6.51846">
        <ele>277.200012</ele>
        <time>2011-09-07T15:02:26Z</time>
      </trkpt>
      <trkpt lat="43.40674" lon="6.51851">
        <ele>276.799988</ele>
        <time>2011-09-07T15:02:30Z</time>
      </trkpt>
      <trkpt lat="43.40676" lon="6.51853">
        <ele>276.899994</ele>
        <time>2011-09-07T15:02:32Z</time>
      </trkpt>
      <trkpt lat="43.40695" lon="6.51861">
        <ele>277</ele>
        <time>2011-09-07T15:02:47Z</time>
      </trkpt>
      <trkpt lat="43.40724" lon="6.51876">
        <ele>276.799988</ele>
        <time>2011-09-07T15:03:11Z</time>
      </trkpt>
      <trkpt lat="43.40789" lon="6.51901">
        <ele>270.5</ele>
        <time>2011-09-07T15:04:08Z</time>
      </trkpt>
      <trkpt lat="43.40802" lon="6.519">
        <ele>271.200012</ele>
        <time>2011-09-07T15:04:18Z</time>
      </trkpt>
      <trkpt lat="43.40805" lon="6.519">
        <ele>270.399994</ele>
        <time>2011-09-07T15:04:21Z</time>
      </trkpt>
      <trkpt lat="43.40808" lon="6.51902">
        <ele>270</ele>
        <time>2011-09-07T15:04:24Z</time>
      </trkpt>
      <trkpt lat="43.40814" lon="6.51906">
        <ele>268.799988</ele>
        <time>2011-09-07T15:04:30Z</time>
      </trkpt>
      <trkpt lat="43.40817" lon="6.51907">
        <ele>268.799988</ele>
        <time>2011-09-07T15:04:33Z</time>
      </trkpt>
      <trkpt lat="43.40828" lon="6.51906">
        <ele>266.600006</ele>
        <time>2011-09-07T15:04:43Z</time>
      </trkpt>
      <trkpt lat="43.40832" lon="6.51908">
        <ele>266</ele>
        <time>2011-09-07T15:04:47Z</time>
      </trkpt>
      <trkpt lat="43.40834" lon="6.51909">
        <ele>265.700012</ele>
        <time>2011-09-07T15:04:50Z</time>
      </trkpt>
      <trkpt lat="43.40837" lon="6.51911">
        <ele>265.5</ele>
        <time>2011-09-07T15:04:53Z</time>
      </trkpt>
      <trkpt lat="43.4084" lon="6.51913">
        <ele>264.600006</ele>
        <time>2011-09-07T15:04:57Z</time>
      </trkpt>
      <trkpt lat="43.40843" lon="6.51914">
        <ele>263.600006</ele>
        <time>2011-09-07T15:05:01Z</time>
      </trkpt>
      <trkpt lat="43.4085" lon="6.51918">
        <ele>263.100006</ele>
        <time>2011-09-07T15:05:09Z</time>
      </trkpt>
      <trkpt lat="43.40853" lon="6.51921">
        <ele>262</ele>
        <time>2011-09-07T15:05:13Z</time>
      </trkpt>
      <trkpt lat="43.40856" lon="6.51922">
        <ele>262.100006</ele>
        <time>2011-09-07T15:05:16Z</time>
      </trkpt>
      <trkpt lat="43.40858" lon="6.51925">
        <ele>261.100006</ele>
        <time>2011-09-07T15:05:19Z</time>
      </trkpt>
      <trkpt lat="43.40861" lon="6.51925">
        <ele>259.799988</ele>
        <time>2011-09-07T15:05:22Z</time>
      </trkpt>
      <trkpt lat="43.40865" lon="6.51928">
        <ele>259.299988</ele>
        <time>2011-09-07T15:05:27Z</time>
      </trkpt>
      <trkpt lat="43.40867" lon="6.51932">
        <ele>258.100006</ele>
        <time>2011-09-07T15:05:32Z</time>
      </trkpt>
      <trkpt lat="43.40874" lon="6.51936">
        <ele>256.700012</ele>
        <time>2011-09-07T15:05:39Z</time>
      </trkpt>
      <trkpt lat="43.40881" lon="6.51942">
        <ele>254.800003</ele>
        <time>2011-09-07T15:05:46Z</time>
      </trkpt>
      <trkpt lat="43.40887" lon="6.51947">
        <ele>253.600006</ele>
        <time>2011-09-07T15:05:53Z</time>
      </trkpt>
      <trkpt lat="43.40891" lon="6.5195">
        <ele>253.199997</ele>
        <time>2011-09-07T15:05:57Z</time>
      </trkpt>
      <trkpt lat="43.40895" lon="6.5195">
        <ele>253.100006</ele>
        <time>2011-09-07T15:06:00Z</time>
      </trkpt>
      <trkpt lat="43.409" lon="6.51953">
        <ele>253.199997</ele>
        <time>2011-09-07T15:06:05Z</time>
      </trkpt>
      <trkpt lat="43.40907" lon="6.51958">
        <ele>253.300003</ele>
        <time>2011-09-07T15:06:12Z</time>
      </trkpt>
      <trkpt lat="43.40925" lon="6.51974">
        <ele>250.399994</ele>
        <time>2011-09-07T15:06:30Z</time>
      </trkpt>
      <trkpt lat="43.40944" lon="6.51986">
        <ele>251.300003</ele>
        <time>2011-09-07T15:06:46Z</time>
      </trkpt>
      <trkpt lat="43.40954" lon="6.51988">
        <ele>250.5</ele>
        <time>2011-09-07T15:06:54Z</time>
      </trkpt>
      <trkpt lat="43.40957" lon="6.51989">
        <ele>250.100006</ele>
        <time>2011-09-07T15:06:57Z</time>
      </trkpt>
      <trkpt lat="43.40959" lon="6.51989">
        <ele>250</ele>
        <time>2011-09-07T15:06:58Z</time>
      </trkpt>
      <trkpt lat="43.4097" lon="6.51991">
        <ele>249.100006</ele>
        <time>2011-09-07T15:07:07Z</time>
      </trkpt>
      <trkpt lat="43.40977" lon="6.51991">
        <ele>248.399994</ele>
        <time>2011-09-07T15:07:12Z</time>
      </trkpt>
      <trkpt lat="43.40979" lon="6.51991">
        <ele>248.399994</ele>
        <time>2011-09-07T15:07:14Z</time>
      </trkpt>
      <trkpt lat="43.40995" lon="6.51999">
        <ele>246</ele>
        <time>2011-09-07T15:07:29Z</time>
      </trkpt>
      <trkpt lat="43.41005" lon="6.52002">
        <ele>244.899994</ele>
        <time>2011-09-07T15:07:38Z</time>
      </trkpt>
      <trkpt lat="43.41009" lon="6.52005">
        <ele>244.800003</ele>
        <time>2011-09-07T15:07:42Z</time>
      </trkpt>
      <trkpt lat="43.41011" lon="6.52005">
        <ele>244.800003</ele>
        <time>2011-09-07T15:07:43Z</time>
      </trkpt>
      <trkpt lat="43.4105" lon="6.52028">
        <ele>240.5</ele>
        <time>2011-09-07T15:08:17Z</time>
      </trkpt>
      <trkpt lat="43.41059" lon="6.52036">
        <ele>238.399994</ele>
        <time>2011-09-07T15:08:26Z</time>
      </trkpt>
      <trkpt lat="43.41098" lon="6.52055">
        <ele>235.5</ele>
        <time>2011-09-07T15:09:01Z</time>
      </trkpt>
      <trkpt lat="43.41105" lon="6.52059">
        <ele>234.899994</ele>
        <time>2011-09-07T15:09:07Z</time>
      </trkpt>
      <trkpt lat="43.4112" lon="6.5207">
        <ele>231.5</ele>
        <time>2011-09-07T15:09:23Z</time>
      </trkpt>
      <trkpt lat="43.41131" lon="6.52077">
        <ele>229.800003</ele>
        <time>2011-09-07T15:09:35Z</time>
      </trkpt>
      <trkpt lat="43.41142" lon="6.52083">
        <ele>229.199997</ele>
        <time>2011-09-07T15:09:46Z</time>
      </trkpt>
      <trkpt lat="43.41143" lon="6.52083">
        <ele>229</ele>
        <time>2011-09-07T15:09:48Z</time>
      </trkpt>
      <trkpt lat="43.41148" lon="6.52086">
        <ele>228</ele>
        <time>2011-09-07T15:09:53Z</time>
      </trkpt>
      <trkpt lat="43.4115" lon="6.52088">
        <ele>227.800003</ele>
        <time>2011-09-07T15:09:57Z</time>
      </trkpt>
      <trkpt lat="43.41159" lon="6.52091">
        <ele>226.899994</ele>
        <time>2011-09-07T15:10:06Z</time>
      </trkpt>
      <trkpt lat="43.41164" lon="6.52094">
        <ele>226.199997</ele>
        <time>2011-09-07T15:10:12Z</time>
      </trkpt>
      <trkpt lat="43.41167" lon="6.52094">
        <ele>225.5</ele>
        <time>2011-09-07T15:10:15Z</time>
      </trkpt>
      <trkpt lat="43.41169" lon="6.52096">
        <ele>224.699997</ele>
        <time>2011-09-07T15:10:18Z</time>
      </trkpt>
      <trkpt lat="43.41171" lon="6.52097">
        <ele>224.5</ele>
        <time>2011-09-07T15:10:21Z</time>
      </trkpt>
      <trkpt lat="43.41177" lon="6.521">
        <ele>223.399994</ele>
        <time>2011-09-07T15:10:28Z</time>
      </trkpt>
      <trkpt lat="43.41181" lon="6.52101">
        <ele>222.199997</ele>
        <time>2011-09-07T15:10:33Z</time>
      </trkpt>
      <trkpt lat="43.41185" lon="6.52103">
        <ele>220.699997</ele>
        <time>2011-09-07T15:10:38Z</time>
      </trkpt>
      <trkpt lat="43.41188" lon="6.52105">
        <ele>219.600006</ele>
        <time>2011-09-07T15:10:42Z</time>
      </trkpt>
      <trkpt lat="43.41192" lon="6.52107">
        <ele>219.100006</ele>
        <time>2011-09-07T15:10:47Z</time>
      </trkpt>
      <trkpt lat="43.41195" lon="6.52109">
        <ele>218.199997</ele>
        <time>2011-09-07T15:10:51Z</time>
      </trkpt>
      <trkpt lat="43.41198" lon="6.52109">
        <ele>217.899994</ele>
        <time>2011-09-07T15:10:54Z</time>
      </trkpt>
      <trkpt lat="43.412" lon="6.52111">
        <ele>217.5</ele>
        <time>2011-09-07T15:10:57Z</time>
      </trkpt>
      <trkpt lat="43.41204" lon="6.52112">
        <ele>216.699997</ele>
        <time>2011-09-07T15:11:02Z</time>
      </trkpt>
      <trkpt lat="43.41206" lon="6.52112">
        <ele>215.899994</ele>
        <time>2011-09-07T15:11:04Z</time>
      </trkpt>
      <trkpt lat="43.41208" lon="6.52113">
        <ele>215.699997</ele>
        <time>2011-09-07T15:11:08Z</time>
      </trkpt>
      <trkpt lat="43.41212" lon="6.52115">
        <ele>214.899994</ele>
        <time>2011-09-07T15:11:12Z</time>
      </trkpt>
      <trkpt lat="43.41212" lon="6.52115">
        <ele>214.699997</ele>
        <time>2011-09-07T15:11:13Z</time>
      </trkpt>
      <trkpt lat="43.41216" lon="6.52116">
        <ele>214.699997</ele>
        <time>2011-09-07T15:11:17Z</time>
      </trkpt>
      <trkpt lat="43.41219" lon="6.52117">
        <ele>214</ele>
        <time>2011-09-07T15:11:21Z</time>
      </trkpt>
      <trkpt lat="43.41222" lon="6.52119">
        <ele>213.5</ele>
        <time>2011-09-07T15:11:26Z</time>
      </trkpt>
      <trkpt lat="43.41228" lon="6.52122">
        <ele>212.300003</ele>
        <time>2011-09-07T15:11:35Z</time>
      </trkpt>
      <trkpt lat="43.41231" lon="6.52123">
        <ele>211.600006</ele>
        <time>2011-09-07T15:11:39Z</time>
      </trkpt>
      <trkpt lat="43.41232" lon="6.52124">
        <ele>211.800003</ele>
        <time>2011-09-07T15:11:41Z</time>
      </trkpt>
      <trkpt lat="43.41236" lon="6.52124">
        <ele>210.100006</ele>
        <time>2011-09-07T15:11:46Z</time>
      </trkpt>
      <trkpt lat="43.41239" lon="6.52124">
        <ele>210.5</ele>
        <time>2011-09-07T15:11:50Z</time>
      </trkpt>
      <trkpt lat="43.41244" lon="6.52125">
        <ele>211.199997</ele>
        <time>2011-09-07T15:11:55Z</time>
      </trkpt>
      <trkpt lat="43.41247" lon="6.52126">
        <ele>211</ele>
        <time>2011-09-07T15:11:59Z</time>
      </trkpt>
      <trkpt lat="43.41249" lon="6.52128">
        <ele>210.100006</ele>
        <time>2011-09-07T15:12:03Z</time>
      </trkpt>
      <trkpt lat="43.41251" lon="6.52129">
        <ele>210</ele>
        <time>2011-09-07T15:12:06Z</time>
      </trkpt>
      <trkpt lat="43.41253" lon="6.5213">
        <ele>209.300003</ele>
        <time>2011-09-07T15:12:08Z</time>
      </trkpt>
      <trkpt lat="43.41257" lon="6.52131">
        <ele>208.5</ele>
        <time>2011-09-07T15:12:12Z</time>
      </trkpt>
      <trkpt lat="43.4127" lon="6.52135">
        <ele>207.600006</ele>
        <time>2011-09-07T15:12:25Z</time>
      </trkpt>
      <trkpt lat="43.41274" lon="6.52137">
        <ele>207.899994</ele>
        <time>2011-09-07T15:12:30Z</time>
      </trkpt>
      <trkpt lat="43.41278" lon="6.52138">
        <ele>208</ele>
        <time>2011-09-07T15:12:35Z</time>
      </trkpt>
      <trkpt lat="43.41282" lon="6.5214">
        <ele>207.300003</ele>
        <time>2011-09-07T15:12:40Z</time>
      </trkpt>
      <trkpt lat="43.41283" lon="6.52141">
        <ele>206.699997</ele>
        <time>2011-09-07T15:12:42Z</time>
      </trkpt>
      <trkpt lat="43.41289" lon="6.52143">
        <ele>205.800003</ele>
        <time>2011-09-07T15:12:48Z</time>
      </trkpt>
      <trkpt lat="43.41292" lon="6.52144">
        <ele>205.5</ele>
        <time>2011-09-07T15:12:52Z</time>
      </trkpt>
      <trkpt lat="43.41294" lon="6.52146">
        <ele>204.899994</ele>
        <time>2011-09-07T15:12:55Z</time>
      </trkpt>
      <trkpt lat="43.41297" lon="6.52148">
        <ele>204.300003</ele>
        <time>2011-09-07T15:12:59Z</time>
      </trkpt>
      <trkpt lat="43.41305" lon="6.52153">
        <ele>203.199997</ele>
        <time>2011-09-07T15:13:09Z</time>
      </trkpt>
      <trkpt lat="43.41309" lon="6.52155">
        <ele>203</ele>
        <time>2011-09-07T15:13:15Z</time>
      </trkpt>
      <trkpt lat="43.41313" lon="6.52157">
        <ele>202</ele>
        <time>2011-09-07T15:13:21Z</time>
      </trkpt>
      <trkpt lat="43.41316" lon="6.5216">
        <ele>200.899994</ele>
        <time>2011-09-07T15:13:25Z</time>
      </trkpt>
      <trkpt lat="43.41319" lon="6.52162">
        <ele>200.600006</ele>
        <time>2011-09-07T15:13:29Z</time>
      </trkpt>
      <trkpt lat="43.41322" lon="6.52165">
        <ele>200</ele>
        <time>2011-09-07T15:13:35Z</time>
      </trkpt>
      <trkpt lat="43.41324" lon="6.52167">
        <ele>200.199997</ele>
        <time>2011-09-07T15:13:38Z</time>
      </trkpt>
      <trkpt lat="43.41328" lon="6.52171">
        <ele>200.199997</ele>
        <time>2011-09-07T15:13:44Z</time>
      </trkpt>
      <trkpt lat="43.41331" lon="6.52173">
        <ele>199.899994</ele>
        <time>2011-09-07T15:13:47Z</time>
      </trkpt>
      <trkpt lat="43.41335" lon="6.52178">
        <ele>198.5</ele>
        <time>2011-09-07T15:13:53Z</time>
      </trkpt>
      <trkpt lat="43.41338" lon="6.52182">
        <ele>196.899994</ele>
        <time>2011-09-07T15:13:58Z</time>
      </trkpt>
      <trkpt lat="43.41342" lon="6.52187">
        <ele>195.100006</ele>
        <time>2011-09-07T15:14:04Z</time>
      </trkpt>
      <trkpt lat="43.41344" lon="6.52188">
        <ele>195.300003</ele>
        <time>2011-09-07T15:14:06Z</time>
      </trkpt>
      <trkpt lat="43.41345" lon="6.52191">
        <ele>194.399994</ele>
        <time>2011-09-07T15:14:10Z</time>
      </trkpt>
      <trkpt lat="43.41348" lon="6.52195">
        <ele>193.800003</ele>
        <time>2011-09-07T15:14:15Z</time>
      </trkpt>
      <trkpt lat="43.41351" lon="6.522">
        <ele>193.100006</ele>
        <time>2011-09-07T15:14:21Z</time>
      </trkpt>
      <trkpt lat="43.41352" lon="6.52204">
        <ele>192.699997</ele>
        <time>2011-09-07T15:14:26Z</time>
      </trkpt>
      <trkpt lat="43.41353" lon="6.52206">
        <ele>192.5</ele>
        <time>2011-09-07T15:14:28Z</time>
      </trkpt>
      <trkpt lat="43.41354" lon="6.5221">
        <ele>192.600006</ele>
        <time>2011-09-07T15:14:31Z</time>
      </trkpt>
      <trkpt lat="43.41356" lon="6.52213">
        <ele>192</ele>
        <time>2011-09-07T15:14:34Z</time>
      </trkpt>
      <trkpt lat="43.41357" lon="6.52217">
        <ele>191.600006</ele>
        <time>2011-09-07T15:14:38Z</time>
      </trkpt>
      <trkpt lat="43.41358" lon="6.52219">
        <ele>191.800003</ele>
        <time>2011-09-07T15:14:40Z</time>
      </trkpt>
      <trkpt lat="43.4136" lon="6.52222">
        <ele>191.699997</ele>
        <time>2011-09-07T15:14:43Z</time>
      </trkpt>
      <trkpt lat="43.41362" lon="6.52226">
        <ele>191.600006</ele>
        <time>2011-09-07T15:14:46Z</time>
      </trkpt>
      <trkpt lat="43.41364" lon="6.52228">
        <ele>190.699997</ele>
        <time>2011-09-07T15:14:49Z</time>
      </trkpt>
      <trkpt lat="43.41367" lon="6.52231">
        <ele>190.800003</ele>
        <time>2011-09-07T15:14:52Z</time>
      </trkpt>
      <trkpt lat="43.41371" lon="6.52242">
        <ele>190.399994</ele>
        <time>2011-09-07T15:15:00Z</time>
      </trkpt>
      <trkpt lat="43.41372" lon="6.52243">
        <ele>190.5</ele>
        <time>2011-09-07T15:15:01Z</time>
      </trkpt>
      <trkpt lat="43.41374" lon="6.52247">
        <ele>191</ele>
        <time>2011-09-07T15:15:04Z</time>
      </trkpt>
      <trkpt lat="43.41377" lon="6.52252">
        <ele>191</ele>
        <time>2011-09-07T15:15:09Z</time>
      </trkpt>
      <trkpt lat="43.41378" lon="6.52253">
        <ele>191</ele>
        <time>2011-09-07T15:15:10Z</time>
      </trkpt>
      <trkpt lat="43.41389" lon="6.52267">
        <ele>191.5</ele>
        <time>2011-09-07T15:15:24Z</time>
      </trkpt>
      <trkpt lat="43.41392" lon="6.52271">
        <ele>191.600006</ele>
        <time>2011-09-07T15:15:29Z</time>
      </trkpt>
      <trkpt lat="43.41395" lon="6.52275">
        <ele>192.5</ele>
        <time>2011-09-07T15:15:33Z</time>
      </trkpt>
      <trkpt lat="43.41398" lon="6.52278">
        <ele>193.100006</ele>
        <time>2011-09-07T15:15:37Z</time>
      </trkpt>
      <trkpt lat="43.41399" lon="6.5228">
        <ele>193.600006</ele>
        <time>2011-09-07T15:15:39Z</time>
      </trkpt>
      <trkpt lat="43.41401" lon="6.52282">
        <ele>194.600006</ele>
        <time>2011-09-07T15:15:42Z</time>
      </trkpt>
      <trkpt lat="43.41404" lon="6.52286">
        <ele>195.199997</ele>
        <time>2011-09-07T15:15:46Z</time>
      </trkpt>
      <trkpt lat="43.41407" lon="6.5229">
        <ele>195.699997</ele>
        <time>2011-09-07T15:15:50Z</time>
      </trkpt>
      <trkpt lat="43.41409" lon="6.52292">
        <ele>196</ele>
        <time>2011-09-07T15:15:52Z</time>
      </trkpt>
      <trkpt lat="43.41413" lon="6.52297">
        <ele>197.5</ele>
        <time>2011-09-07T15:15:58Z</time>
      </trkpt>
      <trkpt lat="43.41416" lon="6.523">
        <ele>198.300003</ele>
        <time>2011-09-07T15:16:01Z</time>
      </trkpt>
      <trkpt lat="43.4142" lon="6.52304">
        <ele>199.899994</ele>
        <time>2011-09-07T15:16:06Z</time>
      </trkpt>
      <trkpt lat="43.41422" lon="6.52307">
        <ele>200.300003</ele>
        <time>2011-09-07T15:16:09Z</time>
      </trkpt>
      <trkpt lat="43.41428" lon="6.52313">
        <ele>201.300003</ele>
        <time>2011-09-07T15:16:16Z</time>
      </trkpt>
      <trkpt lat="43.41429" lon="6.52314">
        <ele>201.100006</ele>
        <time>2011-09-07T15:16:17Z</time>
      </trkpt>
      <trkpt lat="43.41439" lon="6.52321">
        <ele>200.600006</ele>
        <time>2011-09-07T15:16:27Z</time>
      </trkpt>
      <trkpt lat="43.41448" lon="6.5233">
        <ele>201.600006</ele>
        <time>2011-09-07T15:16:37Z</time>
      </trkpt>
      <trkpt lat="43.41452" lon="6.52332">
        <ele>201.5</ele>
        <time>2011-09-07T15:16:41Z</time>
      </trkpt>
      <trkpt lat="43.41465" lon="6.52342">
        <ele>200.600006</ele>
        <time>2011-09-07T15:16:56Z</time>
      </trkpt>
      <trkpt lat="43.41469" lon="6.52344">
        <ele>200.399994</ele>
        <time>2011-09-07T15:17:01Z</time>
      </trkpt>
      <trkpt lat="43.41469" lon="6.52344">
        <ele>200</ele>
        <time>2011-09-07T15:17:02Z</time>
      </trkpt>
      <trkpt lat="43.41469" lon="6.52345">
        <ele>199.800003</ele>
        <time>2011-09-07T15:17:08Z</time>
      </trkpt>
      <trkpt lat="43.41469" lon="6.52346">
        <ele>200.199997</ele>
        <time>2011-09-07T15:17:21Z</time>
      </trkpt>
      <trkpt lat="43.41472" lon="6.52347">
        <ele>202</ele>
        <time>2011-09-07T15:17:53Z</time>
      </trkpt>
      <trkpt lat="43.41473" lon="6.52346">
        <ele>201.399994</ele>
        <time>2011-09-07T15:18:13Z</time>
      </trkpt>
      <trkpt lat="43.41474" lon="6.52345">
        <ele>200.899994</ele>
        <time>2011-09-07T15:18:22Z</time>
      </trkpt>
      <trkpt lat="43.41474" lon="6.52345">
        <ele>200.600006</ele>
        <time>2011-09-07T15:18:36Z</time>
      </trkpt>
      <trkpt lat="43.41474" lon="6.52345">
        <ele>200.300003</ele>
        <time>2011-09-07T15:18:52Z</time>
      </trkpt>
      <trkpt lat="43.41475" lon="6.52345">
        <ele>200.399994</ele>
        <time>2011-09-07T15:19:00Z</time>
      </trkpt>
      <trkpt lat="43.41476" lon="6.52345">
        <ele>199.800003</ele>
        <time>2011-09-07T15:19:48Z</time>
      </trkpt>
      <trkpt lat="43.41476" lon="6.52346">
        <ele>200.5</ele>
        <time>2011-09-07T15:20:00Z</time>
      </trkpt>
      <trkpt lat="43.41475" lon="6.52347">
        <ele>200.199997</ele>
        <time>2011-09-07T15:20:06Z</time>
      </trkpt>
      <trkpt lat="43.41474" lon="6.52346">
        <ele>200</ele>
        <time>2011-09-07T15:20:17Z</time>
      </trkpt>
      <trkpt lat="43.41475" lon="6.52346">
        <ele>200.199997</ele>
        <time>2011-09-07T15:20:30Z</time>
      </trkpt>
      <trkpt lat="43.41475" lon="6.52346">
        <ele>200</ele>
        <time>2011-09-07T15:20:44Z</time>
      </trkpt>
      <trkpt lat="43.41479" lon="6.52348">
        <ele>199.899994</ele>
        <time>2011-09-07T15:20:49Z</time>
      </trkpt>
      <trkpt lat="43.41486" lon="6.52353">
        <ele>199.600006</ele>
        <time>2011-09-07T15:20:56Z</time>
      </trkpt>
      <trkpt lat="43.41492" lon="6.52356">
        <ele>199.399994</ele>
        <time>2011-09-07T15:21:03Z</time>
      </trkpt>
      <trkpt lat="43.41497" lon="6.52359">
        <ele>198.699997</ele>
        <time>2011-09-07T15:21:08Z</time>
      </trkpt>
      <trkpt lat="43.41498" lon="6.52359">
        <ele>198.5</ele>
        <time>2011-09-07T15:21:10Z</time>
      </trkpt>
      <trkpt lat="43.41502" lon="6.52361">
        <ele>198.100006</ele>
        <time>2011-09-07T15:21:15Z</time>
      </trkpt>
      <trkpt lat="43.41507" lon="6.52363">
        <ele>196.899994</ele>
        <time>2011-09-07T15:21:20Z</time>
      </trkpt>
      <trkpt lat="43.4151" lon="6.52364">
        <ele>195.699997</ele>
        <time>2011-09-07T15:21:25Z</time>
      </trkpt>
      <trkpt lat="43.41513" lon="6.52366">
        <ele>195.300003</ele>
        <time>2011-09-07T15:21:29Z</time>
      </trkpt>
      <trkpt lat="43.41517" lon="6.52366">
        <ele>194.399994</ele>
        <time>2011-09-07T15:21:33Z</time>
      </trkpt>
      <trkpt lat="43.41519" lon="6.52367">
        <ele>193.899994</ele>
        <time>2011-09-07T15:21:35Z</time>
      </trkpt>
      <trkpt lat="43.41522" lon="6.52368">
        <ele>193.399994</ele>
        <time>2011-09-07T15:21:39Z</time>
      </trkpt>
      <trkpt lat="43.41526" lon="6.52368">
        <ele>193.399994</ele>
        <time>2011-09-07T15:21:43Z</time>
      </trkpt>
      <trkpt lat="43.4153" lon="6.52367">
        <ele>192.100006</ele>
        <time>2011-09-07T15:21:48Z</time>
      </trkpt>
      <trkpt lat="43.41531" lon="6.52368">
        <ele>191.899994</ele>
        <time>2011-09-07T15:21:49Z</time>
      </trkpt>
      <trkpt lat="43.41541" lon="6.52368">
        <ele>189.699997</ele>
        <time>2011-09-07T15:21:58Z</time>
      </trkpt>
      <trkpt lat="43.41548" lon="6.52366">
        <ele>190.399994</ele>
        <time>2011-09-07T15:22:05Z</time>
      </trkpt>
      <trkpt lat="43.41554" lon="6.52365">
        <ele>188</ele>
        <time>2011-09-07T15:22:11Z</time>
      </trkpt>
      <trkpt lat="43.41556" lon="6.52365">
        <ele>187.100006</ele>
        <time>2011-09-07T15:22:13Z</time>
      </trkpt>
      <trkpt lat="43.4156" lon="6.52365">
        <ele>186.699997</ele>
        <time>2011-09-07T15:22:17Z</time>
      </trkpt>
      <trkpt lat="43.41562" lon="6.52364">
        <ele>186</ele>
        <time>2011-09-07T15:22:19Z</time>
      </trkpt>
      <trkpt lat="43.41565" lon="6.52364">
        <ele>185.899994</ele>
        <time>2011-09-07T15:22:22Z</time>
      </trkpt>
      <trkpt lat="43.41567" lon="6.52363">
        <ele>185.100006</ele>
        <time>2011-09-07T15:22:24Z</time>
      </trkpt>
      <trkpt lat="43.4158" lon="6.52359">
        <ele>182</ele>
        <time>2011-09-07T15:22:37Z</time>
      </trkpt>
      <trkpt lat="43.41582" lon="6.52358">
        <ele>181.600006</ele>
        <time>2011-09-07T15:22:39Z</time>
      </trkpt>
      <trkpt lat="43.41588" lon="6.52356">
        <ele>180.199997</ele>
        <time>2011-09-07T15:22:45Z</time>
      </trkpt>
      <trkpt lat="43.41603" lon="6.52348">
        <ele>177.100006</ele>
        <time>2011-09-07T15:22:59Z</time>
      </trkpt>
      <trkpt lat="43.41606" lon="6.52344">
        <ele>176.800003</ele>
        <time>2011-09-07T15:23:03Z</time>
      </trkpt>
      <trkpt lat="43.41609" lon="6.52342">
        <ele>176</ele>
        <time>2011-09-07T15:23:06Z</time>
      </trkpt>
      <trkpt lat="43.41614" lon="6.5234">
        <ele>175</ele>
        <time>2011-09-07T15:23:11Z</time>
      </trkpt>
      <trkpt lat="43.41617" lon="6.52338">
        <ele>174.699997</ele>
        <time>2011-09-07T15:23:14Z</time>
      </trkpt>
      <trkpt lat="43.41619" lon="6.52337">
        <ele>174.699997</ele>
        <time>2011-09-07T15:23:16Z</time>
      </trkpt>
      <trkpt lat="43.41622" lon="6.52336">
        <ele>173.600006</ele>
        <time>2011-09-07T15:23:19Z</time>
      </trkpt>
      <trkpt lat="43.41625" lon="6.52336">
        <ele>173.399994</ele>
        <time>2011-09-07T15:23:22Z</time>
      </trkpt>
      <trkpt lat="43.41646" lon="6.52332">
        <ele>170.199997</ele>
        <time>2011-09-07T15:23:40Z</time>
      </trkpt>
      <trkpt lat="43.41655" lon="6.5233">
        <ele>168.5</ele>
        <time>2011-09-07T15:23:48Z</time>
      </trkpt>
      <trkpt lat="43.41656" lon="6.5233">
        <ele>168.5</ele>
        <time>2011-09-07T15:23:49Z</time>
      </trkpt>
      <trkpt lat="43.41669" lon="6.52329">
        <ele>166.399994</ele>
        <time>2011-09-07T15:24:00Z</time>
      </trkpt>
      <trkpt lat="43.4168" lon="6.52329">
        <ele>164.899994</ele>
        <time>2011-09-07T15:24:09Z</time>
      </trkpt>
      <trkpt lat="43.41681" lon="6.52328">
        <ele>164.899994</ele>
        <time>2011-09-07T15:24:10Z</time>
      </trkpt>
      <trkpt lat="43.41713" lon="6.52325">
        <ele>162.899994</ele>
        <time>2011-09-07T15:24:36Z</time>
      </trkpt>
      <trkpt lat="43.4173" lon="6.52325">
        <ele>162.399994</ele>
        <time>2011-09-07T15:24:50Z</time>
      </trkpt>
      <trkpt lat="43.41748" lon="6.52325">
        <ele>162.300003</ele>
        <time>2011-09-07T15:25:05Z</time>
      </trkpt>
      <trkpt lat="43.41753" lon="6.52325">
        <ele>162.5</ele>
        <time>2011-09-07T15:25:10Z</time>
      </trkpt>
      <trkpt lat="43.41769" lon="6.52326">
        <ele>161.399994</ele>
        <time>2011-09-07T15:25:23Z</time>
      </trkpt>
      <trkpt lat="43.4178" lon="6.52325">
        <ele>161.199997</ele>
        <time>2011-09-07T15:25:32Z</time>
      </trkpt>
      <trkpt lat="43.41807" lon="6.52327">
        <ele>159.699997</ele>
        <time>2011-09-07T15:25:54Z</time>
      </trkpt>
      <trkpt lat="43.41858" lon="6.52344">
        <ele>159.600006</ele>
        <time>2011-09-07T15:26:40Z</time>
      </trkpt>
      <trkpt lat="43.41863" lon="6.52347">
        <ele>159.399994</ele>
        <time>2011-09-07T15:26:45Z</time>
      </trkpt>
      <trkpt lat="43.41873" lon="6.5235">
        <ele>159.199997</ele>
        <time>2011-09-07T15:26:53Z</time>
      </trkpt>
      <trkpt lat="43.41878" lon="6.5235">
        <ele>158.899994</ele>
        <time>2011-09-07T15:26:57Z</time>
      </trkpt>
      <trkpt lat="43.41896" lon="6.52347">
        <ele>156.600006</ele>
        <time>2011-09-07T15:27:12Z</time>
      </trkpt>
      <trkpt lat="43.4191" lon="6.52344">
        <ele>153.899994</ele>
        <time>2011-09-07T15:27:24Z</time>
      </trkpt>
      <trkpt lat="43.41912" lon="6.52344">
        <ele>153.300003</ele>
        <time>2011-09-07T15:27:26Z</time>
      </trkpt>
      <trkpt lat="43.41917" lon="6.52343">
        <ele>152.600006</ele>
        <time>2011-09-07T15:27:31Z</time>
      </trkpt>
      <trkpt lat="43.41923" lon="6.52341">
        <ele>151.300003</ele>
        <time>2011-09-07T15:27:37Z</time>
      </trkpt>
      <trkpt lat="43.41924" lon="6.5234">
        <ele>151.300003</ele>
        <time>2011-09-07T15:27:38Z</time>
      </trkpt>
      <trkpt lat="43.41949" lon="6.52333">
        <ele>148.399994</ele>
        <time>2011-09-07T15:28:00Z</time>
      </trkpt>
      <trkpt lat="43.41963" lon="6.52332">
        <ele>147.800003</ele>
        <time>2011-09-07T15:28:11Z</time>
      </trkpt>
      <trkpt lat="43.41966" lon="6.52332">
        <ele>148</ele>
        <time>2011-09-07T15:28:14Z</time>
      </trkpt>
      <trkpt lat="43.42003" lon="6.52338">
        <ele>142.800003</ele>
        <time>2011-09-07T15:28:47Z</time>
      </trkpt>
      <trkpt lat="43.42007" lon="6.52338">
        <ele>141.800003</ele>
        <time>2011-09-07T15:28:51Z</time>
      </trkpt>
      <trkpt lat="43.42011" lon="6.52338">
        <ele>141.600006</ele>
        <time>2011-09-07T15:28:56Z</time>
      </trkpt>
      <trkpt lat="43.42015" lon="6.5234">
        <ele>140.300003</ele>
        <time>2011-09-07T15:29:01Z</time>
      </trkpt>
      <trkpt lat="43.42018" lon="6.5234">
        <ele>139.899994</ele>
        <time>2011-09-07T15:29:04Z</time>
      </trkpt>
      <trkpt lat="43.42023" lon="6.52341">
        <ele>138.699997</ele>
        <time>2011-09-07T15:29:10Z</time>
      </trkpt>
      <trkpt lat="43.42027" lon="6.52342">
        <ele>138.199997</ele>
        <time>2011-09-07T15:29:14Z</time>
      </trkpt>
      <trkpt lat="43.42031" lon="6.52342">
        <ele>137.300003</ele>
        <time>2011-09-07T15:29:18Z</time>
      </trkpt>
      <trkpt lat="43.42035" lon="6.52342">
        <ele>136.399994</ele>
        <time>2011-09-07T15:29:22Z</time>
      </trkpt>
      <trkpt lat="43.42038" lon="6.52343">
        <ele>136</ele>
        <time>2011-09-07T15:29:25Z</time>
      </trkpt>
      <trkpt lat="43.42044" lon="6.52343">
        <ele>135</ele>
        <time>2011-09-07T15:29:31Z</time>
      </trkpt>
      <trkpt lat="43.42048" lon="6.52343">
        <ele>133.699997</ele>
        <time>2011-09-07T15:29:35Z</time>
      </trkpt>
      <trkpt lat="43.42052" lon="6.52343">
        <ele>132.600006</ele>
        <time>2011-09-07T15:29:40Z</time>
      </trkpt>
      <trkpt lat="43.42054" lon="6.52342">
        <ele>132.199997</ele>
        <time>2011-09-07T15:29:43Z</time>
      </trkpt>
      <trkpt lat="43.42057" lon="6.52344">
        <ele>131.300003</ele>
        <time>2011-09-07T15:29:47Z</time>
      </trkpt>
      <trkpt lat="43.42062" lon="6.52347">
        <ele>129.100006</ele>
        <time>2011-09-07T15:29:54Z</time>
      </trkpt>
      <trkpt lat="43.42066" lon="6.52349">
        <ele>128.5</ele>
        <time>2011-09-07T15:29:59Z</time>
      </trkpt>
      <trkpt lat="43.4207" lon="6.5235">
        <ele>127.800003</ele>
        <time>2011-09-07T15:30:03Z</time>
      </trkpt>
      <trkpt lat="43.42074" lon="6.52351">
        <ele>126.800003</ele>
        <time>2011-09-07T15:30:08Z</time>
      </trkpt>
      <trkpt lat="43.42076" lon="6.52352">
        <ele>126.099998</ele>
        <time>2011-09-07T15:30:10Z</time>
      </trkpt>
      <trkpt lat="43.4208" lon="6.52353">
        <ele>125.400002</ele>
        <time>2011-09-07T15:30:15Z</time>
      </trkpt>
      <trkpt lat="43.42082" lon="6.52354">
        <ele>125</ele>
        <time>2011-09-07T15:30:18Z</time>
      </trkpt>
      <trkpt lat="43.42085" lon="6.52355">
        <ele>124.800003</ele>
        <time>2011-09-07T15:30:21Z</time>
      </trkpt>
      <trkpt lat="43.421" lon="6.52362">
        <ele>120.599998</ele>
        <time>2011-09-07T15:30:35Z</time>
      </trkpt>
      <trkpt lat="43.42119" lon="6.52371">
        <ele>116</ele>
        <time>2011-09-07T15:30:54Z</time>
      </trkpt>
      <trkpt lat="43.42123" lon="6.52373">
        <ele>114.900002</ele>
        <time>2011-09-07T15:30:58Z</time>
      </trkpt>
      <trkpt lat="43.42129" lon="6.52375">
        <ele>113.599998</ele>
        <time>2011-09-07T15:31:04Z</time>
      </trkpt>
      <trkpt lat="43.42133" lon="6.52376">
        <ele>112.599998</ele>
        <time>2011-09-07T15:31:08Z</time>
      </trkpt>
      <trkpt lat="43.42135" lon="6.52377">
        <ele>112.400002</ele>
        <time>2011-09-07T15:31:11Z</time>
      </trkpt>
      <trkpt lat="43.42138" lon="6.52379">
        <ele>111.300003</ele>
        <time>2011-09-07T15:31:15Z</time>
      </trkpt>
      <trkpt lat="43.4214" lon="6.5238">
        <ele>111.099998</ele>
        <time>2011-09-07T15:31:17Z</time>
      </trkpt>
      <trkpt lat="43.42147" lon="6.52382">
        <ele>109.300003</ele>
        <time>2011-09-07T15:31:24Z</time>
      </trkpt>
      <trkpt lat="43.42155" lon="6.52385">
        <ele>107.5</ele>
        <time>2011-09-07T15:31:32Z</time>
      </trkpt>
      <trkpt lat="43.42156" lon="6.52385">
        <ele>107.099998</ele>
        <time>2011-09-07T15:31:34Z</time>
      </trkpt>
      <trkpt lat="43.4216" lon="6.52387">
        <ele>106.5</ele>
        <time>2011-09-07T15:31:37Z</time>
      </trkpt>
      <trkpt lat="43.42171" lon="6.52389">
        <ele>104.800003</ele>
        <time>2011-09-07T15:31:46Z</time>
      </trkpt>
      <trkpt lat="43.42171" lon="6.5239">
        <ele>104.400002</ele>
        <time>2011-09-07T15:31:47Z</time>
      </trkpt>
      <trkpt lat="43.42175" lon="6.52392">
        <ele>104</ele>
        <time>2011-09-07T15:31:51Z</time>
      </trkpt>
      <trkpt lat="43.42176" lon="6.52392">
        <ele>103.900002</ele>
        <time>2011-09-07T15:31:52Z</time>
      </trkpt>
      <trkpt lat="43.4218" lon="6.52393">
        <ele>103.300003</ele>
        <time>2011-09-07T15:31:56Z</time>
      </trkpt>
      <trkpt lat="43.42185" lon="6.52394">
        <ele>102.300003</ele>
        <time>2011-09-07T15:32:00Z</time>
      </trkpt>
      <trkpt lat="43.42195" lon="6.52398">
        <ele>101.199997</ele>
        <time>2011-09-07T15:32:09Z</time>
      </trkpt>
      <trkpt lat="43.42218" lon="6.52409">
        <ele>98.099998</ele>
        <time>2011-09-07T15:32:28Z</time>
      </trkpt>
      <trkpt lat="43.4224" lon="6.52433">
        <ele>94.199997</ele>
        <time>2011-09-07T15:32:52Z</time>
      </trkpt>
      <trkpt lat="43.42242" lon="6.52435">
        <ele>94.199997</ele>
        <time>2011-09-07T15:32:55Z</time>
      </trkpt>
      <trkpt lat="43.4225" lon="6.52439">
        <ele>93.5</ele>
        <time>2011-09-07T15:33:01Z</time>
      </trkpt>
      <trkpt lat="43.42256" lon="6.52444">
        <ele>91.900002</ele>
        <time>2011-09-07T15:33:07Z</time>
      </trkpt>
      <trkpt lat="43.42257" lon="6.52445">
        <ele>91.599998</ele>
        <time>2011-09-07T15:33:09Z</time>
      </trkpt>
      <trkpt lat="43.42263" lon="6.5245">
        <ele>90.400002</ele>
        <time>2011-09-07T15:33:15Z</time>
      </trkpt>
      <trkpt lat="43.42266" lon="6.52452">
        <ele>89.900002</ele>
        <time>2011-09-07T15:33:17Z</time>
      </trkpt>
      <trkpt lat="43.4227" lon="6.52456">
        <ele>90.300003</ele>
        <time>2011-09-07T15:33:21Z</time>
      </trkpt>
      <trkpt lat="43.42274" lon="6.5246">
        <ele>89.800003</ele>
        <time>2011-09-07T15:33:26Z</time>
      </trkpt>
      <trkpt lat="43.42276" lon="6.52462">
        <ele>89.300003</ele>
        <time>2011-09-07T15:33:28Z</time>
      </trkpt>
      <trkpt lat="43.42284" lon="6.52475">
        <ele>86.699997</ele>
        <time>2011-09-07T15:33:39Z</time>
      </trkpt>
      <trkpt lat="43.42285" lon="6.52476">
        <ele>86.300003</ele>
        <time>2011-09-07T15:33:40Z</time>
      </trkpt>
      <trkpt lat="43.42291" lon="6.52485">
        <ele>86.199997</ele>
        <time>2011-09-07T15:33:47Z</time>
      </trkpt>
      <trkpt lat="43.42292" lon="6.52487">
        <ele>86.099998</ele>
        <time>2011-09-07T15:33:49Z</time>
      </trkpt>
      <trkpt lat="43.42294" lon="6.52491">
        <ele>85.599998</ele>
        <time>2011-09-07T15:33:52Z</time>
      </trkpt>
      <trkpt lat="43.42295" lon="6.52492">
        <ele>85.699997</ele>
        <time>2011-09-07T15:33:53Z</time>
      </trkpt>
      <trkpt lat="43.42307" lon="6.52507">
        <ele>84.300003</ele>
        <time>2011-09-07T15:34:07Z</time>
      </trkpt>
      <trkpt lat="43.42309" lon="6.52509">
        <ele>83.599998</ele>
        <time>2011-09-07T15:34:09Z</time>
      </trkpt>
      <trkpt lat="43.42313" lon="6.52514">
        <ele>82.699997</ele>
        <time>2011-09-07T15:34:13Z</time>
      </trkpt>
      <trkpt lat="43.42316" lon="6.52522">
        <ele>81.800003</ele>
        <time>2011-09-07T15:34:19Z</time>
      </trkpt>
      <trkpt lat="43.42319" lon="6.52525">
        <ele>81.900002</ele>
        <time>2011-09-07T15:34:22Z</time>
      </trkpt>
      <trkpt lat="43.42319" lon="6.52527">
        <ele>81.599998</ele>
        <time>2011-09-07T15:34:24Z</time>
      </trkpt>
      <trkpt lat="43.4232" lon="6.5253">
        <ele>81.400002</ele>
        <time>2011-09-07T15:34:27Z</time>
      </trkpt>
      <trkpt lat="43.42321" lon="6.52531">
        <ele>81.300003</ele>
        <time>2011-09-07T15:34:29Z</time>
      </trkpt>
      <trkpt lat="43.42322" lon="6.52535">
        <ele>80.699997</ele>
        <time>2011-09-07T15:34:33Z</time>
      </trkpt>
      <trkpt lat="43.42323" lon="6.52537">
        <ele>80.300003</ele>
        <time>2011-09-07T15:34:38Z</time>
      </trkpt>
      <trkpt lat="43.42322" lon="6.52539">
        <ele>81.099998</ele>
        <time>2011-09-07T15:35:12Z</time>
      </trkpt>
      <trkpt lat="43.42323" lon="6.52539">
        <ele>81.099998</ele>
        <time>2011-09-07T15:35:18Z</time>
      </trkpt>
      <trkpt lat="43.42324" lon="6.52538">
        <ele>80.800003</ele>
        <time>2011-09-07T15:35:22Z</time>
      </trkpt>
      <trkpt lat="43.42325" lon="6.52539">
        <ele>80.699997</ele>
        <time>2011-09-07T15:35:25Z</time>
      </trkpt>
      <trkpt lat="43.42324" lon="6.5254">
        <ele>80.800003</ele>
        <time>2011-09-07T15:35:28Z</time>
      </trkpt>
      <trkpt lat="43.42324" lon="6.52541">
        <ele>80.599998</ele>
        <time>2011-09-07T15:35:32Z</time>
      </trkpt>
      <trkpt lat="43.4232" lon="6.52541">
        <ele>80.199997</ele>
        <time>2011-09-07T15:35:44Z</time>
      </trkpt>
      <trkpt lat="43.42319" lon="6.52541">
        <ele>80.300003</ele>
        <time>2011-09-07T15:35:55Z</time>
      </trkpt>
      <trkpt lat="43.42321" lon="6.52542">
        <ele>80.5</ele>
        <time>2011-09-07T15:36:01Z</time>
      </trkpt>
      <trkpt lat="43.42322" lon="6.52543">
        <ele>80.800003</ele>
        <time>2011-09-07T15:36:14Z</time>
      </trkpt>
      <trkpt lat="43.42326" lon="6.52544">
        <ele>80.699997</ele>
        <time>2011-09-07T15:36:26Z</time>
      </trkpt>
      <trkpt lat="43.42326" lon="6.52545">
        <ele>80.599998</ele>
        <time>2011-09-07T15:36:29Z</time>
      </trkpt>
      <trkpt lat="43.42327" lon="6.52545">
        <ele>80.400002</ele>
        <time>2011-09-07T15:36:37Z</time>
      </trkpt>
      <trkpt lat="43.42325" lon="6.52546">
        <ele>80.699997</ele>
        <time>2011-09-07T15:36:41Z</time>
      </trkpt>
      <trkpt lat="43.42324" lon="6.52546">
        <ele>81.800003</ele>
        <time>2011-09-07T15:36:51Z</time>
      </trkpt>
      <trkpt lat="43.42326" lon="6.52545">
        <ele>81.699997</ele>
        <time>2011-09-07T15:36:54Z</time>
      </trkpt>
      <trkpt lat="43.42329" lon="6.52545">
        <ele>81.5</ele>
        <time>2011-09-07T15:37:24Z</time>
      </trkpt>
      <trkpt lat="43.42328" lon="6.52545">
        <ele>81.599998</ele>
        <time>2011-09-07T15:37:28Z</time>
      </trkpt>
      <trkpt lat="43.42327" lon="6.52545">
        <ele>81.599998</ele>
        <time>2011-09-07T15:37:30Z</time>
      </trkpt>
      <trkpt lat="43.42326" lon="6.52545">
        <ele>80.900002</ele>
        <time>2011-09-07T15:37:37Z</time>
      </trkpt>
      <trkpt lat="43.42328" lon="6.52546">
        <ele>80.699997</ele>
        <time>2011-09-07T15:37:43Z</time>
      </trkpt>
      <trkpt lat="43.42328" lon="6.52547">
        <ele>80.400002</ele>
        <time>2011-09-07T15:37:47Z</time>
      </trkpt>
      <trkpt lat="43.42328" lon="6.52547">
        <ele>80.5</ele>
        <time>2011-09-07T15:37:57Z</time>
      </trkpt>
      <trkpt lat="43.42328" lon="6.52546">
        <ele>80.800003</ele>
        <time>2011-09-07T15:38:02Z</time>
      </trkpt>
      <trkpt lat="43.4233" lon="6.52546">
        <ele>80.699997</ele>
        <time>2011-09-07T15:38:16Z</time>
      </trkpt>
      <trkpt lat="43.42328" lon="6.52547">
        <ele>80.800003</ele>
        <time>2011-09-07T15:38:25Z</time>
      </trkpt>
      <trkpt lat="43.42328" lon="6.52547">
        <ele>81</ele>
        <time>2011-09-07T15:38:31Z</time>
      </trkpt>
      <trkpt lat="43.42325" lon="6.52549">
        <ele>80.599998</ele>
        <time>2011-09-07T15:38:36Z</time>
      </trkpt>
      <trkpt lat="43.42323" lon="6.52551">
        <ele>80.900002</ele>
        <time>2011-09-07T15:38:42Z</time>
      </trkpt>
      <trkpt lat="43.42321" lon="6.52551">
        <ele>81.099998</ele>
        <time>2011-09-07T15:38:49Z</time>
      </trkpt>
      <trkpt lat="43.42319" lon="6.52548">
        <ele>81.199997</ele>
        <time>2011-09-07T15:39:01Z</time>
      </trkpt>
      <trkpt lat="43.42319" lon="6.52549">
        <ele>81.199997</ele>
        <time>2011-09-07T15:39:06Z</time>
      </trkpt>
      <trkpt lat="43.4232" lon="6.52551">
        <ele>81.400002</ele>
        <time>2011-09-07T15:39:12Z</time>
      </trkpt>
      <trkpt lat="43.4232" lon="6.5255">
        <ele>81.099998</ele>
        <time>2011-09-07T15:39:15Z</time>
      </trkpt>
      <trkpt lat="43.42318" lon="6.52545">
        <ele>81.300003</ele>
        <time>2011-09-07T15:39:26Z</time>
      </trkpt>
      <trkpt lat="43.42319" lon="6.52544">
        <ele>81.199997</ele>
        <time>2011-09-07T15:39:32Z</time>
      </trkpt>
      <trkpt lat="43.42321" lon="6.52544">
        <ele>81.599998</ele>
        <time>2011-09-07T15:39:35Z</time>
      </trkpt>
      <trkpt lat="43.42324" lon="6.52545">
        <ele>81.5</ele>
        <time>2011-09-07T15:39:38Z</time>
      </trkpt>
      <trkpt lat="43.42325" lon="6.52546">
        <ele>81.599998</ele>
        <time>2011-09-07T15:39:40Z</time>
      </trkpt>
      <trkpt lat="43.4233" lon="6.52548">
        <ele>80.900002</ele>
        <time>2011-09-07T15:39:44Z</time>
      </trkpt>
      <trkpt lat="43.42334" lon="6.52548">
        <ele>80.5</ele>
        <time>2011-09-07T15:39:47Z</time>
      </trkpt>
      <trkpt lat="43.4236" lon="6.5256">
        <ele>78.900002</ele>
        <time>2011-09-07T15:40:08Z</time>
      </trkpt>
      <trkpt lat="43.42361" lon="6.52561">
        <ele>79.099998</ele>
        <time>2011-09-07T15:40:09Z</time>
      </trkpt>
      <trkpt lat="43.42374" lon="6.52567">
        <ele>78.699997</ele>
        <time>2011-09-07T15:40:19Z</time>
      </trkpt>
      <trkpt lat="43.42396" lon="6.52571">
        <ele>79.099998</ele>
        <time>2011-09-07T15:40:37Z</time>
      </trkpt>
      <trkpt lat="43.42399" lon="6.52571">
        <ele>79.099998</ele>
        <time>2011-09-07T15:40:40Z</time>
      </trkpt>
      <trkpt lat="43.4241" lon="6.52572">
        <ele>79.400002</ele>
        <time>2011-09-07T15:40:49Z</time>
      </trkpt>
      <trkpt lat="43.42411" lon="6.52572">
        <ele>79.199997</ele>
        <time>2011-09-07T15:40:50Z</time>
      </trkpt>
      <trkpt lat="43.42424" lon="6.52573">
        <ele>79</ele>
        <time>2011-09-07T15:41:02Z</time>
      </trkpt>
      <trkpt lat="43.42427" lon="6.52574">
        <ele>78.900002</ele>
        <time>2011-09-07T15:41:05Z</time>
      </trkpt>
      <trkpt lat="43.42432" lon="6.52573">
        <ele>78.699997</ele>
        <time>2011-09-07T15:41:09Z</time>
      </trkpt>
      <trkpt lat="43.42433" lon="6.52573">
        <ele>78.400002</ele>
        <time>2011-09-07T15:41:10Z</time>
      </trkpt>
      <trkpt lat="43.42445" lon="6.52569">
        <ele>77.199997</ele>
        <time>2011-09-07T15:41:19Z</time>
      </trkpt>
      <trkpt lat="43.42446" lon="6.52568">
        <ele>77</ele>
        <time>2011-09-07T15:41:20Z</time>
      </trkpt>
      <trkpt lat="43.42485" lon="6.52546">
        <ele>77.199997</ele>
        <time>2011-09-07T15:41:52Z</time>
      </trkpt>
      <trkpt lat="43.42491" lon="6.52542">
        <ele>76.800003</ele>
        <time>2011-09-07T15:41:58Z</time>
      </trkpt>
      <trkpt lat="43.42492" lon="6.52541">
        <ele>76.599998</ele>
        <time>2011-09-07T15:41:59Z</time>
      </trkpt>
      <trkpt lat="43.42498" lon="6.52539">
        <ele>76.699997</ele>
        <time>2011-09-07T15:42:04Z</time>
      </trkpt>
      <trkpt lat="43.42504" lon="6.52535">
        <ele>76.400002</ele>
        <time>2011-09-07T15:42:10Z</time>
      </trkpt>
      <trkpt lat="43.42518" lon="6.52534">
        <ele>76.099998</ele>
        <time>2011-09-07T15:42:22Z</time>
      </trkpt>
      <trkpt lat="43.42528" lon="6.52536">
        <ele>76.400002</ele>
        <time>2011-09-07T15:42:31Z</time>
      </trkpt>
      <trkpt lat="43.42538" lon="6.5254">
        <ele>76.400002</ele>
        <time>2011-09-07T15:42:39Z</time>
      </trkpt>
      <trkpt lat="43.42543" lon="6.52543">
        <ele>75.800003</ele>
        <time>2011-09-07T15:42:44Z</time>
      </trkpt>
      <trkpt lat="43.42552" lon="6.52546">
        <ele>75.5</ele>
        <time>2011-09-07T15:42:52Z</time>
      </trkpt>
      <trkpt lat="43.42556" lon="6.52548">
        <ele>75.400002</ele>
        <time>2011-09-07T15:42:55Z</time>
      </trkpt>
      <trkpt lat="43.42567" lon="6.52553">
        <ele>75.800003</ele>
        <time>2011-09-07T15:43:05Z</time>
      </trkpt>
      <trkpt lat="43.42572" lon="6.52557">
        <ele>75.800003</ele>
        <time>2011-09-07T15:43:10Z</time>
      </trkpt>
      <trkpt lat="43.42574" lon="6.52557">
        <ele>75.900002</ele>
        <time>2011-09-07T15:43:12Z</time>
      </trkpt>
      <trkpt lat="43.42578" lon="6.52558">
        <ele>76.599998</ele>
        <time>2011-09-07T15:43:15Z</time>
      </trkpt>
      <trkpt lat="43.42582" lon="6.52559">
        <ele>76.599998</ele>
        <time>2011-09-07T15:43:18Z</time>
      </trkpt>
      <trkpt lat="43.42598" lon="6.52561">
        <ele>76.599998</ele>
        <time>2011-09-07T15:43:29Z</time>
      </trkpt>
      <trkpt lat="43.42603" lon="6.52561">
        <ele>76.199997</ele>
        <time>2011-09-07T15:43:32Z</time>
      </trkpt>
      <trkpt lat="43.42604" lon="6.5256">
        <ele>76.099998</ele>
        <time>2011-09-07T15:43:33Z</time>
      </trkpt>
      <trkpt lat="43.42612" lon="6.52558">
        <ele>75.699997</ele>
        <time>2011-09-07T15:43:39Z</time>
      </trkpt>
      <trkpt lat="43.42617" lon="6.52557">
        <ele>75</ele>
        <time>2011-09-07T15:43:42Z</time>
      </trkpt>
      <trkpt lat="43.42618" lon="6.52556">
        <ele>74.900002</ele>
        <time>2011-09-07T15:43:43Z</time>
      </trkpt>
      <trkpt lat="43.42625" lon="6.52552">
        <ele>75.199997</ele>
        <time>2011-09-07T15:43:49Z</time>
      </trkpt>
      <trkpt lat="43.42637" lon="6.52547">
        <ele>74.5</ele>
        <time>2011-09-07T15:43:59Z</time>
      </trkpt>
      <trkpt lat="43.42638" lon="6.52547">
        <ele>74</ele>
        <time>2011-09-07T15:44:00Z</time>
      </trkpt>
      <trkpt lat="43.42646" lon="6.5254">
        <ele>73.300003</ele>
        <time>2011-09-07T15:44:08Z</time>
      </trkpt>
      <trkpt lat="43.42648" lon="6.52537">
        <ele>73.599998</ele>
        <time>2011-09-07T15:44:10Z</time>
      </trkpt>
      <trkpt lat="43.4265" lon="6.52536">
        <ele>74</ele>
        <time>2011-09-07T15:44:12Z</time>
      </trkpt>
      <trkpt lat="43.42654" lon="6.52532">
        <ele>74.300003</ele>
        <time>2011-09-07T15:44:16Z</time>
      </trkpt>
      <trkpt lat="43.42655" lon="6.52528">
        <ele>74.300003</ele>
        <time>2011-09-07T15:44:19Z</time>
      </trkpt>
      <trkpt lat="43.42657" lon="6.52526">
        <ele>74.599998</ele>
        <time>2011-09-07T15:44:21Z</time>
      </trkpt>
      <trkpt lat="43.42658" lon="6.52524">
        <ele>74.400002</ele>
        <time>2011-09-07T15:44:23Z</time>
      </trkpt>
      <trkpt lat="43.42663" lon="6.52517">
        <ele>73.699997</ele>
        <time>2011-09-07T15:44:29Z</time>
      </trkpt>
      <trkpt lat="43.42667" lon="6.52509">
        <ele>72.5</ele>
        <time>2011-09-07T15:44:35Z</time>
      </trkpt>
      <trkpt lat="43.42668" lon="6.52504">
        <ele>72.400002</ele>
        <time>2011-09-07T15:44:38Z</time>
      </trkpt>
      <trkpt lat="43.42673" lon="6.5249">
        <ele>71.900002</ele>
        <time>2011-09-07T15:44:48Z</time>
      </trkpt>
      <trkpt lat="43.42674" lon="6.52486">
        <ele>71.400002</ele>
        <time>2011-09-07T15:44:51Z</time>
      </trkpt>
      <trkpt lat="43.42674" lon="6.52483">
        <ele>71.300003</ele>
        <time>2011-09-07T15:44:53Z</time>
      </trkpt>
      <trkpt lat="43.42676" lon="6.52475">
        <ele>71.400002</ele>
        <time>2011-09-07T15:44:58Z</time>
      </trkpt>
      <trkpt lat="43.42677" lon="6.52471">
        <ele>71.5</ele>
        <time>2011-09-07T15:45:01Z</time>
      </trkpt>
      <trkpt lat="43.42677" lon="6.52466">
        <ele>70.900002</ele>
        <time>2011-09-07T15:45:06Z</time>
      </trkpt>
      <trkpt lat="43.42679" lon="6.52462">
        <ele>70.900002</ele>
        <time>2011-09-07T15:45:09Z</time>
      </trkpt>
      <trkpt lat="43.42681" lon="6.5246">
        <ele>71.099998</ele>
        <time>2011-09-07T15:45:11Z</time>
      </trkpt>
      <trkpt lat="43.42685" lon="6.52453">
        <ele>71.5</ele>
        <time>2011-09-07T15:45:17Z</time>
      </trkpt>
      <trkpt lat="43.42685" lon="6.52452">
        <ele>71.400002</ele>
        <time>2011-09-07T15:45:18Z</time>
      </trkpt>
      <trkpt lat="43.42695" lon="6.52444">
        <ele>70</ele>
        <time>2011-09-07T15:45:28Z</time>
      </trkpt>
      <trkpt lat="43.42697" lon="6.52442">
        <ele>69.699997</ele>
        <time>2011-09-07T15:45:31Z</time>
      </trkpt>
      <trkpt lat="43.42701" lon="6.52439">
        <ele>69.599998</ele>
        <time>2011-09-07T15:45:37Z</time>
      </trkpt>
      <trkpt lat="43.42707" lon="6.52438">
        <ele>69.900002</ele>
        <time>2011-09-07T15:45:43Z</time>
      </trkpt>
      <trkpt lat="43.42711" lon="6.52438">
        <ele>70</ele>
        <time>2011-09-07T15:45:46Z</time>
      </trkpt>
      <trkpt lat="43.42712" lon="6.52438">
        <ele>70</ele>
        <time>2011-09-07T15:45:47Z</time>
      </trkpt>
      <trkpt lat="43.42717" lon="6.52438">
        <ele>70.400002</ele>
        <time>2011-09-07T15:45:50Z</time>
      </trkpt>
      <trkpt lat="43.42731" lon="6.52437">
        <ele>70</ele>
        <time>2011-09-07T15:45:59Z</time>
      </trkpt>
      <trkpt lat="43.42753" lon="6.52428">
        <ele>70.199997</ele>
        <time>2011-09-07T15:46:16Z</time>
      </trkpt>
      <trkpt lat="43.42756" lon="6.52427">
        <ele>69.800003</ele>
        <time>2011-09-07T15:46:18Z</time>
      </trkpt>
      <trkpt lat="43.42771" lon="6.52425">
        <ele>69.900002</ele>
        <time>2011-09-07T15:46:29Z</time>
      </trkpt>
      <trkpt lat="43.42777" lon="6.52423">
        <ele>70</ele>
        <time>2011-09-07T15:46:33Z</time>
      </trkpt>
      <trkpt lat="43.42783" lon="6.5242">
        <ele>70.400002</ele>
        <time>2011-09-07T15:46:39Z</time>
      </trkpt>
      <trkpt lat="43.42783" lon="6.5242">
        <ele>69.900002</ele>
        <time>2011-09-07T15:46:40Z</time>
      </trkpt>
      <trkpt lat="43.4279" lon="6.52411">
        <ele>68.900002</ele>
        <time>2011-09-07T15:46:48Z</time>
      </trkpt>
      <trkpt lat="43.4279" lon="6.52405">
        <ele>68.199997</ele>
        <time>2011-09-07T15:46:52Z</time>
      </trkpt>
      <trkpt lat="43.4279" lon="6.52403">
        <ele>68.099998</ele>
        <time>2011-09-07T15:46:53Z</time>
      </trkpt>
      <trkpt lat="43.42792" lon="6.52396">
        <ele>67.300003</ele>
        <time>2011-09-07T15:46:58Z</time>
      </trkpt>
      <trkpt lat="43.42792" lon="6.52393">
        <ele>67</ele>
        <time>2011-09-07T15:47:00Z</time>
      </trkpt>
      <trkpt lat="43.42794" lon="6.52386">
        <ele>67.400002</ele>
        <time>2011-09-07T15:47:07Z</time>
      </trkpt>
      <trkpt lat="43.42796" lon="6.52383">
        <ele>67.599998</ele>
        <time>2011-09-07T15:47:10Z</time>
      </trkpt>
      <trkpt lat="43.42797" lon="6.52382">
        <ele>67.599998</ele>
        <time>2011-09-07T15:47:11Z</time>
      </trkpt>
      <trkpt lat="43.428" lon="6.52377">
        <ele>67.900002</ele>
        <time>2011-09-07T15:47:14Z</time>
      </trkpt>
      <trkpt lat="43.42802" lon="6.52374">
        <ele>67.400002</ele>
        <time>2011-09-07T15:47:16Z</time>
      </trkpt>
      <trkpt lat="43.42811" lon="6.52366">
        <ele>67.699997</ele>
        <time>2011-09-07T15:47:24Z</time>
      </trkpt>
      <trkpt lat="43.42814" lon="6.52364">
        <ele>68.199997</ele>
        <time>2011-09-07T15:47:26Z</time>
      </trkpt>
      <trkpt lat="43.42821" lon="6.5236">
        <ele>68.5</ele>
        <time>2011-09-07T15:47:31Z</time>
      </trkpt>
      <trkpt lat="43.42822" lon="6.52359">
        <ele>68.599998</ele>
        <time>2011-09-07T15:47:32Z</time>
      </trkpt>
      <trkpt lat="43.4284" lon="6.52355">
        <ele>68.699997</ele>
        <time>2011-09-07T15:47:45Z</time>
      </trkpt>
      <trkpt lat="43.42844" lon="6.52353">
        <ele>68.699997</ele>
        <time>2011-09-07T15:47:48Z</time>
      </trkpt>
      <trkpt lat="43.42845" lon="6.52351">
        <ele>68.699997</ele>
        <time>2011-09-07T15:47:50Z</time>
      </trkpt>
      <trkpt lat="43.42848" lon="6.52348">
        <ele>68.400002</ele>
        <time>2011-09-07T15:47:54Z</time>
      </trkpt>
      <trkpt lat="43.4285" lon="6.52347">
        <ele>68.400002</ele>
        <time>2011-09-07T15:47:56Z</time>
      </trkpt>
      <trkpt lat="43.42852" lon="6.52345">
        <ele>68.199997</ele>
        <time>2011-09-07T15:47:59Z</time>
      </trkpt>
      <trkpt lat="43.42859" lon="6.52344">
        <ele>68.699997</ele>
        <time>2011-09-07T15:48:06Z</time>
      </trkpt>
      <trkpt lat="43.42861" lon="6.52342">
        <ele>68.599998</ele>
        <time>2011-09-07T15:48:09Z</time>
      </trkpt>
      <trkpt lat="43.42864" lon="6.52341">
        <ele>68.599998</ele>
        <time>2011-09-07T15:48:11Z</time>
      </trkpt>
      <trkpt lat="43.42868" lon="6.52338">
        <ele>69</ele>
        <time>2011-09-07T15:48:15Z</time>
      </trkpt>
      <trkpt lat="43.42871" lon="6.52336">
        <ele>68.800003</ele>
        <time>2011-09-07T15:48:18Z</time>
      </trkpt>
      <trkpt lat="43.42873" lon="6.52334">
        <ele>68.599998</ele>
        <time>2011-09-07T15:48:22Z</time>
      </trkpt>
      <trkpt lat="43.42876" lon="6.52331">
        <ele>69.300003</ele>
        <time>2011-09-07T15:48:26Z</time>
      </trkpt>
      <trkpt lat="43.42879" lon="6.52328">
        <ele>68.699997</ele>
        <time>2011-09-07T15:48:30Z</time>
      </trkpt>
      <trkpt lat="43.42881" lon="6.52328">
        <ele>69</ele>
        <time>2011-09-07T15:48:32Z</time>
      </trkpt>
      <trkpt lat="43.42884" lon="6.52328">
        <ele>69.199997</ele>
        <time>2011-09-07T15:48:35Z</time>
      </trkpt>
      <trkpt lat="43.42889" lon="6.52328">
        <ele>69.400002</ele>
        <time>2011-09-07T15:48:40Z</time>
      </trkpt>
      <trkpt lat="43.42893" lon="6.52328">
        <ele>69</ele>
        <time>2011-09-07T15:48:44Z</time>
      </trkpt>
      <trkpt lat="43.42895" lon="6.52328">
        <ele>68.800003</ele>
        <time>2011-09-07T15:48:45Z</time>
      </trkpt>
      <trkpt lat="43.429" lon="6.52329">
        <ele>68.900002</ele>
        <time>2011-09-07T15:48:49Z</time>
      </trkpt>
      <trkpt lat="43.42907" lon="6.52329">
        <ele>68.099998</ele>
        <time>2011-09-07T15:48:54Z</time>
      </trkpt>
      <trkpt lat="43.42911" lon="6.52328">
        <ele>68.5</ele>
        <time>2011-09-07T15:48:57Z</time>
      </trkpt>
      <trkpt lat="43.42914" lon="6.52326">
        <ele>68.599998</ele>
        <time>2011-09-07T15:48:59Z</time>
      </trkpt>
      <trkpt lat="43.42916" lon="6.52326">
        <ele>68.900002</ele>
        <time>2011-09-07T15:49:00Z</time>
      </trkpt>
      <trkpt lat="43.42919" lon="6.52325">
        <ele>69.099998</ele>
        <time>2011-09-07T15:49:03Z</time>
      </trkpt>
      <trkpt lat="43.42921" lon="6.52324">
        <ele>69.5</ele>
        <time>2011-09-07T15:49:05Z</time>
      </trkpt>
      <trkpt lat="43.42924" lon="6.52322">
        <ele>69.400002</ele>
        <time>2011-09-07T15:49:09Z</time>
      </trkpt>
      <trkpt lat="43.42927" lon="6.52321">
        <ele>69.099998</ele>
        <time>2011-09-07T15:49:12Z</time>
      </trkpt>
      <trkpt lat="43.42929" lon="6.52319">
        <ele>69.199997</ele>
        <time>2011-09-07T15:49:14Z</time>
      </trkpt>
      <trkpt lat="43.42932" lon="6.52316">
        <ele>69.199997</ele>
        <time>2011-09-07T15:49:16Z</time>
      </trkpt>
      <trkpt lat="43.42935" lon="6.52311">
        <ele>69.199997</ele>
        <time>2011-09-07T15:49:20Z</time>
      </trkpt>
      <trkpt lat="43.42936" lon="6.52309">
        <ele>69.199997</ele>
        <time>2011-09-07T15:49:21Z</time>
      </trkpt>
      <trkpt lat="43.4294" lon="6.52303">
        <ele>69.199997</ele>
        <time>2011-09-07T15:49:25Z</time>
      </trkpt>
      <trkpt lat="43.42944" lon="6.52298">
        <ele>69.5</ele>
        <time>2011-09-07T15:49:28Z</time>
      </trkpt>
      <trkpt lat="43.42945" lon="6.52297">
        <ele>69.599998</ele>
        <time>2011-09-07T15:49:29Z</time>
      </trkpt>
      <trkpt lat="43.4295" lon="6.52292">
        <ele>69.699997</ele>
        <time>2011-09-07T15:49:33Z</time>
      </trkpt>
      <trkpt lat="43.42952" lon="6.5229">
        <ele>69.400002</ele>
        <time>2011-09-07T15:49:35Z</time>
      </trkpt>
      <trkpt lat="43.4296" lon="6.52281">
        <ele>69.199997</ele>
        <time>2011-09-07T15:49:41Z</time>
      </trkpt>
      <trkpt lat="43.42969" lon="6.52271">
        <ele>69.099998</ele>
        <time>2011-09-07T15:49:48Z</time>
      </trkpt>
      <trkpt lat="43.42973" lon="6.52264">
        <ele>68.900002</ele>
        <time>2011-09-07T15:49:53Z</time>
      </trkpt>
      <trkpt lat="43.42975" lon="6.52257">
        <ele>68.800003</ele>
        <time>2011-09-07T15:49:58Z</time>
      </trkpt>
      <trkpt lat="43.42976" lon="6.52253">
        <ele>68.800003</ele>
        <time>2011-09-07T15:50:00Z</time>
      </trkpt>
      <trkpt lat="43.42978" lon="6.5225">
        <ele>68.800003</ele>
        <time>2011-09-07T15:50:02Z</time>
      </trkpt>
      <trkpt lat="43.42979" lon="6.52247">
        <ele>68.5</ele>
        <time>2011-09-07T15:50:04Z</time>
      </trkpt>
      <trkpt lat="43.4298" lon="6.52244">
        <ele>68.5</ele>
        <time>2011-09-07T15:50:06Z</time>
      </trkpt>
      <trkpt lat="43.4298" lon="6.52235">
        <ele>68.300003</ele>
        <time>2011-09-07T15:50:11Z</time>
      </trkpt>
      <trkpt lat="43.4298" lon="6.52232">
        <ele>68.5</ele>
        <time>2011-09-07T15:50:13Z</time>
      </trkpt>
      <trkpt lat="43.42979" lon="6.52227">
        <ele>68</ele>
        <time>2011-09-07T15:50:16Z</time>
      </trkpt>
      <trkpt lat="43.42979" lon="6.52224">
        <ele>67.400002</ele>
        <time>2011-09-07T15:50:18Z</time>
      </trkpt>
      <trkpt lat="43.42978" lon="6.52219">
        <ele>68</ele>
        <time>2011-09-07T15:50:21Z</time>
      </trkpt>
      <trkpt lat="43.42977" lon="6.52212">
        <ele>67.900002</ele>
        <time>2011-09-07T15:50:26Z</time>
      </trkpt>
      <trkpt lat="43.42976" lon="6.52209">
        <ele>68.099998</ele>
        <time>2011-09-07T15:50:28Z</time>
      </trkpt>
      <trkpt lat="43.42976" lon="6.52201">
        <ele>67.800003</ele>
        <time>2011-09-07T15:50:33Z</time>
      </trkpt>
      <trkpt lat="43.42978" lon="6.52197">
        <ele>67.5</ele>
        <time>2011-09-07T15:50:36Z</time>
      </trkpt>
      <trkpt lat="43.42977" lon="6.52193">
        <ele>67.400002</ele>
        <time>2011-09-07T15:50:38Z</time>
      </trkpt>
      <trkpt lat="43.42975" lon="6.52188">
        <ele>67.599998</ele>
        <time>2011-09-07T15:50:41Z</time>
      </trkpt>
      <trkpt lat="43.42971" lon="6.52176">
        <ele>67.699997</ele>
        <time>2011-09-07T15:50:48Z</time>
      </trkpt>
      <trkpt lat="43.42969" lon="6.52174">
        <ele>67.5</ele>
        <time>2011-09-07T15:50:49Z</time>
      </trkpt>
      <trkpt lat="43.42969" lon="6.5217">
        <ele>67.300003</ele>
        <time>2011-09-07T15:50:51Z</time>
      </trkpt>
      <trkpt lat="43.4297" lon="6.52166">
        <ele>67.099998</ele>
        <time>2011-09-07T15:50:53Z</time>
      </trkpt>
      <trkpt lat="43.4297" lon="6.52163">
        <ele>67.300003</ele>
        <time>2011-09-07T15:50:55Z</time>
      </trkpt>
      <trkpt lat="43.4297" lon="6.52153">
        <ele>68</ele>
        <time>2011-09-07T15:51:00Z</time>
      </trkpt>
      <trkpt lat="43.42971" lon="6.52148">
        <ele>68.099998</ele>
        <time>2011-09-07T15:51:05Z</time>
      </trkpt>
      <trkpt lat="43.42969" lon="6.52145">
        <ele>68.099998</ele>
        <time>2011-09-07T15:51:08Z</time>
      </trkpt>
      <trkpt lat="43.42969" lon="6.52139">
        <ele>68.099998</ele>
        <time>2011-09-07T15:51:11Z</time>
      </trkpt>
      <trkpt lat="43.42968" lon="6.52136">
        <ele>68.099998</ele>
        <time>2011-09-07T15:51:13Z</time>
      </trkpt>
      <trkpt lat="43.42968" lon="6.52118">
        <ele>67.199997</ele>
        <time>2011-09-07T15:51:23Z</time>
      </trkpt>
      <trkpt lat="43.42968" lon="6.52114">
        <ele>67.300003</ele>
        <time>2011-09-07T15:51:26Z</time>
      </trkpt>
      <trkpt lat="43.42966" lon="6.52111">
        <ele>67.400002</ele>
        <time>2011-09-07T15:51:28Z</time>
      </trkpt>
      <trkpt lat="43.42965" lon="6.52107">
        <ele>67.400002</ele>
        <time>2011-09-07T15:51:30Z</time>
      </trkpt>
      <trkpt lat="43.42963" lon="6.52104">
        <ele>67.300003</ele>
        <time>2011-09-07T15:51:32Z</time>
      </trkpt>
      <trkpt lat="43.42963" lon="6.52102">
        <ele>67.400002</ele>
        <time>2011-09-07T15:51:33Z</time>
      </trkpt>
      <trkpt lat="43.42963" lon="6.52098">
        <ele>67.5</ele>
        <time>2011-09-07T15:51:35Z</time>
      </trkpt>
      <trkpt lat="43.42963" lon="6.52095">
        <ele>67.199997</ele>
        <time>2011-09-07T15:51:37Z</time>
      </trkpt>
      <trkpt lat="43.42964" lon="6.52093">
        <ele>67.199997</ele>
        <time>2011-09-07T15:51:39Z</time>
      </trkpt>
      <trkpt lat="43.42963" lon="6.52088">
        <ele>67.099998</ele>
        <time>2011-09-07T15:51:42Z</time>
      </trkpt>
      <trkpt lat="43.42964" lon="6.52086">
        <ele>67.300003</ele>
        <time>2011-09-07T15:51:44Z</time>
      </trkpt>
      <trkpt lat="43.42963" lon="6.52082">
        <ele>67.400002</ele>
        <time>2011-09-07T15:51:46Z</time>
      </trkpt>
      <trkpt lat="43.42963" lon="6.52078">
        <ele>67.400002</ele>
        <time>2011-09-07T15:51:49Z</time>
      </trkpt>
      <trkpt lat="43.42958" lon="6.52068">
        <ele>67.599998</ele>
        <time>2011-09-07T15:51:55Z</time>
      </trkpt>
      <trkpt lat="43.42953" lon="6.5205">
        <ele>67.699997</ele>
        <time>2011-09-07T15:52:06Z</time>
      </trkpt>
      <trkpt lat="43.42951" lon="6.52039">
        <ele>68.099998</ele>
        <time>2011-09-07T15:52:13Z</time>
      </trkpt>
      <trkpt lat="43.4295" lon="6.52035">
        <ele>68.099998</ele>
        <time>2011-09-07T15:52:15Z</time>
      </trkpt>
      <trkpt lat="43.42949" lon="6.52033">
        <ele>67.900002</ele>
        <time>2011-09-07T15:52:17Z</time>
      </trkpt>
      <trkpt lat="43.42948" lon="6.52028">
        <ele>67.900002</ele>
        <time>2011-09-07T15:52:20Z</time>
      </trkpt>
      <trkpt lat="43.42948" lon="6.52025">
        <ele>68</ele>
        <time>2011-09-07T15:52:22Z</time>
      </trkpt>
      <trkpt lat="43.42935" lon="6.51989">
        <ele>69.400002</ele>
        <time>2011-09-07T15:52:44Z</time>
      </trkpt>
      <trkpt lat="43.42928" lon="6.51974">
        <ele>70.5</ele>
        <time>2011-09-07T15:52:53Z</time>
      </trkpt>
      <trkpt lat="43.42928" lon="6.51972">
        <ele>70.400002</ele>
        <time>2011-09-07T15:52:54Z</time>
      </trkpt>
      <trkpt lat="43.42924" lon="6.51962">
        <ele>70.900002</ele>
        <time>2011-09-07T15:53:00Z</time>
      </trkpt>
      <trkpt lat="43.42923" lon="6.51957">
        <ele>71.400002</ele>
        <time>2011-09-07T15:53:03Z</time>
      </trkpt>
      <trkpt lat="43.42924" lon="6.51952">
        <ele>71.699997</ele>
        <time>2011-09-07T15:53:06Z</time>
      </trkpt>
      <trkpt lat="43.42921" lon="6.51943">
        <ele>71.599998</ele>
        <time>2011-09-07T15:53:12Z</time>
      </trkpt>
      <trkpt lat="43.42921" lon="6.51937">
        <ele>72.199997</ele>
        <time>2011-09-07T15:53:16Z</time>
      </trkpt>
      <trkpt lat="43.42919" lon="6.51928">
        <ele>72.099998</ele>
        <time>2011-09-07T15:53:22Z</time>
      </trkpt>
      <trkpt lat="43.42918" lon="6.51923">
        <ele>72.800003</ele>
        <time>2011-09-07T15:53:25Z</time>
      </trkpt>
      <trkpt lat="43.42919" lon="6.51919">
        <ele>72.400002</ele>
        <time>2011-09-07T15:53:28Z</time>
      </trkpt>
      <trkpt lat="43.42919" lon="6.51917">
        <ele>72.5</ele>
        <time>2011-09-07T15:53:29Z</time>
      </trkpt>
      <trkpt lat="43.4292" lon="6.51912">
        <ele>73.300003</ele>
        <time>2011-09-07T15:53:32Z</time>
      </trkpt>
      <trkpt lat="43.42921" lon="6.51905">
        <ele>73.699997</ele>
        <time>2011-09-07T15:53:37Z</time>
      </trkpt>
      <trkpt lat="43.42921" lon="6.51902">
        <ele>73.900002</ele>
        <time>2011-09-07T15:53:39Z</time>
      </trkpt>
      <trkpt lat="43.42919" lon="6.51888">
        <ele>73.800003</ele>
        <time>2011-09-07T15:53:47Z</time>
      </trkpt>
      <trkpt lat="43.42918" lon="6.51884">
        <ele>73.400002</ele>
        <time>2011-09-07T15:53:50Z</time>
      </trkpt>
      <trkpt lat="43.42919" lon="6.51881">
        <ele>73.900002</ele>
        <time>2011-09-07T15:53:52Z</time>
      </trkpt>
      <trkpt lat="43.42918" lon="6.51873">
        <ele>74.199997</ele>
        <time>2011-09-07T15:53:57Z</time>
      </trkpt>
      <trkpt lat="43.42916" lon="6.51868">
        <ele>74.5</ele>
        <time>2011-09-07T15:54:00Z</time>
      </trkpt>
      <trkpt lat="43.42915" lon="6.51864">
        <ele>74.199997</ele>
        <time>2011-09-07T15:54:02Z</time>
      </trkpt>
      <trkpt lat="43.4291" lon="6.51855">
        <ele>73.800003</ele>
        <time>2011-09-07T15:54:08Z</time>
      </trkpt>
      <trkpt lat="43.42909" lon="6.51852">
        <ele>73.900002</ele>
        <time>2011-09-07T15:54:10Z</time>
      </trkpt>
      <trkpt lat="43.42909" lon="6.51849">
        <ele>74.5</ele>
        <time>2011-09-07T15:54:12Z</time>
      </trkpt>
      <trkpt lat="43.42907" lon="6.51842">
        <ele>75.5</ele>
        <time>2011-09-07T15:54:16Z</time>
      </trkpt>
      <trkpt lat="43.42906" lon="6.5184">
        <ele>75.199997</ele>
        <time>2011-09-07T15:54:17Z</time>
      </trkpt>
      <trkpt lat="43.42905" lon="6.51831">
        <ele>75.400002</ele>
        <time>2011-09-07T15:54:23Z</time>
      </trkpt>
      <trkpt lat="43.42902" lon="6.51825">
        <ele>74.900002</ele>
        <time>2011-09-07T15:54:27Z</time>
      </trkpt>
      <trkpt lat="43.429" lon="6.51821">
        <ele>75</ele>
        <time>2011-09-07T15:54:29Z</time>
      </trkpt>
      <trkpt lat="43.429" lon="6.51818">
        <ele>75.099998</ele>
        <time>2011-09-07T15:54:31Z</time>
      </trkpt>
      <trkpt lat="43.429" lon="6.51813">
        <ele>74.300003</ele>
        <time>2011-09-07T15:54:34Z</time>
      </trkpt>
      <trkpt lat="43.42899" lon="6.5181">
        <ele>74.099998</ele>
        <time>2011-09-07T15:54:36Z</time>
      </trkpt>
      <trkpt lat="43.42898" lon="6.51806">
        <ele>74.099998</ele>
        <time>2011-09-07T15:54:38Z</time>
      </trkpt>
      <trkpt lat="43.42897" lon="6.518">
        <ele>74.199997</ele>
        <time>2011-09-07T15:54:41Z</time>
      </trkpt>
      <trkpt lat="43.42897" lon="6.51799">
        <ele>74.5</ele>
        <time>2011-09-07T15:54:42Z</time>
      </trkpt>
      <trkpt lat="43.42896" lon="6.51794">
        <ele>74.699997</ele>
        <time>2011-09-07T15:54:44Z</time>
      </trkpt>
      <trkpt lat="43.42894" lon="6.51789">
        <ele>74.099998</ele>
        <time>2011-09-07T15:54:47Z</time>
      </trkpt>
      <trkpt lat="43.42893" lon="6.51781">
        <ele>74.099998</ele>
        <time>2011-09-07T15:54:52Z</time>
      </trkpt>
      <trkpt lat="43.42893" lon="6.51779">
        <ele>74.099998</ele>
        <time>2011-09-07T15:54:53Z</time>
      </trkpt>
      <trkpt lat="43.42892" lon="6.51775">
        <ele>74.199997</ele>
        <time>2011-09-07T15:54:56Z</time>
      </trkpt>
      <trkpt lat="43.42891" lon="6.5177">
        <ele>74.5</ele>
        <time>2011-09-07T15:54:59Z</time>
      </trkpt>
      <trkpt lat="43.42889" lon="6.51765">
        <ele>74.800003</ele>
        <time>2011-09-07T15:55:02Z</time>
      </trkpt>
      <trkpt lat="43.42888" lon="6.5176">
        <ele>75.5</ele>
        <time>2011-09-07T15:55:05Z</time>
      </trkpt>
      <trkpt lat="43.42885" lon="6.51751">
        <ele>74.900002</ele>
        <time>2011-09-07T15:55:10Z</time>
      </trkpt>
      <trkpt lat="43.42884" lon="6.5175">
        <ele>74.599998</ele>
        <time>2011-09-07T15:55:11Z</time>
      </trkpt>
      <trkpt lat="43.42882" lon="6.51745">
        <ele>74.5</ele>
        <time>2011-09-07T15:55:14Z</time>
      </trkpt>
      <trkpt lat="43.42879" lon="6.51736">
        <ele>74.5</ele>
        <time>2011-09-07T15:55:19Z</time>
      </trkpt>
      <trkpt lat="43.42879" lon="6.51734">
        <ele>74.599998</ele>
        <time>2011-09-07T15:55:20Z</time>
      </trkpt>
      <trkpt lat="43.42877" lon="6.51728">
        <ele>74.300003</ele>
        <time>2011-09-07T15:55:24Z</time>
      </trkpt>
      <trkpt lat="43.42872" lon="6.51718">
        <ele>74.400002</ele>
        <time>2011-09-07T15:55:31Z</time>
      </trkpt>
      <trkpt lat="43.42871" lon="6.51713">
        <ele>74.5</ele>
        <time>2011-09-07T15:55:34Z</time>
      </trkpt>
      <trkpt lat="43.4287" lon="6.51711">
        <ele>74.199997</ele>
        <time>2011-09-07T15:55:36Z</time>
      </trkpt>
      <trkpt lat="43.42868" lon="6.51707">
        <ele>73.800003</ele>
        <time>2011-09-07T15:55:39Z</time>
      </trkpt>
      <trkpt lat="43.42865" lon="6.51702">
        <ele>73.300003</ele>
        <time>2011-09-07T15:55:43Z</time>
      </trkpt>
      <trkpt lat="43.42864" lon="6.51699">
        <ele>73.400002</ele>
        <time>2011-09-07T15:55:45Z</time>
      </trkpt>
      <trkpt lat="43.42863" lon="6.51696">
        <ele>73.300003</ele>
        <time>2011-09-07T15:55:47Z</time>
      </trkpt>
      <trkpt lat="43.42862" lon="6.51693">
        <ele>73.400002</ele>
        <time>2011-09-07T15:55:49Z</time>
      </trkpt>
      <trkpt lat="43.42861" lon="6.51687">
        <ele>73.699997</ele>
        <time>2011-09-07T15:55:53Z</time>
      </trkpt>
      <trkpt lat="43.42859" lon="6.51683">
        <ele>74.699997</ele>
        <time>2011-09-07T15:55:56Z</time>
      </trkpt>
      <trkpt lat="43.42858" lon="6.51678">
        <ele>75</ele>
        <time>2011-09-07T15:55:59Z</time>
      </trkpt>
      <trkpt lat="43.42852" lon="6.5165">
        <ele>75.400002</ele>
        <time>2011-09-07T15:56:15Z</time>
      </trkpt>
      <trkpt lat="43.42853" lon="6.51644">
        <ele>74.599998</ele>
        <time>2011-09-07T15:56:20Z</time>
      </trkpt>
      <trkpt lat="43.42853" lon="6.51642">
        <ele>73.900002</ele>
        <time>2011-09-07T15:56:22Z</time>
      </trkpt>
      <trkpt lat="43.42855" lon="6.51638">
        <ele>75.199997</ele>
        <time>2011-09-07T15:56:25Z</time>
      </trkpt>
      <trkpt lat="43.42857" lon="6.51633">
        <ele>75.699997</ele>
        <time>2011-09-07T15:56:28Z</time>
      </trkpt>
      <trkpt lat="43.4286" lon="6.51625">
        <ele>76.099998</ele>
        <time>2011-09-07T15:56:33Z</time>
      </trkpt>
      <trkpt lat="43.42861" lon="6.51623">
        <ele>76.099998</ele>
        <time>2011-09-07T15:56:34Z</time>
      </trkpt>
      <trkpt lat="43.42863" lon="6.51617">
        <ele>76.300003</ele>
        <time>2011-09-07T15:56:38Z</time>
      </trkpt>
      <trkpt lat="43.42864" lon="6.51616">
        <ele>76.199997</ele>
        <time>2011-09-07T15:56:39Z</time>
      </trkpt>
      <trkpt lat="43.42868" lon="6.51609">
        <ele>76.900002</ele>
        <time>2011-09-07T15:56:44Z</time>
      </trkpt>
      <trkpt lat="43.42871" lon="6.51605">
        <ele>76.800003</ele>
        <time>2011-09-07T15:56:48Z</time>
      </trkpt>
      <trkpt lat="43.42873" lon="6.516">
        <ele>77</ele>
        <time>2011-09-07T15:56:51Z</time>
      </trkpt>
      <trkpt lat="43.42875" lon="6.51596">
        <ele>77.300003</ele>
        <time>2011-09-07T15:56:54Z</time>
      </trkpt>
      <trkpt lat="43.42877" lon="6.51593">
        <ele>77.599998</ele>
        <time>2011-09-07T15:56:57Z</time>
      </trkpt>
      <trkpt lat="43.4288" lon="6.51589">
        <ele>77.5</ele>
        <time>2011-09-07T15:57:00Z</time>
      </trkpt>
      <trkpt lat="43.42882" lon="6.51587">
        <ele>77.699997</ele>
        <time>2011-09-07T15:57:02Z</time>
      </trkpt>
      <trkpt lat="43.42883" lon="6.51584">
        <ele>77.599998</ele>
        <time>2011-09-07T15:57:04Z</time>
      </trkpt>
      <trkpt lat="43.42886" lon="6.51581">
        <ele>77.599998</ele>
        <time>2011-09-07T15:57:07Z</time>
      </trkpt>
      <trkpt lat="43.42889" lon="6.51578">
        <ele>77.699997</ele>
        <time>2011-09-07T15:57:11Z</time>
      </trkpt>
      <trkpt lat="43.42892" lon="6.51572">
        <ele>78</ele>
        <time>2011-09-07T15:57:15Z</time>
      </trkpt>
      <trkpt lat="43.42893" lon="6.5157">
        <ele>77.699997</ele>
        <time>2011-09-07T15:57:17Z</time>
      </trkpt>
      <trkpt lat="43.42896" lon="6.51566">
        <ele>77.900002</ele>
        <time>2011-09-07T15:57:20Z</time>
      </trkpt>
      <trkpt lat="43.42899" lon="6.51559">
        <ele>79.599998</ele>
        <time>2011-09-07T15:57:24Z</time>
      </trkpt>
      <trkpt lat="43.429" lon="6.51556">
        <ele>79.599998</ele>
        <time>2011-09-07T15:57:26Z</time>
      </trkpt>
      <trkpt lat="43.42902" lon="6.51547">
        <ele>79.800003</ele>
        <time>2011-09-07T15:57:31Z</time>
      </trkpt>
      <trkpt lat="43.42902" lon="6.51545">
        <ele>79.599998</ele>
        <time>2011-09-07T15:57:32Z</time>
      </trkpt>
      <trkpt lat="43.42905" lon="6.51537">
        <ele>80.199997</ele>
        <time>2011-09-07T15:57:37Z</time>
      </trkpt>
      <trkpt lat="43.42907" lon="6.51533">
        <ele>80.400002</ele>
        <time>2011-09-07T15:57:40Z</time>
      </trkpt>
      <trkpt lat="43.42909" lon="6.51528">
        <ele>80.800003</ele>
        <time>2011-09-07T15:57:43Z</time>
      </trkpt>
      <trkpt lat="43.4291" lon="6.51523">
        <ele>80.699997</ele>
        <time>2011-09-07T15:57:46Z</time>
      </trkpt>
      <trkpt lat="43.4291" lon="6.5152">
        <ele>80.800003</ele>
        <time>2011-09-07T15:57:48Z</time>
      </trkpt>
      <trkpt lat="43.4291" lon="6.51515">
        <ele>80.900002</ele>
        <time>2011-09-07T15:57:52Z</time>
      </trkpt>
      <trkpt lat="43.4291" lon="6.51511">
        <ele>80.699997</ele>
        <time>2011-09-07T15:57:55Z</time>
      </trkpt>
      <trkpt lat="43.4291" lon="6.51506">
        <ele>81.300003</ele>
        <time>2011-09-07T15:57:59Z</time>
      </trkpt>
      <trkpt lat="43.4291" lon="6.51503">
        <ele>81.099998</ele>
        <time>2011-09-07T15:58:01Z</time>
      </trkpt>
      <trkpt lat="43.4291" lon="6.51498">
        <ele>81.400002</ele>
        <time>2011-09-07T15:58:04Z</time>
      </trkpt>
      <trkpt lat="43.4291" lon="6.51494">
        <ele>81.400002</ele>
        <time>2011-09-07T15:58:07Z</time>
      </trkpt>
      <trkpt lat="43.42908" lon="6.51482">
        <ele>81.800003</ele>
        <time>2011-09-07T15:58:16Z</time>
      </trkpt>
      <trkpt lat="43.42907" lon="6.51477">
        <ele>81.599998</ele>
        <time>2011-09-07T15:58:19Z</time>
      </trkpt>
      <trkpt lat="43.42906" lon="6.51466">
        <ele>82.099998</ele>
        <time>2011-09-07T15:58:27Z</time>
      </trkpt>
      <trkpt lat="43.42906" lon="6.51465">
        <ele>81.900002</ele>
        <time>2011-09-07T15:58:28Z</time>
      </trkpt>
      <trkpt lat="43.42903" lon="6.51453">
        <ele>82.400002</ele>
        <time>2011-09-07T15:58:36Z</time>
      </trkpt>
      <trkpt lat="43.42902" lon="6.51443">
        <ele>82.5</ele>
        <time>2011-09-07T15:58:42Z</time>
      </trkpt>
      <trkpt lat="43.42902" lon="6.51438">
        <ele>82.300003</ele>
        <time>2011-09-07T15:58:45Z</time>
      </trkpt>
      <trkpt lat="43.42904" lon="6.51433">
        <ele>82.199997</ele>
        <time>2011-09-07T15:58:48Z</time>
      </trkpt>
      <trkpt lat="43.42905" lon="6.5143">
        <ele>82.599998</ele>
        <time>2011-09-07T15:58:50Z</time>
      </trkpt>
      <trkpt lat="43.42907" lon="6.51424">
        <ele>83.300003</ele>
        <time>2011-09-07T15:58:53Z</time>
      </trkpt>
      <trkpt lat="43.42909" lon="6.51418">
        <ele>82.900002</ele>
        <time>2011-09-07T15:58:56Z</time>
      </trkpt>
      <trkpt lat="43.42911" lon="6.51414">
        <ele>83.099998</ele>
        <time>2011-09-07T15:58:59Z</time>
      </trkpt>
      <trkpt lat="43.42913" lon="6.51406">
        <ele>82.5</ele>
        <time>2011-09-07T15:59:04Z</time>
      </trkpt>
      <trkpt lat="43.42914" lon="6.51403">
        <ele>82.199997</ele>
        <time>2011-09-07T15:59:06Z</time>
      </trkpt>
      <trkpt lat="43.42915" lon="6.51397">
        <ele>82.800003</ele>
        <time>2011-09-07T15:59:09Z</time>
      </trkpt>
      <trkpt lat="43.42915" lon="6.51394">
        <ele>82.599998</ele>
        <time>2011-09-07T15:59:11Z</time>
      </trkpt>
      <trkpt lat="43.42917" lon="6.51391">
        <ele>82.5</ele>
        <time>2011-09-07T15:59:13Z</time>
      </trkpt>
      <trkpt lat="43.42918" lon="6.51387">
        <ele>82.199997</ele>
        <time>2011-09-07T15:59:15Z</time>
      </trkpt>
      <trkpt lat="43.42919" lon="6.51383">
        <ele>81.5</ele>
        <time>2011-09-07T15:59:18Z</time>
      </trkpt>
      <trkpt lat="43.4292" lon="6.51381">
        <ele>81.699997</ele>
        <time>2011-09-07T15:59:19Z</time>
      </trkpt>
      <trkpt lat="43.42921" lon="6.51377">
        <ele>81.699997</ele>
        <time>2011-09-07T15:59:21Z</time>
      </trkpt>
      <trkpt lat="43.42924" lon="6.51371">
        <ele>81.400002</ele>
        <time>2011-09-07T15:59:25Z</time>
      </trkpt>
      <trkpt lat="43.42926" lon="6.51367">
        <ele>81.599998</ele>
        <time>2011-09-07T15:59:28Z</time>
      </trkpt>
      <trkpt lat="43.42926" lon="6.51365">
        <ele>82</ele>
        <time>2011-09-07T15:59:30Z</time>
      </trkpt>
      <trkpt lat="43.42928" lon="6.51361">
        <ele>82</ele>
        <time>2011-09-07T15:59:33Z</time>
      </trkpt>
      <trkpt lat="43.4293" lon="6.51355">
        <ele>82.5</ele>
        <time>2011-09-07T15:59:37Z</time>
      </trkpt>
      <trkpt lat="43.42931" lon="6.5135">
        <ele>82.300003</ele>
        <time>2011-09-07T15:59:40Z</time>
      </trkpt>
      <trkpt lat="43.42933" lon="6.51346">
        <ele>82.400002</ele>
        <time>2011-09-07T15:59:43Z</time>
      </trkpt>
      <trkpt lat="43.42934" lon="6.51341">
        <ele>82.800003</ele>
        <time>2011-09-07T15:59:46Z</time>
      </trkpt>
      <trkpt lat="43.42936" lon="6.51338">
        <ele>83.300003</ele>
        <time>2011-09-07T15:59:48Z</time>
      </trkpt>
      <trkpt lat="43.42937" lon="6.51333">
        <ele>83.300003</ele>
        <time>2011-09-07T15:59:51Z</time>
      </trkpt>
      <trkpt lat="43.4294" lon="6.51325">
        <ele>83.300003</ele>
        <time>2011-09-07T15:59:56Z</time>
      </trkpt>
      <trkpt lat="43.42942" lon="6.51323">
        <ele>83.199997</ele>
        <time>2011-09-07T15:59:58Z</time>
      </trkpt>
      <trkpt lat="43.42944" lon="6.51317">
        <ele>83.300003</ele>
        <time>2011-09-07T16:00:02Z</time>
      </trkpt>
      <trkpt lat="43.42945" lon="6.51313">
        <ele>83.400002</ele>
        <time>2011-09-07T16:00:05Z</time>
      </trkpt>
      <trkpt lat="43.42947" lon="6.51309">
        <ele>83.300003</ele>
        <time>2011-09-07T16:00:08Z</time>
      </trkpt>
      <trkpt lat="43.4295" lon="6.51302">
        <ele>82.800003</ele>
        <time>2011-09-07T16:00:12Z</time>
      </trkpt>
      <trkpt lat="43.42951" lon="6.51299">
        <ele>82.300003</ele>
        <time>2011-09-07T16:00:14Z</time>
      </trkpt>
      <trkpt lat="43.42955" lon="6.51288">
        <ele>82.699997</ele>
        <time>2011-09-07T16:00:20Z</time>
      </trkpt>
      <trkpt lat="43.42956" lon="6.51275">
        <ele>82.699997</ele>
        <time>2011-09-07T16:00:26Z</time>
      </trkpt>
      <trkpt lat="43.42956" lon="6.51271">
        <ele>82.5</ele>
        <time>2011-09-07T16:00:28Z</time>
      </trkpt>
      <trkpt lat="43.42956" lon="6.51267">
        <ele>83.199997</ele>
        <time>2011-09-07T16:00:30Z</time>
      </trkpt>
      <trkpt lat="43.42957" lon="6.51263">
        <ele>83.800003</ele>
        <time>2011-09-07T16:00:32Z</time>
      </trkpt>
      <trkpt lat="43.42959" lon="6.51253">
        <ele>83.599998</ele>
        <time>2011-09-07T16:00:38Z</time>
      </trkpt>
      <trkpt lat="43.42962" lon="6.51246">
        <ele>83.800003</ele>
        <time>2011-09-07T16:00:43Z</time>
      </trkpt>
      <trkpt lat="43.42962" lon="6.51244">
        <ele>83.900002</ele>
        <time>2011-09-07T16:00:44Z</time>
      </trkpt>
      <trkpt lat="43.42964" lon="6.51235">
        <ele>83.800003</ele>
        <time>2011-09-07T16:00:49Z</time>
      </trkpt>
      <trkpt lat="43.42969" lon="6.51227">
        <ele>84</ele>
        <time>2011-09-07T16:00:56Z</time>
      </trkpt>
      <trkpt lat="43.42972" lon="6.5122">
        <ele>83</ele>
        <time>2011-09-07T16:01:00Z</time>
      </trkpt>
      <trkpt lat="43.42975" lon="6.51215">
        <ele>83.400002</ele>
        <time>2011-09-07T16:01:04Z</time>
      </trkpt>
      <trkpt lat="43.42978" lon="6.51212">
        <ele>83.400002</ele>
        <time>2011-09-07T16:01:07Z</time>
      </trkpt>
      <trkpt lat="43.42979" lon="6.51209">
        <ele>84</ele>
        <time>2011-09-07T16:01:09Z</time>
      </trkpt>
      <trkpt lat="43.42982" lon="6.51205">
        <ele>84.099998</ele>
        <time>2011-09-07T16:01:13Z</time>
      </trkpt>
      <trkpt lat="43.42983" lon="6.51203">
        <ele>83.699997</ele>
        <time>2011-09-07T16:01:15Z</time>
      </trkpt>
      <trkpt lat="43.42985" lon="6.512">
        <ele>83.800003</ele>
        <time>2011-09-07T16:01:18Z</time>
      </trkpt>
      <trkpt lat="43.42985" lon="6.51197">
        <ele>83.400002</ele>
        <time>2011-09-07T16:01:20Z</time>
      </trkpt>
      <trkpt lat="43.42986" lon="6.51193">
        <ele>83.5</ele>
        <time>2011-09-07T16:01:24Z</time>
      </trkpt>
      <trkpt lat="43.42987" lon="6.51191">
        <ele>83.800003</ele>
        <time>2011-09-07T16:01:25Z</time>
      </trkpt>
      <trkpt lat="43.42988" lon="6.51187">
        <ele>83.800003</ele>
        <time>2011-09-07T16:01:31Z</time>
      </trkpt>
    </trkseg>
  </trk>
</gpx>